<?xml version="1.0" encoding="UTF-8" standalone="no" ?>
<gpx xmlns="http://www.topografix.com/GPX/1/1" xmlns:xsi="http://www.w3.org/2001/XMLSchema-instance" xsi:schemaLocation="http://www.topografix.com/GPX/1/1 http://www.topografix.com/GPX/1/1/gpx.xsd" version="1.1" creator="VisuGPX - https://www.visugpx.com">
  <metadata>
    <name>Course à pied le midi</name>
  </metadata>
  <trk>
    <name><![CDATA[Course à pied le midi_1]]></name>
    <trkseg>
      <trkpt lat="43.64772" lon="1.37619">
        <ele>145</ele>
        <time>2024-03-10T10:28:29Z</time>
      </trkpt>
      <trkpt lat="43.64774" lon="1.37618">
        <ele>145</ele>
        <time>2024-03-10T10:28:30Z</time>
      </trkpt>
      <trkpt lat="43.64776" lon="1.37616">
        <ele>144</ele>
        <time>2024-03-10T10:28:31Z</time>
      </trkpt>
      <trkpt lat="43.64778" lon="1.37615">
        <ele>144</ele>
        <time>2024-03-10T10:28:32Z</time>
      </trkpt>
      <trkpt lat="43.64779" lon="1.37615">
        <ele>144</ele>
        <time>2024-03-10T10:28:33Z</time>
      </trkpt>
      <trkpt lat="43.6478" lon="1.37614">
        <ele>144</ele>
        <time>2024-03-10T10:28:34Z</time>
      </trkpt>
      <trkpt lat="43.64781" lon="1.37614">
        <ele>144</ele>
        <time>2024-03-10T10:28:35Z</time>
      </trkpt>
      <trkpt lat="43.64782" lon="1.37613">
        <ele>144</ele>
        <time>2024-03-10T10:28:36Z</time>
      </trkpt>
      <trkpt lat="43.64783" lon="1.37613">
        <ele>144</ele>
        <time>2024-03-10T10:28:37Z</time>
      </trkpt>
      <trkpt lat="43.6479" lon="1.37609">
        <ele>144</ele>
        <time>2024-03-10T10:28:38Z</time>
      </trkpt>
      <trkpt lat="43.64792" lon="1.37607">
        <ele>144</ele>
        <time>2024-03-10T10:28:39Z</time>
      </trkpt>
      <trkpt lat="43.64795" lon="1.37606">
        <ele>144</ele>
        <time>2024-03-10T10:28:40Z</time>
      </trkpt>
      <trkpt lat="43.64797" lon="1.37605">
        <ele>144</ele>
        <time>2024-03-10T10:28:41Z</time>
      </trkpt>
      <trkpt lat="43.64798" lon="1.37605">
        <ele>144</ele>
        <time>2024-03-10T10:28:42Z</time>
      </trkpt>
      <trkpt lat="43.64799" lon="1.37605">
        <ele>143</ele>
        <time>2024-03-10T10:28:43Z</time>
      </trkpt>
      <trkpt lat="43.648" lon="1.37604">
        <ele>143</ele>
        <time>2024-03-10T10:28:44Z</time>
      </trkpt>
      <trkpt lat="43.64801" lon="1.37604">
        <ele>144</ele>
        <time>2024-03-10T10:28:45Z</time>
      </trkpt>
      <trkpt lat="43.64802" lon="1.37604">
        <ele>144</ele>
        <time>2024-03-10T10:28:46Z</time>
      </trkpt>
      <trkpt lat="43.6481" lon="1.37603">
        <ele>144</ele>
        <time>2024-03-10T10:28:47Z</time>
      </trkpt>
      <trkpt lat="43.64811" lon="1.37604">
        <ele>144</ele>
        <time>2024-03-10T10:28:48Z</time>
      </trkpt>
      <trkpt lat="43.64813" lon="1.37605">
        <ele>144</ele>
        <time>2024-03-10T10:28:49Z</time>
      </trkpt>
      <trkpt lat="43.64815" lon="1.37606">
        <ele>144</ele>
        <time>2024-03-10T10:28:50Z</time>
      </trkpt>
      <trkpt lat="43.64817" lon="1.37607">
        <ele>144</ele>
        <time>2024-03-10T10:28:51Z</time>
      </trkpt>
      <trkpt lat="43.64818" lon="1.37608">
        <ele>144</ele>
        <time>2024-03-10T10:28:52Z</time>
      </trkpt>
      <trkpt lat="43.64819" lon="1.37608">
        <ele>144</ele>
        <time>2024-03-10T10:28:53Z</time>
      </trkpt>
      <trkpt lat="43.6482" lon="1.37609">
        <ele>144</ele>
        <time>2024-03-10T10:28:54Z</time>
      </trkpt>
      <trkpt lat="43.64821" lon="1.3761">
        <ele>144</ele>
        <time>2024-03-10T10:28:55Z</time>
      </trkpt>
      <trkpt lat="43.64821" lon="1.37611">
        <ele>144</ele>
        <time>2024-03-10T10:28:56Z</time>
      </trkpt>
      <trkpt lat="43.64828" lon="1.37616">
        <ele>144</ele>
        <time>2024-03-10T10:28:57Z</time>
      </trkpt>
      <trkpt lat="43.64831" lon="1.37618">
        <ele>144</ele>
        <time>2024-03-10T10:28:58Z</time>
      </trkpt>
      <trkpt lat="43.64833" lon="1.3762">
        <ele>144</ele>
        <time>2024-03-10T10:28:59Z</time>
      </trkpt>
      <trkpt lat="43.64835" lon="1.37622">
        <ele>144</ele>
        <time>2024-03-10T10:29:00Z</time>
      </trkpt>
      <trkpt lat="43.64836" lon="1.37623">
        <ele>144</ele>
        <time>2024-03-10T10:29:01Z</time>
      </trkpt>
      <trkpt lat="43.64837" lon="1.37624">
        <ele>145</ele>
        <time>2024-03-10T10:29:02Z</time>
      </trkpt>
      <trkpt lat="43.64838" lon="1.37624">
        <ele>145</ele>
        <time>2024-03-10T10:29:03Z</time>
      </trkpt>
      <trkpt lat="43.64839" lon="1.37625">
        <ele>145</ele>
        <time>2024-03-10T10:29:04Z</time>
      </trkpt>
      <trkpt lat="43.6484" lon="1.37626">
        <ele>145</ele>
        <time>2024-03-10T10:29:05Z</time>
      </trkpt>
      <trkpt lat="43.64847" lon="1.37632">
        <ele>145</ele>
        <time>2024-03-10T10:29:06Z</time>
      </trkpt>
      <trkpt lat="43.64849" lon="1.37633">
        <ele>145</ele>
        <time>2024-03-10T10:29:07Z</time>
      </trkpt>
      <trkpt lat="43.64851" lon="1.37635">
        <ele>145</ele>
        <time>2024-03-10T10:29:08Z</time>
      </trkpt>
      <trkpt lat="43.64853" lon="1.37637">
        <ele>145</ele>
        <time>2024-03-10T10:29:09Z</time>
      </trkpt>
      <trkpt lat="43.64855" lon="1.37638">
        <ele>145</ele>
        <time>2024-03-10T10:29:10Z</time>
      </trkpt>
      <trkpt lat="43.64857" lon="1.37639">
        <ele>145</ele>
        <time>2024-03-10T10:29:11Z</time>
      </trkpt>
      <trkpt lat="43.6486" lon="1.3764">
        <ele>145</ele>
        <time>2024-03-10T10:29:12Z</time>
      </trkpt>
      <trkpt lat="43.64862" lon="1.37641">
        <ele>145</ele>
        <time>2024-03-10T10:29:13Z</time>
      </trkpt>
      <trkpt lat="43.64864" lon="1.37642">
        <ele>145</ele>
        <time>2024-03-10T10:29:14Z</time>
      </trkpt>
      <trkpt lat="43.64866" lon="1.37643">
        <ele>145</ele>
        <time>2024-03-10T10:29:15Z</time>
      </trkpt>
      <trkpt lat="43.64868" lon="1.37645">
        <ele>144</ele>
        <time>2024-03-10T10:29:16Z</time>
      </trkpt>
      <trkpt lat="43.6487" lon="1.37646">
        <ele>144</ele>
        <time>2024-03-10T10:29:17Z</time>
      </trkpt>
      <trkpt lat="43.64871" lon="1.37647">
        <ele>144</ele>
        <time>2024-03-10T10:29:18Z</time>
      </trkpt>
      <trkpt lat="43.64872" lon="1.37649">
        <ele>144</ele>
        <time>2024-03-10T10:29:19Z</time>
      </trkpt>
      <trkpt lat="43.64873" lon="1.3765">
        <ele>144</ele>
        <time>2024-03-10T10:29:20Z</time>
      </trkpt>
      <trkpt lat="43.64874" lon="1.37651">
        <ele>144</ele>
        <time>2024-03-10T10:29:21Z</time>
      </trkpt>
      <trkpt lat="43.64879" lon="1.3766">
        <ele>144</ele>
        <time>2024-03-10T10:29:22Z</time>
      </trkpt>
      <trkpt lat="43.64879" lon="1.37663">
        <ele>144</ele>
        <time>2024-03-10T10:29:23Z</time>
      </trkpt>
      <trkpt lat="43.6488" lon="1.37667">
        <ele>144</ele>
        <time>2024-03-10T10:29:24Z</time>
      </trkpt>
      <trkpt lat="43.6488" lon="1.3767">
        <ele>144</ele>
        <time>2024-03-10T10:29:25Z</time>
      </trkpt>
      <trkpt lat="43.64881" lon="1.37673">
        <ele>144</ele>
        <time>2024-03-10T10:29:26Z</time>
      </trkpt>
      <trkpt lat="43.64882" lon="1.37676">
        <ele>144</ele>
        <time>2024-03-10T10:29:27Z</time>
      </trkpt>
      <trkpt lat="43.64882" lon="1.37679">
        <ele>144</ele>
        <time>2024-03-10T10:29:28Z</time>
      </trkpt>
      <trkpt lat="43.64883" lon="1.37682">
        <ele>144</ele>
        <time>2024-03-10T10:29:29Z</time>
      </trkpt>
      <trkpt lat="43.64884" lon="1.37686">
        <ele>144</ele>
        <time>2024-03-10T10:29:30Z</time>
      </trkpt>
      <trkpt lat="43.64885" lon="1.3769">
        <ele>144</ele>
        <time>2024-03-10T10:29:31Z</time>
      </trkpt>
      <trkpt lat="43.64886" lon="1.37693">
        <ele>144</ele>
        <time>2024-03-10T10:29:32Z</time>
      </trkpt>
      <trkpt lat="43.64887" lon="1.37697">
        <ele>144</ele>
        <time>2024-03-10T10:29:33Z</time>
      </trkpt>
      <trkpt lat="43.64887" lon="1.377">
        <ele>144</ele>
        <time>2024-03-10T10:29:34Z</time>
      </trkpt>
      <trkpt lat="43.64888" lon="1.37703">
        <ele>144</ele>
        <time>2024-03-10T10:29:35Z</time>
      </trkpt>
      <trkpt lat="43.64889" lon="1.37706">
        <ele>144</ele>
        <time>2024-03-10T10:29:36Z</time>
      </trkpt>
      <trkpt lat="43.6489" lon="1.37709">
        <ele>144</ele>
        <time>2024-03-10T10:29:37Z</time>
      </trkpt>
      <trkpt lat="43.6489" lon="1.37712">
        <ele>144</ele>
        <time>2024-03-10T10:29:38Z</time>
      </trkpt>
      <trkpt lat="43.64891" lon="1.37715">
        <ele>144</ele>
        <time>2024-03-10T10:29:39Z</time>
      </trkpt>
      <trkpt lat="43.64892" lon="1.37718">
        <ele>144</ele>
        <time>2024-03-10T10:29:40Z</time>
      </trkpt>
      <trkpt lat="43.64892" lon="1.37721">
        <ele>144</ele>
        <time>2024-03-10T10:29:41Z</time>
      </trkpt>
      <trkpt lat="43.64892" lon="1.37722">
        <ele>144</ele>
        <time>2024-03-10T10:29:42Z</time>
      </trkpt>
      <trkpt lat="43.64893" lon="1.37724">
        <ele>144</ele>
        <time>2024-03-10T10:29:43Z</time>
      </trkpt>
      <trkpt lat="43.64893" lon="1.37725">
        <ele>144</ele>
        <time>2024-03-10T10:29:44Z</time>
      </trkpt>
      <trkpt lat="43.64893" lon="1.37727">
        <ele>144</ele>
        <time>2024-03-10T10:29:45Z</time>
      </trkpt>
      <trkpt lat="43.64894" lon="1.37728">
        <ele>144</ele>
        <time>2024-03-10T10:29:46Z</time>
      </trkpt>
      <trkpt lat="43.64896" lon="1.3774">
        <ele>144</ele>
        <time>2024-03-10T10:29:47Z</time>
      </trkpt>
      <trkpt lat="43.64897" lon="1.37744">
        <ele>144</ele>
        <time>2024-03-10T10:29:48Z</time>
      </trkpt>
      <trkpt lat="43.64898" lon="1.37748">
        <ele>144</ele>
        <time>2024-03-10T10:29:49Z</time>
      </trkpt>
      <trkpt lat="43.64899" lon="1.37751">
        <ele>144</ele>
        <time>2024-03-10T10:29:50Z</time>
      </trkpt>
      <trkpt lat="43.649" lon="1.37754">
        <ele>144</ele>
        <time>2024-03-10T10:29:51Z</time>
      </trkpt>
      <trkpt lat="43.64901" lon="1.37757">
        <ele>144</ele>
        <time>2024-03-10T10:29:52Z</time>
      </trkpt>
      <trkpt lat="43.64902" lon="1.3776">
        <ele>144</ele>
        <time>2024-03-10T10:29:53Z</time>
      </trkpt>
      <trkpt lat="43.64903" lon="1.37763">
        <ele>144</ele>
        <time>2024-03-10T10:29:54Z</time>
      </trkpt>
      <trkpt lat="43.64904" lon="1.37767">
        <ele>144</ele>
        <time>2024-03-10T10:29:55Z</time>
      </trkpt>
      <trkpt lat="43.64904" lon="1.3777">
        <ele>144</ele>
        <time>2024-03-10T10:29:56Z</time>
      </trkpt>
      <trkpt lat="43.64905" lon="1.37773">
        <ele>144</ele>
        <time>2024-03-10T10:29:57Z</time>
      </trkpt>
      <trkpt lat="43.64905" lon="1.37776">
        <ele>144</ele>
        <time>2024-03-10T10:29:58Z</time>
      </trkpt>
      <trkpt lat="43.64906" lon="1.3778">
        <ele>144</ele>
        <time>2024-03-10T10:29:59Z</time>
      </trkpt>
      <trkpt lat="43.64906" lon="1.37783">
        <ele>144</ele>
        <time>2024-03-10T10:30:00Z</time>
      </trkpt>
      <trkpt lat="43.64906" lon="1.37786">
        <ele>144</ele>
        <time>2024-03-10T10:30:01Z</time>
      </trkpt>
      <trkpt lat="43.64908" lon="1.37789">
        <ele>144</ele>
        <time>2024-03-10T10:30:02Z</time>
      </trkpt>
      <trkpt lat="43.64909" lon="1.37792">
        <ele>144</ele>
        <time>2024-03-10T10:30:03Z</time>
      </trkpt>
      <trkpt lat="43.6491" lon="1.37795">
        <ele>144</ele>
        <time>2024-03-10T10:30:04Z</time>
      </trkpt>
      <trkpt lat="43.64911" lon="1.37798">
        <ele>144</ele>
        <time>2024-03-10T10:30:05Z</time>
      </trkpt>
      <trkpt lat="43.64911" lon="1.37801">
        <ele>144</ele>
        <time>2024-03-10T10:30:06Z</time>
      </trkpt>
      <trkpt lat="43.64912" lon="1.37805">
        <ele>144</ele>
        <time>2024-03-10T10:30:07Z</time>
      </trkpt>
      <trkpt lat="43.64913" lon="1.37808">
        <ele>144</ele>
        <time>2024-03-10T10:30:08Z</time>
      </trkpt>
      <trkpt lat="43.64913" lon="1.37811">
        <ele>144</ele>
        <time>2024-03-10T10:30:09Z</time>
      </trkpt>
      <trkpt lat="43.64914" lon="1.37814">
        <ele>144</ele>
        <time>2024-03-10T10:30:10Z</time>
      </trkpt>
      <trkpt lat="43.64915" lon="1.37817">
        <ele>144</ele>
        <time>2024-03-10T10:30:11Z</time>
      </trkpt>
      <trkpt lat="43.64916" lon="1.3782">
        <ele>144</ele>
        <time>2024-03-10T10:30:12Z</time>
      </trkpt>
      <trkpt lat="43.64917" lon="1.37823">
        <ele>144</ele>
        <time>2024-03-10T10:30:13Z</time>
      </trkpt>
      <trkpt lat="43.64918" lon="1.37827">
        <ele>144</ele>
        <time>2024-03-10T10:30:14Z</time>
      </trkpt>
      <trkpt lat="43.64918" lon="1.3783">
        <ele>144</ele>
        <time>2024-03-10T10:30:15Z</time>
      </trkpt>
      <trkpt lat="43.64919" lon="1.37833">
        <ele>144</ele>
        <time>2024-03-10T10:30:16Z</time>
      </trkpt>
      <trkpt lat="43.64919" lon="1.37837">
        <ele>144</ele>
        <time>2024-03-10T10:30:17Z</time>
      </trkpt>
      <trkpt lat="43.6492" lon="1.3784">
        <ele>144</ele>
        <time>2024-03-10T10:30:18Z</time>
      </trkpt>
      <trkpt lat="43.64921" lon="1.37843">
        <ele>144</ele>
        <time>2024-03-10T10:30:19Z</time>
      </trkpt>
      <trkpt lat="43.64922" lon="1.37846">
        <ele>144</ele>
        <time>2024-03-10T10:30:20Z</time>
      </trkpt>
      <trkpt lat="43.64923" lon="1.3785">
        <ele>144</ele>
        <time>2024-03-10T10:30:21Z</time>
      </trkpt>
      <trkpt lat="43.64924" lon="1.37853">
        <ele>144</ele>
        <time>2024-03-10T10:30:22Z</time>
      </trkpt>
      <trkpt lat="43.64924" lon="1.37856">
        <ele>144</ele>
        <time>2024-03-10T10:30:23Z</time>
      </trkpt>
      <trkpt lat="43.64925" lon="1.37859">
        <ele>144</ele>
        <time>2024-03-10T10:30:24Z</time>
      </trkpt>
      <trkpt lat="43.64926" lon="1.37862">
        <ele>144</ele>
        <time>2024-03-10T10:30:25Z</time>
      </trkpt>
      <trkpt lat="43.64927" lon="1.37865">
        <ele>144</ele>
        <time>2024-03-10T10:30:26Z</time>
      </trkpt>
      <trkpt lat="43.64928" lon="1.37868">
        <ele>144</ele>
        <time>2024-03-10T10:30:27Z</time>
      </trkpt>
      <trkpt lat="43.64929" lon="1.37871">
        <ele>144</ele>
        <time>2024-03-10T10:30:28Z</time>
      </trkpt>
      <trkpt lat="43.6493" lon="1.37874">
        <ele>144</ele>
        <time>2024-03-10T10:30:29Z</time>
      </trkpt>
      <trkpt lat="43.6493" lon="1.37875">
        <ele>144</ele>
        <time>2024-03-10T10:30:30Z</time>
      </trkpt>
      <trkpt lat="43.6493" lon="1.37877">
        <ele>144</ele>
        <time>2024-03-10T10:30:31Z</time>
      </trkpt>
      <trkpt lat="43.64931" lon="1.37878">
        <ele>144</ele>
        <time>2024-03-10T10:30:32Z</time>
      </trkpt>
      <trkpt lat="43.64931" lon="1.3788">
        <ele>143</ele>
        <time>2024-03-10T10:30:33Z</time>
      </trkpt>
      <trkpt lat="43.64931" lon="1.37881">
        <ele>143</ele>
        <time>2024-03-10T10:30:34Z</time>
      </trkpt>
      <trkpt lat="43.64934" lon="1.37892">
        <ele>143</ele>
        <time>2024-03-10T10:30:35Z</time>
      </trkpt>
      <trkpt lat="43.64935" lon="1.37896">
        <ele>143</ele>
        <time>2024-03-10T10:30:36Z</time>
      </trkpt>
      <trkpt lat="43.64936" lon="1.37899">
        <ele>143</ele>
        <time>2024-03-10T10:30:37Z</time>
      </trkpt>
      <trkpt lat="43.64936" lon="1.37902">
        <ele>143</ele>
        <time>2024-03-10T10:30:38Z</time>
      </trkpt>
      <trkpt lat="43.64937" lon="1.37906">
        <ele>143</ele>
        <time>2024-03-10T10:30:39Z</time>
      </trkpt>
      <trkpt lat="43.64938" lon="1.37909">
        <ele>143</ele>
        <time>2024-03-10T10:30:40Z</time>
      </trkpt>
      <trkpt lat="43.64939" lon="1.37912">
        <ele>143</ele>
        <time>2024-03-10T10:30:41Z</time>
      </trkpt>
      <trkpt lat="43.64939" lon="1.37916">
        <ele>143</ele>
        <time>2024-03-10T10:30:42Z</time>
      </trkpt>
      <trkpt lat="43.6494" lon="1.37919">
        <ele>143</ele>
        <time>2024-03-10T10:30:43Z</time>
      </trkpt>
      <trkpt lat="43.64941" lon="1.37922">
        <ele>143</ele>
        <time>2024-03-10T10:30:44Z</time>
      </trkpt>
      <trkpt lat="43.64942" lon="1.37925">
        <ele>143</ele>
        <time>2024-03-10T10:30:45Z</time>
      </trkpt>
      <trkpt lat="43.64944" lon="1.37928">
        <ele>143</ele>
        <time>2024-03-10T10:30:46Z</time>
      </trkpt>
      <trkpt lat="43.64944" lon="1.37931">
        <ele>143</ele>
        <time>2024-03-10T10:30:47Z</time>
      </trkpt>
      <trkpt lat="43.64945" lon="1.37935">
        <ele>143</ele>
        <time>2024-03-10T10:30:48Z</time>
      </trkpt>
      <trkpt lat="43.64946" lon="1.37938">
        <ele>143</ele>
        <time>2024-03-10T10:30:49Z</time>
      </trkpt>
      <trkpt lat="43.64946" lon="1.37941">
        <ele>143</ele>
        <time>2024-03-10T10:30:50Z</time>
      </trkpt>
      <trkpt lat="43.64947" lon="1.37943">
        <ele>143</ele>
        <time>2024-03-10T10:30:51Z</time>
      </trkpt>
      <trkpt lat="43.64947" lon="1.37944">
        <ele>143</ele>
        <time>2024-03-10T10:30:52Z</time>
      </trkpt>
      <trkpt lat="43.64947" lon="1.37946">
        <ele>143</ele>
        <time>2024-03-10T10:30:53Z</time>
      </trkpt>
      <trkpt lat="43.64947" lon="1.37947">
        <ele>143</ele>
        <time>2024-03-10T10:30:54Z</time>
      </trkpt>
      <trkpt lat="43.64948" lon="1.37949">
        <ele>143</ele>
        <time>2024-03-10T10:30:55Z</time>
      </trkpt>
      <trkpt lat="43.64949" lon="1.3796">
        <ele>143</ele>
        <time>2024-03-10T10:30:56Z</time>
      </trkpt>
      <trkpt lat="43.6495" lon="1.37964">
        <ele>143</ele>
        <time>2024-03-10T10:30:57Z</time>
      </trkpt>
      <trkpt lat="43.6495" lon="1.37968">
        <ele>143</ele>
        <time>2024-03-10T10:30:58Z</time>
      </trkpt>
      <trkpt lat="43.64951" lon="1.37972">
        <ele>143</ele>
        <time>2024-03-10T10:30:59Z</time>
      </trkpt>
      <trkpt lat="43.64951" lon="1.37974">
        <ele>143</ele>
        <time>2024-03-10T10:31:00Z</time>
      </trkpt>
      <trkpt lat="43.64951" lon="1.37975">
        <ele>143</ele>
        <time>2024-03-10T10:31:01Z</time>
      </trkpt>
      <trkpt lat="43.64952" lon="1.37977">
        <ele>143</ele>
        <time>2024-03-10T10:31:02Z</time>
      </trkpt>
      <trkpt lat="43.64952" lon="1.37979">
        <ele>143</ele>
        <time>2024-03-10T10:31:03Z</time>
      </trkpt>
      <trkpt lat="43.64955" lon="1.37988">
        <ele>143</ele>
        <time>2024-03-10T10:31:04Z</time>
      </trkpt>
      <trkpt lat="43.64956" lon="1.37991">
        <ele>143</ele>
        <time>2024-03-10T10:31:05Z</time>
      </trkpt>
      <trkpt lat="43.64958" lon="1.37994">
        <ele>143</ele>
        <time>2024-03-10T10:31:06Z</time>
      </trkpt>
      <trkpt lat="43.64959" lon="1.37997">
        <ele>143</ele>
        <time>2024-03-10T10:31:07Z</time>
      </trkpt>
      <trkpt lat="43.6496" lon="1.37998">
        <ele>143</ele>
        <time>2024-03-10T10:31:08Z</time>
      </trkpt>
      <trkpt lat="43.6496" lon="1.37999">
        <ele>143</ele>
        <time>2024-03-10T10:31:09Z</time>
      </trkpt>
      <trkpt lat="43.6496" lon="1.38001">
        <ele>143</ele>
        <time>2024-03-10T10:31:10Z</time>
      </trkpt>
      <trkpt lat="43.64961" lon="1.38002">
        <ele>143</ele>
        <time>2024-03-10T10:31:11Z</time>
      </trkpt>
      <trkpt lat="43.64961" lon="1.38004">
        <ele>143</ele>
        <time>2024-03-10T10:31:12Z</time>
      </trkpt>
      <trkpt lat="43.64964" lon="1.38014">
        <ele>143</ele>
        <time>2024-03-10T10:31:13Z</time>
      </trkpt>
      <trkpt lat="43.64965" lon="1.38017">
        <ele>143</ele>
        <time>2024-03-10T10:31:14Z</time>
      </trkpt>
      <trkpt lat="43.64966" lon="1.38021">
        <ele>143</ele>
        <time>2024-03-10T10:31:15Z</time>
      </trkpt>
      <trkpt lat="43.64968" lon="1.38024">
        <ele>144</ele>
        <time>2024-03-10T10:31:16Z</time>
      </trkpt>
      <trkpt lat="43.64968" lon="1.38026">
        <ele>144</ele>
        <time>2024-03-10T10:31:17Z</time>
      </trkpt>
      <trkpt lat="43.64969" lon="1.38027">
        <ele>144</ele>
        <time>2024-03-10T10:31:18Z</time>
      </trkpt>
      <trkpt lat="43.64969" lon="1.38029">
        <ele>144</ele>
        <time>2024-03-10T10:31:19Z</time>
      </trkpt>
      <trkpt lat="43.6497" lon="1.3803">
        <ele>144</ele>
        <time>2024-03-10T10:31:20Z</time>
      </trkpt>
      <trkpt lat="43.64973" lon="1.3804">
        <ele>144</ele>
        <time>2024-03-10T10:31:21Z</time>
      </trkpt>
      <trkpt lat="43.64974" lon="1.38043">
        <ele>144</ele>
        <time>2024-03-10T10:31:22Z</time>
      </trkpt>
      <trkpt lat="43.64974" lon="1.38046">
        <ele>144</ele>
        <time>2024-03-10T10:31:23Z</time>
      </trkpt>
      <trkpt lat="43.64975" lon="1.38049">
        <ele>144</ele>
        <time>2024-03-10T10:31:24Z</time>
      </trkpt>
      <trkpt lat="43.64976" lon="1.38051">
        <ele>144</ele>
        <time>2024-03-10T10:31:25Z</time>
      </trkpt>
      <trkpt lat="43.64977" lon="1.38052">
        <ele>144</ele>
        <time>2024-03-10T10:31:26Z</time>
      </trkpt>
      <trkpt lat="43.64977" lon="1.38054">
        <ele>144</ele>
        <time>2024-03-10T10:31:27Z</time>
      </trkpt>
      <trkpt lat="43.64978" lon="1.38055">
        <ele>144</ele>
        <time>2024-03-10T10:31:28Z</time>
      </trkpt>
      <trkpt lat="43.64982" lon="1.38064">
        <ele>144</ele>
        <time>2024-03-10T10:31:29Z</time>
      </trkpt>
      <trkpt lat="43.64984" lon="1.38067">
        <ele>144</ele>
        <time>2024-03-10T10:31:30Z</time>
      </trkpt>
      <trkpt lat="43.64985" lon="1.3807">
        <ele>144</ele>
        <time>2024-03-10T10:31:31Z</time>
      </trkpt>
      <trkpt lat="43.64986" lon="1.38073">
        <ele>144</ele>
        <time>2024-03-10T10:31:32Z</time>
      </trkpt>
      <trkpt lat="43.64987" lon="1.38076">
        <ele>144</ele>
        <time>2024-03-10T10:31:33Z</time>
      </trkpt>
      <trkpt lat="43.64988" lon="1.38079">
        <ele>144</ele>
        <time>2024-03-10T10:31:34Z</time>
      </trkpt>
      <trkpt lat="43.64989" lon="1.38082">
        <ele>144</ele>
        <time>2024-03-10T10:31:35Z</time>
      </trkpt>
      <trkpt lat="43.6499" lon="1.38085">
        <ele>144</ele>
        <time>2024-03-10T10:31:36Z</time>
      </trkpt>
      <trkpt lat="43.64991" lon="1.38088">
        <ele>144</ele>
        <time>2024-03-10T10:31:37Z</time>
      </trkpt>
      <trkpt lat="43.64991" lon="1.38091">
        <ele>144</ele>
        <time>2024-03-10T10:31:38Z</time>
      </trkpt>
      <trkpt lat="43.64991" lon="1.38094">
        <ele>144</ele>
        <time>2024-03-10T10:31:39Z</time>
      </trkpt>
      <trkpt lat="43.64992" lon="1.38098">
        <ele>144</ele>
        <time>2024-03-10T10:31:40Z</time>
      </trkpt>
      <trkpt lat="43.64993" lon="1.38101">
        <ele>144</ele>
        <time>2024-03-10T10:31:41Z</time>
      </trkpt>
      <trkpt lat="43.64993" lon="1.38104">
        <ele>144</ele>
        <time>2024-03-10T10:31:42Z</time>
      </trkpt>
      <trkpt lat="43.64994" lon="1.38107">
        <ele>144</ele>
        <time>2024-03-10T10:31:43Z</time>
      </trkpt>
      <trkpt lat="43.64995" lon="1.3811">
        <ele>144</ele>
        <time>2024-03-10T10:31:44Z</time>
      </trkpt>
      <trkpt lat="43.64996" lon="1.38112">
        <ele>144</ele>
        <time>2024-03-10T10:31:45Z</time>
      </trkpt>
      <trkpt lat="43.64997" lon="1.38113">
        <ele>144</ele>
        <time>2024-03-10T10:31:46Z</time>
      </trkpt>
      <trkpt lat="43.64997" lon="1.38115">
        <ele>144</ele>
        <time>2024-03-10T10:31:47Z</time>
      </trkpt>
      <trkpt lat="43.64998" lon="1.38117">
        <ele>144</ele>
        <time>2024-03-10T10:31:48Z</time>
      </trkpt>
      <trkpt lat="43.65002" lon="1.38127">
        <ele>144</ele>
        <time>2024-03-10T10:31:49Z</time>
      </trkpt>
      <trkpt lat="43.65002" lon="1.38131">
        <ele>144</ele>
        <time>2024-03-10T10:31:50Z</time>
      </trkpt>
      <trkpt lat="43.65003" lon="1.38135">
        <ele>145</ele>
        <time>2024-03-10T10:31:51Z</time>
      </trkpt>
      <trkpt lat="43.65003" lon="1.38138">
        <ele>145</ele>
        <time>2024-03-10T10:31:52Z</time>
      </trkpt>
      <trkpt lat="43.65003" lon="1.38142">
        <ele>144</ele>
        <time>2024-03-10T10:31:53Z</time>
      </trkpt>
      <trkpt lat="43.65003" lon="1.38145">
        <ele>144</ele>
        <time>2024-03-10T10:31:54Z</time>
      </trkpt>
      <trkpt lat="43.65003" lon="1.38148">
        <ele>144</ele>
        <time>2024-03-10T10:31:55Z</time>
      </trkpt>
      <trkpt lat="43.65002" lon="1.38152">
        <ele>145</ele>
        <time>2024-03-10T10:31:56Z</time>
      </trkpt>
      <trkpt lat="43.65001" lon="1.38155">
        <ele>145</ele>
        <time>2024-03-10T10:31:57Z</time>
      </trkpt>
      <trkpt lat="43.65" lon="1.38158">
        <ele>145</ele>
        <time>2024-03-10T10:31:58Z</time>
      </trkpt>
      <trkpt lat="43.64999" lon="1.38161">
        <ele>145</ele>
        <time>2024-03-10T10:31:59Z</time>
      </trkpt>
      <trkpt lat="43.64998" lon="1.38164">
        <ele>145</ele>
        <time>2024-03-10T10:32:00Z</time>
      </trkpt>
      <trkpt lat="43.64998" lon="1.38166">
        <ele>145</ele>
        <time>2024-03-10T10:32:01Z</time>
      </trkpt>
      <trkpt lat="43.64998" lon="1.38169">
        <ele>145</ele>
        <time>2024-03-10T10:32:02Z</time>
      </trkpt>
      <trkpt lat="43.64997" lon="1.38172">
        <ele>145</ele>
        <time>2024-03-10T10:32:03Z</time>
      </trkpt>
      <trkpt lat="43.64997" lon="1.38175">
        <ele>145</ele>
        <time>2024-03-10T10:32:04Z</time>
      </trkpt>
      <trkpt lat="43.64997" lon="1.38177">
        <ele>145</ele>
        <time>2024-03-10T10:32:05Z</time>
      </trkpt>
      <trkpt lat="43.64998" lon="1.3818">
        <ele>145</ele>
        <time>2024-03-10T10:32:06Z</time>
      </trkpt>
      <trkpt lat="43.64999" lon="1.38182">
        <ele>145</ele>
        <time>2024-03-10T10:32:07Z</time>
      </trkpt>
      <trkpt lat="43.65" lon="1.38185">
        <ele>145</ele>
        <time>2024-03-10T10:32:08Z</time>
      </trkpt>
      <trkpt lat="43.65001" lon="1.38187">
        <ele>145</ele>
        <time>2024-03-10T10:32:09Z</time>
      </trkpt>
      <trkpt lat="43.65003" lon="1.3819">
        <ele>145</ele>
        <time>2024-03-10T10:32:10Z</time>
      </trkpt>
      <trkpt lat="43.65004" lon="1.38192">
        <ele>145</ele>
        <time>2024-03-10T10:32:11Z</time>
      </trkpt>
      <trkpt lat="43.65006" lon="1.38194">
        <ele>145</ele>
        <time>2024-03-10T10:32:12Z</time>
      </trkpt>
      <trkpt lat="43.65008" lon="1.38197">
        <ele>145</ele>
        <time>2024-03-10T10:32:13Z</time>
      </trkpt>
      <trkpt lat="43.6501" lon="1.38199">
        <ele>145</ele>
        <time>2024-03-10T10:32:14Z</time>
      </trkpt>
      <trkpt lat="43.65011" lon="1.38201">
        <ele>145</ele>
        <time>2024-03-10T10:32:15Z</time>
      </trkpt>
      <trkpt lat="43.65011" lon="1.38203">
        <ele>145</ele>
        <time>2024-03-10T10:32:16Z</time>
      </trkpt>
      <trkpt lat="43.65012" lon="1.38204">
        <ele>145</ele>
        <time>2024-03-10T10:32:17Z</time>
      </trkpt>
      <trkpt lat="43.65013" lon="1.38206">
        <ele>145</ele>
        <time>2024-03-10T10:32:18Z</time>
      </trkpt>
      <trkpt lat="43.65016" lon="1.38216">
        <ele>145</ele>
        <time>2024-03-10T10:32:19Z</time>
      </trkpt>
      <trkpt lat="43.65017" lon="1.3822">
        <ele>144</ele>
        <time>2024-03-10T10:32:20Z</time>
      </trkpt>
      <trkpt lat="43.65018" lon="1.38224">
        <ele>144</ele>
        <time>2024-03-10T10:32:21Z</time>
      </trkpt>
      <trkpt lat="43.65019" lon="1.38227">
        <ele>144</ele>
        <time>2024-03-10T10:32:22Z</time>
      </trkpt>
      <trkpt lat="43.65019" lon="1.3823">
        <ele>144</ele>
        <time>2024-03-10T10:32:23Z</time>
      </trkpt>
      <trkpt lat="43.6502" lon="1.38234">
        <ele>144</ele>
        <time>2024-03-10T10:32:24Z</time>
      </trkpt>
      <trkpt lat="43.65021" lon="1.38237">
        <ele>144</ele>
        <time>2024-03-10T10:32:25Z</time>
      </trkpt>
      <trkpt lat="43.65022" lon="1.3824">
        <ele>144</ele>
        <time>2024-03-10T10:32:26Z</time>
      </trkpt>
      <trkpt lat="43.65023" lon="1.38243">
        <ele>144</ele>
        <time>2024-03-10T10:32:27Z</time>
      </trkpt>
      <trkpt lat="43.65023" lon="1.38246">
        <ele>144</ele>
        <time>2024-03-10T10:32:28Z</time>
      </trkpt>
      <trkpt lat="43.65024" lon="1.38249">
        <ele>144</ele>
        <time>2024-03-10T10:32:29Z</time>
      </trkpt>
      <trkpt lat="43.65024" lon="1.38252">
        <ele>145</ele>
        <time>2024-03-10T10:32:30Z</time>
      </trkpt>
      <trkpt lat="43.65025" lon="1.38255">
        <ele>145</ele>
        <time>2024-03-10T10:32:31Z</time>
      </trkpt>
      <trkpt lat="43.65026" lon="1.38257">
        <ele>145</ele>
        <time>2024-03-10T10:32:32Z</time>
      </trkpt>
      <trkpt lat="43.65027" lon="1.38259">
        <ele>145</ele>
        <time>2024-03-10T10:32:33Z</time>
      </trkpt>
      <trkpt lat="43.65027" lon="1.38262">
        <ele>145</ele>
        <time>2024-03-10T10:32:34Z</time>
      </trkpt>
      <trkpt lat="43.65028" lon="1.38264">
        <ele>145</ele>
        <time>2024-03-10T10:32:35Z</time>
      </trkpt>
      <trkpt lat="43.65029" lon="1.38267">
        <ele>145</ele>
        <time>2024-03-10T10:32:36Z</time>
      </trkpt>
      <trkpt lat="43.6503" lon="1.38269">
        <ele>145</ele>
        <time>2024-03-10T10:32:37Z</time>
      </trkpt>
      <trkpt lat="43.65031" lon="1.38273">
        <ele>145</ele>
        <time>2024-03-10T10:32:38Z</time>
      </trkpt>
      <trkpt lat="43.65033" lon="1.38277">
        <ele>145</ele>
        <time>2024-03-10T10:32:39Z</time>
      </trkpt>
      <trkpt lat="43.65035" lon="1.38282">
        <ele>145</ele>
        <time>2024-03-10T10:32:40Z</time>
      </trkpt>
      <trkpt lat="43.65036" lon="1.38285">
        <ele>144</ele>
        <time>2024-03-10T10:32:41Z</time>
      </trkpt>
      <trkpt lat="43.65037" lon="1.38288">
        <ele>144</ele>
        <time>2024-03-10T10:32:42Z</time>
      </trkpt>
      <trkpt lat="43.65037" lon="1.38291">
        <ele>144</ele>
        <time>2024-03-10T10:32:43Z</time>
      </trkpt>
      <trkpt lat="43.65038" lon="1.38294">
        <ele>144</ele>
        <time>2024-03-10T10:32:44Z</time>
      </trkpt>
      <trkpt lat="43.65039" lon="1.38297">
        <ele>144</ele>
        <time>2024-03-10T10:32:45Z</time>
      </trkpt>
      <trkpt lat="43.6504" lon="1.383">
        <ele>144</ele>
        <time>2024-03-10T10:32:46Z</time>
      </trkpt>
      <trkpt lat="43.65041" lon="1.38303">
        <ele>144</ele>
        <time>2024-03-10T10:32:47Z</time>
      </trkpt>
      <trkpt lat="43.65041" lon="1.38306">
        <ele>144</ele>
        <time>2024-03-10T10:32:48Z</time>
      </trkpt>
      <trkpt lat="43.65042" lon="1.38309">
        <ele>144</ele>
        <time>2024-03-10T10:32:49Z</time>
      </trkpt>
      <trkpt lat="43.65043" lon="1.38313">
        <ele>144</ele>
        <time>2024-03-10T10:32:50Z</time>
      </trkpt>
      <trkpt lat="43.65044" lon="1.38316">
        <ele>144</ele>
        <time>2024-03-10T10:32:51Z</time>
      </trkpt>
      <trkpt lat="43.65044" lon="1.38319">
        <ele>144</ele>
        <time>2024-03-10T10:32:52Z</time>
      </trkpt>
      <trkpt lat="43.65045" lon="1.38322">
        <ele>144</ele>
        <time>2024-03-10T10:32:53Z</time>
      </trkpt>
      <trkpt lat="43.65046" lon="1.38325">
        <ele>145</ele>
        <time>2024-03-10T10:32:54Z</time>
      </trkpt>
      <trkpt lat="43.65047" lon="1.38328">
        <ele>145</ele>
        <time>2024-03-10T10:32:55Z</time>
      </trkpt>
      <trkpt lat="43.65048" lon="1.38332">
        <ele>145</ele>
        <time>2024-03-10T10:32:56Z</time>
      </trkpt>
      <trkpt lat="43.65049" lon="1.38333">
        <ele>145</ele>
        <time>2024-03-10T10:32:57Z</time>
      </trkpt>
      <trkpt lat="43.65049" lon="1.38335">
        <ele>145</ele>
        <time>2024-03-10T10:32:58Z</time>
      </trkpt>
      <trkpt lat="43.6505" lon="1.38336">
        <ele>145</ele>
        <time>2024-03-10T10:32:59Z</time>
      </trkpt>
      <trkpt lat="43.65051" lon="1.38338">
        <ele>145</ele>
        <time>2024-03-10T10:33:00Z</time>
      </trkpt>
      <trkpt lat="43.65054" lon="1.38348">
        <ele>145</ele>
        <time>2024-03-10T10:33:01Z</time>
      </trkpt>
      <trkpt lat="43.65055" lon="1.38351">
        <ele>145</ele>
        <time>2024-03-10T10:33:02Z</time>
      </trkpt>
      <trkpt lat="43.65055" lon="1.38354">
        <ele>145</ele>
        <time>2024-03-10T10:33:03Z</time>
      </trkpt>
      <trkpt lat="43.65056" lon="1.38357">
        <ele>145</ele>
        <time>2024-03-10T10:33:04Z</time>
      </trkpt>
      <trkpt lat="43.65057" lon="1.3836">
        <ele>145</ele>
        <time>2024-03-10T10:33:05Z</time>
      </trkpt>
      <trkpt lat="43.65058" lon="1.38363">
        <ele>145</ele>
        <time>2024-03-10T10:33:06Z</time>
      </trkpt>
      <trkpt lat="43.65059" lon="1.38365">
        <ele>145</ele>
        <time>2024-03-10T10:33:07Z</time>
      </trkpt>
      <trkpt lat="43.6506" lon="1.38366">
        <ele>145</ele>
        <time>2024-03-10T10:33:08Z</time>
      </trkpt>
      <trkpt lat="43.6506" lon="1.38368">
        <ele>145</ele>
        <time>2024-03-10T10:33:09Z</time>
      </trkpt>
      <trkpt lat="43.65061" lon="1.3837">
        <ele>145</ele>
        <time>2024-03-10T10:33:10Z</time>
      </trkpt>
      <trkpt lat="43.65064" lon="1.38379">
        <ele>145</ele>
        <time>2024-03-10T10:33:11Z</time>
      </trkpt>
      <trkpt lat="43.65065" lon="1.38383">
        <ele>145</ele>
        <time>2024-03-10T10:33:12Z</time>
      </trkpt>
      <trkpt lat="43.65066" lon="1.38386">
        <ele>145</ele>
        <time>2024-03-10T10:33:13Z</time>
      </trkpt>
      <trkpt lat="43.65067" lon="1.38389">
        <ele>145</ele>
        <time>2024-03-10T10:33:14Z</time>
      </trkpt>
      <trkpt lat="43.65068" lon="1.38395">
        <ele>145</ele>
        <time>2024-03-10T10:33:15Z</time>
      </trkpt>
      <trkpt lat="43.65069" lon="1.38398">
        <ele>144</ele>
        <time>2024-03-10T10:33:16Z</time>
      </trkpt>
      <trkpt lat="43.65069" lon="1.38398">
        <ele>144</ele>
        <time>2024-03-10T10:33:17Z</time>
      </trkpt>
      <trkpt lat="43.65071" lon="1.38405">
        <ele>144</ele>
        <time>2024-03-10T10:33:18Z</time>
      </trkpt>
      <trkpt lat="43.65072" lon="1.38408">
        <ele>144</ele>
        <time>2024-03-10T10:33:19Z</time>
      </trkpt>
      <trkpt lat="43.65072" lon="1.38408">
        <ele>144</ele>
        <time>2024-03-10T10:33:20Z</time>
      </trkpt>
      <trkpt lat="43.65073" lon="1.38411">
        <ele>144</ele>
        <time>2024-03-10T10:33:21Z</time>
      </trkpt>
      <trkpt lat="43.65073" lon="1.38415">
        <ele>144</ele>
        <time>2024-03-10T10:33:22Z</time>
      </trkpt>
      <trkpt lat="43.65074" lon="1.38418">
        <ele>144</ele>
        <time>2024-03-10T10:33:23Z</time>
      </trkpt>
      <trkpt lat="43.65075" lon="1.38421">
        <ele>145</ele>
        <time>2024-03-10T10:33:24Z</time>
      </trkpt>
      <trkpt lat="43.65076" lon="1.38424">
        <ele>145</ele>
        <time>2024-03-10T10:33:25Z</time>
      </trkpt>
      <trkpt lat="43.65077" lon="1.38428">
        <ele>145</ele>
        <time>2024-03-10T10:33:26Z</time>
      </trkpt>
      <trkpt lat="43.65078" lon="1.38431">
        <ele>145</ele>
        <time>2024-03-10T10:33:27Z</time>
      </trkpt>
      <trkpt lat="43.65079" lon="1.38434">
        <ele>145</ele>
        <time>2024-03-10T10:33:28Z</time>
      </trkpt>
      <trkpt lat="43.6508" lon="1.38437">
        <ele>145</ele>
        <time>2024-03-10T10:33:29Z</time>
      </trkpt>
      <trkpt lat="43.65081" lon="1.3844">
        <ele>145</ele>
        <time>2024-03-10T10:33:30Z</time>
      </trkpt>
      <trkpt lat="43.65082" lon="1.38443">
        <ele>144</ele>
        <time>2024-03-10T10:33:31Z</time>
      </trkpt>
      <trkpt lat="43.65083" lon="1.38446">
        <ele>144</ele>
        <time>2024-03-10T10:33:32Z</time>
      </trkpt>
      <trkpt lat="43.65084" lon="1.38449">
        <ele>144</ele>
        <time>2024-03-10T10:33:33Z</time>
      </trkpt>
      <trkpt lat="43.65086" lon="1.38452">
        <ele>144</ele>
        <time>2024-03-10T10:33:34Z</time>
      </trkpt>
      <trkpt lat="43.65087" lon="1.38455">
        <ele>144</ele>
        <time>2024-03-10T10:33:35Z</time>
      </trkpt>
      <trkpt lat="43.65088" lon="1.38458">
        <ele>144</ele>
        <time>2024-03-10T10:33:36Z</time>
      </trkpt>
      <trkpt lat="43.65089" lon="1.38461">
        <ele>144</ele>
        <time>2024-03-10T10:33:37Z</time>
      </trkpt>
      <trkpt lat="43.6509" lon="1.38464">
        <ele>144</ele>
        <time>2024-03-10T10:33:38Z</time>
      </trkpt>
      <trkpt lat="43.65091" lon="1.38467">
        <ele>144</ele>
        <time>2024-03-10T10:33:39Z</time>
      </trkpt>
      <trkpt lat="43.65093" lon="1.3847">
        <ele>144</ele>
        <time>2024-03-10T10:33:40Z</time>
      </trkpt>
      <trkpt lat="43.65094" lon="1.38473">
        <ele>144</ele>
        <time>2024-03-10T10:33:41Z</time>
      </trkpt>
      <trkpt lat="43.65095" lon="1.38476">
        <ele>144</ele>
        <time>2024-03-10T10:33:42Z</time>
      </trkpt>
      <trkpt lat="43.65096" lon="1.3848">
        <ele>144</ele>
        <time>2024-03-10T10:33:43Z</time>
      </trkpt>
      <trkpt lat="43.65097" lon="1.38483">
        <ele>144</ele>
        <time>2024-03-10T10:33:44Z</time>
      </trkpt>
      <trkpt lat="43.65098" lon="1.38486">
        <ele>144</ele>
        <time>2024-03-10T10:33:45Z</time>
      </trkpt>
      <trkpt lat="43.65099" lon="1.38489">
        <ele>144</ele>
        <time>2024-03-10T10:33:46Z</time>
      </trkpt>
      <trkpt lat="43.651" lon="1.38492">
        <ele>144</ele>
        <time>2024-03-10T10:33:47Z</time>
      </trkpt>
      <trkpt lat="43.651" lon="1.38495">
        <ele>144</ele>
        <time>2024-03-10T10:33:48Z</time>
      </trkpt>
      <trkpt lat="43.65101" lon="1.38499">
        <ele>144</ele>
        <time>2024-03-10T10:33:49Z</time>
      </trkpt>
      <trkpt lat="43.65102" lon="1.38502">
        <ele>144</ele>
        <time>2024-03-10T10:33:50Z</time>
      </trkpt>
      <trkpt lat="43.65102" lon="1.38505">
        <ele>144</ele>
        <time>2024-03-10T10:33:51Z</time>
      </trkpt>
      <trkpt lat="43.65102" lon="1.38509">
        <ele>144</ele>
        <time>2024-03-10T10:33:52Z</time>
      </trkpt>
      <trkpt lat="43.65101" lon="1.38512">
        <ele>144</ele>
        <time>2024-03-10T10:33:53Z</time>
      </trkpt>
      <trkpt lat="43.65101" lon="1.38515">
        <ele>144</ele>
        <time>2024-03-10T10:33:54Z</time>
      </trkpt>
      <trkpt lat="43.65101" lon="1.38519">
        <ele>144</ele>
        <time>2024-03-10T10:33:55Z</time>
      </trkpt>
      <trkpt lat="43.651" lon="1.38521">
        <ele>144</ele>
        <time>2024-03-10T10:33:56Z</time>
      </trkpt>
      <trkpt lat="43.651" lon="1.38522">
        <ele>144</ele>
        <time>2024-03-10T10:33:57Z</time>
      </trkpt>
      <trkpt lat="43.651" lon="1.38524">
        <ele>144</ele>
        <time>2024-03-10T10:33:58Z</time>
      </trkpt>
      <trkpt lat="43.651" lon="1.38526">
        <ele>144</ele>
        <time>2024-03-10T10:33:59Z</time>
      </trkpt>
      <trkpt lat="43.65099" lon="1.38537">
        <ele>144</ele>
        <time>2024-03-10T10:34:00Z</time>
      </trkpt>
      <trkpt lat="43.65098" lon="1.38541">
        <ele>144</ele>
        <time>2024-03-10T10:34:01Z</time>
      </trkpt>
      <trkpt lat="43.65098" lon="1.38544">
        <ele>144</ele>
        <time>2024-03-10T10:34:02Z</time>
      </trkpt>
      <trkpt lat="43.65098" lon="1.38547">
        <ele>145</ele>
        <time>2024-03-10T10:34:03Z</time>
      </trkpt>
      <trkpt lat="43.65097" lon="1.38548">
        <ele>145</ele>
        <time>2024-03-10T10:34:04Z</time>
      </trkpt>
      <trkpt lat="43.65096" lon="1.38549">
        <ele>144</ele>
        <time>2024-03-10T10:34:05Z</time>
      </trkpt>
      <trkpt lat="43.65095" lon="1.3855">
        <ele>144</ele>
        <time>2024-03-10T10:34:06Z</time>
      </trkpt>
      <trkpt lat="43.65095" lon="1.3855">
        <ele>143</ele>
        <time>2024-03-10T10:34:07Z</time>
      </trkpt>
      <trkpt lat="43.65094" lon="1.38551">
        <ele>143</ele>
        <time>2024-03-10T10:34:08Z</time>
      </trkpt>
      <trkpt lat="43.65093" lon="1.38552">
        <ele>143</ele>
        <time>2024-03-10T10:34:09Z</time>
      </trkpt>
      <trkpt lat="43.65085" lon="1.38558">
        <ele>143</ele>
        <time>2024-03-10T10:34:10Z</time>
      </trkpt>
      <trkpt lat="43.65082" lon="1.38559">
        <ele>143</ele>
        <time>2024-03-10T10:34:11Z</time>
      </trkpt>
      <trkpt lat="43.65079" lon="1.38561">
        <ele>143</ele>
        <time>2024-03-10T10:34:12Z</time>
      </trkpt>
      <trkpt lat="43.65076" lon="1.38562">
        <ele>144</ele>
        <time>2024-03-10T10:34:13Z</time>
      </trkpt>
      <trkpt lat="43.65074" lon="1.38563">
        <ele>144</ele>
        <time>2024-03-10T10:34:14Z</time>
      </trkpt>
      <trkpt lat="43.65071" lon="1.38565">
        <ele>143</ele>
        <time>2024-03-10T10:34:15Z</time>
      </trkpt>
      <trkpt lat="43.65069" lon="1.38566">
        <ele>143</ele>
        <time>2024-03-10T10:34:16Z</time>
      </trkpt>
      <trkpt lat="43.65068" lon="1.38567">
        <ele>143</ele>
        <time>2024-03-10T10:34:17Z</time>
      </trkpt>
      <trkpt lat="43.65067" lon="1.38567">
        <ele>143</ele>
        <time>2024-03-10T10:34:18Z</time>
      </trkpt>
      <trkpt lat="43.65066" lon="1.38568">
        <ele>144</ele>
        <time>2024-03-10T10:34:19Z</time>
      </trkpt>
      <trkpt lat="43.65065" lon="1.38569">
        <ele>144</ele>
        <time>2024-03-10T10:34:20Z</time>
      </trkpt>
      <trkpt lat="43.65064" lon="1.38569">
        <ele>143</ele>
        <time>2024-03-10T10:34:21Z</time>
      </trkpt>
      <trkpt lat="43.65057" lon="1.38574">
        <ele>143</ele>
        <time>2024-03-10T10:34:22Z</time>
      </trkpt>
      <trkpt lat="43.65055" lon="1.38575">
        <ele>143</ele>
        <time>2024-03-10T10:34:23Z</time>
      </trkpt>
      <trkpt lat="43.65053" lon="1.38576">
        <ele>144</ele>
        <time>2024-03-10T10:34:24Z</time>
      </trkpt>
      <trkpt lat="43.6505" lon="1.38578">
        <ele>144</ele>
        <time>2024-03-10T10:34:25Z</time>
      </trkpt>
      <trkpt lat="43.65048" lon="1.38579">
        <ele>144</ele>
        <time>2024-03-10T10:34:26Z</time>
      </trkpt>
      <trkpt lat="43.65046" lon="1.3858">
        <ele>144</ele>
        <time>2024-03-10T10:34:27Z</time>
      </trkpt>
      <trkpt lat="43.65044" lon="1.38581">
        <ele>144</ele>
        <time>2024-03-10T10:34:28Z</time>
      </trkpt>
      <trkpt lat="43.65041" lon="1.38582">
        <ele>144</ele>
        <time>2024-03-10T10:34:29Z</time>
      </trkpt>
      <trkpt lat="43.65039" lon="1.38584">
        <ele>144</ele>
        <time>2024-03-10T10:34:30Z</time>
      </trkpt>
      <trkpt lat="43.65037" lon="1.38585">
        <ele>144</ele>
        <time>2024-03-10T10:34:31Z</time>
      </trkpt>
      <trkpt lat="43.65035" lon="1.38587">
        <ele>145</ele>
        <time>2024-03-10T10:34:32Z</time>
      </trkpt>
      <trkpt lat="43.65033" lon="1.38588">
        <ele>145</ele>
        <time>2024-03-10T10:34:33Z</time>
      </trkpt>
      <trkpt lat="43.6503" lon="1.3859">
        <ele>144</ele>
        <time>2024-03-10T10:34:34Z</time>
      </trkpt>
      <trkpt lat="43.65026" lon="1.38593">
        <ele>144</ele>
        <time>2024-03-10T10:34:35Z</time>
      </trkpt>
      <trkpt lat="43.65026" lon="1.38593">
        <ele>144</ele>
        <time>2024-03-10T10:34:36Z</time>
      </trkpt>
      <trkpt lat="43.65021" lon="1.38595">
        <ele>144</ele>
        <time>2024-03-10T10:34:37Z</time>
      </trkpt>
      <trkpt lat="43.65021" lon="1.38595">
        <ele>144</ele>
        <time>2024-03-10T10:34:38Z</time>
      </trkpt>
      <trkpt lat="43.65017" lon="1.38597">
        <ele>144</ele>
        <time>2024-03-10T10:34:39Z</time>
      </trkpt>
      <trkpt lat="43.65017" lon="1.38597">
        <ele>144</ele>
        <time>2024-03-10T10:34:40Z</time>
      </trkpt>
      <trkpt lat="43.65015" lon="1.38598">
        <ele>144</ele>
        <time>2024-03-10T10:34:41Z</time>
      </trkpt>
      <trkpt lat="43.65013" lon="1.386">
        <ele>144</ele>
        <time>2024-03-10T10:34:42Z</time>
      </trkpt>
      <trkpt lat="43.65008" lon="1.38603">
        <ele>145</ele>
        <time>2024-03-10T10:34:43Z</time>
      </trkpt>
      <trkpt lat="43.65006" lon="1.38604">
        <ele>145</ele>
        <time>2024-03-10T10:34:44Z</time>
      </trkpt>
      <trkpt lat="43.65004" lon="1.38606">
        <ele>144</ele>
        <time>2024-03-10T10:34:45Z</time>
      </trkpt>
      <trkpt lat="43.65004" lon="1.38606">
        <ele>144</ele>
        <time>2024-03-10T10:34:46Z</time>
      </trkpt>
      <trkpt lat="43.65001" lon="1.38607">
        <ele>144</ele>
        <time>2024-03-10T10:34:47Z</time>
      </trkpt>
      <trkpt lat="43.64999" lon="1.38609">
        <ele>144</ele>
        <time>2024-03-10T10:34:48Z</time>
      </trkpt>
      <trkpt lat="43.64996" lon="1.3861">
        <ele>144</ele>
        <time>2024-03-10T10:34:49Z</time>
      </trkpt>
      <trkpt lat="43.64994" lon="1.38612">
        <ele>144</ele>
        <time>2024-03-10T10:34:50Z</time>
      </trkpt>
      <trkpt lat="43.64992" lon="1.38614">
        <ele>144</ele>
        <time>2024-03-10T10:34:51Z</time>
      </trkpt>
      <trkpt lat="43.64987" lon="1.38617">
        <ele>144</ele>
        <time>2024-03-10T10:34:52Z</time>
      </trkpt>
      <trkpt lat="43.64987" lon="1.38617">
        <ele>144</ele>
        <time>2024-03-10T10:34:53Z</time>
      </trkpt>
      <trkpt lat="43.64984" lon="1.38618">
        <ele>144</ele>
        <time>2024-03-10T10:34:54Z</time>
      </trkpt>
      <trkpt lat="43.64982" lon="1.38619">
        <ele>145</ele>
        <time>2024-03-10T10:34:55Z</time>
      </trkpt>
      <trkpt lat="43.64977" lon="1.38622">
        <ele>145</ele>
        <time>2024-03-10T10:34:56Z</time>
      </trkpt>
      <trkpt lat="43.64977" lon="1.38622">
        <ele>145</ele>
        <time>2024-03-10T10:34:57Z</time>
      </trkpt>
      <trkpt lat="43.64975" lon="1.38623">
        <ele>145</ele>
        <time>2024-03-10T10:34:58Z</time>
      </trkpt>
      <trkpt lat="43.64972" lon="1.38624">
        <ele>145</ele>
        <time>2024-03-10T10:34:59Z</time>
      </trkpt>
      <trkpt lat="43.6497" lon="1.38626">
        <ele>145</ele>
        <time>2024-03-10T10:35:00Z</time>
      </trkpt>
      <trkpt lat="43.64968" lon="1.38628">
        <ele>145</ele>
        <time>2024-03-10T10:35:01Z</time>
      </trkpt>
      <trkpt lat="43.64963" lon="1.38631">
        <ele>145</ele>
        <time>2024-03-10T10:35:02Z</time>
      </trkpt>
      <trkpt lat="43.6496" lon="1.38632">
        <ele>144</ele>
        <time>2024-03-10T10:35:03Z</time>
      </trkpt>
      <trkpt lat="43.6496" lon="1.38632">
        <ele>144</ele>
        <time>2024-03-10T10:35:04Z</time>
      </trkpt>
      <trkpt lat="43.64958" lon="1.38634">
        <ele>144</ele>
        <time>2024-03-10T10:35:05Z</time>
      </trkpt>
      <trkpt lat="43.64955" lon="1.38635">
        <ele>145</ele>
        <time>2024-03-10T10:35:06Z</time>
      </trkpt>
      <trkpt lat="43.64953" lon="1.38636">
        <ele>145</ele>
        <time>2024-03-10T10:35:07Z</time>
      </trkpt>
      <trkpt lat="43.64951" lon="1.38638">
        <ele>145</ele>
        <time>2024-03-10T10:35:08Z</time>
      </trkpt>
      <trkpt lat="43.64948" lon="1.38639">
        <ele>145</ele>
        <time>2024-03-10T10:35:09Z</time>
      </trkpt>
      <trkpt lat="43.64946" lon="1.3864">
        <ele>145</ele>
        <time>2024-03-10T10:35:10Z</time>
      </trkpt>
      <trkpt lat="43.64943" lon="1.38642">
        <ele>145</ele>
        <time>2024-03-10T10:35:11Z</time>
      </trkpt>
      <trkpt lat="43.64943" lon="1.38642">
        <ele>145</ele>
        <time>2024-03-10T10:35:12Z</time>
      </trkpt>
      <trkpt lat="43.64938" lon="1.38645">
        <ele>145</ele>
        <time>2024-03-10T10:35:13Z</time>
      </trkpt>
      <trkpt lat="43.64936" lon="1.38647">
        <ele>145</ele>
        <time>2024-03-10T10:35:14Z</time>
      </trkpt>
      <trkpt lat="43.64934" lon="1.38648">
        <ele>145</ele>
        <time>2024-03-10T10:35:15Z</time>
      </trkpt>
      <trkpt lat="43.64931" lon="1.38649">
        <ele>145</ele>
        <time>2024-03-10T10:35:16Z</time>
      </trkpt>
      <trkpt lat="43.64931" lon="1.38649">
        <ele>145</ele>
        <time>2024-03-10T10:35:17Z</time>
      </trkpt>
      <trkpt lat="43.64929" lon="1.38651">
        <ele>145</ele>
        <time>2024-03-10T10:35:18Z</time>
      </trkpt>
      <trkpt lat="43.64925" lon="1.38653">
        <ele>145</ele>
        <time>2024-03-10T10:35:19Z</time>
      </trkpt>
      <trkpt lat="43.64925" lon="1.38653">
        <ele>145</ele>
        <time>2024-03-10T10:35:20Z</time>
      </trkpt>
      <trkpt lat="43.6492" lon="1.38656">
        <ele>145</ele>
        <time>2024-03-10T10:35:21Z</time>
      </trkpt>
      <trkpt lat="43.6492" lon="1.38656">
        <ele>145</ele>
        <time>2024-03-10T10:35:22Z</time>
      </trkpt>
      <trkpt lat="43.64918" lon="1.38658">
        <ele>145</ele>
        <time>2024-03-10T10:35:23Z</time>
      </trkpt>
      <trkpt lat="43.64913" lon="1.38661">
        <ele>145</ele>
        <time>2024-03-10T10:35:24Z</time>
      </trkpt>
      <trkpt lat="43.64911" lon="1.38661">
        <ele>145</ele>
        <time>2024-03-10T10:35:25Z</time>
      </trkpt>
      <trkpt lat="43.64909" lon="1.38662">
        <ele>145</ele>
        <time>2024-03-10T10:35:26Z</time>
      </trkpt>
      <trkpt lat="43.64907" lon="1.38664">
        <ele>145</ele>
        <time>2024-03-10T10:35:27Z</time>
      </trkpt>
      <trkpt lat="43.64907" lon="1.38664">
        <ele>145</ele>
        <time>2024-03-10T10:35:28Z</time>
      </trkpt>
      <trkpt lat="43.64905" lon="1.38666">
        <ele>145</ele>
        <time>2024-03-10T10:35:29Z</time>
      </trkpt>
      <trkpt lat="43.64902" lon="1.38667">
        <ele>145</ele>
        <time>2024-03-10T10:35:30Z</time>
      </trkpt>
      <trkpt lat="43.649" lon="1.38669">
        <ele>145</ele>
        <time>2024-03-10T10:35:31Z</time>
      </trkpt>
      <trkpt lat="43.64897" lon="1.3867">
        <ele>145</ele>
        <time>2024-03-10T10:35:32Z</time>
      </trkpt>
      <trkpt lat="43.64892" lon="1.38672">
        <ele>145</ele>
        <time>2024-03-10T10:35:33Z</time>
      </trkpt>
      <trkpt lat="43.6489" lon="1.38674">
        <ele>145</ele>
        <time>2024-03-10T10:35:34Z</time>
      </trkpt>
      <trkpt lat="43.64888" lon="1.38675">
        <ele>145</ele>
        <time>2024-03-10T10:35:35Z</time>
      </trkpt>
      <trkpt lat="43.64888" lon="1.38675">
        <ele>145</ele>
        <time>2024-03-10T10:35:36Z</time>
      </trkpt>
      <trkpt lat="43.64883" lon="1.38677">
        <ele>145</ele>
        <time>2024-03-10T10:35:37Z</time>
      </trkpt>
      <trkpt lat="43.64881" lon="1.38678">
        <ele>145</ele>
        <time>2024-03-10T10:35:38Z</time>
      </trkpt>
      <trkpt lat="43.64881" lon="1.38678">
        <ele>145</ele>
        <time>2024-03-10T10:35:39Z</time>
      </trkpt>
      <trkpt lat="43.64876" lon="1.3868">
        <ele>145</ele>
        <time>2024-03-10T10:35:40Z</time>
      </trkpt>
      <trkpt lat="43.64876" lon="1.3868">
        <ele>145</ele>
        <time>2024-03-10T10:35:41Z</time>
      </trkpt>
      <trkpt lat="43.64874" lon="1.38681">
        <ele>145</ele>
        <time>2024-03-10T10:35:42Z</time>
      </trkpt>
      <trkpt lat="43.64872" lon="1.38682">
        <ele>145</ele>
        <time>2024-03-10T10:35:43Z</time>
      </trkpt>
      <trkpt lat="43.64868" lon="1.38685">
        <ele>145</ele>
        <time>2024-03-10T10:35:44Z</time>
      </trkpt>
      <trkpt lat="43.64868" lon="1.38685">
        <ele>145</ele>
        <time>2024-03-10T10:35:45Z</time>
      </trkpt>
      <trkpt lat="43.64866" lon="1.38686">
        <ele>145</ele>
        <time>2024-03-10T10:35:46Z</time>
      </trkpt>
      <trkpt lat="43.64861" lon="1.38689">
        <ele>145</ele>
        <time>2024-03-10T10:35:47Z</time>
      </trkpt>
      <trkpt lat="43.64861" lon="1.38689">
        <ele>145</ele>
        <time>2024-03-10T10:35:48Z</time>
      </trkpt>
      <trkpt lat="43.64858" lon="1.38691">
        <ele>145</ele>
        <time>2024-03-10T10:35:49Z</time>
      </trkpt>
      <trkpt lat="43.64856" lon="1.38693">
        <ele>145</ele>
        <time>2024-03-10T10:35:50Z</time>
      </trkpt>
      <trkpt lat="43.64851" lon="1.38698">
        <ele>145</ele>
        <time>2024-03-10T10:35:51Z</time>
      </trkpt>
      <trkpt lat="43.64849" lon="1.387">
        <ele>145</ele>
        <time>2024-03-10T10:35:52Z</time>
      </trkpt>
      <trkpt lat="43.64849" lon="1.387">
        <ele>145</ele>
        <time>2024-03-10T10:35:53Z</time>
      </trkpt>
      <trkpt lat="43.64844" lon="1.38704">
        <ele>145</ele>
        <time>2024-03-10T10:35:54Z</time>
      </trkpt>
      <trkpt lat="43.64844" lon="1.38704">
        <ele>145</ele>
        <time>2024-03-10T10:35:55Z</time>
      </trkpt>
      <trkpt lat="43.64842" lon="1.38706">
        <ele>145</ele>
        <time>2024-03-10T10:35:56Z</time>
      </trkpt>
      <trkpt lat="43.64839" lon="1.38709">
        <ele>145</ele>
        <time>2024-03-10T10:35:57Z</time>
      </trkpt>
      <trkpt lat="43.64836" lon="1.38711">
        <ele>145</ele>
        <time>2024-03-10T10:35:58Z</time>
      </trkpt>
      <trkpt lat="43.64834" lon="1.38712">
        <ele>145</ele>
        <time>2024-03-10T10:35:59Z</time>
      </trkpt>
      <trkpt lat="43.64831" lon="1.38714">
        <ele>145</ele>
        <time>2024-03-10T10:36:00Z</time>
      </trkpt>
      <trkpt lat="43.64827" lon="1.38717">
        <ele>145</ele>
        <time>2024-03-10T10:36:01Z</time>
      </trkpt>
      <trkpt lat="43.64825" lon="1.38719">
        <ele>145</ele>
        <time>2024-03-10T10:36:02Z</time>
      </trkpt>
      <trkpt lat="43.64825" lon="1.38719">
        <ele>145</ele>
        <time>2024-03-10T10:36:03Z</time>
      </trkpt>
      <trkpt lat="43.64823" lon="1.38721">
        <ele>145</ele>
        <time>2024-03-10T10:36:04Z</time>
      </trkpt>
      <trkpt lat="43.6482" lon="1.38722">
        <ele>145</ele>
        <time>2024-03-10T10:36:05Z</time>
      </trkpt>
      <trkpt lat="43.64818" lon="1.38724">
        <ele>145</ele>
        <time>2024-03-10T10:36:06Z</time>
      </trkpt>
      <trkpt lat="43.64816" lon="1.38726">
        <ele>145</ele>
        <time>2024-03-10T10:36:07Z</time>
      </trkpt>
      <trkpt lat="43.64811" lon="1.3873">
        <ele>145</ele>
        <time>2024-03-10T10:36:08Z</time>
      </trkpt>
      <trkpt lat="43.64809" lon="1.38731">
        <ele>145</ele>
        <time>2024-03-10T10:36:09Z</time>
      </trkpt>
      <trkpt lat="43.64809" lon="1.38731">
        <ele>145</ele>
        <time>2024-03-10T10:36:10Z</time>
      </trkpt>
      <trkpt lat="43.64807" lon="1.38733">
        <ele>145</ele>
        <time>2024-03-10T10:36:11Z</time>
      </trkpt>
      <trkpt lat="43.64805" lon="1.38734">
        <ele>145</ele>
        <time>2024-03-10T10:36:12Z</time>
      </trkpt>
      <trkpt lat="43.64803" lon="1.38735">
        <ele>145</ele>
        <time>2024-03-10T10:36:13Z</time>
      </trkpt>
      <trkpt lat="43.648" lon="1.38737">
        <ele>145</ele>
        <time>2024-03-10T10:36:14Z</time>
      </trkpt>
      <trkpt lat="43.64798" lon="1.38738">
        <ele>145</ele>
        <time>2024-03-10T10:36:15Z</time>
      </trkpt>
      <trkpt lat="43.64796" lon="1.3874">
        <ele>145</ele>
        <time>2024-03-10T10:36:16Z</time>
      </trkpt>
      <trkpt lat="43.64791" lon="1.38743">
        <ele>145</ele>
        <time>2024-03-10T10:36:17Z</time>
      </trkpt>
      <trkpt lat="43.64791" lon="1.38743">
        <ele>145</ele>
        <time>2024-03-10T10:36:18Z</time>
      </trkpt>
      <trkpt lat="43.64789" lon="1.38745">
        <ele>145</ele>
        <time>2024-03-10T10:36:19Z</time>
      </trkpt>
      <trkpt lat="43.64787" lon="1.38747">
        <ele>145</ele>
        <time>2024-03-10T10:36:20Z</time>
      </trkpt>
      <trkpt lat="43.64782" lon="1.38751">
        <ele>145</ele>
        <time>2024-03-10T10:36:21Z</time>
      </trkpt>
      <trkpt lat="43.64779" lon="1.38753">
        <ele>145</ele>
        <time>2024-03-10T10:36:22Z</time>
      </trkpt>
      <trkpt lat="43.64777" lon="1.38754">
        <ele>145</ele>
        <time>2024-03-10T10:36:23Z</time>
      </trkpt>
      <trkpt lat="43.64774" lon="1.38756">
        <ele>145</ele>
        <time>2024-03-10T10:36:24Z</time>
      </trkpt>
      <trkpt lat="43.64774" lon="1.38756">
        <ele>145</ele>
        <time>2024-03-10T10:36:25Z</time>
      </trkpt>
      <trkpt lat="43.64772" lon="1.38758">
        <ele>145</ele>
        <time>2024-03-10T10:36:26Z</time>
      </trkpt>
      <trkpt lat="43.6477" lon="1.38759">
        <ele>145</ele>
        <time>2024-03-10T10:36:27Z</time>
      </trkpt>
      <trkpt lat="43.64765" lon="1.38762">
        <ele>145</ele>
        <time>2024-03-10T10:36:28Z</time>
      </trkpt>
      <trkpt lat="43.64765" lon="1.38762">
        <ele>145</ele>
        <time>2024-03-10T10:36:29Z</time>
      </trkpt>
      <trkpt lat="43.64763" lon="1.38764">
        <ele>145</ele>
        <time>2024-03-10T10:36:30Z</time>
      </trkpt>
      <trkpt lat="43.64762" lon="1.38765">
        <ele>145</ele>
        <time>2024-03-10T10:36:31Z</time>
      </trkpt>
      <trkpt lat="43.6476" lon="1.38767">
        <ele>145</ele>
        <time>2024-03-10T10:36:32Z</time>
      </trkpt>
      <trkpt lat="43.64758" lon="1.38768">
        <ele>145</ele>
        <time>2024-03-10T10:36:33Z</time>
      </trkpt>
      <trkpt lat="43.64756" lon="1.3877">
        <ele>145</ele>
        <time>2024-03-10T10:36:34Z</time>
      </trkpt>
      <trkpt lat="43.64753" lon="1.38771">
        <ele>145</ele>
        <time>2024-03-10T10:36:35Z</time>
      </trkpt>
      <trkpt lat="43.64751" lon="1.38773">
        <ele>145</ele>
        <time>2024-03-10T10:36:36Z</time>
      </trkpt>
      <trkpt lat="43.64746" lon="1.38777">
        <ele>145</ele>
        <time>2024-03-10T10:36:37Z</time>
      </trkpt>
      <trkpt lat="43.64746" lon="1.38777">
        <ele>145</ele>
        <time>2024-03-10T10:36:38Z</time>
      </trkpt>
      <trkpt lat="43.64742" lon="1.38781">
        <ele>144</ele>
        <time>2024-03-10T10:36:39Z</time>
      </trkpt>
      <trkpt lat="43.64742" lon="1.38781">
        <ele>144</ele>
        <time>2024-03-10T10:36:40Z</time>
      </trkpt>
      <trkpt lat="43.6474" lon="1.38783">
        <ele>144</ele>
        <time>2024-03-10T10:36:41Z</time>
      </trkpt>
      <trkpt lat="43.64734" lon="1.38787">
        <ele>144</ele>
        <time>2024-03-10T10:36:42Z</time>
      </trkpt>
      <trkpt lat="43.64732" lon="1.38788">
        <ele>145</ele>
        <time>2024-03-10T10:36:43Z</time>
      </trkpt>
      <trkpt lat="43.64732" lon="1.38788">
        <ele>145</ele>
        <time>2024-03-10T10:36:44Z</time>
      </trkpt>
      <trkpt lat="43.6473" lon="1.3879">
        <ele>145</ele>
        <time>2024-03-10T10:36:45Z</time>
      </trkpt>
      <trkpt lat="43.64728" lon="1.38792">
        <ele>145</ele>
        <time>2024-03-10T10:36:46Z</time>
      </trkpt>
      <trkpt lat="43.64723" lon="1.38795">
        <ele>145</ele>
        <time>2024-03-10T10:36:47Z</time>
      </trkpt>
      <trkpt lat="43.64721" lon="1.38796">
        <ele>146</ele>
        <time>2024-03-10T10:36:48Z</time>
      </trkpt>
      <trkpt lat="43.64721" lon="1.38796">
        <ele>146</ele>
        <time>2024-03-10T10:36:49Z</time>
      </trkpt>
      <trkpt lat="43.64716" lon="1.38799">
        <ele>145</ele>
        <time>2024-03-10T10:36:50Z</time>
      </trkpt>
      <trkpt lat="43.64716" lon="1.38799">
        <ele>145</ele>
        <time>2024-03-10T10:36:51Z</time>
      </trkpt>
      <trkpt lat="43.64713" lon="1.388">
        <ele>145</ele>
        <time>2024-03-10T10:36:52Z</time>
      </trkpt>
      <trkpt lat="43.64711" lon="1.38802">
        <ele>145</ele>
        <time>2024-03-10T10:36:53Z</time>
      </trkpt>
      <trkpt lat="43.64709" lon="1.38803">
        <ele>145</ele>
        <time>2024-03-10T10:36:54Z</time>
      </trkpt>
      <trkpt lat="43.64706" lon="1.38804">
        <ele>145</ele>
        <time>2024-03-10T10:36:55Z</time>
      </trkpt>
      <trkpt lat="43.64701" lon="1.38806">
        <ele>145</ele>
        <time>2024-03-10T10:36:56Z</time>
      </trkpt>
      <trkpt lat="43.64698" lon="1.38807">
        <ele>144</ele>
        <time>2024-03-10T10:36:57Z</time>
      </trkpt>
      <trkpt lat="43.64696" lon="1.38808">
        <ele>144</ele>
        <time>2024-03-10T10:36:58Z</time>
      </trkpt>
      <trkpt lat="43.64696" lon="1.38808">
        <ele>144</ele>
        <time>2024-03-10T10:36:59Z</time>
      </trkpt>
      <trkpt lat="43.64693" lon="1.38809">
        <ele>144</ele>
        <time>2024-03-10T10:37:00Z</time>
      </trkpt>
      <trkpt lat="43.64691" lon="1.3881">
        <ele>144</ele>
        <time>2024-03-10T10:37:01Z</time>
      </trkpt>
      <trkpt lat="43.64686" lon="1.38812">
        <ele>144</ele>
        <time>2024-03-10T10:37:02Z</time>
      </trkpt>
      <trkpt lat="43.64686" lon="1.38812">
        <ele>144</ele>
        <time>2024-03-10T10:37:03Z</time>
      </trkpt>
      <trkpt lat="43.64683" lon="1.38813">
        <ele>144</ele>
        <time>2024-03-10T10:37:04Z</time>
      </trkpt>
      <trkpt lat="43.64681" lon="1.38814">
        <ele>145</ele>
        <time>2024-03-10T10:37:05Z</time>
      </trkpt>
      <trkpt lat="43.64679" lon="1.38815">
        <ele>146</ele>
        <time>2024-03-10T10:37:06Z</time>
      </trkpt>
      <trkpt lat="43.64674" lon="1.38817">
        <ele>146</ele>
        <time>2024-03-10T10:37:07Z</time>
      </trkpt>
      <trkpt lat="43.64674" lon="1.38817">
        <ele>145</ele>
        <time>2024-03-10T10:37:08Z</time>
      </trkpt>
      <trkpt lat="43.6467" lon="1.38819">
        <ele>145</ele>
        <time>2024-03-10T10:37:09Z</time>
      </trkpt>
      <trkpt lat="43.6467" lon="1.38819">
        <ele>145</ele>
        <time>2024-03-10T10:37:10Z</time>
      </trkpt>
      <trkpt lat="43.64665" lon="1.3882">
        <ele>146</ele>
        <time>2024-03-10T10:37:11Z</time>
      </trkpt>
      <trkpt lat="43.64665" lon="1.3882">
        <ele>146</ele>
        <time>2024-03-10T10:37:12Z</time>
      </trkpt>
      <trkpt lat="43.64663" lon="1.38821">
        <ele>146</ele>
        <time>2024-03-10T10:37:13Z</time>
      </trkpt>
      <trkpt lat="43.6466" lon="1.38821">
        <ele>146</ele>
        <time>2024-03-10T10:37:14Z</time>
      </trkpt>
      <trkpt lat="43.64655" lon="1.38823">
        <ele>145</ele>
        <time>2024-03-10T10:37:15Z</time>
      </trkpt>
      <trkpt lat="43.64655" lon="1.38823">
        <ele>145</ele>
        <time>2024-03-10T10:37:16Z</time>
      </trkpt>
      <trkpt lat="43.64652" lon="1.38824">
        <ele>145</ele>
        <time>2024-03-10T10:37:17Z</time>
      </trkpt>
      <trkpt lat="43.6465" lon="1.38825">
        <ele>145</ele>
        <time>2024-03-10T10:37:18Z</time>
      </trkpt>
      <trkpt lat="43.64647" lon="1.38826">
        <ele>145</ele>
        <time>2024-03-10T10:37:19Z</time>
      </trkpt>
      <trkpt lat="43.64644" lon="1.38827">
        <ele>146</ele>
        <time>2024-03-10T10:37:20Z</time>
      </trkpt>
      <trkpt lat="43.64642" lon="1.38828">
        <ele>146</ele>
        <time>2024-03-10T10:37:21Z</time>
      </trkpt>
      <trkpt lat="43.6464" lon="1.3883">
        <ele>145</ele>
        <time>2024-03-10T10:37:22Z</time>
      </trkpt>
      <trkpt lat="43.64637" lon="1.38832">
        <ele>145</ele>
        <time>2024-03-10T10:37:23Z</time>
      </trkpt>
      <trkpt lat="43.64634" lon="1.38834">
        <ele>145</ele>
        <time>2024-03-10T10:37:24Z</time>
      </trkpt>
      <trkpt lat="43.64631" lon="1.38835">
        <ele>145</ele>
        <time>2024-03-10T10:37:25Z</time>
      </trkpt>
      <trkpt lat="43.64628" lon="1.38837">
        <ele>145</ele>
        <time>2024-03-10T10:37:26Z</time>
      </trkpt>
      <trkpt lat="43.64626" lon="1.38838">
        <ele>145</ele>
        <time>2024-03-10T10:37:27Z</time>
      </trkpt>
      <trkpt lat="43.64623" lon="1.38839">
        <ele>145</ele>
        <time>2024-03-10T10:37:28Z</time>
      </trkpt>
      <trkpt lat="43.6462" lon="1.38841">
        <ele>145</ele>
        <time>2024-03-10T10:37:29Z</time>
      </trkpt>
      <trkpt lat="43.64617" lon="1.38841">
        <ele>145</ele>
        <time>2024-03-10T10:37:30Z</time>
      </trkpt>
      <trkpt lat="43.64613" lon="1.38844">
        <ele>145</ele>
        <time>2024-03-10T10:37:31Z</time>
      </trkpt>
      <trkpt lat="43.64613" lon="1.38844">
        <ele>145</ele>
        <time>2024-03-10T10:37:32Z</time>
      </trkpt>
      <trkpt lat="43.6461" lon="1.38845">
        <ele>145</ele>
        <time>2024-03-10T10:37:33Z</time>
      </trkpt>
      <trkpt lat="43.64607" lon="1.38846">
        <ele>145</ele>
        <time>2024-03-10T10:37:34Z</time>
      </trkpt>
      <trkpt lat="43.64602" lon="1.38847">
        <ele>145</ele>
        <time>2024-03-10T10:37:35Z</time>
      </trkpt>
      <trkpt lat="43.64602" lon="1.38847">
        <ele>145</ele>
        <time>2024-03-10T10:37:36Z</time>
      </trkpt>
      <trkpt lat="43.64599" lon="1.38847">
        <ele>145</ele>
        <time>2024-03-10T10:37:37Z</time>
      </trkpt>
      <trkpt lat="43.64596" lon="1.38847">
        <ele>146</ele>
        <time>2024-03-10T10:37:38Z</time>
      </trkpt>
      <trkpt lat="43.64591" lon="1.38847">
        <ele>146</ele>
        <time>2024-03-10T10:37:39Z</time>
      </trkpt>
      <trkpt lat="43.64589" lon="1.38848">
        <ele>146</ele>
        <time>2024-03-10T10:37:40Z</time>
      </trkpt>
      <trkpt lat="43.64589" lon="1.38848">
        <ele>146</ele>
        <time>2024-03-10T10:37:41Z</time>
      </trkpt>
      <trkpt lat="43.64584" lon="1.38849">
        <ele>146</ele>
        <time>2024-03-10T10:37:42Z</time>
      </trkpt>
      <trkpt lat="43.64581" lon="1.3885">
        <ele>146</ele>
        <time>2024-03-10T10:37:43Z</time>
      </trkpt>
      <trkpt lat="43.64579" lon="1.3885">
        <ele>146</ele>
        <time>2024-03-10T10:37:44Z</time>
      </trkpt>
      <trkpt lat="43.64576" lon="1.3885">
        <ele>145</ele>
        <time>2024-03-10T10:37:45Z</time>
      </trkpt>
      <trkpt lat="43.64576" lon="1.3885">
        <ele>145</ele>
        <time>2024-03-10T10:37:46Z</time>
      </trkpt>
      <trkpt lat="43.64571" lon="1.38851">
        <ele>145</ele>
        <time>2024-03-10T10:37:47Z</time>
      </trkpt>
      <trkpt lat="43.64571" lon="1.38851">
        <ele>145</ele>
        <time>2024-03-10T10:37:48Z</time>
      </trkpt>
      <trkpt lat="43.64568" lon="1.38851">
        <ele>145</ele>
        <time>2024-03-10T10:37:49Z</time>
      </trkpt>
      <trkpt lat="43.64566" lon="1.38851">
        <ele>145</ele>
        <time>2024-03-10T10:37:50Z</time>
      </trkpt>
      <trkpt lat="43.64564" lon="1.38851">
        <ele>145</ele>
        <time>2024-03-10T10:37:51Z</time>
      </trkpt>
      <trkpt lat="43.64562" lon="1.38851">
        <ele>145</ele>
        <time>2024-03-10T10:37:52Z</time>
      </trkpt>
      <trkpt lat="43.64557" lon="1.38851">
        <ele>145</ele>
        <time>2024-03-10T10:37:53Z</time>
      </trkpt>
      <trkpt lat="43.64557" lon="1.38851">
        <ele>145</ele>
        <time>2024-03-10T10:37:54Z</time>
      </trkpt>
      <trkpt lat="43.64555" lon="1.38851">
        <ele>145</ele>
        <time>2024-03-10T10:37:55Z</time>
      </trkpt>
      <trkpt lat="43.64552" lon="1.38851">
        <ele>146</ele>
        <time>2024-03-10T10:37:56Z</time>
      </trkpt>
      <trkpt lat="43.64547" lon="1.38852">
        <ele>146</ele>
        <time>2024-03-10T10:37:57Z</time>
      </trkpt>
      <trkpt lat="43.64544" lon="1.38853">
        <ele>146</ele>
        <time>2024-03-10T10:37:58Z</time>
      </trkpt>
      <trkpt lat="43.64544" lon="1.38853">
        <ele>146</ele>
        <time>2024-03-10T10:37:59Z</time>
      </trkpt>
      <trkpt lat="43.64538" lon="1.38853">
        <ele>145</ele>
        <time>2024-03-10T10:38:00Z</time>
      </trkpt>
      <trkpt lat="43.64538" lon="1.38853">
        <ele>145</ele>
        <time>2024-03-10T10:38:01Z</time>
      </trkpt>
      <trkpt lat="43.64532" lon="1.38854">
        <ele>145</ele>
        <time>2024-03-10T10:38:02Z</time>
      </trkpt>
      <trkpt lat="43.64532" lon="1.38854">
        <ele>144</ele>
        <time>2024-03-10T10:38:03Z</time>
      </trkpt>
      <trkpt lat="43.6453" lon="1.38854">
        <ele>144</ele>
        <time>2024-03-10T10:38:04Z</time>
      </trkpt>
      <trkpt lat="43.64528" lon="1.38855">
        <ele>145</ele>
        <time>2024-03-10T10:38:05Z</time>
      </trkpt>
      <trkpt lat="43.64524" lon="1.38856">
        <ele>145</ele>
        <time>2024-03-10T10:38:06Z</time>
      </trkpt>
      <trkpt lat="43.64522" lon="1.38857">
        <ele>145</ele>
        <time>2024-03-10T10:38:07Z</time>
      </trkpt>
      <trkpt lat="43.64517" lon="1.38858">
        <ele>145</ele>
        <time>2024-03-10T10:38:08Z</time>
      </trkpt>
      <trkpt lat="43.64517" lon="1.38858">
        <ele>144</ele>
        <time>2024-03-10T10:38:09Z</time>
      </trkpt>
      <trkpt lat="43.64515" lon="1.3886">
        <ele>144</ele>
        <time>2024-03-10T10:38:10Z</time>
      </trkpt>
      <trkpt lat="43.64513" lon="1.38862">
        <ele>144</ele>
        <time>2024-03-10T10:38:11Z</time>
      </trkpt>
      <trkpt lat="43.6451" lon="1.38868">
        <ele>144</ele>
        <time>2024-03-10T10:38:12Z</time>
      </trkpt>
      <trkpt lat="43.6451" lon="1.38868">
        <ele>144</ele>
        <time>2024-03-10T10:38:13Z</time>
      </trkpt>
      <trkpt lat="43.6451" lon="1.38871">
        <ele>144</ele>
        <time>2024-03-10T10:38:14Z</time>
      </trkpt>
      <trkpt lat="43.6451" lon="1.38875">
        <ele>144</ele>
        <time>2024-03-10T10:38:15Z</time>
      </trkpt>
      <trkpt lat="43.64512" lon="1.38882">
        <ele>144</ele>
        <time>2024-03-10T10:38:16Z</time>
      </trkpt>
      <trkpt lat="43.64513" lon="1.38886">
        <ele>145</ele>
        <time>2024-03-10T10:38:17Z</time>
      </trkpt>
      <trkpt lat="43.64513" lon="1.38886">
        <ele>145</ele>
        <time>2024-03-10T10:38:18Z</time>
      </trkpt>
      <trkpt lat="43.64513" lon="1.38889">
        <ele>144</ele>
        <time>2024-03-10T10:38:19Z</time>
      </trkpt>
      <trkpt lat="43.64513" lon="1.38893">
        <ele>144</ele>
        <time>2024-03-10T10:38:20Z</time>
      </trkpt>
      <trkpt lat="43.64513" lon="1.38901">
        <ele>144</ele>
        <time>2024-03-10T10:38:21Z</time>
      </trkpt>
      <trkpt lat="43.64513" lon="1.38905">
        <ele>144</ele>
        <time>2024-03-10T10:38:22Z</time>
      </trkpt>
      <trkpt lat="43.64514" lon="1.38909">
        <ele>144</ele>
        <time>2024-03-10T10:38:23Z</time>
      </trkpt>
      <trkpt lat="43.64515" lon="1.38912">
        <ele>144</ele>
        <time>2024-03-10T10:38:24Z</time>
      </trkpt>
      <trkpt lat="43.64515" lon="1.38912">
        <ele>144</ele>
        <time>2024-03-10T10:38:25Z</time>
      </trkpt>
      <trkpt lat="43.64515" lon="1.3892">
        <ele>144</ele>
        <time>2024-03-10T10:38:26Z</time>
      </trkpt>
      <trkpt lat="43.64515" lon="1.3892">
        <ele>144</ele>
        <time>2024-03-10T10:38:27Z</time>
      </trkpt>
      <trkpt lat="43.64515" lon="1.38923">
        <ele>144</ele>
        <time>2024-03-10T10:38:28Z</time>
      </trkpt>
      <trkpt lat="43.64515" lon="1.38927">
        <ele>144</ele>
        <time>2024-03-10T10:38:29Z</time>
      </trkpt>
      <trkpt lat="43.64513" lon="1.38933">
        <ele>144</ele>
        <time>2024-03-10T10:38:30Z</time>
      </trkpt>
      <trkpt lat="43.64513" lon="1.38933">
        <ele>144</ele>
        <time>2024-03-10T10:38:31Z</time>
      </trkpt>
      <trkpt lat="43.64512" lon="1.38936">
        <ele>144</ele>
        <time>2024-03-10T10:38:32Z</time>
      </trkpt>
      <trkpt lat="43.64511" lon="1.3894">
        <ele>145</ele>
        <time>2024-03-10T10:38:33Z</time>
      </trkpt>
      <trkpt lat="43.6451" lon="1.38943">
        <ele>145</ele>
        <time>2024-03-10T10:38:34Z</time>
      </trkpt>
      <trkpt lat="43.64508" lon="1.38949">
        <ele>145</ele>
        <time>2024-03-10T10:38:35Z</time>
      </trkpt>
      <trkpt lat="43.64508" lon="1.38949">
        <ele>145</ele>
        <time>2024-03-10T10:38:36Z</time>
      </trkpt>
      <trkpt lat="43.64507" lon="1.38952">
        <ele>145</ele>
        <time>2024-03-10T10:38:37Z</time>
      </trkpt>
      <trkpt lat="43.64505" lon="1.38959">
        <ele>144</ele>
        <time>2024-03-10T10:38:38Z</time>
      </trkpt>
      <trkpt lat="43.64505" lon="1.38959">
        <ele>144</ele>
        <time>2024-03-10T10:38:39Z</time>
      </trkpt>
      <trkpt lat="43.64503" lon="1.38963">
        <ele>144</ele>
        <time>2024-03-10T10:38:40Z</time>
      </trkpt>
      <trkpt lat="43.64502" lon="1.38966">
        <ele>144</ele>
        <time>2024-03-10T10:38:41Z</time>
      </trkpt>
      <trkpt lat="43.645" lon="1.38973">
        <ele>144</ele>
        <time>2024-03-10T10:38:42Z</time>
      </trkpt>
      <trkpt lat="43.64499" lon="1.38977">
        <ele>144</ele>
        <time>2024-03-10T10:38:43Z</time>
      </trkpt>
      <trkpt lat="43.64499" lon="1.38977">
        <ele>144</ele>
        <time>2024-03-10T10:38:44Z</time>
      </trkpt>
      <trkpt lat="43.64498" lon="1.3898">
        <ele>144</ele>
        <time>2024-03-10T10:38:45Z</time>
      </trkpt>
      <trkpt lat="43.64497" lon="1.38984">
        <ele>144</ele>
        <time>2024-03-10T10:38:46Z</time>
      </trkpt>
      <trkpt lat="43.64496" lon="1.38988">
        <ele>144</ele>
        <time>2024-03-10T10:38:47Z</time>
      </trkpt>
      <trkpt lat="43.64495" lon="1.38991">
        <ele>144</ele>
        <time>2024-03-10T10:38:48Z</time>
      </trkpt>
      <trkpt lat="43.64493" lon="1.38994">
        <ele>145</ele>
        <time>2024-03-10T10:38:49Z</time>
      </trkpt>
      <trkpt lat="43.64492" lon="1.38997">
        <ele>145</ele>
        <time>2024-03-10T10:38:50Z</time>
      </trkpt>
      <trkpt lat="43.64491" lon="1.39001">
        <ele>145</ele>
        <time>2024-03-10T10:38:51Z</time>
      </trkpt>
      <trkpt lat="43.6449" lon="1.39004">
        <ele>145</ele>
        <time>2024-03-10T10:38:52Z</time>
      </trkpt>
      <trkpt lat="43.64487" lon="1.3901">
        <ele>145</ele>
        <time>2024-03-10T10:38:53Z</time>
      </trkpt>
      <trkpt lat="43.64486" lon="1.39013">
        <ele>145</ele>
        <time>2024-03-10T10:38:54Z</time>
      </trkpt>
      <trkpt lat="43.64484" lon="1.39017">
        <ele>144</ele>
        <time>2024-03-10T10:38:55Z</time>
      </trkpt>
      <trkpt lat="43.64484" lon="1.39017">
        <ele>144</ele>
        <time>2024-03-10T10:38:56Z</time>
      </trkpt>
      <trkpt lat="43.64482" lon="1.39024">
        <ele>144</ele>
        <time>2024-03-10T10:38:57Z</time>
      </trkpt>
      <trkpt lat="43.64482" lon="1.39024">
        <ele>144</ele>
        <time>2024-03-10T10:38:58Z</time>
      </trkpt>
      <trkpt lat="43.6448" lon="1.39027">
        <ele>144</ele>
        <time>2024-03-10T10:38:59Z</time>
      </trkpt>
      <trkpt lat="43.64479" lon="1.3903">
        <ele>144</ele>
        <time>2024-03-10T10:39:00Z</time>
      </trkpt>
      <trkpt lat="43.64476" lon="1.39037">
        <ele>144</ele>
        <time>2024-03-10T10:39:01Z</time>
      </trkpt>
      <trkpt lat="43.64474" lon="1.39039">
        <ele>144</ele>
        <time>2024-03-10T10:39:02Z</time>
      </trkpt>
      <trkpt lat="43.64472" lon="1.39041">
        <ele>144</ele>
        <time>2024-03-10T10:39:03Z</time>
      </trkpt>
      <trkpt lat="43.6447" lon="1.39043">
        <ele>144</ele>
        <time>2024-03-10T10:39:04Z</time>
      </trkpt>
      <trkpt lat="43.6447" lon="1.39043">
        <ele>144</ele>
        <time>2024-03-10T10:39:05Z</time>
      </trkpt>
      <trkpt lat="43.64467" lon="1.39043">
        <ele>144</ele>
        <time>2024-03-10T10:39:06Z</time>
      </trkpt>
      <trkpt lat="43.64464" lon="1.39044">
        <ele>144</ele>
        <time>2024-03-10T10:39:07Z</time>
      </trkpt>
      <trkpt lat="43.64462" lon="1.39044">
        <ele>144</ele>
        <time>2024-03-10T10:39:08Z</time>
      </trkpt>
      <trkpt lat="43.6446" lon="1.39045">
        <ele>144</ele>
        <time>2024-03-10T10:39:09Z</time>
      </trkpt>
      <trkpt lat="43.64457" lon="1.39046">
        <ele>144</ele>
        <time>2024-03-10T10:39:10Z</time>
      </trkpt>
      <trkpt lat="43.64452" lon="1.3905">
        <ele>144</ele>
        <time>2024-03-10T10:39:11Z</time>
      </trkpt>
      <trkpt lat="43.6445" lon="1.39052">
        <ele>144</ele>
        <time>2024-03-10T10:39:12Z</time>
      </trkpt>
      <trkpt lat="43.6445" lon="1.39052">
        <ele>144</ele>
        <time>2024-03-10T10:39:13Z</time>
      </trkpt>
      <trkpt lat="43.64448" lon="1.39054">
        <ele>144</ele>
        <time>2024-03-10T10:39:14Z</time>
      </trkpt>
      <trkpt lat="43.64447" lon="1.39057">
        <ele>144</ele>
        <time>2024-03-10T10:39:15Z</time>
      </trkpt>
      <trkpt lat="43.64443" lon="1.39063">
        <ele>144</ele>
        <time>2024-03-10T10:39:16Z</time>
      </trkpt>
      <trkpt lat="43.64443" lon="1.39063">
        <ele>144</ele>
        <time>2024-03-10T10:39:17Z</time>
      </trkpt>
      <trkpt lat="43.64442" lon="1.39066">
        <ele>144</ele>
        <time>2024-03-10T10:39:18Z</time>
      </trkpt>
      <trkpt lat="43.64441" lon="1.3907">
        <ele>144</ele>
        <time>2024-03-10T10:39:19Z</time>
      </trkpt>
      <trkpt lat="43.64438" lon="1.39076">
        <ele>144</ele>
        <time>2024-03-10T10:39:20Z</time>
      </trkpt>
      <trkpt lat="43.64436" lon="1.3908">
        <ele>143</ele>
        <time>2024-03-10T10:39:21Z</time>
      </trkpt>
      <trkpt lat="43.64436" lon="1.3908">
        <ele>143</ele>
        <time>2024-03-10T10:39:22Z</time>
      </trkpt>
      <trkpt lat="43.64435" lon="1.39084">
        <ele>143</ele>
        <time>2024-03-10T10:39:23Z</time>
      </trkpt>
      <trkpt lat="43.64433" lon="1.39087">
        <ele>143</ele>
        <time>2024-03-10T10:39:24Z</time>
      </trkpt>
      <trkpt lat="43.64432" lon="1.3909">
        <ele>143</ele>
        <time>2024-03-10T10:39:25Z</time>
      </trkpt>
      <trkpt lat="43.64431" lon="1.39094">
        <ele>142</ele>
        <time>2024-03-10T10:39:26Z</time>
      </trkpt>
      <trkpt lat="43.6443" lon="1.39097">
        <ele>142</ele>
        <time>2024-03-10T10:39:27Z</time>
      </trkpt>
      <trkpt lat="43.64426" lon="1.39103">
        <ele>142</ele>
        <time>2024-03-10T10:39:28Z</time>
      </trkpt>
      <trkpt lat="43.64425" lon="1.39106">
        <ele>142</ele>
        <time>2024-03-10T10:39:29Z</time>
      </trkpt>
      <trkpt lat="43.64423" lon="1.39109">
        <ele>142</ele>
        <time>2024-03-10T10:39:30Z</time>
      </trkpt>
      <trkpt lat="43.64422" lon="1.39113">
        <ele>141</ele>
        <time>2024-03-10T10:39:31Z</time>
      </trkpt>
      <trkpt lat="43.6442" lon="1.39116">
        <ele>141</ele>
        <time>2024-03-10T10:39:32Z</time>
      </trkpt>
      <trkpt lat="43.6442" lon="1.39116">
        <ele>141</ele>
        <time>2024-03-10T10:39:33Z</time>
      </trkpt>
      <trkpt lat="43.64419" lon="1.39119">
        <ele>141</ele>
        <time>2024-03-10T10:39:34Z</time>
      </trkpt>
      <trkpt lat="43.64416" lon="1.39126">
        <ele>141</ele>
        <time>2024-03-10T10:39:35Z</time>
      </trkpt>
      <trkpt lat="43.64415" lon="1.3913">
        <ele>141</ele>
        <time>2024-03-10T10:39:36Z</time>
      </trkpt>
      <trkpt lat="43.64414" lon="1.39133">
        <ele>140</ele>
        <time>2024-03-10T10:39:37Z</time>
      </trkpt>
      <trkpt lat="43.64414" lon="1.39133">
        <ele>140</ele>
        <time>2024-03-10T10:39:38Z</time>
      </trkpt>
      <trkpt lat="43.64414" lon="1.39136">
        <ele>140</ele>
        <time>2024-03-10T10:39:39Z</time>
      </trkpt>
      <trkpt lat="43.64413" lon="1.3914">
        <ele>139</ele>
        <time>2024-03-10T10:39:40Z</time>
      </trkpt>
      <trkpt lat="43.64412" lon="1.39144">
        <ele>139</ele>
        <time>2024-03-10T10:39:41Z</time>
      </trkpt>
      <trkpt lat="43.64411" lon="1.39148">
        <ele>138</ele>
        <time>2024-03-10T10:39:42Z</time>
      </trkpt>
      <trkpt lat="43.64411" lon="1.39152">
        <ele>137</ele>
        <time>2024-03-10T10:39:43Z</time>
      </trkpt>
      <trkpt lat="43.64411" lon="1.39157">
        <ele>137</ele>
        <time>2024-03-10T10:39:44Z</time>
      </trkpt>
      <trkpt lat="43.6441" lon="1.39161">
        <ele>136</ele>
        <time>2024-03-10T10:39:45Z</time>
      </trkpt>
      <trkpt lat="43.64411" lon="1.39165">
        <ele>136</ele>
        <time>2024-03-10T10:39:46Z</time>
      </trkpt>
      <trkpt lat="43.64411" lon="1.39169">
        <ele>136</ele>
        <time>2024-03-10T10:39:47Z</time>
      </trkpt>
      <trkpt lat="43.64411" lon="1.39173">
        <ele>136</ele>
        <time>2024-03-10T10:39:48Z</time>
      </trkpt>
      <trkpt lat="43.64411" lon="1.39177">
        <ele>136</ele>
        <time>2024-03-10T10:39:49Z</time>
      </trkpt>
      <trkpt lat="43.64413" lon="1.39186">
        <ele>136</ele>
        <time>2024-03-10T10:39:50Z</time>
      </trkpt>
      <trkpt lat="43.64414" lon="1.3919">
        <ele>136</ele>
        <time>2024-03-10T10:39:51Z</time>
      </trkpt>
      <trkpt lat="43.64414" lon="1.3919">
        <ele>135</ele>
        <time>2024-03-10T10:39:52Z</time>
      </trkpt>
      <trkpt lat="43.64417" lon="1.39198">
        <ele>135</ele>
        <time>2024-03-10T10:39:53Z</time>
      </trkpt>
      <trkpt lat="43.64417" lon="1.39198">
        <ele>135</ele>
        <time>2024-03-10T10:39:54Z</time>
      </trkpt>
      <trkpt lat="43.6442" lon="1.39205">
        <ele>135</ele>
        <time>2024-03-10T10:39:55Z</time>
      </trkpt>
      <trkpt lat="43.64422" lon="1.39209">
        <ele>134</ele>
        <time>2024-03-10T10:39:56Z</time>
      </trkpt>
      <trkpt lat="43.64424" lon="1.39213">
        <ele>134</ele>
        <time>2024-03-10T10:39:57Z</time>
      </trkpt>
      <trkpt lat="43.64424" lon="1.39213">
        <ele>133</ele>
        <time>2024-03-10T10:39:58Z</time>
      </trkpt>
      <trkpt lat="43.64426" lon="1.39216">
        <ele>132</ele>
        <time>2024-03-10T10:39:59Z</time>
      </trkpt>
      <trkpt lat="43.64428" lon="1.3922">
        <ele>131</ele>
        <time>2024-03-10T10:40:00Z</time>
      </trkpt>
      <trkpt lat="43.6443" lon="1.39223">
        <ele>131</ele>
        <time>2024-03-10T10:40:01Z</time>
      </trkpt>
      <trkpt lat="43.64434" lon="1.3923">
        <ele>131</ele>
        <time>2024-03-10T10:40:02Z</time>
      </trkpt>
      <trkpt lat="43.64435" lon="1.39234">
        <ele>131</ele>
        <time>2024-03-10T10:40:03Z</time>
      </trkpt>
      <trkpt lat="43.64435" lon="1.39234">
        <ele>131</ele>
        <time>2024-03-10T10:40:04Z</time>
      </trkpt>
      <trkpt lat="43.64439" lon="1.3924">
        <ele>131</ele>
        <time>2024-03-10T10:40:05Z</time>
      </trkpt>
      <trkpt lat="43.64439" lon="1.3924">
        <ele>130</ele>
        <time>2024-03-10T10:40:06Z</time>
      </trkpt>
      <trkpt lat="43.64442" lon="1.39246">
        <ele>130</ele>
        <time>2024-03-10T10:40:07Z</time>
      </trkpt>
      <trkpt lat="43.64443" lon="1.39249">
        <ele>130</ele>
        <time>2024-03-10T10:40:08Z</time>
      </trkpt>
      <trkpt lat="43.64443" lon="1.39249">
        <ele>130</ele>
        <time>2024-03-10T10:40:09Z</time>
      </trkpt>
      <trkpt lat="43.64446" lon="1.39256">
        <ele>130</ele>
        <time>2024-03-10T10:40:10Z</time>
      </trkpt>
      <trkpt lat="43.64446" lon="1.39256">
        <ele>130</ele>
        <time>2024-03-10T10:40:11Z</time>
      </trkpt>
      <trkpt lat="43.64447" lon="1.39259">
        <ele>130</ele>
        <time>2024-03-10T10:40:12Z</time>
      </trkpt>
      <trkpt lat="43.64448" lon="1.39262">
        <ele>130</ele>
        <time>2024-03-10T10:40:13Z</time>
      </trkpt>
      <trkpt lat="43.64449" lon="1.39266">
        <ele>130</ele>
        <time>2024-03-10T10:40:14Z</time>
      </trkpt>
      <trkpt lat="43.6445" lon="1.39269">
        <ele>130</ele>
        <time>2024-03-10T10:40:15Z</time>
      </trkpt>
      <trkpt lat="43.64451" lon="1.39273">
        <ele>130</ele>
        <time>2024-03-10T10:40:16Z</time>
      </trkpt>
      <trkpt lat="43.64452" lon="1.39276">
        <ele>130</ele>
        <time>2024-03-10T10:40:17Z</time>
      </trkpt>
      <trkpt lat="43.64453" lon="1.3928">
        <ele>130</ele>
        <time>2024-03-10T10:40:18Z</time>
      </trkpt>
      <trkpt lat="43.64454" lon="1.39287">
        <ele>130</ele>
        <time>2024-03-10T10:40:19Z</time>
      </trkpt>
      <trkpt lat="43.64454" lon="1.39287">
        <ele>131</ele>
        <time>2024-03-10T10:40:20Z</time>
      </trkpt>
      <trkpt lat="43.64456" lon="1.39294">
        <ele>131</ele>
        <time>2024-03-10T10:40:21Z</time>
      </trkpt>
      <trkpt lat="43.64457" lon="1.39297">
        <ele>131</ele>
        <time>2024-03-10T10:40:22Z</time>
      </trkpt>
      <trkpt lat="43.64458" lon="1.39301">
        <ele>131</ele>
        <time>2024-03-10T10:40:23Z</time>
      </trkpt>
      <trkpt lat="43.64459" lon="1.39305">
        <ele>130</ele>
        <time>2024-03-10T10:40:24Z</time>
      </trkpt>
      <trkpt lat="43.64459" lon="1.39305">
        <ele>130</ele>
        <time>2024-03-10T10:40:25Z</time>
      </trkpt>
      <trkpt lat="43.64461" lon="1.39312">
        <ele>130</ele>
        <time>2024-03-10T10:40:26Z</time>
      </trkpt>
      <trkpt lat="43.64461" lon="1.39312">
        <ele>129</ele>
        <time>2024-03-10T10:40:27Z</time>
      </trkpt>
      <trkpt lat="43.64461" lon="1.39316">
        <ele>129</ele>
        <time>2024-03-10T10:40:28Z</time>
      </trkpt>
      <trkpt lat="43.64463" lon="1.39319">
        <ele>130</ele>
        <time>2024-03-10T10:40:29Z</time>
      </trkpt>
      <trkpt lat="43.64464" lon="1.39323">
        <ele>130</ele>
        <time>2024-03-10T10:40:30Z</time>
      </trkpt>
      <trkpt lat="43.64466" lon="1.3933">
        <ele>130</ele>
        <time>2024-03-10T10:40:31Z</time>
      </trkpt>
      <trkpt lat="43.64466" lon="1.3933">
        <ele>130</ele>
        <time>2024-03-10T10:40:32Z</time>
      </trkpt>
      <trkpt lat="43.64467" lon="1.39337">
        <ele>130</ele>
        <time>2024-03-10T10:40:33Z</time>
      </trkpt>
      <trkpt lat="43.64467" lon="1.39337">
        <ele>130</ele>
        <time>2024-03-10T10:40:34Z</time>
      </trkpt>
      <trkpt lat="43.64469" lon="1.39344">
        <ele>130</ele>
        <time>2024-03-10T10:40:35Z</time>
      </trkpt>
      <trkpt lat="43.64469" lon="1.39344">
        <ele>130</ele>
        <time>2024-03-10T10:40:36Z</time>
      </trkpt>
      <trkpt lat="43.64469" lon="1.39348">
        <ele>130</ele>
        <time>2024-03-10T10:40:37Z</time>
      </trkpt>
      <trkpt lat="43.6447" lon="1.39351">
        <ele>130</ele>
        <time>2024-03-10T10:40:38Z</time>
      </trkpt>
      <trkpt lat="43.6447" lon="1.39355">
        <ele>130</ele>
        <time>2024-03-10T10:40:39Z</time>
      </trkpt>
      <trkpt lat="43.64471" lon="1.39358">
        <ele>130</ele>
        <time>2024-03-10T10:40:40Z</time>
      </trkpt>
      <trkpt lat="43.64472" lon="1.39366">
        <ele>130</ele>
        <time>2024-03-10T10:40:41Z</time>
      </trkpt>
      <trkpt lat="43.64472" lon="1.39366">
        <ele>130</ele>
        <time>2024-03-10T10:40:42Z</time>
      </trkpt>
      <trkpt lat="43.64473" lon="1.3937">
        <ele>130</ele>
        <time>2024-03-10T10:40:43Z</time>
      </trkpt>
      <trkpt lat="43.64474" lon="1.39377">
        <ele>130</ele>
        <time>2024-03-10T10:40:44Z</time>
      </trkpt>
      <trkpt lat="43.64474" lon="1.39377">
        <ele>130</ele>
        <time>2024-03-10T10:40:45Z</time>
      </trkpt>
      <trkpt lat="43.64474" lon="1.39381">
        <ele>130</ele>
        <time>2024-03-10T10:40:46Z</time>
      </trkpt>
      <trkpt lat="43.64475" lon="1.39384">
        <ele>130</ele>
        <time>2024-03-10T10:40:47Z</time>
      </trkpt>
      <trkpt lat="43.64475" lon="1.39388">
        <ele>130</ele>
        <time>2024-03-10T10:40:48Z</time>
      </trkpt>
      <trkpt lat="43.64476" lon="1.39395">
        <ele>130</ele>
        <time>2024-03-10T10:40:49Z</time>
      </trkpt>
      <trkpt lat="43.64477" lon="1.39399">
        <ele>130</ele>
        <time>2024-03-10T10:40:50Z</time>
      </trkpt>
      <trkpt lat="43.64478" lon="1.39402">
        <ele>130</ele>
        <time>2024-03-10T10:40:51Z</time>
      </trkpt>
      <trkpt lat="43.64478" lon="1.39402">
        <ele>130</ele>
        <time>2024-03-10T10:40:52Z</time>
      </trkpt>
      <trkpt lat="43.64478" lon="1.39406">
        <ele>130</ele>
        <time>2024-03-10T10:40:53Z</time>
      </trkpt>
      <trkpt lat="43.64479" lon="1.39409">
        <ele>130</ele>
        <time>2024-03-10T10:40:54Z</time>
      </trkpt>
      <trkpt lat="43.64479" lon="1.39413">
        <ele>130</ele>
        <time>2024-03-10T10:40:55Z</time>
      </trkpt>
      <trkpt lat="43.64481" lon="1.3942">
        <ele>130</ele>
        <time>2024-03-10T10:40:56Z</time>
      </trkpt>
      <trkpt lat="43.64481" lon="1.3942">
        <ele>130</ele>
        <time>2024-03-10T10:40:57Z</time>
      </trkpt>
      <trkpt lat="43.64481" lon="1.39423">
        <ele>129</ele>
        <time>2024-03-10T10:40:58Z</time>
      </trkpt>
      <trkpt lat="43.64482" lon="1.39426">
        <ele>129</ele>
        <time>2024-03-10T10:40:59Z</time>
      </trkpt>
      <trkpt lat="43.64482" lon="1.3943">
        <ele>129</ele>
        <time>2024-03-10T10:41:00Z</time>
      </trkpt>
      <trkpt lat="43.64483" lon="1.39434">
        <ele>130</ele>
        <time>2024-03-10T10:41:01Z</time>
      </trkpt>
      <trkpt lat="43.64483" lon="1.39437">
        <ele>130</ele>
        <time>2024-03-10T10:41:02Z</time>
      </trkpt>
      <trkpt lat="43.64483" lon="1.39441">
        <ele>130</ele>
        <time>2024-03-10T10:41:03Z</time>
      </trkpt>
      <trkpt lat="43.64484" lon="1.39444">
        <ele>130</ele>
        <time>2024-03-10T10:41:04Z</time>
      </trkpt>
      <trkpt lat="43.64485" lon="1.39452">
        <ele>130</ele>
        <time>2024-03-10T10:41:05Z</time>
      </trkpt>
      <trkpt lat="43.64486" lon="1.39455">
        <ele>130</ele>
        <time>2024-03-10T10:41:06Z</time>
      </trkpt>
      <trkpt lat="43.64486" lon="1.39459">
        <ele>130</ele>
        <time>2024-03-10T10:41:07Z</time>
      </trkpt>
      <trkpt lat="43.64487" lon="1.39463">
        <ele>130</ele>
        <time>2024-03-10T10:41:08Z</time>
      </trkpt>
      <trkpt lat="43.64488" lon="1.39467">
        <ele>130</ele>
        <time>2024-03-10T10:41:09Z</time>
      </trkpt>
      <trkpt lat="43.64488" lon="1.39467">
        <ele>130</ele>
        <time>2024-03-10T10:41:10Z</time>
      </trkpt>
      <trkpt lat="43.64489" lon="1.3947">
        <ele>130</ele>
        <time>2024-03-10T10:41:11Z</time>
      </trkpt>
      <trkpt lat="43.6449" lon="1.39478">
        <ele>130</ele>
        <time>2024-03-10T10:41:12Z</time>
      </trkpt>
      <trkpt lat="43.6449" lon="1.39481">
        <ele>130</ele>
        <time>2024-03-10T10:41:13Z</time>
      </trkpt>
      <trkpt lat="43.6449" lon="1.39481">
        <ele>130</ele>
        <time>2024-03-10T10:41:14Z</time>
      </trkpt>
      <trkpt lat="43.64491" lon="1.39489">
        <ele>130</ele>
        <time>2024-03-10T10:41:15Z</time>
      </trkpt>
      <trkpt lat="43.64491" lon="1.39489">
        <ele>130</ele>
        <time>2024-03-10T10:41:16Z</time>
      </trkpt>
      <trkpt lat="43.64492" lon="1.39492">
        <ele>130</ele>
        <time>2024-03-10T10:41:17Z</time>
      </trkpt>
      <trkpt lat="43.64493" lon="1.39495">
        <ele>130</ele>
        <time>2024-03-10T10:41:18Z</time>
      </trkpt>
      <trkpt lat="43.64494" lon="1.39503">
        <ele>130</ele>
        <time>2024-03-10T10:41:19Z</time>
      </trkpt>
      <trkpt lat="43.64494" lon="1.39503">
        <ele>130</ele>
        <time>2024-03-10T10:41:20Z</time>
      </trkpt>
      <trkpt lat="43.64495" lon="1.39507">
        <ele>130</ele>
        <time>2024-03-10T10:41:21Z</time>
      </trkpt>
      <trkpt lat="43.64496" lon="1.39514">
        <ele>130</ele>
        <time>2024-03-10T10:41:22Z</time>
      </trkpt>
      <trkpt lat="43.64496" lon="1.39514">
        <ele>130</ele>
        <time>2024-03-10T10:41:23Z</time>
      </trkpt>
      <trkpt lat="43.64496" lon="1.39521">
        <ele>130</ele>
        <time>2024-03-10T10:41:24Z</time>
      </trkpt>
      <trkpt lat="43.64497" lon="1.39525">
        <ele>130</ele>
        <time>2024-03-10T10:41:25Z</time>
      </trkpt>
      <trkpt lat="43.64497" lon="1.39525">
        <ele>130</ele>
        <time>2024-03-10T10:41:26Z</time>
      </trkpt>
      <trkpt lat="43.64497" lon="1.39528">
        <ele>131</ele>
        <time>2024-03-10T10:41:27Z</time>
      </trkpt>
      <trkpt lat="43.64497" lon="1.39535">
        <ele>131</ele>
        <time>2024-03-10T10:41:28Z</time>
      </trkpt>
      <trkpt lat="43.64498" lon="1.39539">
        <ele>131</ele>
        <time>2024-03-10T10:41:29Z</time>
      </trkpt>
      <trkpt lat="43.64498" lon="1.39543">
        <ele>131</ele>
        <time>2024-03-10T10:41:30Z</time>
      </trkpt>
      <trkpt lat="43.64498" lon="1.39543">
        <ele>130</ele>
        <time>2024-03-10T10:41:31Z</time>
      </trkpt>
      <trkpt lat="43.64498" lon="1.3955">
        <ele>130</ele>
        <time>2024-03-10T10:41:32Z</time>
      </trkpt>
      <trkpt lat="43.64498" lon="1.3955">
        <ele>130</ele>
        <time>2024-03-10T10:41:33Z</time>
      </trkpt>
      <trkpt lat="43.64498" lon="1.39557">
        <ele>130</ele>
        <time>2024-03-10T10:41:34Z</time>
      </trkpt>
      <trkpt lat="43.64498" lon="1.39557">
        <ele>130</ele>
        <time>2024-03-10T10:41:35Z</time>
      </trkpt>
      <trkpt lat="43.64498" lon="1.3956">
        <ele>130</ele>
        <time>2024-03-10T10:41:36Z</time>
      </trkpt>
      <trkpt lat="43.64499" lon="1.39564">
        <ele>130</ele>
        <time>2024-03-10T10:41:37Z</time>
      </trkpt>
      <trkpt lat="43.645" lon="1.39571">
        <ele>130</ele>
        <time>2024-03-10T10:41:38Z</time>
      </trkpt>
      <trkpt lat="43.64501" lon="1.39575">
        <ele>130</ele>
        <time>2024-03-10T10:41:39Z</time>
      </trkpt>
      <trkpt lat="43.64501" lon="1.39575">
        <ele>130</ele>
        <time>2024-03-10T10:41:40Z</time>
      </trkpt>
      <trkpt lat="43.64501" lon="1.39578">
        <ele>130</ele>
        <time>2024-03-10T10:41:41Z</time>
      </trkpt>
      <trkpt lat="43.64501" lon="1.39582">
        <ele>130</ele>
        <time>2024-03-10T10:41:42Z</time>
      </trkpt>
      <trkpt lat="43.64501" lon="1.39589">
        <ele>130</ele>
        <time>2024-03-10T10:41:43Z</time>
      </trkpt>
      <trkpt lat="43.64501" lon="1.39593">
        <ele>130</ele>
        <time>2024-03-10T10:41:44Z</time>
      </trkpt>
      <trkpt lat="43.64501" lon="1.39596">
        <ele>129</ele>
        <time>2024-03-10T10:41:45Z</time>
      </trkpt>
      <trkpt lat="43.64502" lon="1.396">
        <ele>129</ele>
        <time>2024-03-10T10:41:46Z</time>
      </trkpt>
      <trkpt lat="43.64502" lon="1.39604">
        <ele>129</ele>
        <time>2024-03-10T10:41:47Z</time>
      </trkpt>
      <trkpt lat="43.64502" lon="1.39607">
        <ele>129</ele>
        <time>2024-03-10T10:41:48Z</time>
      </trkpt>
      <trkpt lat="43.64502" lon="1.39607">
        <ele>129</ele>
        <time>2024-03-10T10:41:49Z</time>
      </trkpt>
      <trkpt lat="43.64503" lon="1.39611">
        <ele>129</ele>
        <time>2024-03-10T10:41:50Z</time>
      </trkpt>
      <trkpt lat="43.64503" lon="1.39615">
        <ele>129</ele>
        <time>2024-03-10T10:41:51Z</time>
      </trkpt>
      <trkpt lat="43.64503" lon="1.39619">
        <ele>129</ele>
        <time>2024-03-10T10:41:52Z</time>
      </trkpt>
      <trkpt lat="43.64503" lon="1.39622">
        <ele>129</ele>
        <time>2024-03-10T10:41:53Z</time>
      </trkpt>
      <trkpt lat="43.64503" lon="1.39626">
        <ele>129</ele>
        <time>2024-03-10T10:41:54Z</time>
      </trkpt>
      <trkpt lat="43.64503" lon="1.39633">
        <ele>129</ele>
        <time>2024-03-10T10:41:55Z</time>
      </trkpt>
      <trkpt lat="43.64503" lon="1.39637">
        <ele>129</ele>
        <time>2024-03-10T10:41:56Z</time>
      </trkpt>
      <trkpt lat="43.64502" lon="1.39641">
        <ele>129</ele>
        <time>2024-03-10T10:41:57Z</time>
      </trkpt>
      <trkpt lat="43.64502" lon="1.39645">
        <ele>129</ele>
        <time>2024-03-10T10:41:58Z</time>
      </trkpt>
      <trkpt lat="43.64502" lon="1.39645">
        <ele>129</ele>
        <time>2024-03-10T10:41:59Z</time>
      </trkpt>
      <trkpt lat="43.64502" lon="1.39648">
        <ele>129</ele>
        <time>2024-03-10T10:42:00Z</time>
      </trkpt>
      <trkpt lat="43.64501" lon="1.39652">
        <ele>129</ele>
        <time>2024-03-10T10:42:01Z</time>
      </trkpt>
      <trkpt lat="43.64501" lon="1.39655">
        <ele>129</ele>
        <time>2024-03-10T10:42:02Z</time>
      </trkpt>
      <trkpt lat="43.645" lon="1.39659">
        <ele>128</ele>
        <time>2024-03-10T10:42:03Z</time>
      </trkpt>
      <trkpt lat="43.645" lon="1.39663">
        <ele>128</ele>
        <time>2024-03-10T10:42:04Z</time>
      </trkpt>
      <trkpt lat="43.645" lon="1.39667">
        <ele>128</ele>
        <time>2024-03-10T10:42:05Z</time>
      </trkpt>
      <trkpt lat="43.645" lon="1.39674">
        <ele>128</ele>
        <time>2024-03-10T10:42:06Z</time>
      </trkpt>
      <trkpt lat="43.645" lon="1.39678">
        <ele>128</ele>
        <time>2024-03-10T10:42:07Z</time>
      </trkpt>
      <trkpt lat="43.645" lon="1.39678">
        <ele>128</ele>
        <time>2024-03-10T10:42:08Z</time>
      </trkpt>
      <trkpt lat="43.645" lon="1.39685">
        <ele>128</ele>
        <time>2024-03-10T10:42:09Z</time>
      </trkpt>
      <trkpt lat="43.645" lon="1.39689">
        <ele>129</ele>
        <time>2024-03-10T10:42:10Z</time>
      </trkpt>
      <trkpt lat="43.645" lon="1.39693">
        <ele>129</ele>
        <time>2024-03-10T10:42:11Z</time>
      </trkpt>
      <trkpt lat="43.645" lon="1.39696">
        <ele>129</ele>
        <time>2024-03-10T10:42:12Z</time>
      </trkpt>
      <trkpt lat="43.645" lon="1.397">
        <ele>129</ele>
        <time>2024-03-10T10:42:13Z</time>
      </trkpt>
      <trkpt lat="43.645" lon="1.397">
        <ele>129</ele>
        <time>2024-03-10T10:42:14Z</time>
      </trkpt>
      <trkpt lat="43.645" lon="1.39704">
        <ele>129</ele>
        <time>2024-03-10T10:42:15Z</time>
      </trkpt>
      <trkpt lat="43.645" lon="1.39711">
        <ele>129</ele>
        <time>2024-03-10T10:42:16Z</time>
      </trkpt>
      <trkpt lat="43.645" lon="1.39711">
        <ele>129</ele>
        <time>2024-03-10T10:42:17Z</time>
      </trkpt>
      <trkpt lat="43.645" lon="1.39715">
        <ele>129</ele>
        <time>2024-03-10T10:42:18Z</time>
      </trkpt>
      <trkpt lat="43.645" lon="1.39719">
        <ele>129</ele>
        <time>2024-03-10T10:42:19Z</time>
      </trkpt>
      <trkpt lat="43.645" lon="1.39722">
        <ele>129</ele>
        <time>2024-03-10T10:42:20Z</time>
      </trkpt>
      <trkpt lat="43.645" lon="1.39729">
        <ele>129</ele>
        <time>2024-03-10T10:42:21Z</time>
      </trkpt>
      <trkpt lat="43.645" lon="1.39729">
        <ele>129</ele>
        <time>2024-03-10T10:42:22Z</time>
      </trkpt>
      <trkpt lat="43.645" lon="1.39736">
        <ele>129</ele>
        <time>2024-03-10T10:42:23Z</time>
      </trkpt>
      <trkpt lat="43.645" lon="1.39736">
        <ele>129</ele>
        <time>2024-03-10T10:42:24Z</time>
      </trkpt>
      <trkpt lat="43.645" lon="1.39744">
        <ele>129</ele>
        <time>2024-03-10T10:42:25Z</time>
      </trkpt>
      <trkpt lat="43.645" lon="1.39747">
        <ele>129</ele>
        <time>2024-03-10T10:42:26Z</time>
      </trkpt>
      <trkpt lat="43.645" lon="1.39751">
        <ele>129</ele>
        <time>2024-03-10T10:42:27Z</time>
      </trkpt>
      <trkpt lat="43.645" lon="1.39754">
        <ele>129</ele>
        <time>2024-03-10T10:42:28Z</time>
      </trkpt>
      <trkpt lat="43.645" lon="1.39754">
        <ele>129</ele>
        <time>2024-03-10T10:42:29Z</time>
      </trkpt>
      <trkpt lat="43.645" lon="1.39758">
        <ele>129</ele>
        <time>2024-03-10T10:42:30Z</time>
      </trkpt>
      <trkpt lat="43.645" lon="1.39762">
        <ele>129</ele>
        <time>2024-03-10T10:42:31Z</time>
      </trkpt>
      <trkpt lat="43.645" lon="1.39765">
        <ele>129</ele>
        <time>2024-03-10T10:42:32Z</time>
      </trkpt>
      <trkpt lat="43.645" lon="1.39769">
        <ele>129</ele>
        <time>2024-03-10T10:42:33Z</time>
      </trkpt>
      <trkpt lat="43.645" lon="1.39776">
        <ele>129</ele>
        <time>2024-03-10T10:42:34Z</time>
      </trkpt>
      <trkpt lat="43.645" lon="1.39776">
        <ele>129</ele>
        <time>2024-03-10T10:42:35Z</time>
      </trkpt>
      <trkpt lat="43.645" lon="1.3978">
        <ele>129</ele>
        <time>2024-03-10T10:42:36Z</time>
      </trkpt>
      <trkpt lat="43.645" lon="1.39784">
        <ele>129</ele>
        <time>2024-03-10T10:42:37Z</time>
      </trkpt>
      <trkpt lat="43.645" lon="1.39788">
        <ele>129</ele>
        <time>2024-03-10T10:42:38Z</time>
      </trkpt>
      <trkpt lat="43.645" lon="1.39796">
        <ele>130</ele>
        <time>2024-03-10T10:42:39Z</time>
      </trkpt>
      <trkpt lat="43.645" lon="1.398">
        <ele>130</ele>
        <time>2024-03-10T10:42:40Z</time>
      </trkpt>
      <trkpt lat="43.645" lon="1.39804">
        <ele>130</ele>
        <time>2024-03-10T10:42:41Z</time>
      </trkpt>
      <trkpt lat="43.645" lon="1.39807">
        <ele>130</ele>
        <time>2024-03-10T10:42:42Z</time>
      </trkpt>
      <trkpt lat="43.645" lon="1.39807">
        <ele>130</ele>
        <time>2024-03-10T10:42:43Z</time>
      </trkpt>
      <trkpt lat="43.645" lon="1.39815">
        <ele>129</ele>
        <time>2024-03-10T10:42:44Z</time>
      </trkpt>
      <trkpt lat="43.645" lon="1.39815">
        <ele>129</ele>
        <time>2024-03-10T10:42:45Z</time>
      </trkpt>
      <trkpt lat="43.645" lon="1.39822">
        <ele>129</ele>
        <time>2024-03-10T10:42:46Z</time>
      </trkpt>
      <trkpt lat="43.645" lon="1.39822">
        <ele>129</ele>
        <time>2024-03-10T10:42:47Z</time>
      </trkpt>
      <trkpt lat="43.645" lon="1.39829">
        <ele>129</ele>
        <time>2024-03-10T10:42:48Z</time>
      </trkpt>
      <trkpt lat="43.645" lon="1.39829">
        <ele>129</ele>
        <time>2024-03-10T10:42:49Z</time>
      </trkpt>
      <trkpt lat="43.645" lon="1.39833">
        <ele>129</ele>
        <time>2024-03-10T10:42:50Z</time>
      </trkpt>
      <trkpt lat="43.645" lon="1.39836">
        <ele>129</ele>
        <time>2024-03-10T10:42:51Z</time>
      </trkpt>
      <trkpt lat="43.64499" lon="1.39843">
        <ele>129</ele>
        <time>2024-03-10T10:42:52Z</time>
      </trkpt>
      <trkpt lat="43.64499" lon="1.39847">
        <ele>129</ele>
        <time>2024-03-10T10:42:53Z</time>
      </trkpt>
      <trkpt lat="43.64499" lon="1.39847">
        <ele>129</ele>
        <time>2024-03-10T10:42:54Z</time>
      </trkpt>
      <trkpt lat="43.64499" lon="1.39851">
        <ele>129</ele>
        <time>2024-03-10T10:42:55Z</time>
      </trkpt>
      <trkpt lat="43.64499" lon="1.39854">
        <ele>129</ele>
        <time>2024-03-10T10:42:56Z</time>
      </trkpt>
      <trkpt lat="43.64499" lon="1.39858">
        <ele>129</ele>
        <time>2024-03-10T10:42:57Z</time>
      </trkpt>
      <trkpt lat="43.64499" lon="1.39862">
        <ele>129</ele>
        <time>2024-03-10T10:42:58Z</time>
      </trkpt>
      <trkpt lat="43.64499" lon="1.39865">
        <ele>129</ele>
        <time>2024-03-10T10:42:59Z</time>
      </trkpt>
      <trkpt lat="43.64499" lon="1.39869">
        <ele>129</ele>
        <time>2024-03-10T10:43:00Z</time>
      </trkpt>
      <trkpt lat="43.64499" lon="1.39873">
        <ele>129</ele>
        <time>2024-03-10T10:43:01Z</time>
      </trkpt>
      <trkpt lat="43.64498" lon="1.3988">
        <ele>129</ele>
        <time>2024-03-10T10:43:02Z</time>
      </trkpt>
      <trkpt lat="43.64499" lon="1.39883">
        <ele>129</ele>
        <time>2024-03-10T10:43:03Z</time>
      </trkpt>
      <trkpt lat="43.64499" lon="1.39883">
        <ele>129</ele>
        <time>2024-03-10T10:43:04Z</time>
      </trkpt>
      <trkpt lat="43.64498" lon="1.39886">
        <ele>129</ele>
        <time>2024-03-10T10:43:05Z</time>
      </trkpt>
      <trkpt lat="43.64498" lon="1.3989">
        <ele>129</ele>
        <time>2024-03-10T10:43:06Z</time>
      </trkpt>
      <trkpt lat="43.64498" lon="1.39894">
        <ele>129</ele>
        <time>2024-03-10T10:43:07Z</time>
      </trkpt>
      <trkpt lat="43.64498" lon="1.39897">
        <ele>129</ele>
        <time>2024-03-10T10:43:08Z</time>
      </trkpt>
      <trkpt lat="43.64498" lon="1.39901">
        <ele>129</ele>
        <time>2024-03-10T10:43:09Z</time>
      </trkpt>
      <trkpt lat="43.64498" lon="1.39904">
        <ele>129</ele>
        <time>2024-03-10T10:43:10Z</time>
      </trkpt>
      <trkpt lat="43.64498" lon="1.39911">
        <ele>129</ele>
        <time>2024-03-10T10:43:11Z</time>
      </trkpt>
      <trkpt lat="43.64499" lon="1.39914">
        <ele>129</ele>
        <time>2024-03-10T10:43:12Z</time>
      </trkpt>
      <trkpt lat="43.64499" lon="1.39914">
        <ele>129</ele>
        <time>2024-03-10T10:43:13Z</time>
      </trkpt>
      <trkpt lat="43.64499" lon="1.39918">
        <ele>128</ele>
        <time>2024-03-10T10:43:14Z</time>
      </trkpt>
      <trkpt lat="43.645" lon="1.39921">
        <ele>128</ele>
        <time>2024-03-10T10:43:15Z</time>
      </trkpt>
      <trkpt lat="43.64503" lon="1.39926">
        <ele>128</ele>
        <time>2024-03-10T10:43:16Z</time>
      </trkpt>
      <trkpt lat="43.64504" lon="1.39929">
        <ele>128</ele>
        <time>2024-03-10T10:43:17Z</time>
      </trkpt>
      <trkpt lat="43.64506" lon="1.39931">
        <ele>128</ele>
        <time>2024-03-10T10:43:18Z</time>
      </trkpt>
      <trkpt lat="43.64507" lon="1.39935">
        <ele>128</ele>
        <time>2024-03-10T10:43:19Z</time>
      </trkpt>
      <trkpt lat="43.64507" lon="1.39935">
        <ele>128</ele>
        <time>2024-03-10T10:43:20Z</time>
      </trkpt>
      <trkpt lat="43.64509" lon="1.39942">
        <ele>128</ele>
        <time>2024-03-10T10:43:21Z</time>
      </trkpt>
      <trkpt lat="43.6451" lon="1.39946">
        <ele>128</ele>
        <time>2024-03-10T10:43:22Z</time>
      </trkpt>
      <trkpt lat="43.6451" lon="1.39946">
        <ele>128</ele>
        <time>2024-03-10T10:43:23Z</time>
      </trkpt>
      <trkpt lat="43.64512" lon="1.39949">
        <ele>128</ele>
        <time>2024-03-10T10:43:24Z</time>
      </trkpt>
      <trkpt lat="43.64514" lon="1.39951">
        <ele>128</ele>
        <time>2024-03-10T10:43:25Z</time>
      </trkpt>
      <trkpt lat="43.64517" lon="1.39953">
        <ele>128</ele>
        <time>2024-03-10T10:43:26Z</time>
      </trkpt>
      <trkpt lat="43.6452" lon="1.39956">
        <ele>128</ele>
        <time>2024-03-10T10:43:27Z</time>
      </trkpt>
      <trkpt lat="43.64522" lon="1.39958">
        <ele>128</ele>
        <time>2024-03-10T10:43:28Z</time>
      </trkpt>
      <trkpt lat="43.64528" lon="1.39961">
        <ele>128</ele>
        <time>2024-03-10T10:43:29Z</time>
      </trkpt>
      <trkpt lat="43.6453" lon="1.39961">
        <ele>128</ele>
        <time>2024-03-10T10:43:30Z</time>
      </trkpt>
      <trkpt lat="43.64533" lon="1.39962">
        <ele>128</ele>
        <time>2024-03-10T10:43:31Z</time>
      </trkpt>
      <trkpt lat="43.64536" lon="1.39962">
        <ele>128</ele>
        <time>2024-03-10T10:43:32Z</time>
      </trkpt>
      <trkpt lat="43.64536" lon="1.39962">
        <ele>128</ele>
        <time>2024-03-10T10:43:33Z</time>
      </trkpt>
      <trkpt lat="43.64538" lon="1.39962">
        <ele>128</ele>
        <time>2024-03-10T10:43:34Z</time>
      </trkpt>
      <trkpt lat="43.64541" lon="1.39963">
        <ele>128</ele>
        <time>2024-03-10T10:43:35Z</time>
      </trkpt>
      <trkpt lat="43.64546" lon="1.39964">
        <ele>128</ele>
        <time>2024-03-10T10:43:36Z</time>
      </trkpt>
      <trkpt lat="43.64549" lon="1.39964">
        <ele>128</ele>
        <time>2024-03-10T10:43:37Z</time>
      </trkpt>
      <trkpt lat="43.64551" lon="1.39963">
        <ele>128</ele>
        <time>2024-03-10T10:43:38Z</time>
      </trkpt>
      <trkpt lat="43.64553" lon="1.39963">
        <ele>128</ele>
        <time>2024-03-10T10:43:39Z</time>
      </trkpt>
      <trkpt lat="43.64553" lon="1.39963">
        <ele>128</ele>
        <time>2024-03-10T10:43:40Z</time>
      </trkpt>
      <trkpt lat="43.64558" lon="1.39961">
        <ele>128</ele>
        <time>2024-03-10T10:43:41Z</time>
      </trkpt>
      <trkpt lat="43.64558" lon="1.39961">
        <ele>128</ele>
        <time>2024-03-10T10:43:42Z</time>
      </trkpt>
      <trkpt lat="43.6456" lon="1.39961">
        <ele>128</ele>
        <time>2024-03-10T10:43:43Z</time>
      </trkpt>
      <trkpt lat="43.64563" lon="1.3996">
        <ele>128</ele>
        <time>2024-03-10T10:43:44Z</time>
      </trkpt>
      <trkpt lat="43.64565" lon="1.39959">
        <ele>128</ele>
        <time>2024-03-10T10:43:45Z</time>
      </trkpt>
      <trkpt lat="43.64567" lon="1.39958">
        <ele>128</ele>
        <time>2024-03-10T10:43:46Z</time>
      </trkpt>
      <trkpt lat="43.64569" lon="1.39957">
        <ele>128</ele>
        <time>2024-03-10T10:43:47Z</time>
      </trkpt>
      <trkpt lat="43.64572" lon="1.39956">
        <ele>128</ele>
        <time>2024-03-10T10:43:48Z</time>
      </trkpt>
      <trkpt lat="43.64574" lon="1.39955">
        <ele>128</ele>
        <time>2024-03-10T10:43:49Z</time>
      </trkpt>
      <trkpt lat="43.64577" lon="1.39953">
        <ele>128</ele>
        <time>2024-03-10T10:43:50Z</time>
      </trkpt>
      <trkpt lat="43.64581" lon="1.39949">
        <ele>128</ele>
        <time>2024-03-10T10:43:51Z</time>
      </trkpt>
      <trkpt lat="43.64581" lon="1.39949">
        <ele>128</ele>
        <time>2024-03-10T10:43:52Z</time>
      </trkpt>
      <trkpt lat="43.64586" lon="1.39946">
        <ele>128</ele>
        <time>2024-03-10T10:43:53Z</time>
      </trkpt>
      <trkpt lat="43.64586" lon="1.39946">
        <ele>128</ele>
        <time>2024-03-10T10:43:54Z</time>
      </trkpt>
      <trkpt lat="43.64588" lon="1.39945">
        <ele>128</ele>
        <time>2024-03-10T10:43:55Z</time>
      </trkpt>
      <trkpt lat="43.6459" lon="1.39943">
        <ele>128</ele>
        <time>2024-03-10T10:43:56Z</time>
      </trkpt>
      <trkpt lat="43.64592" lon="1.39941">
        <ele>128</ele>
        <time>2024-03-10T10:43:57Z</time>
      </trkpt>
      <trkpt lat="43.64597" lon="1.39937">
        <ele>127</ele>
        <time>2024-03-10T10:43:58Z</time>
      </trkpt>
      <trkpt lat="43.64597" lon="1.39937">
        <ele>127</ele>
        <time>2024-03-10T10:43:59Z</time>
      </trkpt>
      <trkpt lat="43.64602" lon="1.39935">
        <ele>127</ele>
        <time>2024-03-10T10:44:00Z</time>
      </trkpt>
      <trkpt lat="43.64602" lon="1.39935">
        <ele>127</ele>
        <time>2024-03-10T10:44:01Z</time>
      </trkpt>
      <trkpt lat="43.64607" lon="1.39933">
        <ele>127</ele>
        <time>2024-03-10T10:44:02Z</time>
      </trkpt>
      <trkpt lat="43.64607" lon="1.39933">
        <ele>127</ele>
        <time>2024-03-10T10:44:03Z</time>
      </trkpt>
      <trkpt lat="43.6461" lon="1.39932">
        <ele>127</ele>
        <time>2024-03-10T10:44:04Z</time>
      </trkpt>
      <trkpt lat="43.64613" lon="1.39932">
        <ele>127</ele>
        <time>2024-03-10T10:44:05Z</time>
      </trkpt>
      <trkpt lat="43.64616" lon="1.39931">
        <ele>127</ele>
        <time>2024-03-10T10:44:06Z</time>
      </trkpt>
      <trkpt lat="43.64622" lon="1.3993">
        <ele>127</ele>
        <time>2024-03-10T10:44:07Z</time>
      </trkpt>
      <trkpt lat="43.64625" lon="1.3993">
        <ele>127</ele>
        <time>2024-03-10T10:44:08Z</time>
      </trkpt>
      <trkpt lat="43.64627" lon="1.3993">
        <ele>127</ele>
        <time>2024-03-10T10:44:09Z</time>
      </trkpt>
      <trkpt lat="43.64627" lon="1.3993">
        <ele>127</ele>
        <time>2024-03-10T10:44:10Z</time>
      </trkpt>
      <trkpt lat="43.6463" lon="1.39929">
        <ele>128</ele>
        <time>2024-03-10T10:44:11Z</time>
      </trkpt>
      <trkpt lat="43.64632" lon="1.39929">
        <ele>128</ele>
        <time>2024-03-10T10:44:12Z</time>
      </trkpt>
      <trkpt lat="43.64635" lon="1.39929">
        <ele>128</ele>
        <time>2024-03-10T10:44:13Z</time>
      </trkpt>
      <trkpt lat="43.64638" lon="1.3993">
        <ele>128</ele>
        <time>2024-03-10T10:44:14Z</time>
      </trkpt>
      <trkpt lat="43.64643" lon="1.39929">
        <ele>128</ele>
        <time>2024-03-10T10:44:15Z</time>
      </trkpt>
      <trkpt lat="43.64646" lon="1.39929">
        <ele>128</ele>
        <time>2024-03-10T10:44:16Z</time>
      </trkpt>
      <trkpt lat="43.64649" lon="1.3993">
        <ele>128</ele>
        <time>2024-03-10T10:44:17Z</time>
      </trkpt>
      <trkpt lat="43.64649" lon="1.3993">
        <ele>128</ele>
        <time>2024-03-10T10:44:18Z</time>
      </trkpt>
      <trkpt lat="43.64655" lon="1.3993">
        <ele>128</ele>
        <time>2024-03-10T10:44:19Z</time>
      </trkpt>
      <trkpt lat="43.64655" lon="1.3993">
        <ele>128</ele>
        <time>2024-03-10T10:44:20Z</time>
      </trkpt>
      <trkpt lat="43.64658" lon="1.3993">
        <ele>128</ele>
        <time>2024-03-10T10:44:21Z</time>
      </trkpt>
      <trkpt lat="43.64661" lon="1.3993">
        <ele>128</ele>
        <time>2024-03-10T10:44:22Z</time>
      </trkpt>
      <trkpt lat="43.64664" lon="1.3993">
        <ele>128</ele>
        <time>2024-03-10T10:44:23Z</time>
      </trkpt>
      <trkpt lat="43.64667" lon="1.3993">
        <ele>128</ele>
        <time>2024-03-10T10:44:24Z</time>
      </trkpt>
      <trkpt lat="43.64673" lon="1.3993">
        <ele>128</ele>
        <time>2024-03-10T10:44:25Z</time>
      </trkpt>
      <trkpt lat="43.64676" lon="1.39931">
        <ele>128</ele>
        <time>2024-03-10T10:44:26Z</time>
      </trkpt>
      <trkpt lat="43.64679" lon="1.3993">
        <ele>128</ele>
        <time>2024-03-10T10:44:27Z</time>
      </trkpt>
      <trkpt lat="43.64679" lon="1.3993">
        <ele>128</ele>
        <time>2024-03-10T10:44:28Z</time>
      </trkpt>
      <trkpt lat="43.64682" lon="1.39929">
        <ele>128</ele>
        <time>2024-03-10T10:44:29Z</time>
      </trkpt>
      <trkpt lat="43.64684" lon="1.3993">
        <ele>128</ele>
        <time>2024-03-10T10:44:30Z</time>
      </trkpt>
      <trkpt lat="43.64687" lon="1.39931">
        <ele>128</ele>
        <time>2024-03-10T10:44:31Z</time>
      </trkpt>
      <trkpt lat="43.64693" lon="1.39934">
        <ele>128</ele>
        <time>2024-03-10T10:44:32Z</time>
      </trkpt>
      <trkpt lat="43.64697" lon="1.39935">
        <ele>128</ele>
        <time>2024-03-10T10:44:33Z</time>
      </trkpt>
      <trkpt lat="43.64702" lon="1.39935">
        <ele>127</ele>
        <time>2024-03-10T10:44:34Z</time>
      </trkpt>
      <trkpt lat="43.64706" lon="1.39935">
        <ele>126</ele>
        <time>2024-03-10T10:44:35Z</time>
      </trkpt>
      <trkpt lat="43.64706" lon="1.39935">
        <ele>125</ele>
        <time>2024-03-10T10:44:36Z</time>
      </trkpt>
      <trkpt lat="43.6471" lon="1.39936">
        <ele>125</ele>
        <time>2024-03-10T10:44:37Z</time>
      </trkpt>
      <trkpt lat="43.64714" lon="1.39937">
        <ele>125</ele>
        <time>2024-03-10T10:44:38Z</time>
      </trkpt>
      <trkpt lat="43.64717" lon="1.39938">
        <ele>125</ele>
        <time>2024-03-10T10:44:39Z</time>
      </trkpt>
      <trkpt lat="43.64721" lon="1.39938">
        <ele>125</ele>
        <time>2024-03-10T10:44:40Z</time>
      </trkpt>
      <trkpt lat="43.64724" lon="1.39938">
        <ele>125</ele>
        <time>2024-03-10T10:44:41Z</time>
      </trkpt>
      <trkpt lat="43.64725" lon="1.39939">
        <ele>125</ele>
        <time>2024-03-10T10:44:42Z</time>
      </trkpt>
      <trkpt lat="43.64727" lon="1.39939">
        <ele>125</ele>
        <time>2024-03-10T10:44:43Z</time>
      </trkpt>
      <trkpt lat="43.64728" lon="1.39939">
        <ele>125</ele>
        <time>2024-03-10T10:44:44Z</time>
      </trkpt>
      <trkpt lat="43.6473" lon="1.39939">
        <ele>125</ele>
        <time>2024-03-10T10:44:45Z</time>
      </trkpt>
      <trkpt lat="43.64738" lon="1.3994">
        <ele>125</ele>
        <time>2024-03-10T10:44:46Z</time>
      </trkpt>
      <trkpt lat="43.64739" lon="1.3994">
        <ele>125</ele>
        <time>2024-03-10T10:44:47Z</time>
      </trkpt>
      <trkpt lat="43.64741" lon="1.3994">
        <ele>125</ele>
        <time>2024-03-10T10:44:48Z</time>
      </trkpt>
      <trkpt lat="43.64743" lon="1.3994">
        <ele>125</ele>
        <time>2024-03-10T10:44:49Z</time>
      </trkpt>
      <trkpt lat="43.6475" lon="1.39939">
        <ele>125</ele>
        <time>2024-03-10T10:44:50Z</time>
      </trkpt>
      <trkpt lat="43.64752" lon="1.3994">
        <ele>125</ele>
        <time>2024-03-10T10:44:51Z</time>
      </trkpt>
      <trkpt lat="43.64755" lon="1.39941">
        <ele>125</ele>
        <time>2024-03-10T10:44:52Z</time>
      </trkpt>
      <trkpt lat="43.64758" lon="1.39943">
        <ele>125</ele>
        <time>2024-03-10T10:44:53Z</time>
      </trkpt>
      <trkpt lat="43.6476" lon="1.39944">
        <ele>125</ele>
        <time>2024-03-10T10:44:54Z</time>
      </trkpt>
      <trkpt lat="43.64763" lon="1.39946">
        <ele>124</ele>
        <time>2024-03-10T10:44:55Z</time>
      </trkpt>
      <trkpt lat="43.64765" lon="1.39947">
        <ele>124</ele>
        <time>2024-03-10T10:44:56Z</time>
      </trkpt>
      <trkpt lat="43.64768" lon="1.39948">
        <ele>124</ele>
        <time>2024-03-10T10:44:57Z</time>
      </trkpt>
      <trkpt lat="43.6477" lon="1.39949">
        <ele>124</ele>
        <time>2024-03-10T10:44:58Z</time>
      </trkpt>
      <trkpt lat="43.64773" lon="1.39949">
        <ele>124</ele>
        <time>2024-03-10T10:44:59Z</time>
      </trkpt>
      <trkpt lat="43.64775" lon="1.3995">
        <ele>123</ele>
        <time>2024-03-10T10:45:00Z</time>
      </trkpt>
      <trkpt lat="43.64777" lon="1.3995">
        <ele>123</ele>
        <time>2024-03-10T10:45:01Z</time>
      </trkpt>
      <trkpt lat="43.64778" lon="1.39951">
        <ele>124</ele>
        <time>2024-03-10T10:45:02Z</time>
      </trkpt>
      <trkpt lat="43.64779" lon="1.39951">
        <ele>124</ele>
        <time>2024-03-10T10:45:03Z</time>
      </trkpt>
      <trkpt lat="43.64781" lon="1.39951">
        <ele>124</ele>
        <time>2024-03-10T10:45:04Z</time>
      </trkpt>
      <trkpt lat="43.64789" lon="1.39953">
        <ele>124</ele>
        <time>2024-03-10T10:45:05Z</time>
      </trkpt>
      <trkpt lat="43.64792" lon="1.39954">
        <ele>124</ele>
        <time>2024-03-10T10:45:06Z</time>
      </trkpt>
      <trkpt lat="43.64794" lon="1.39955">
        <ele>124</ele>
        <time>2024-03-10T10:45:07Z</time>
      </trkpt>
      <trkpt lat="43.64797" lon="1.39955">
        <ele>124</ele>
        <time>2024-03-10T10:45:08Z</time>
      </trkpt>
      <trkpt lat="43.64798" lon="1.39956">
        <ele>124</ele>
        <time>2024-03-10T10:45:09Z</time>
      </trkpt>
      <trkpt lat="43.64799" lon="1.39956">
        <ele>124</ele>
        <time>2024-03-10T10:45:10Z</time>
      </trkpt>
      <trkpt lat="43.648" lon="1.39957">
        <ele>124</ele>
        <time>2024-03-10T10:45:11Z</time>
      </trkpt>
      <trkpt lat="43.64802" lon="1.39957">
        <ele>124</ele>
        <time>2024-03-10T10:45:12Z</time>
      </trkpt>
      <trkpt lat="43.64809" lon="1.3996">
        <ele>124</ele>
        <time>2024-03-10T10:45:13Z</time>
      </trkpt>
      <trkpt lat="43.64812" lon="1.39961">
        <ele>124</ele>
        <time>2024-03-10T10:45:14Z</time>
      </trkpt>
      <trkpt lat="43.64815" lon="1.39962">
        <ele>124</ele>
        <time>2024-03-10T10:45:15Z</time>
      </trkpt>
      <trkpt lat="43.64818" lon="1.39963">
        <ele>124</ele>
        <time>2024-03-10T10:45:16Z</time>
      </trkpt>
      <trkpt lat="43.64821" lon="1.39965">
        <ele>124</ele>
        <time>2024-03-10T10:45:17Z</time>
      </trkpt>
      <trkpt lat="43.64823" lon="1.39966">
        <ele>124</ele>
        <time>2024-03-10T10:45:18Z</time>
      </trkpt>
      <trkpt lat="43.64826" lon="1.39967">
        <ele>124</ele>
        <time>2024-03-10T10:45:19Z</time>
      </trkpt>
      <trkpt lat="43.64829" lon="1.39968">
        <ele>124</ele>
        <time>2024-03-10T10:45:20Z</time>
      </trkpt>
      <trkpt lat="43.64832" lon="1.3997">
        <ele>124</ele>
        <time>2024-03-10T10:45:21Z</time>
      </trkpt>
      <trkpt lat="43.64835" lon="1.39971">
        <ele>124</ele>
        <time>2024-03-10T10:45:22Z</time>
      </trkpt>
      <trkpt lat="43.64838" lon="1.39972">
        <ele>123</ele>
        <time>2024-03-10T10:45:23Z</time>
      </trkpt>
      <trkpt lat="43.64841" lon="1.39974">
        <ele>123</ele>
        <time>2024-03-10T10:45:24Z</time>
      </trkpt>
      <trkpt lat="43.64844" lon="1.39975">
        <ele>123</ele>
        <time>2024-03-10T10:45:25Z</time>
      </trkpt>
      <trkpt lat="43.64846" lon="1.39977">
        <ele>123</ele>
        <time>2024-03-10T10:45:26Z</time>
      </trkpt>
      <trkpt lat="43.64848" lon="1.39977">
        <ele>123</ele>
        <time>2024-03-10T10:45:27Z</time>
      </trkpt>
      <trkpt lat="43.64849" lon="1.39978">
        <ele>122</ele>
        <time>2024-03-10T10:45:28Z</time>
      </trkpt>
      <trkpt lat="43.6485" lon="1.39978">
        <ele>122</ele>
        <time>2024-03-10T10:45:29Z</time>
      </trkpt>
      <trkpt lat="43.64851" lon="1.39979">
        <ele>122</ele>
        <time>2024-03-10T10:45:30Z</time>
      </trkpt>
      <trkpt lat="43.64858" lon="1.39982">
        <ele>122</ele>
        <time>2024-03-10T10:45:31Z</time>
      </trkpt>
      <trkpt lat="43.64861" lon="1.39984">
        <ele>122</ele>
        <time>2024-03-10T10:45:32Z</time>
      </trkpt>
      <trkpt lat="43.64863" lon="1.39986">
        <ele>122</ele>
        <time>2024-03-10T10:45:33Z</time>
      </trkpt>
      <trkpt lat="43.64865" lon="1.39987">
        <ele>122</ele>
        <time>2024-03-10T10:45:34Z</time>
      </trkpt>
      <trkpt lat="43.64868" lon="1.39989">
        <ele>122</ele>
        <time>2024-03-10T10:45:35Z</time>
      </trkpt>
      <trkpt lat="43.64871" lon="1.3999">
        <ele>122</ele>
        <time>2024-03-10T10:45:36Z</time>
      </trkpt>
      <trkpt lat="43.64875" lon="1.39992">
        <ele>122</ele>
        <time>2024-03-10T10:45:37Z</time>
      </trkpt>
      <trkpt lat="43.64876" lon="1.39993">
        <ele>122</ele>
        <time>2024-03-10T10:45:38Z</time>
      </trkpt>
      <trkpt lat="43.64877" lon="1.39994">
        <ele>122</ele>
        <time>2024-03-10T10:45:39Z</time>
      </trkpt>
      <trkpt lat="43.64878" lon="1.39995">
        <ele>122</ele>
        <time>2024-03-10T10:45:40Z</time>
      </trkpt>
      <trkpt lat="43.6488" lon="1.39995">
        <ele>122</ele>
        <time>2024-03-10T10:45:41Z</time>
      </trkpt>
      <trkpt lat="43.64886" lon="1.4">
        <ele>122</ele>
        <time>2024-03-10T10:45:42Z</time>
      </trkpt>
      <trkpt lat="43.64887" lon="1.40001">
        <ele>122</ele>
        <time>2024-03-10T10:45:43Z</time>
      </trkpt>
      <trkpt lat="43.64888" lon="1.40002">
        <ele>122</ele>
        <time>2024-03-10T10:45:44Z</time>
      </trkpt>
      <trkpt lat="43.6489" lon="1.40003">
        <ele>122</ele>
        <time>2024-03-10T10:45:45Z</time>
      </trkpt>
      <trkpt lat="43.64897" lon="1.40011">
        <ele>122</ele>
        <time>2024-03-10T10:45:46Z</time>
      </trkpt>
      <trkpt lat="43.649" lon="1.40014">
        <ele>122</ele>
        <time>2024-03-10T10:45:47Z</time>
      </trkpt>
      <trkpt lat="43.64902" lon="1.40017">
        <ele>122</ele>
        <time>2024-03-10T10:45:48Z</time>
      </trkpt>
      <trkpt lat="43.64903" lon="1.40019">
        <ele>122</ele>
        <time>2024-03-10T10:45:49Z</time>
      </trkpt>
      <trkpt lat="43.64905" lon="1.4002">
        <ele>122</ele>
        <time>2024-03-10T10:45:50Z</time>
      </trkpt>
      <trkpt lat="43.64906" lon="1.40022">
        <ele>122</ele>
        <time>2024-03-10T10:45:51Z</time>
      </trkpt>
      <trkpt lat="43.64907" lon="1.40023">
        <ele>122</ele>
        <time>2024-03-10T10:45:52Z</time>
      </trkpt>
      <trkpt lat="43.64913" lon="1.4003">
        <ele>122</ele>
        <time>2024-03-10T10:45:53Z</time>
      </trkpt>
      <trkpt lat="43.64915" lon="1.40032">
        <ele>122</ele>
        <time>2024-03-10T10:45:54Z</time>
      </trkpt>
      <trkpt lat="43.64917" lon="1.40033">
        <ele>122</ele>
        <time>2024-03-10T10:45:55Z</time>
      </trkpt>
      <trkpt lat="43.64919" lon="1.40035">
        <ele>122</ele>
        <time>2024-03-10T10:45:56Z</time>
      </trkpt>
      <trkpt lat="43.64921" lon="1.40036">
        <ele>122</ele>
        <time>2024-03-10T10:45:57Z</time>
      </trkpt>
      <trkpt lat="43.64922" lon="1.40036">
        <ele>121</ele>
        <time>2024-03-10T10:45:58Z</time>
      </trkpt>
      <trkpt lat="43.64923" lon="1.40037">
        <ele>121</ele>
        <time>2024-03-10T10:45:59Z</time>
      </trkpt>
      <trkpt lat="43.64924" lon="1.40038">
        <ele>122</ele>
        <time>2024-03-10T10:46:00Z</time>
      </trkpt>
      <trkpt lat="43.64932" lon="1.40041">
        <ele>122</ele>
        <time>2024-03-10T10:46:01Z</time>
      </trkpt>
      <trkpt lat="43.64934" lon="1.40042">
        <ele>122</ele>
        <time>2024-03-10T10:46:02Z</time>
      </trkpt>
      <trkpt lat="43.64936" lon="1.40043">
        <ele>122</ele>
        <time>2024-03-10T10:46:03Z</time>
      </trkpt>
      <trkpt lat="43.64938" lon="1.40044">
        <ele>122</ele>
        <time>2024-03-10T10:46:04Z</time>
      </trkpt>
      <trkpt lat="43.64939" lon="1.40045">
        <ele>122</ele>
        <time>2024-03-10T10:46:05Z</time>
      </trkpt>
      <trkpt lat="43.6494" lon="1.40046">
        <ele>122</ele>
        <time>2024-03-10T10:46:06Z</time>
      </trkpt>
      <trkpt lat="43.64941" lon="1.40047">
        <ele>122</ele>
        <time>2024-03-10T10:46:07Z</time>
      </trkpt>
      <trkpt lat="43.64942" lon="1.40048">
        <ele>122</ele>
        <time>2024-03-10T10:46:08Z</time>
      </trkpt>
      <trkpt lat="43.64949" lon="1.40054">
        <ele>121</ele>
        <time>2024-03-10T10:46:09Z</time>
      </trkpt>
      <trkpt lat="43.64952" lon="1.40056">
        <ele>121</ele>
        <time>2024-03-10T10:46:10Z</time>
      </trkpt>
      <trkpt lat="43.64954" lon="1.40057">
        <ele>121</ele>
        <time>2024-03-10T10:46:11Z</time>
      </trkpt>
      <trkpt lat="43.64957" lon="1.40059">
        <ele>121</ele>
        <time>2024-03-10T10:46:12Z</time>
      </trkpt>
      <trkpt lat="43.64959" lon="1.4006">
        <ele>121</ele>
        <time>2024-03-10T10:46:13Z</time>
      </trkpt>
      <trkpt lat="43.64961" lon="1.40061">
        <ele>122</ele>
        <time>2024-03-10T10:46:14Z</time>
      </trkpt>
      <trkpt lat="43.64964" lon="1.40063">
        <ele>122</ele>
        <time>2024-03-10T10:46:15Z</time>
      </trkpt>
      <trkpt lat="43.64966" lon="1.40064">
        <ele>122</ele>
        <time>2024-03-10T10:46:16Z</time>
      </trkpt>
      <trkpt lat="43.64968" lon="1.40064">
        <ele>122</ele>
        <time>2024-03-10T10:46:17Z</time>
      </trkpt>
      <trkpt lat="43.64969" lon="1.40065">
        <ele>122</ele>
        <time>2024-03-10T10:46:18Z</time>
      </trkpt>
      <trkpt lat="43.64971" lon="1.40066">
        <ele>122</ele>
        <time>2024-03-10T10:46:19Z</time>
      </trkpt>
      <trkpt lat="43.64972" lon="1.40066">
        <ele>122</ele>
        <time>2024-03-10T10:46:20Z</time>
      </trkpt>
      <trkpt lat="43.6498" lon="1.40069">
        <ele>122</ele>
        <time>2024-03-10T10:46:21Z</time>
      </trkpt>
      <trkpt lat="43.64981" lon="1.4007">
        <ele>122</ele>
        <time>2024-03-10T10:46:22Z</time>
      </trkpt>
      <trkpt lat="43.64982" lon="1.40071">
        <ele>122</ele>
        <time>2024-03-10T10:46:23Z</time>
      </trkpt>
      <trkpt lat="43.64983" lon="1.40072">
        <ele>122</ele>
        <time>2024-03-10T10:46:24Z</time>
      </trkpt>
      <trkpt lat="43.64991" lon="1.40077">
        <ele>122</ele>
        <time>2024-03-10T10:46:25Z</time>
      </trkpt>
      <trkpt lat="43.64993" lon="1.40079">
        <ele>122</ele>
        <time>2024-03-10T10:46:26Z</time>
      </trkpt>
      <trkpt lat="43.64995" lon="1.4008">
        <ele>122</ele>
        <time>2024-03-10T10:46:27Z</time>
      </trkpt>
      <trkpt lat="43.64997" lon="1.40082">
        <ele>122</ele>
        <time>2024-03-10T10:46:28Z</time>
      </trkpt>
      <trkpt lat="43.64998" lon="1.40083">
        <ele>123</ele>
        <time>2024-03-10T10:46:29Z</time>
      </trkpt>
      <trkpt lat="43.64999" lon="1.40084">
        <ele>123</ele>
        <time>2024-03-10T10:46:30Z</time>
      </trkpt>
      <trkpt lat="43.65" lon="1.40085">
        <ele>124</ele>
        <time>2024-03-10T10:46:31Z</time>
      </trkpt>
      <trkpt lat="43.65002" lon="1.40086">
        <ele>124</ele>
        <time>2024-03-10T10:46:32Z</time>
      </trkpt>
      <trkpt lat="43.65008" lon="1.40091">
        <ele>124</ele>
        <time>2024-03-10T10:46:33Z</time>
      </trkpt>
      <trkpt lat="43.65011" lon="1.40093">
        <ele>124</ele>
        <time>2024-03-10T10:46:34Z</time>
      </trkpt>
      <trkpt lat="43.65013" lon="1.40095">
        <ele>124</ele>
        <time>2024-03-10T10:46:35Z</time>
      </trkpt>
      <trkpt lat="43.65018" lon="1.40101">
        <ele>124</ele>
        <time>2024-03-10T10:46:36Z</time>
      </trkpt>
      <trkpt lat="43.6502" lon="1.40103">
        <ele>124</ele>
        <time>2024-03-10T10:46:37Z</time>
      </trkpt>
      <trkpt lat="43.6502" lon="1.40103">
        <ele>123</ele>
        <time>2024-03-10T10:46:38Z</time>
      </trkpt>
      <trkpt lat="43.65022" lon="1.40106">
        <ele>123</ele>
        <time>2024-03-10T10:46:39Z</time>
      </trkpt>
      <trkpt lat="43.65023" lon="1.40107">
        <ele>123</ele>
        <time>2024-03-10T10:46:40Z</time>
      </trkpt>
      <trkpt lat="43.65023" lon="1.40109">
        <ele>123</ele>
        <time>2024-03-10T10:46:41Z</time>
      </trkpt>
      <trkpt lat="43.65024" lon="1.4011">
        <ele>123</ele>
        <time>2024-03-10T10:46:42Z</time>
      </trkpt>
      <trkpt lat="43.65025" lon="1.40112">
        <ele>122</ele>
        <time>2024-03-10T10:46:43Z</time>
      </trkpt>
      <trkpt lat="43.65031" lon="1.40121">
        <ele>122</ele>
        <time>2024-03-10T10:46:44Z</time>
      </trkpt>
      <trkpt lat="43.65033" lon="1.40124">
        <ele>122</ele>
        <time>2024-03-10T10:46:45Z</time>
      </trkpt>
      <trkpt lat="43.65035" lon="1.40127">
        <ele>122</ele>
        <time>2024-03-10T10:46:46Z</time>
      </trkpt>
      <trkpt lat="43.65037" lon="1.40129">
        <ele>122</ele>
        <time>2024-03-10T10:46:47Z</time>
      </trkpt>
      <trkpt lat="43.65039" lon="1.4013">
        <ele>122</ele>
        <time>2024-03-10T10:46:48Z</time>
      </trkpt>
      <trkpt lat="43.65041" lon="1.40132">
        <ele>122</ele>
        <time>2024-03-10T10:46:49Z</time>
      </trkpt>
      <trkpt lat="43.65043" lon="1.40133">
        <ele>122</ele>
        <time>2024-03-10T10:46:50Z</time>
      </trkpt>
      <trkpt lat="43.65045" lon="1.40134">
        <ele>122</ele>
        <time>2024-03-10T10:46:51Z</time>
      </trkpt>
      <trkpt lat="43.65047" lon="1.40135">
        <ele>122</ele>
        <time>2024-03-10T10:46:52Z</time>
      </trkpt>
      <trkpt lat="43.6505" lon="1.40136">
        <ele>122</ele>
        <time>2024-03-10T10:46:53Z</time>
      </trkpt>
      <trkpt lat="43.65052" lon="1.40137">
        <ele>122</ele>
        <time>2024-03-10T10:46:54Z</time>
      </trkpt>
      <trkpt lat="43.65053" lon="1.40138">
        <ele>123</ele>
        <time>2024-03-10T10:46:55Z</time>
      </trkpt>
      <trkpt lat="43.65054" lon="1.40138">
        <ele>123</ele>
        <time>2024-03-10T10:46:56Z</time>
      </trkpt>
      <trkpt lat="43.65054" lon="1.40139">
        <ele>122</ele>
        <time>2024-03-10T10:46:57Z</time>
      </trkpt>
      <trkpt lat="43.65055" lon="1.4014">
        <ele>122</ele>
        <time>2024-03-10T10:46:58Z</time>
      </trkpt>
      <trkpt lat="43.65056" lon="1.40141">
        <ele>123</ele>
        <time>2024-03-10T10:46:59Z</time>
      </trkpt>
      <trkpt lat="43.65062" lon="1.40147">
        <ele>123</ele>
        <time>2024-03-10T10:47:00Z</time>
      </trkpt>
      <trkpt lat="43.65064" lon="1.4015">
        <ele>123</ele>
        <time>2024-03-10T10:47:01Z</time>
      </trkpt>
      <trkpt lat="43.65066" lon="1.40152">
        <ele>123</ele>
        <time>2024-03-10T10:47:02Z</time>
      </trkpt>
      <trkpt lat="43.65068" lon="1.40154">
        <ele>123</ele>
        <time>2024-03-10T10:47:03Z</time>
      </trkpt>
      <trkpt lat="43.6507" lon="1.40155">
        <ele>123</ele>
        <time>2024-03-10T10:47:04Z</time>
      </trkpt>
      <trkpt lat="43.65071" lon="1.40156">
        <ele>123</ele>
        <time>2024-03-10T10:47:05Z</time>
      </trkpt>
      <trkpt lat="43.65072" lon="1.40157">
        <ele>123</ele>
        <time>2024-03-10T10:47:06Z</time>
      </trkpt>
      <trkpt lat="43.65074" lon="1.40158">
        <ele>123</ele>
        <time>2024-03-10T10:47:07Z</time>
      </trkpt>
      <trkpt lat="43.65081" lon="1.40165">
        <ele>123</ele>
        <time>2024-03-10T10:47:08Z</time>
      </trkpt>
      <trkpt lat="43.65083" lon="1.40168">
        <ele>123</ele>
        <time>2024-03-10T10:47:09Z</time>
      </trkpt>
      <trkpt lat="43.65085" lon="1.40171">
        <ele>123</ele>
        <time>2024-03-10T10:47:10Z</time>
      </trkpt>
      <trkpt lat="43.65087" lon="1.40173">
        <ele>123</ele>
        <time>2024-03-10T10:47:11Z</time>
      </trkpt>
      <trkpt lat="43.65089" lon="1.40176">
        <ele>123</ele>
        <time>2024-03-10T10:47:12Z</time>
      </trkpt>
      <trkpt lat="43.65092" lon="1.40178">
        <ele>124</ele>
        <time>2024-03-10T10:47:13Z</time>
      </trkpt>
      <trkpt lat="43.65094" lon="1.40181">
        <ele>124</ele>
        <time>2024-03-10T10:47:14Z</time>
      </trkpt>
      <trkpt lat="43.65097" lon="1.40184">
        <ele>124</ele>
        <time>2024-03-10T10:47:15Z</time>
      </trkpt>
      <trkpt lat="43.65099" lon="1.40187">
        <ele>124</ele>
        <time>2024-03-10T10:47:16Z</time>
      </trkpt>
      <trkpt lat="43.65102" lon="1.40191">
        <ele>124</ele>
        <time>2024-03-10T10:47:17Z</time>
      </trkpt>
      <trkpt lat="43.65103" lon="1.40192">
        <ele>124</ele>
        <time>2024-03-10T10:47:18Z</time>
      </trkpt>
      <trkpt lat="43.65105" lon="1.40194">
        <ele>124</ele>
        <time>2024-03-10T10:47:19Z</time>
      </trkpt>
      <trkpt lat="43.65106" lon="1.40195">
        <ele>124</ele>
        <time>2024-03-10T10:47:20Z</time>
      </trkpt>
      <trkpt lat="43.65111" lon="1.40203">
        <ele>124</ele>
        <time>2024-03-10T10:47:21Z</time>
      </trkpt>
      <trkpt lat="43.65113" lon="1.40207">
        <ele>124</ele>
        <time>2024-03-10T10:47:22Z</time>
      </trkpt>
      <trkpt lat="43.65115" lon="1.4021">
        <ele>124</ele>
        <time>2024-03-10T10:47:23Z</time>
      </trkpt>
      <trkpt lat="43.65117" lon="1.40212">
        <ele>124</ele>
        <time>2024-03-10T10:47:24Z</time>
      </trkpt>
      <trkpt lat="43.65119" lon="1.40213">
        <ele>124</ele>
        <time>2024-03-10T10:47:25Z</time>
      </trkpt>
      <trkpt lat="43.65121" lon="1.40215">
        <ele>124</ele>
        <time>2024-03-10T10:47:26Z</time>
      </trkpt>
      <trkpt lat="43.65123" lon="1.40217">
        <ele>124</ele>
        <time>2024-03-10T10:47:27Z</time>
      </trkpt>
      <trkpt lat="43.65125" lon="1.40219">
        <ele>124</ele>
        <time>2024-03-10T10:47:28Z</time>
      </trkpt>
      <trkpt lat="43.65127" lon="1.4022">
        <ele>124</ele>
        <time>2024-03-10T10:47:29Z</time>
      </trkpt>
      <trkpt lat="43.65129" lon="1.40222">
        <ele>124</ele>
        <time>2024-03-10T10:47:30Z</time>
      </trkpt>
      <trkpt lat="43.65131" lon="1.40224">
        <ele>124</ele>
        <time>2024-03-10T10:47:31Z</time>
      </trkpt>
      <trkpt lat="43.65133" lon="1.40226">
        <ele>123</ele>
        <time>2024-03-10T10:47:32Z</time>
      </trkpt>
      <trkpt lat="43.65135" lon="1.40227">
        <ele>123</ele>
        <time>2024-03-10T10:47:33Z</time>
      </trkpt>
      <trkpt lat="43.65137" lon="1.40229">
        <ele>124</ele>
        <time>2024-03-10T10:47:34Z</time>
      </trkpt>
      <trkpt lat="43.65139" lon="1.40231">
        <ele>124</ele>
        <time>2024-03-10T10:47:35Z</time>
      </trkpt>
      <trkpt lat="43.65141" lon="1.40233">
        <ele>124</ele>
        <time>2024-03-10T10:47:36Z</time>
      </trkpt>
      <trkpt lat="43.65143" lon="1.40234">
        <ele>124</ele>
        <time>2024-03-10T10:47:37Z</time>
      </trkpt>
      <trkpt lat="43.65144" lon="1.40236">
        <ele>124</ele>
        <time>2024-03-10T10:47:38Z</time>
      </trkpt>
      <trkpt lat="43.65146" lon="1.40237">
        <ele>124</ele>
        <time>2024-03-10T10:47:39Z</time>
      </trkpt>
      <trkpt lat="43.65152" lon="1.40244">
        <ele>124</ele>
        <time>2024-03-10T10:47:40Z</time>
      </trkpt>
      <trkpt lat="43.65154" lon="1.40247">
        <ele>123</ele>
        <time>2024-03-10T10:47:41Z</time>
      </trkpt>
      <trkpt lat="43.65156" lon="1.4025">
        <ele>123</ele>
        <time>2024-03-10T10:47:42Z</time>
      </trkpt>
      <trkpt lat="43.65158" lon="1.40253">
        <ele>123</ele>
        <time>2024-03-10T10:47:43Z</time>
      </trkpt>
      <trkpt lat="43.65159" lon="1.40255">
        <ele>124</ele>
        <time>2024-03-10T10:47:44Z</time>
      </trkpt>
      <trkpt lat="43.65161" lon="1.40257">
        <ele>124</ele>
        <time>2024-03-10T10:47:45Z</time>
      </trkpt>
      <trkpt lat="43.65163" lon="1.40259">
        <ele>123</ele>
        <time>2024-03-10T10:47:46Z</time>
      </trkpt>
      <trkpt lat="43.65164" lon="1.40262">
        <ele>123</ele>
        <time>2024-03-10T10:47:47Z</time>
      </trkpt>
      <trkpt lat="43.65167" lon="1.40264">
        <ele>123</ele>
        <time>2024-03-10T10:47:48Z</time>
      </trkpt>
      <trkpt lat="43.65169" lon="1.40267">
        <ele>123</ele>
        <time>2024-03-10T10:47:49Z</time>
      </trkpt>
      <trkpt lat="43.65171" lon="1.4027">
        <ele>123</ele>
        <time>2024-03-10T10:47:50Z</time>
      </trkpt>
      <trkpt lat="43.65173" lon="1.40273">
        <ele>123</ele>
        <time>2024-03-10T10:47:51Z</time>
      </trkpt>
      <trkpt lat="43.65176" lon="1.40276">
        <ele>123</ele>
        <time>2024-03-10T10:47:52Z</time>
      </trkpt>
      <trkpt lat="43.65179" lon="1.40279">
        <ele>122</ele>
        <time>2024-03-10T10:47:53Z</time>
      </trkpt>
      <trkpt lat="43.6518" lon="1.40281">
        <ele>122</ele>
        <time>2024-03-10T10:47:54Z</time>
      </trkpt>
      <trkpt lat="43.65182" lon="1.40282">
        <ele>122</ele>
        <time>2024-03-10T10:47:55Z</time>
      </trkpt>
      <trkpt lat="43.65184" lon="1.40284">
        <ele>122</ele>
        <time>2024-03-10T10:47:56Z</time>
      </trkpt>
      <trkpt lat="43.65185" lon="1.40285">
        <ele>122</ele>
        <time>2024-03-10T10:47:57Z</time>
      </trkpt>
      <trkpt lat="43.65192" lon="1.40291">
        <ele>123</ele>
        <time>2024-03-10T10:47:58Z</time>
      </trkpt>
      <trkpt lat="43.65195" lon="1.40293">
        <ele>123</ele>
        <time>2024-03-10T10:47:59Z</time>
      </trkpt>
      <trkpt lat="43.65197" lon="1.40295">
        <ele>123</ele>
        <time>2024-03-10T10:48:00Z</time>
      </trkpt>
      <trkpt lat="43.652" lon="1.40296">
        <ele>123</ele>
        <time>2024-03-10T10:48:01Z</time>
      </trkpt>
      <trkpt lat="43.652" lon="1.40296">
        <ele>123</ele>
        <time>2024-03-10T10:48:02Z</time>
      </trkpt>
      <trkpt lat="43.65204" lon="1.403">
        <ele>123</ele>
        <time>2024-03-10T10:48:03Z</time>
      </trkpt>
      <trkpt lat="43.65204" lon="1.403">
        <ele>123</ele>
        <time>2024-03-10T10:48:04Z</time>
      </trkpt>
      <trkpt lat="43.65206" lon="1.40302">
        <ele>123</ele>
        <time>2024-03-10T10:48:05Z</time>
      </trkpt>
      <trkpt lat="43.65208" lon="1.40304">
        <ele>123</ele>
        <time>2024-03-10T10:48:06Z</time>
      </trkpt>
      <trkpt lat="43.65213" lon="1.40308">
        <ele>123</ele>
        <time>2024-03-10T10:48:07Z</time>
      </trkpt>
      <trkpt lat="43.65215" lon="1.40311">
        <ele>123</ele>
        <time>2024-03-10T10:48:08Z</time>
      </trkpt>
      <trkpt lat="43.65215" lon="1.40311">
        <ele>123</ele>
        <time>2024-03-10T10:48:09Z</time>
      </trkpt>
      <trkpt lat="43.65216" lon="1.40312">
        <ele>122</ele>
        <time>2024-03-10T10:48:10Z</time>
      </trkpt>
      <trkpt lat="43.65217" lon="1.40313">
        <ele>122</ele>
        <time>2024-03-10T10:48:11Z</time>
      </trkpt>
      <trkpt lat="43.65218" lon="1.40314">
        <ele>122</ele>
        <time>2024-03-10T10:48:12Z</time>
      </trkpt>
      <trkpt lat="43.65219" lon="1.40315">
        <ele>122</ele>
        <time>2024-03-10T10:48:13Z</time>
      </trkpt>
      <trkpt lat="43.65225" lon="1.40322">
        <ele>122</ele>
        <time>2024-03-10T10:48:14Z</time>
      </trkpt>
      <trkpt lat="43.65226" lon="1.40323">
        <ele>122</ele>
        <time>2024-03-10T10:48:15Z</time>
      </trkpt>
      <trkpt lat="43.65227" lon="1.40325">
        <ele>122</ele>
        <time>2024-03-10T10:48:16Z</time>
      </trkpt>
      <trkpt lat="43.65233" lon="1.40333">
        <ele>122</ele>
        <time>2024-03-10T10:48:17Z</time>
      </trkpt>
      <trkpt lat="43.65235" lon="1.40335">
        <ele>122</ele>
        <time>2024-03-10T10:48:18Z</time>
      </trkpt>
      <trkpt lat="43.65237" lon="1.40337">
        <ele>122</ele>
        <time>2024-03-10T10:48:19Z</time>
      </trkpt>
      <trkpt lat="43.65239" lon="1.4034">
        <ele>122</ele>
        <time>2024-03-10T10:48:20Z</time>
      </trkpt>
      <trkpt lat="43.65242" lon="1.40342">
        <ele>122</ele>
        <time>2024-03-10T10:48:21Z</time>
      </trkpt>
      <trkpt lat="43.65244" lon="1.40343">
        <ele>122</ele>
        <time>2024-03-10T10:48:22Z</time>
      </trkpt>
      <trkpt lat="43.65246" lon="1.40345">
        <ele>122</ele>
        <time>2024-03-10T10:48:23Z</time>
      </trkpt>
      <trkpt lat="43.65249" lon="1.40347">
        <ele>122</ele>
        <time>2024-03-10T10:48:24Z</time>
      </trkpt>
      <trkpt lat="43.6525" lon="1.4035">
        <ele>122</ele>
        <time>2024-03-10T10:48:25Z</time>
      </trkpt>
      <trkpt lat="43.65251" lon="1.40354">
        <ele>122</ele>
        <time>2024-03-10T10:48:26Z</time>
      </trkpt>
      <trkpt lat="43.65253" lon="1.40358">
        <ele>122</ele>
        <time>2024-03-10T10:48:27Z</time>
      </trkpt>
      <trkpt lat="43.65254" lon="1.40359">
        <ele>122</ele>
        <time>2024-03-10T10:48:28Z</time>
      </trkpt>
      <trkpt lat="43.65255" lon="1.4036">
        <ele>122</ele>
        <time>2024-03-10T10:48:29Z</time>
      </trkpt>
      <trkpt lat="43.65256" lon="1.40361">
        <ele>122</ele>
        <time>2024-03-10T10:48:30Z</time>
      </trkpt>
      <trkpt lat="43.65257" lon="1.40362">
        <ele>122</ele>
        <time>2024-03-10T10:48:31Z</time>
      </trkpt>
      <trkpt lat="43.65264" lon="1.40369">
        <ele>122</ele>
        <time>2024-03-10T10:48:32Z</time>
      </trkpt>
      <trkpt lat="43.65266" lon="1.40371">
        <ele>122</ele>
        <time>2024-03-10T10:48:33Z</time>
      </trkpt>
      <trkpt lat="43.65268" lon="1.40373">
        <ele>122</ele>
        <time>2024-03-10T10:48:34Z</time>
      </trkpt>
      <trkpt lat="43.6527" lon="1.40375">
        <ele>122</ele>
        <time>2024-03-10T10:48:35Z</time>
      </trkpt>
      <trkpt lat="43.65272" lon="1.40376">
        <ele>122</ele>
        <time>2024-03-10T10:48:36Z</time>
      </trkpt>
      <trkpt lat="43.65273" lon="1.40378">
        <ele>122</ele>
        <time>2024-03-10T10:48:37Z</time>
      </trkpt>
      <trkpt lat="43.65274" lon="1.40379">
        <ele>122</ele>
        <time>2024-03-10T10:48:38Z</time>
      </trkpt>
      <trkpt lat="43.65275" lon="1.40381">
        <ele>122</ele>
        <time>2024-03-10T10:48:39Z</time>
      </trkpt>
      <trkpt lat="43.65281" lon="1.40389">
        <ele>122</ele>
        <time>2024-03-10T10:48:40Z</time>
      </trkpt>
      <trkpt lat="43.65284" lon="1.40391">
        <ele>122</ele>
        <time>2024-03-10T10:48:41Z</time>
      </trkpt>
      <trkpt lat="43.65286" lon="1.40394">
        <ele>122</ele>
        <time>2024-03-10T10:48:42Z</time>
      </trkpt>
      <trkpt lat="43.65289" lon="1.40395">
        <ele>122</ele>
        <time>2024-03-10T10:48:43Z</time>
      </trkpt>
      <trkpt lat="43.65293" lon="1.40396">
        <ele>122</ele>
        <time>2024-03-10T10:48:44Z</time>
      </trkpt>
      <trkpt lat="43.65296" lon="1.40398">
        <ele>122</ele>
        <time>2024-03-10T10:48:45Z</time>
      </trkpt>
      <trkpt lat="43.65296" lon="1.40398">
        <ele>122</ele>
        <time>2024-03-10T10:48:46Z</time>
      </trkpt>
      <trkpt lat="43.653" lon="1.40401">
        <ele>122</ele>
        <time>2024-03-10T10:48:47Z</time>
      </trkpt>
      <trkpt lat="43.653" lon="1.40401">
        <ele>122</ele>
        <time>2024-03-10T10:48:48Z</time>
      </trkpt>
      <trkpt lat="43.65304" lon="1.40405">
        <ele>122</ele>
        <time>2024-03-10T10:48:49Z</time>
      </trkpt>
      <trkpt lat="43.65304" lon="1.40405">
        <ele>122</ele>
        <time>2024-03-10T10:48:50Z</time>
      </trkpt>
      <trkpt lat="43.65306" lon="1.40405">
        <ele>122</ele>
        <time>2024-03-10T10:48:51Z</time>
      </trkpt>
      <trkpt lat="43.65308" lon="1.40407">
        <ele>122</ele>
        <time>2024-03-10T10:48:52Z</time>
      </trkpt>
      <trkpt lat="43.65309" lon="1.40408">
        <ele>122</ele>
        <time>2024-03-10T10:48:53Z</time>
      </trkpt>
      <trkpt lat="43.6531" lon="1.4041">
        <ele>122</ele>
        <time>2024-03-10T10:48:54Z</time>
      </trkpt>
      <trkpt lat="43.65311" lon="1.40411">
        <ele>122</ele>
        <time>2024-03-10T10:48:55Z</time>
      </trkpt>
      <trkpt lat="43.65312" lon="1.40413">
        <ele>122</ele>
        <time>2024-03-10T10:48:56Z</time>
      </trkpt>
      <trkpt lat="43.65319" lon="1.40422">
        <ele>122</ele>
        <time>2024-03-10T10:48:57Z</time>
      </trkpt>
      <trkpt lat="43.65321" lon="1.40425">
        <ele>122</ele>
        <time>2024-03-10T10:48:58Z</time>
      </trkpt>
      <trkpt lat="43.65323" lon="1.40428">
        <ele>122</ele>
        <time>2024-03-10T10:48:59Z</time>
      </trkpt>
      <trkpt lat="43.65326" lon="1.40432">
        <ele>122</ele>
        <time>2024-03-10T10:49:00Z</time>
      </trkpt>
      <trkpt lat="43.65328" lon="1.40435">
        <ele>122</ele>
        <time>2024-03-10T10:49:01Z</time>
      </trkpt>
      <trkpt lat="43.65331" lon="1.40438">
        <ele>122</ele>
        <time>2024-03-10T10:49:02Z</time>
      </trkpt>
      <trkpt lat="43.65332" lon="1.40439">
        <ele>122</ele>
        <time>2024-03-10T10:49:03Z</time>
      </trkpt>
      <trkpt lat="43.65333" lon="1.4044">
        <ele>122</ele>
        <time>2024-03-10T10:49:04Z</time>
      </trkpt>
      <trkpt lat="43.65334" lon="1.40442">
        <ele>122</ele>
        <time>2024-03-10T10:49:05Z</time>
      </trkpt>
      <trkpt lat="43.65335" lon="1.40443">
        <ele>122</ele>
        <time>2024-03-10T10:49:06Z</time>
      </trkpt>
      <trkpt lat="43.65342" lon="1.4045">
        <ele>122</ele>
        <time>2024-03-10T10:49:07Z</time>
      </trkpt>
      <trkpt lat="43.65344" lon="1.40452">
        <ele>122</ele>
        <time>2024-03-10T10:49:08Z</time>
      </trkpt>
      <trkpt lat="43.65347" lon="1.40454">
        <ele>122</ele>
        <time>2024-03-10T10:49:09Z</time>
      </trkpt>
      <trkpt lat="43.65349" lon="1.40456">
        <ele>122</ele>
        <time>2024-03-10T10:49:10Z</time>
      </trkpt>
      <trkpt lat="43.65351" lon="1.40458">
        <ele>122</ele>
        <time>2024-03-10T10:49:11Z</time>
      </trkpt>
      <trkpt lat="43.65354" lon="1.4046">
        <ele>122</ele>
        <time>2024-03-10T10:49:12Z</time>
      </trkpt>
      <trkpt lat="43.65356" lon="1.40462">
        <ele>122</ele>
        <time>2024-03-10T10:49:13Z</time>
      </trkpt>
      <trkpt lat="43.65359" lon="1.40465">
        <ele>122</ele>
        <time>2024-03-10T10:49:14Z</time>
      </trkpt>
      <trkpt lat="43.65362" lon="1.40468">
        <ele>122</ele>
        <time>2024-03-10T10:49:15Z</time>
      </trkpt>
      <trkpt lat="43.65365" lon="1.4047">
        <ele>122</ele>
        <time>2024-03-10T10:49:16Z</time>
      </trkpt>
      <trkpt lat="43.65368" lon="1.40473">
        <ele>122</ele>
        <time>2024-03-10T10:49:17Z</time>
      </trkpt>
      <trkpt lat="43.6537" lon="1.40475">
        <ele>122</ele>
        <time>2024-03-10T10:49:18Z</time>
      </trkpt>
      <trkpt lat="43.6537" lon="1.40475">
        <ele>122</ele>
        <time>2024-03-10T10:49:19Z</time>
      </trkpt>
      <trkpt lat="43.65374" lon="1.40476">
        <ele>122</ele>
        <time>2024-03-10T10:49:20Z</time>
      </trkpt>
      <trkpt lat="43.65377" lon="1.40477">
        <ele>121</ele>
        <time>2024-03-10T10:49:21Z</time>
      </trkpt>
      <trkpt lat="43.65381" lon="1.40478">
        <ele>121</ele>
        <time>2024-03-10T10:49:22Z</time>
      </trkpt>
      <trkpt lat="43.65384" lon="1.40479">
        <ele>120</ele>
        <time>2024-03-10T10:49:24Z</time>
      </trkpt>
      <trkpt lat="43.65387" lon="1.40479">
        <ele>120</ele>
        <time>2024-03-10T10:49:25Z</time>
      </trkpt>
      <trkpt lat="43.65392" lon="1.40477">
        <ele>121</ele>
        <time>2024-03-10T10:49:26Z</time>
      </trkpt>
      <trkpt lat="43.65392" lon="1.40477">
        <ele>121</ele>
        <time>2024-03-10T10:49:27Z</time>
      </trkpt>
      <trkpt lat="43.65394" lon="1.40476">
        <ele>122</ele>
        <time>2024-03-10T10:49:28Z</time>
      </trkpt>
      <trkpt lat="43.65397" lon="1.40476">
        <ele>122</ele>
        <time>2024-03-10T10:49:29Z</time>
      </trkpt>
      <trkpt lat="43.65398" lon="1.40478">
        <ele>122</ele>
        <time>2024-03-10T10:49:30Z</time>
      </trkpt>
      <trkpt lat="43.65399" lon="1.40479">
        <ele>122</ele>
        <time>2024-03-10T10:49:31Z</time>
      </trkpt>
      <trkpt lat="43.65401" lon="1.4048">
        <ele>122</ele>
        <time>2024-03-10T10:49:32Z</time>
      </trkpt>
      <trkpt lat="43.65402" lon="1.40481">
        <ele>122</ele>
        <time>2024-03-10T10:49:33Z</time>
      </trkpt>
      <trkpt lat="43.65408" lon="1.40487">
        <ele>122</ele>
        <time>2024-03-10T10:49:34Z</time>
      </trkpt>
      <trkpt lat="43.6541" lon="1.40489">
        <ele>122</ele>
        <time>2024-03-10T10:49:35Z</time>
      </trkpt>
      <trkpt lat="43.65411" lon="1.40491">
        <ele>122</ele>
        <time>2024-03-10T10:49:36Z</time>
      </trkpt>
      <trkpt lat="43.65417" lon="1.40499">
        <ele>122</ele>
        <time>2024-03-10T10:49:37Z</time>
      </trkpt>
      <trkpt lat="43.65418" lon="1.40503">
        <ele>122</ele>
        <time>2024-03-10T10:49:38Z</time>
      </trkpt>
      <trkpt lat="43.6542" lon="1.40506">
        <ele>122</ele>
        <time>2024-03-10T10:49:39Z</time>
      </trkpt>
      <trkpt lat="43.65422" lon="1.4051">
        <ele>122</ele>
        <time>2024-03-10T10:49:40Z</time>
      </trkpt>
      <trkpt lat="43.65424" lon="1.40513">
        <ele>122</ele>
        <time>2024-03-10T10:49:41Z</time>
      </trkpt>
      <trkpt lat="43.65427" lon="1.4052">
        <ele>122</ele>
        <time>2024-03-10T10:49:42Z</time>
      </trkpt>
      <trkpt lat="43.65427" lon="1.4052">
        <ele>122</ele>
        <time>2024-03-10T10:49:43Z</time>
      </trkpt>
      <trkpt lat="43.6543" lon="1.40523">
        <ele>122</ele>
        <time>2024-03-10T10:49:44Z</time>
      </trkpt>
      <trkpt lat="43.65432" lon="1.40525">
        <ele>122</ele>
        <time>2024-03-10T10:49:45Z</time>
      </trkpt>
      <trkpt lat="43.65435" lon="1.40527">
        <ele>122</ele>
        <time>2024-03-10T10:49:46Z</time>
      </trkpt>
      <trkpt lat="43.65439" lon="1.40528">
        <ele>121</ele>
        <time>2024-03-10T10:49:47Z</time>
      </trkpt>
      <trkpt lat="43.65439" lon="1.40528">
        <ele>121</ele>
        <time>2024-03-10T10:49:48Z</time>
      </trkpt>
      <trkpt lat="43.65445" lon="1.4053">
        <ele>121</ele>
        <time>2024-03-10T10:49:49Z</time>
      </trkpt>
      <trkpt lat="43.65445" lon="1.4053">
        <ele>121</ele>
        <time>2024-03-10T10:49:50Z</time>
      </trkpt>
      <trkpt lat="43.6545" lon="1.40534">
        <ele>121</ele>
        <time>2024-03-10T10:49:51Z</time>
      </trkpt>
      <trkpt lat="43.6545" lon="1.40534">
        <ele>121</ele>
        <time>2024-03-10T10:49:52Z</time>
      </trkpt>
      <trkpt lat="43.65453" lon="1.40536">
        <ele>121</ele>
        <time>2024-03-10T10:49:53Z</time>
      </trkpt>
      <trkpt lat="43.65455" lon="1.40537">
        <ele>121</ele>
        <time>2024-03-10T10:49:54Z</time>
      </trkpt>
      <trkpt lat="43.65457" lon="1.40539">
        <ele>121</ele>
        <time>2024-03-10T10:49:55Z</time>
      </trkpt>
      <trkpt lat="43.65459" lon="1.4054">
        <ele>121</ele>
        <time>2024-03-10T10:49:56Z</time>
      </trkpt>
      <trkpt lat="43.65464" lon="1.4054">
        <ele>121</ele>
        <time>2024-03-10T10:49:57Z</time>
      </trkpt>
      <trkpt lat="43.65467" lon="1.40541">
        <ele>121</ele>
        <time>2024-03-10T10:49:58Z</time>
      </trkpt>
      <trkpt lat="43.65469" lon="1.40541">
        <ele>121</ele>
        <time>2024-03-10T10:49:59Z</time>
      </trkpt>
      <trkpt lat="43.65469" lon="1.40541">
        <ele>121</ele>
        <time>2024-03-10T10:50:00Z</time>
      </trkpt>
      <trkpt lat="43.65475" lon="1.40541">
        <ele>121</ele>
        <time>2024-03-10T10:50:01Z</time>
      </trkpt>
      <trkpt lat="43.65475" lon="1.40541">
        <ele>121</ele>
        <time>2024-03-10T10:50:02Z</time>
      </trkpt>
      <trkpt lat="43.65477" lon="1.40542">
        <ele>121</ele>
        <time>2024-03-10T10:50:03Z</time>
      </trkpt>
      <trkpt lat="43.6548" lon="1.40543">
        <ele>122</ele>
        <time>2024-03-10T10:50:04Z</time>
      </trkpt>
      <trkpt lat="43.65482" lon="1.40544">
        <ele>122</ele>
        <time>2024-03-10T10:50:05Z</time>
      </trkpt>
      <trkpt lat="43.65487" lon="1.40546">
        <ele>122</ele>
        <time>2024-03-10T10:50:06Z</time>
      </trkpt>
      <trkpt lat="43.65487" lon="1.40546">
        <ele>122</ele>
        <time>2024-03-10T10:50:07Z</time>
      </trkpt>
      <trkpt lat="43.65492" lon="1.40549">
        <ele>122</ele>
        <time>2024-03-10T10:50:08Z</time>
      </trkpt>
      <trkpt lat="43.65492" lon="1.40549">
        <ele>122</ele>
        <time>2024-03-10T10:50:09Z</time>
      </trkpt>
      <trkpt lat="43.65494" lon="1.4055">
        <ele>121</ele>
        <time>2024-03-10T10:50:10Z</time>
      </trkpt>
      <trkpt lat="43.65497" lon="1.40552">
        <ele>121</ele>
        <time>2024-03-10T10:50:11Z</time>
      </trkpt>
      <trkpt lat="43.65502" lon="1.40554">
        <ele>121</ele>
        <time>2024-03-10T10:50:12Z</time>
      </trkpt>
      <trkpt lat="43.65502" lon="1.40554">
        <ele>121</ele>
        <time>2024-03-10T10:50:13Z</time>
      </trkpt>
      <trkpt lat="43.65504" lon="1.40556">
        <ele>121</ele>
        <time>2024-03-10T10:50:14Z</time>
      </trkpt>
      <trkpt lat="43.65507" lon="1.40558">
        <ele>121</ele>
        <time>2024-03-10T10:50:15Z</time>
      </trkpt>
      <trkpt lat="43.65509" lon="1.40559">
        <ele>121</ele>
        <time>2024-03-10T10:50:16Z</time>
      </trkpt>
      <trkpt lat="43.65511" lon="1.4056">
        <ele>121</ele>
        <time>2024-03-10T10:50:17Z</time>
      </trkpt>
      <trkpt lat="43.65517" lon="1.40562">
        <ele>121</ele>
        <time>2024-03-10T10:50:18Z</time>
      </trkpt>
      <trkpt lat="43.65517" lon="1.40562">
        <ele>121</ele>
        <time>2024-03-10T10:50:19Z</time>
      </trkpt>
      <trkpt lat="43.6552" lon="1.40564">
        <ele>121</ele>
        <time>2024-03-10T10:50:20Z</time>
      </trkpt>
      <trkpt lat="43.65522" lon="1.40565">
        <ele>121</ele>
        <time>2024-03-10T10:50:21Z</time>
      </trkpt>
      <trkpt lat="43.65525" lon="1.40568">
        <ele>121</ele>
        <time>2024-03-10T10:50:22Z</time>
      </trkpt>
      <trkpt lat="43.65528" lon="1.40571">
        <ele>122</ele>
        <time>2024-03-10T10:50:23Z</time>
      </trkpt>
      <trkpt lat="43.6553" lon="1.40574">
        <ele>122</ele>
        <time>2024-03-10T10:50:24Z</time>
      </trkpt>
      <trkpt lat="43.65532" lon="1.40575">
        <ele>122</ele>
        <time>2024-03-10T10:50:25Z</time>
      </trkpt>
      <trkpt lat="43.65535" lon="1.40576">
        <ele>121</ele>
        <time>2024-03-10T10:50:26Z</time>
      </trkpt>
      <trkpt lat="43.65538" lon="1.40577">
        <ele>121</ele>
        <time>2024-03-10T10:50:27Z</time>
      </trkpt>
      <trkpt lat="43.65541" lon="1.40577">
        <ele>121</ele>
        <time>2024-03-10T10:50:28Z</time>
      </trkpt>
      <trkpt lat="43.65546" lon="1.40578">
        <ele>121</ele>
        <time>2024-03-10T10:50:29Z</time>
      </trkpt>
      <trkpt lat="43.65548" lon="1.40578">
        <ele>121</ele>
        <time>2024-03-10T10:50:30Z</time>
      </trkpt>
      <trkpt lat="43.65551" lon="1.40579">
        <ele>121</ele>
        <time>2024-03-10T10:50:31Z</time>
      </trkpt>
      <trkpt lat="43.65551" lon="1.40579">
        <ele>121</ele>
        <time>2024-03-10T10:50:32Z</time>
      </trkpt>
      <trkpt lat="43.65557" lon="1.40578">
        <ele>121</ele>
        <time>2024-03-10T10:50:33Z</time>
      </trkpt>
      <trkpt lat="43.65557" lon="1.40578">
        <ele>121</ele>
        <time>2024-03-10T10:50:34Z</time>
      </trkpt>
      <trkpt lat="43.65563" lon="1.40578">
        <ele>121</ele>
        <time>2024-03-10T10:50:35Z</time>
      </trkpt>
      <trkpt lat="43.65563" lon="1.40578">
        <ele>121</ele>
        <time>2024-03-10T10:50:36Z</time>
      </trkpt>
      <trkpt lat="43.65566" lon="1.40578">
        <ele>121</ele>
        <time>2024-03-10T10:50:37Z</time>
      </trkpt>
      <trkpt lat="43.65569" lon="1.40578">
        <ele>121</ele>
        <time>2024-03-10T10:50:38Z</time>
      </trkpt>
      <trkpt lat="43.65575" lon="1.4058">
        <ele>121</ele>
        <time>2024-03-10T10:50:39Z</time>
      </trkpt>
      <trkpt lat="43.65578" lon="1.4058">
        <ele>121</ele>
        <time>2024-03-10T10:50:40Z</time>
      </trkpt>
      <trkpt lat="43.65581" lon="1.40579">
        <ele>121</ele>
        <time>2024-03-10T10:50:41Z</time>
      </trkpt>
      <trkpt lat="43.65581" lon="1.40579">
        <ele>121</ele>
        <time>2024-03-10T10:50:42Z</time>
      </trkpt>
      <trkpt lat="43.65583" lon="1.40579">
        <ele>121</ele>
        <time>2024-03-10T10:50:43Z</time>
      </trkpt>
      <trkpt lat="43.65586" lon="1.40579">
        <ele>120</ele>
        <time>2024-03-10T10:50:44Z</time>
      </trkpt>
      <trkpt lat="43.65589" lon="1.4058">
        <ele>120</ele>
        <time>2024-03-10T10:50:45Z</time>
      </trkpt>
      <trkpt lat="43.65594" lon="1.4058">
        <ele>120</ele>
        <time>2024-03-10T10:50:46Z</time>
      </trkpt>
      <trkpt lat="43.65597" lon="1.4058">
        <ele>120</ele>
        <time>2024-03-10T10:50:47Z</time>
      </trkpt>
      <trkpt lat="43.65599" lon="1.4058">
        <ele>120</ele>
        <time>2024-03-10T10:50:48Z</time>
      </trkpt>
      <trkpt lat="43.65602" lon="1.4058">
        <ele>121</ele>
        <time>2024-03-10T10:50:49Z</time>
      </trkpt>
      <trkpt lat="43.65602" lon="1.4058">
        <ele>121</ele>
        <time>2024-03-10T10:50:50Z</time>
      </trkpt>
      <trkpt lat="43.65607" lon="1.40581">
        <ele>121</ele>
        <time>2024-03-10T10:50:51Z</time>
      </trkpt>
      <trkpt lat="43.6561" lon="1.40582">
        <ele>121</ele>
        <time>2024-03-10T10:50:52Z</time>
      </trkpt>
      <trkpt lat="43.65612" lon="1.40583">
        <ele>121</ele>
        <time>2024-03-10T10:50:53Z</time>
      </trkpt>
      <trkpt lat="43.65612" lon="1.40583">
        <ele>121</ele>
        <time>2024-03-10T10:50:54Z</time>
      </trkpt>
      <trkpt lat="43.65614" lon="1.40584">
        <ele>122</ele>
        <time>2024-03-10T10:50:55Z</time>
      </trkpt>
      <trkpt lat="43.65617" lon="1.40584">
        <ele>122</ele>
        <time>2024-03-10T10:50:56Z</time>
      </trkpt>
      <trkpt lat="43.65619" lon="1.40585">
        <ele>121</ele>
        <time>2024-03-10T10:50:57Z</time>
      </trkpt>
      <trkpt lat="43.65625" lon="1.40585">
        <ele>121</ele>
        <time>2024-03-10T10:50:58Z</time>
      </trkpt>
      <trkpt lat="43.65628" lon="1.40585">
        <ele>121</ele>
        <time>2024-03-10T10:50:59Z</time>
      </trkpt>
      <trkpt lat="43.6563" lon="1.40584">
        <ele>121</ele>
        <time>2024-03-10T10:51:00Z</time>
      </trkpt>
      <trkpt lat="43.65633" lon="1.40583">
        <ele>120</ele>
        <time>2024-03-10T10:51:01Z</time>
      </trkpt>
      <trkpt lat="43.65633" lon="1.40583">
        <ele>120</ele>
        <time>2024-03-10T10:51:02Z</time>
      </trkpt>
      <trkpt lat="43.6564" lon="1.40582">
        <ele>120</ele>
        <time>2024-03-10T10:51:03Z</time>
      </trkpt>
      <trkpt lat="43.6564" lon="1.40582">
        <ele>121</ele>
        <time>2024-03-10T10:51:04Z</time>
      </trkpt>
      <trkpt lat="43.65645" lon="1.40583">
        <ele>121</ele>
        <time>2024-03-10T10:51:05Z</time>
      </trkpt>
      <trkpt lat="43.65645" lon="1.40583">
        <ele>121</ele>
        <time>2024-03-10T10:51:06Z</time>
      </trkpt>
      <trkpt lat="43.65648" lon="1.40583">
        <ele>121</ele>
        <time>2024-03-10T10:51:07Z</time>
      </trkpt>
      <trkpt lat="43.65651" lon="1.40584">
        <ele>121</ele>
        <time>2024-03-10T10:51:08Z</time>
      </trkpt>
      <trkpt lat="43.65657" lon="1.40584">
        <ele>121</ele>
        <time>2024-03-10T10:51:09Z</time>
      </trkpt>
      <trkpt lat="43.65657" lon="1.40584">
        <ele>121</ele>
        <time>2024-03-10T10:51:10Z</time>
      </trkpt>
      <trkpt lat="43.6566" lon="1.40584">
        <ele>121</ele>
        <time>2024-03-10T10:51:11Z</time>
      </trkpt>
      <trkpt lat="43.65662" lon="1.40584">
        <ele>121</ele>
        <time>2024-03-10T10:51:12Z</time>
      </trkpt>
      <trkpt lat="43.65666" lon="1.40581">
        <ele>121</ele>
        <time>2024-03-10T10:51:13Z</time>
      </trkpt>
      <trkpt lat="43.65669" lon="1.40579">
        <ele>121</ele>
        <time>2024-03-10T10:51:14Z</time>
      </trkpt>
      <trkpt lat="43.65671" lon="1.40577">
        <ele>121</ele>
        <time>2024-03-10T10:51:15Z</time>
      </trkpt>
      <trkpt lat="43.65671" lon="1.40577">
        <ele>121</ele>
        <time>2024-03-10T10:51:16Z</time>
      </trkpt>
      <trkpt lat="43.65674" lon="1.40575">
        <ele>121</ele>
        <time>2024-03-10T10:51:17Z</time>
      </trkpt>
      <trkpt lat="43.65676" lon="1.40574">
        <ele>122</ele>
        <time>2024-03-10T10:51:18Z</time>
      </trkpt>
      <trkpt lat="43.65681" lon="1.40579">
        <ele>122</ele>
        <time>2024-03-10T10:51:19Z</time>
      </trkpt>
      <trkpt lat="43.65681" lon="1.40579">
        <ele>122</ele>
        <time>2024-03-10T10:51:20Z</time>
      </trkpt>
      <trkpt lat="43.65683" lon="1.40584">
        <ele>122</ele>
        <time>2024-03-10T10:51:21Z</time>
      </trkpt>
      <trkpt lat="43.65685" lon="1.40586">
        <ele>121</ele>
        <time>2024-03-10T10:51:22Z</time>
      </trkpt>
      <trkpt lat="43.65689" lon="1.40587">
        <ele>121</ele>
        <time>2024-03-10T10:51:23Z</time>
      </trkpt>
      <trkpt lat="43.65695" lon="1.40588">
        <ele>121</ele>
        <time>2024-03-10T10:51:24Z</time>
      </trkpt>
      <trkpt lat="43.65695" lon="1.40588">
        <ele>121</ele>
        <time>2024-03-10T10:51:25Z</time>
      </trkpt>
      <trkpt lat="43.65698" lon="1.40587">
        <ele>121</ele>
        <time>2024-03-10T10:51:26Z</time>
      </trkpt>
      <trkpt lat="43.657" lon="1.40586">
        <ele>121</ele>
        <time>2024-03-10T10:51:27Z</time>
      </trkpt>
      <trkpt lat="43.65705" lon="1.40584">
        <ele>121</ele>
        <time>2024-03-10T10:51:28Z</time>
      </trkpt>
      <trkpt lat="43.65705" lon="1.40584">
        <ele>121</ele>
        <time>2024-03-10T10:51:29Z</time>
      </trkpt>
      <trkpt lat="43.65707" lon="1.40583">
        <ele>121</ele>
        <time>2024-03-10T10:51:30Z</time>
      </trkpt>
      <trkpt lat="43.6571" lon="1.40582">
        <ele>121</ele>
        <time>2024-03-10T10:51:31Z</time>
      </trkpt>
      <trkpt lat="43.65713" lon="1.40581">
        <ele>121</ele>
        <time>2024-03-10T10:51:32Z</time>
      </trkpt>
      <trkpt lat="43.65715" lon="1.4058">
        <ele>121</ele>
        <time>2024-03-10T10:51:33Z</time>
      </trkpt>
      <trkpt lat="43.65718" lon="1.40579">
        <ele>121</ele>
        <time>2024-03-10T10:51:34Z</time>
      </trkpt>
      <trkpt lat="43.65721" lon="1.40579">
        <ele>122</ele>
        <time>2024-03-10T10:51:35Z</time>
      </trkpt>
      <trkpt lat="43.65727" lon="1.40578">
        <ele>122</ele>
        <time>2024-03-10T10:51:36Z</time>
      </trkpt>
      <trkpt lat="43.65727" lon="1.40578">
        <ele>122</ele>
        <time>2024-03-10T10:51:37Z</time>
      </trkpt>
      <trkpt lat="43.65732" lon="1.40579">
        <ele>122</ele>
        <time>2024-03-10T10:51:38Z</time>
      </trkpt>
      <trkpt lat="43.65734" lon="1.40579">
        <ele>122</ele>
        <time>2024-03-10T10:51:39Z</time>
      </trkpt>
      <trkpt lat="43.65736" lon="1.40578">
        <ele>122</ele>
        <time>2024-03-10T10:51:40Z</time>
      </trkpt>
      <trkpt lat="43.65736" lon="1.40578">
        <ele>122</ele>
        <time>2024-03-10T10:51:41Z</time>
      </trkpt>
      <trkpt lat="43.65739" lon="1.40577">
        <ele>122</ele>
        <time>2024-03-10T10:51:42Z</time>
      </trkpt>
      <trkpt lat="43.65741" lon="1.40576">
        <ele>122</ele>
        <time>2024-03-10T10:51:43Z</time>
      </trkpt>
      <trkpt lat="43.65743" lon="1.40574">
        <ele>122</ele>
        <time>2024-03-10T10:51:44Z</time>
      </trkpt>
      <trkpt lat="43.65744" lon="1.40573">
        <ele>122</ele>
        <time>2024-03-10T10:51:45Z</time>
      </trkpt>
      <trkpt lat="43.65746" lon="1.40571">
        <ele>123</ele>
        <time>2024-03-10T10:51:46Z</time>
      </trkpt>
      <trkpt lat="43.65752" lon="1.40569">
        <ele>123</ele>
        <time>2024-03-10T10:51:47Z</time>
      </trkpt>
      <trkpt lat="43.65752" lon="1.40569">
        <ele>123</ele>
        <time>2024-03-10T10:51:48Z</time>
      </trkpt>
      <trkpt lat="43.65754" lon="1.40568">
        <ele>124</ele>
        <time>2024-03-10T10:51:49Z</time>
      </trkpt>
      <trkpt lat="43.65757" lon="1.40567">
        <ele>124</ele>
        <time>2024-03-10T10:51:50Z</time>
      </trkpt>
      <trkpt lat="43.65759" lon="1.40565">
        <ele>124</ele>
        <time>2024-03-10T10:51:51Z</time>
      </trkpt>
      <trkpt lat="43.65761" lon="1.40563">
        <ele>124</ele>
        <time>2024-03-10T10:51:52Z</time>
      </trkpt>
      <trkpt lat="43.65763" lon="1.40562">
        <ele>124</ele>
        <time>2024-03-10T10:51:53Z</time>
      </trkpt>
      <trkpt lat="43.65765" lon="1.40561">
        <ele>124</ele>
        <time>2024-03-10T10:51:54Z</time>
      </trkpt>
      <trkpt lat="43.65771" lon="1.40561">
        <ele>124</ele>
        <time>2024-03-10T10:51:55Z</time>
      </trkpt>
      <trkpt lat="43.65771" lon="1.40561">
        <ele>124</ele>
        <time>2024-03-10T10:51:56Z</time>
      </trkpt>
      <trkpt lat="43.65773" lon="1.4056">
        <ele>124</ele>
        <time>2024-03-10T10:51:57Z</time>
      </trkpt>
      <trkpt lat="43.65776" lon="1.40559">
        <ele>124</ele>
        <time>2024-03-10T10:51:58Z</time>
      </trkpt>
      <trkpt lat="43.65778" lon="1.40558">
        <ele>124</ele>
        <time>2024-03-10T10:51:59Z</time>
      </trkpt>
      <trkpt lat="43.65783" lon="1.40556">
        <ele>125</ele>
        <time>2024-03-10T10:52:00Z</time>
      </trkpt>
      <trkpt lat="43.65783" lon="1.40556">
        <ele>125</ele>
        <time>2024-03-10T10:52:01Z</time>
      </trkpt>
      <trkpt lat="43.65789" lon="1.40555">
        <ele>125</ele>
        <time>2024-03-10T10:52:02Z</time>
      </trkpt>
      <trkpt lat="43.65789" lon="1.40555">
        <ele>125</ele>
        <time>2024-03-10T10:52:03Z</time>
      </trkpt>
      <trkpt lat="43.65794" lon="1.40554">
        <ele>125</ele>
        <time>2024-03-10T10:52:04Z</time>
      </trkpt>
      <trkpt lat="43.65797" lon="1.40554">
        <ele>125</ele>
        <time>2024-03-10T10:52:05Z</time>
      </trkpt>
      <trkpt lat="43.65797" lon="1.40554">
        <ele>126</ele>
        <time>2024-03-10T10:52:06Z</time>
      </trkpt>
      <trkpt lat="43.65799" lon="1.40553">
        <ele>126</ele>
        <time>2024-03-10T10:52:07Z</time>
      </trkpt>
      <trkpt lat="43.65802" lon="1.40554">
        <ele>126</ele>
        <time>2024-03-10T10:52:08Z</time>
      </trkpt>
      <trkpt lat="43.65805" lon="1.40555">
        <ele>126</ele>
        <time>2024-03-10T10:52:09Z</time>
      </trkpt>
      <trkpt lat="43.65808" lon="1.40556">
        <ele>126</ele>
        <time>2024-03-10T10:52:10Z</time>
      </trkpt>
      <trkpt lat="43.65811" lon="1.40559">
        <ele>126</ele>
        <time>2024-03-10T10:52:11Z</time>
      </trkpt>
      <trkpt lat="43.65814" lon="1.40561">
        <ele>125</ele>
        <time>2024-03-10T10:52:12Z</time>
      </trkpt>
      <trkpt lat="43.65816" lon="1.40562">
        <ele>125</ele>
        <time>2024-03-10T10:52:13Z</time>
      </trkpt>
      <trkpt lat="43.65822" lon="1.40563">
        <ele>125</ele>
        <time>2024-03-10T10:52:14Z</time>
      </trkpt>
      <trkpt lat="43.65822" lon="1.40563">
        <ele>124</ele>
        <time>2024-03-10T10:52:15Z</time>
      </trkpt>
      <trkpt lat="43.65829" lon="1.40565">
        <ele>124</ele>
        <time>2024-03-10T10:52:16Z</time>
      </trkpt>
      <trkpt lat="43.65832" lon="1.40566">
        <ele>124</ele>
        <time>2024-03-10T10:52:17Z</time>
      </trkpt>
      <trkpt lat="43.65835" lon="1.40566">
        <ele>124</ele>
        <time>2024-03-10T10:52:18Z</time>
      </trkpt>
      <trkpt lat="43.65835" lon="1.40566">
        <ele>124</ele>
        <time>2024-03-10T10:52:19Z</time>
      </trkpt>
      <trkpt lat="43.65838" lon="1.40566">
        <ele>124</ele>
        <time>2024-03-10T10:52:20Z</time>
      </trkpt>
      <trkpt lat="43.65843" lon="1.40563">
        <ele>124</ele>
        <time>2024-03-10T10:52:21Z</time>
      </trkpt>
      <trkpt lat="43.65844" lon="1.4056">
        <ele>123</ele>
        <time>2024-03-10T10:52:22Z</time>
      </trkpt>
      <trkpt lat="43.65845" lon="1.40557">
        <ele>123</ele>
        <time>2024-03-10T10:52:23Z</time>
      </trkpt>
      <trkpt lat="43.65846" lon="1.40553">
        <ele>123</ele>
        <time>2024-03-10T10:52:24Z</time>
      </trkpt>
      <trkpt lat="43.65848" lon="1.4055">
        <ele>123</ele>
        <time>2024-03-10T10:52:25Z</time>
      </trkpt>
      <trkpt lat="43.65848" lon="1.4055">
        <ele>123</ele>
        <time>2024-03-10T10:52:26Z</time>
      </trkpt>
      <trkpt lat="43.65851" lon="1.40549">
        <ele>123</ele>
        <time>2024-03-10T10:52:27Z</time>
      </trkpt>
      <trkpt lat="43.65857" lon="1.40546">
        <ele>123</ele>
        <time>2024-03-10T10:52:28Z</time>
      </trkpt>
      <trkpt lat="43.65857" lon="1.40546">
        <ele>123</ele>
        <time>2024-03-10T10:52:29Z</time>
      </trkpt>
      <trkpt lat="43.6586" lon="1.40545">
        <ele>123</ele>
        <time>2024-03-10T10:52:30Z</time>
      </trkpt>
      <trkpt lat="43.65862" lon="1.40544">
        <ele>123</ele>
        <time>2024-03-10T10:52:31Z</time>
      </trkpt>
      <trkpt lat="43.65865" lon="1.40544">
        <ele>123</ele>
        <time>2024-03-10T10:52:32Z</time>
      </trkpt>
      <trkpt lat="43.65871" lon="1.40543">
        <ele>123</ele>
        <time>2024-03-10T10:52:33Z</time>
      </trkpt>
      <trkpt lat="43.65871" lon="1.40543">
        <ele>123</ele>
        <time>2024-03-10T10:52:34Z</time>
      </trkpt>
      <trkpt lat="43.65877" lon="1.40541">
        <ele>123</ele>
        <time>2024-03-10T10:52:35Z</time>
      </trkpt>
      <trkpt lat="43.6588" lon="1.4054">
        <ele>123</ele>
        <time>2024-03-10T10:52:36Z</time>
      </trkpt>
      <trkpt lat="43.65883" lon="1.4054">
        <ele>123</ele>
        <time>2024-03-10T10:52:37Z</time>
      </trkpt>
      <trkpt lat="43.65883" lon="1.4054">
        <ele>123</ele>
        <time>2024-03-10T10:52:38Z</time>
      </trkpt>
      <trkpt lat="43.65889" lon="1.40539">
        <ele>123</ele>
        <time>2024-03-10T10:52:39Z</time>
      </trkpt>
      <trkpt lat="43.65889" lon="1.40539">
        <ele>123</ele>
        <time>2024-03-10T10:52:40Z</time>
      </trkpt>
      <trkpt lat="43.65895" lon="1.40538">
        <ele>122</ele>
        <time>2024-03-10T10:52:41Z</time>
      </trkpt>
      <trkpt lat="43.65895" lon="1.40538">
        <ele>122</ele>
        <time>2024-03-10T10:52:42Z</time>
      </trkpt>
      <trkpt lat="43.65898" lon="1.40537">
        <ele>122</ele>
        <time>2024-03-10T10:52:43Z</time>
      </trkpt>
      <trkpt lat="43.65901" lon="1.40536">
        <ele>122</ele>
        <time>2024-03-10T10:52:44Z</time>
      </trkpt>
      <trkpt lat="43.65903" lon="1.40536">
        <ele>122</ele>
        <time>2024-03-10T10:52:45Z</time>
      </trkpt>
      <trkpt lat="43.65906" lon="1.40536">
        <ele>123</ele>
        <time>2024-03-10T10:52:46Z</time>
      </trkpt>
      <trkpt lat="43.65909" lon="1.40537">
        <ele>123</ele>
        <time>2024-03-10T10:52:47Z</time>
      </trkpt>
      <trkpt lat="43.65914" lon="1.40537">
        <ele>123</ele>
        <time>2024-03-10T10:52:48Z</time>
      </trkpt>
      <trkpt lat="43.65914" lon="1.40537">
        <ele>123</ele>
        <time>2024-03-10T10:52:49Z</time>
      </trkpt>
      <trkpt lat="43.6592" lon="1.40536">
        <ele>123</ele>
        <time>2024-03-10T10:52:50Z</time>
      </trkpt>
      <trkpt lat="43.65922" lon="1.40535">
        <ele>123</ele>
        <time>2024-03-10T10:52:51Z</time>
      </trkpt>
      <trkpt lat="43.65922" lon="1.40535">
        <ele>123</ele>
        <time>2024-03-10T10:52:52Z</time>
      </trkpt>
      <trkpt lat="43.65925" lon="1.40535">
        <ele>123</ele>
        <time>2024-03-10T10:52:53Z</time>
      </trkpt>
      <trkpt lat="43.65927" lon="1.40534">
        <ele>123</ele>
        <time>2024-03-10T10:52:54Z</time>
      </trkpt>
      <trkpt lat="43.6593" lon="1.40534">
        <ele>123</ele>
        <time>2024-03-10T10:52:55Z</time>
      </trkpt>
      <trkpt lat="43.65932" lon="1.40533">
        <ele>123</ele>
        <time>2024-03-10T10:52:56Z</time>
      </trkpt>
      <trkpt lat="43.65934" lon="1.40532">
        <ele>123</ele>
        <time>2024-03-10T10:52:57Z</time>
      </trkpt>
      <trkpt lat="43.65937" lon="1.40531">
        <ele>123</ele>
        <time>2024-03-10T10:52:58Z</time>
      </trkpt>
      <trkpt lat="43.65942" lon="1.40527">
        <ele>123</ele>
        <time>2024-03-10T10:52:59Z</time>
      </trkpt>
      <trkpt lat="43.65945" lon="1.40526">
        <ele>123</ele>
        <time>2024-03-10T10:53:00Z</time>
      </trkpt>
      <trkpt lat="43.65948" lon="1.40525">
        <ele>123</ele>
        <time>2024-03-10T10:53:01Z</time>
      </trkpt>
      <trkpt lat="43.65951" lon="1.40526">
        <ele>123</ele>
        <time>2024-03-10T10:53:02Z</time>
      </trkpt>
      <trkpt lat="43.65951" lon="1.40526">
        <ele>123</ele>
        <time>2024-03-10T10:53:03Z</time>
      </trkpt>
      <trkpt lat="43.65954" lon="1.40526">
        <ele>123</ele>
        <time>2024-03-10T10:53:04Z</time>
      </trkpt>
      <trkpt lat="43.65957" lon="1.40525">
        <ele>123</ele>
        <time>2024-03-10T10:53:05Z</time>
      </trkpt>
      <trkpt lat="43.65959" lon="1.40525">
        <ele>123</ele>
        <time>2024-03-10T10:53:06Z</time>
      </trkpt>
      <trkpt lat="43.65962" lon="1.40526">
        <ele>123</ele>
        <time>2024-03-10T10:53:07Z</time>
      </trkpt>
      <trkpt lat="43.65965" lon="1.40527">
        <ele>123</ele>
        <time>2024-03-10T10:53:08Z</time>
      </trkpt>
      <trkpt lat="43.65968" lon="1.40528">
        <ele>123</ele>
        <time>2024-03-10T10:53:09Z</time>
      </trkpt>
      <trkpt lat="43.65971" lon="1.40528">
        <ele>123</ele>
        <time>2024-03-10T10:53:10Z</time>
      </trkpt>
      <trkpt lat="43.65975" lon="1.40525">
        <ele>123</ele>
        <time>2024-03-10T10:53:11Z</time>
      </trkpt>
      <trkpt lat="43.65975" lon="1.40525">
        <ele>123</ele>
        <time>2024-03-10T10:53:12Z</time>
      </trkpt>
      <trkpt lat="43.6598" lon="1.4052">
        <ele>123</ele>
        <time>2024-03-10T10:53:13Z</time>
      </trkpt>
      <trkpt lat="43.6598" lon="1.4052">
        <ele>123</ele>
        <time>2024-03-10T10:53:14Z</time>
      </trkpt>
      <trkpt lat="43.65983" lon="1.40519">
        <ele>123</ele>
        <time>2024-03-10T10:53:15Z</time>
      </trkpt>
      <trkpt lat="43.65986" lon="1.40519">
        <ele>123</ele>
        <time>2024-03-10T10:53:16Z</time>
      </trkpt>
      <trkpt lat="43.65989" lon="1.40518">
        <ele>123</ele>
        <time>2024-03-10T10:53:17Z</time>
      </trkpt>
      <trkpt lat="43.65991" lon="1.40517">
        <ele>123</ele>
        <time>2024-03-10T10:53:18Z</time>
      </trkpt>
      <trkpt lat="43.65994" lon="1.40516">
        <ele>123</ele>
        <time>2024-03-10T10:53:19Z</time>
      </trkpt>
      <trkpt lat="43.66001" lon="1.40517">
        <ele>123</ele>
        <time>2024-03-10T10:53:20Z</time>
      </trkpt>
      <trkpt lat="43.66004" lon="1.40519">
        <ele>123</ele>
        <time>2024-03-10T10:53:21Z</time>
      </trkpt>
      <trkpt lat="43.66004" lon="1.40519">
        <ele>123</ele>
        <time>2024-03-10T10:53:22Z</time>
      </trkpt>
      <trkpt lat="43.66006" lon="1.40521">
        <ele>123</ele>
        <time>2024-03-10T10:53:23Z</time>
      </trkpt>
      <trkpt lat="43.66008" lon="1.40523">
        <ele>123</ele>
        <time>2024-03-10T10:53:24Z</time>
      </trkpt>
      <trkpt lat="43.6601" lon="1.40525">
        <ele>123</ele>
        <time>2024-03-10T10:53:25Z</time>
      </trkpt>
      <trkpt lat="43.66015" lon="1.40527">
        <ele>123</ele>
        <time>2024-03-10T10:53:26Z</time>
      </trkpt>
      <trkpt lat="43.66018" lon="1.40528">
        <ele>123</ele>
        <time>2024-03-10T10:53:27Z</time>
      </trkpt>
      <trkpt lat="43.6602" lon="1.40528">
        <ele>123</ele>
        <time>2024-03-10T10:53:28Z</time>
      </trkpt>
      <trkpt lat="43.66022" lon="1.40527">
        <ele>123</ele>
        <time>2024-03-10T10:53:29Z</time>
      </trkpt>
      <trkpt lat="43.66022" lon="1.40527">
        <ele>123</ele>
        <time>2024-03-10T10:53:30Z</time>
      </trkpt>
      <trkpt lat="43.66027" lon="1.40525">
        <ele>123</ele>
        <time>2024-03-10T10:53:31Z</time>
      </trkpt>
      <trkpt lat="43.66027" lon="1.40525">
        <ele>123</ele>
        <time>2024-03-10T10:53:32Z</time>
      </trkpt>
      <trkpt lat="43.6603" lon="1.40523">
        <ele>123</ele>
        <time>2024-03-10T10:53:33Z</time>
      </trkpt>
      <trkpt lat="43.66033" lon="1.40523">
        <ele>123</ele>
        <time>2024-03-10T10:53:34Z</time>
      </trkpt>
      <trkpt lat="43.66038" lon="1.40521">
        <ele>123</ele>
        <time>2024-03-10T10:53:35Z</time>
      </trkpt>
      <trkpt lat="43.66041" lon="1.40519">
        <ele>123</ele>
        <time>2024-03-10T10:53:36Z</time>
      </trkpt>
      <trkpt lat="43.66041" lon="1.40519">
        <ele>123</ele>
        <time>2024-03-10T10:53:37Z</time>
      </trkpt>
      <trkpt lat="43.66044" lon="1.40519">
        <ele>123</ele>
        <time>2024-03-10T10:53:38Z</time>
      </trkpt>
      <trkpt lat="43.66046" lon="1.4052">
        <ele>123</ele>
        <time>2024-03-10T10:53:39Z</time>
      </trkpt>
      <trkpt lat="43.66049" lon="1.40519">
        <ele>123</ele>
        <time>2024-03-10T10:53:40Z</time>
      </trkpt>
      <trkpt lat="43.66052" lon="1.40519">
        <ele>123</ele>
        <time>2024-03-10T10:53:41Z</time>
      </trkpt>
      <trkpt lat="43.66057" lon="1.40516">
        <ele>123</ele>
        <time>2024-03-10T10:53:42Z</time>
      </trkpt>
      <trkpt lat="43.66059" lon="1.40515">
        <ele>123</ele>
        <time>2024-03-10T10:53:43Z</time>
      </trkpt>
      <trkpt lat="43.66059" lon="1.40515">
        <ele>123</ele>
        <time>2024-03-10T10:53:44Z</time>
      </trkpt>
      <trkpt lat="43.66061" lon="1.40514">
        <ele>123</ele>
        <time>2024-03-10T10:53:45Z</time>
      </trkpt>
      <trkpt lat="43.66065" lon="1.40513">
        <ele>123</ele>
        <time>2024-03-10T10:53:46Z</time>
      </trkpt>
      <trkpt lat="43.6607" lon="1.40511">
        <ele>123</ele>
        <time>2024-03-10T10:53:47Z</time>
      </trkpt>
      <trkpt lat="43.6607" lon="1.40511">
        <ele>123</ele>
        <time>2024-03-10T10:53:48Z</time>
      </trkpt>
      <trkpt lat="43.66075" lon="1.40511">
        <ele>123</ele>
        <time>2024-03-10T10:53:49Z</time>
      </trkpt>
      <trkpt lat="43.66076" lon="1.40511">
        <ele>123</ele>
        <time>2024-03-10T10:53:50Z</time>
      </trkpt>
      <trkpt lat="43.66082" lon="1.40512">
        <ele>123</ele>
        <time>2024-03-10T10:53:51Z</time>
      </trkpt>
      <trkpt lat="43.66085" lon="1.40513">
        <ele>122</ele>
        <time>2024-03-10T10:53:52Z</time>
      </trkpt>
      <trkpt lat="43.66085" lon="1.40513">
        <ele>122</ele>
        <time>2024-03-10T10:53:53Z</time>
      </trkpt>
      <trkpt lat="43.66088" lon="1.40513">
        <ele>123</ele>
        <time>2024-03-10T10:53:54Z</time>
      </trkpt>
      <trkpt lat="43.6609" lon="1.40513">
        <ele>123</ele>
        <time>2024-03-10T10:53:55Z</time>
      </trkpt>
      <trkpt lat="43.66093" lon="1.40513">
        <ele>123</ele>
        <time>2024-03-10T10:53:56Z</time>
      </trkpt>
      <trkpt lat="43.66096" lon="1.40512">
        <ele>123</ele>
        <time>2024-03-10T10:53:57Z</time>
      </trkpt>
      <trkpt lat="43.66102" lon="1.4051">
        <ele>122</ele>
        <time>2024-03-10T10:53:58Z</time>
      </trkpt>
      <trkpt lat="43.66105" lon="1.40509">
        <ele>122</ele>
        <time>2024-03-10T10:53:59Z</time>
      </trkpt>
      <trkpt lat="43.66105" lon="1.40509">
        <ele>122</ele>
        <time>2024-03-10T10:54:00Z</time>
      </trkpt>
      <trkpt lat="43.66108" lon="1.40507">
        <ele>122</ele>
        <time>2024-03-10T10:54:01Z</time>
      </trkpt>
      <trkpt lat="43.6611" lon="1.40506">
        <ele>122</ele>
        <time>2024-03-10T10:54:02Z</time>
      </trkpt>
      <trkpt lat="43.66116" lon="1.40504">
        <ele>122</ele>
        <time>2024-03-10T10:54:03Z</time>
      </trkpt>
      <trkpt lat="43.66116" lon="1.40504">
        <ele>122</ele>
        <time>2024-03-10T10:54:04Z</time>
      </trkpt>
      <trkpt lat="43.66122" lon="1.40502">
        <ele>122</ele>
        <time>2024-03-10T10:54:05Z</time>
      </trkpt>
      <trkpt lat="43.66122" lon="1.40502">
        <ele>122</ele>
        <time>2024-03-10T10:54:06Z</time>
      </trkpt>
      <trkpt lat="43.66125" lon="1.40502">
        <ele>122</ele>
        <time>2024-03-10T10:54:07Z</time>
      </trkpt>
      <trkpt lat="43.6613" lon="1.40501">
        <ele>122</ele>
        <time>2024-03-10T10:54:08Z</time>
      </trkpt>
      <trkpt lat="43.66132" lon="1.405">
        <ele>122</ele>
        <time>2024-03-10T10:54:09Z</time>
      </trkpt>
      <trkpt lat="43.66132" lon="1.405">
        <ele>122</ele>
        <time>2024-03-10T10:54:10Z</time>
      </trkpt>
      <trkpt lat="43.66135" lon="1.40499">
        <ele>122</ele>
        <time>2024-03-10T10:54:11Z</time>
      </trkpt>
      <trkpt lat="43.66138" lon="1.40498">
        <ele>122</ele>
        <time>2024-03-10T10:54:12Z</time>
      </trkpt>
      <trkpt lat="43.66143" lon="1.40497">
        <ele>122</ele>
        <time>2024-03-10T10:54:13Z</time>
      </trkpt>
      <trkpt lat="43.66146" lon="1.40495">
        <ele>122</ele>
        <time>2024-03-10T10:54:14Z</time>
      </trkpt>
      <trkpt lat="43.66146" lon="1.40495">
        <ele>121</ele>
        <time>2024-03-10T10:54:15Z</time>
      </trkpt>
      <trkpt lat="43.66149" lon="1.40492">
        <ele>121</ele>
        <time>2024-03-10T10:54:16Z</time>
      </trkpt>
      <trkpt lat="43.66151" lon="1.4049">
        <ele>121</ele>
        <time>2024-03-10T10:54:17Z</time>
      </trkpt>
      <trkpt lat="43.66154" lon="1.40489">
        <ele>121</ele>
        <time>2024-03-10T10:54:18Z</time>
      </trkpt>
      <trkpt lat="43.66157" lon="1.40489">
        <ele>121</ele>
        <time>2024-03-10T10:54:19Z</time>
      </trkpt>
      <trkpt lat="43.66159" lon="1.40488">
        <ele>121</ele>
        <time>2024-03-10T10:54:20Z</time>
      </trkpt>
      <trkpt lat="43.66161" lon="1.40488">
        <ele>121</ele>
        <time>2024-03-10T10:54:21Z</time>
      </trkpt>
      <trkpt lat="43.66164" lon="1.40488">
        <ele>121</ele>
        <time>2024-03-10T10:54:22Z</time>
      </trkpt>
      <trkpt lat="43.66168" lon="1.40486">
        <ele>121</ele>
        <time>2024-03-10T10:54:23Z</time>
      </trkpt>
      <trkpt lat="43.66168" lon="1.40486">
        <ele>121</ele>
        <time>2024-03-10T10:54:24Z</time>
      </trkpt>
      <trkpt lat="43.6617" lon="1.40484">
        <ele>121</ele>
        <time>2024-03-10T10:54:25Z</time>
      </trkpt>
      <trkpt lat="43.66176" lon="1.4048">
        <ele>121</ele>
        <time>2024-03-10T10:54:26Z</time>
      </trkpt>
      <trkpt lat="43.66179" lon="1.40477">
        <ele>121</ele>
        <time>2024-03-10T10:54:27Z</time>
      </trkpt>
      <trkpt lat="43.66181" lon="1.40475">
        <ele>121</ele>
        <time>2024-03-10T10:54:28Z</time>
      </trkpt>
      <trkpt lat="43.66181" lon="1.40475">
        <ele>121</ele>
        <time>2024-03-10T10:54:29Z</time>
      </trkpt>
      <trkpt lat="43.66185" lon="1.40472">
        <ele>121</ele>
        <time>2024-03-10T10:54:30Z</time>
      </trkpt>
      <trkpt lat="43.66185" lon="1.40472">
        <ele>121</ele>
        <time>2024-03-10T10:54:31Z</time>
      </trkpt>
      <trkpt lat="43.66188" lon="1.4047">
        <ele>121</ele>
        <time>2024-03-10T10:54:32Z</time>
      </trkpt>
      <trkpt lat="43.66191" lon="1.40468">
        <ele>121</ele>
        <time>2024-03-10T10:54:33Z</time>
      </trkpt>
      <trkpt lat="43.66196" lon="1.40465">
        <ele>121</ele>
        <time>2024-03-10T10:54:34Z</time>
      </trkpt>
      <trkpt lat="43.66198" lon="1.40463">
        <ele>121</ele>
        <time>2024-03-10T10:54:35Z</time>
      </trkpt>
      <trkpt lat="43.66198" lon="1.40463">
        <ele>121</ele>
        <time>2024-03-10T10:54:36Z</time>
      </trkpt>
      <trkpt lat="43.66203" lon="1.40459">
        <ele>121</ele>
        <time>2024-03-10T10:54:37Z</time>
      </trkpt>
      <trkpt lat="43.66203" lon="1.40459">
        <ele>121</ele>
        <time>2024-03-10T10:54:38Z</time>
      </trkpt>
      <trkpt lat="43.66206" lon="1.40457">
        <ele>121</ele>
        <time>2024-03-10T10:54:39Z</time>
      </trkpt>
      <trkpt lat="43.66209" lon="1.40455">
        <ele>121</ele>
        <time>2024-03-10T10:54:40Z</time>
      </trkpt>
      <trkpt lat="43.66211" lon="1.40453">
        <ele>121</ele>
        <time>2024-03-10T10:54:41Z</time>
      </trkpt>
      <trkpt lat="43.66213" lon="1.40451">
        <ele>121</ele>
        <time>2024-03-10T10:54:42Z</time>
      </trkpt>
      <trkpt lat="43.66216" lon="1.4045">
        <ele>121</ele>
        <time>2024-03-10T10:54:43Z</time>
      </trkpt>
      <trkpt lat="43.66219" lon="1.40449">
        <ele>121</ele>
        <time>2024-03-10T10:54:44Z</time>
      </trkpt>
      <trkpt lat="43.66225" lon="1.40445">
        <ele>121</ele>
        <time>2024-03-10T10:54:45Z</time>
      </trkpt>
      <trkpt lat="43.66228" lon="1.40443">
        <ele>121</ele>
        <time>2024-03-10T10:54:46Z</time>
      </trkpt>
      <trkpt lat="43.66228" lon="1.40443">
        <ele>122</ele>
        <time>2024-03-10T10:54:47Z</time>
      </trkpt>
      <trkpt lat="43.6623" lon="1.40441">
        <ele>122</ele>
        <time>2024-03-10T10:54:48Z</time>
      </trkpt>
      <trkpt lat="43.66233" lon="1.40438">
        <ele>122</ele>
        <time>2024-03-10T10:54:49Z</time>
      </trkpt>
      <trkpt lat="43.66235" lon="1.40436">
        <ele>122</ele>
        <time>2024-03-10T10:54:50Z</time>
      </trkpt>
      <trkpt lat="43.66238" lon="1.40434">
        <ele>122</ele>
        <time>2024-03-10T10:54:51Z</time>
      </trkpt>
      <trkpt lat="43.6624" lon="1.40433">
        <ele>122</ele>
        <time>2024-03-10T10:54:52Z</time>
      </trkpt>
      <trkpt lat="43.66246" lon="1.4043">
        <ele>122</ele>
        <time>2024-03-10T10:54:53Z</time>
      </trkpt>
      <trkpt lat="43.66246" lon="1.4043">
        <ele>122</ele>
        <time>2024-03-10T10:54:54Z</time>
      </trkpt>
      <trkpt lat="43.66248" lon="1.40429">
        <ele>122</ele>
        <time>2024-03-10T10:54:55Z</time>
      </trkpt>
      <trkpt lat="43.66251" lon="1.40428">
        <ele>122</ele>
        <time>2024-03-10T10:54:56Z</time>
      </trkpt>
      <trkpt lat="43.66254" lon="1.40427">
        <ele>122</ele>
        <time>2024-03-10T10:54:57Z</time>
      </trkpt>
      <trkpt lat="43.66259" lon="1.40424">
        <ele>122</ele>
        <time>2024-03-10T10:54:58Z</time>
      </trkpt>
      <trkpt lat="43.66259" lon="1.40424">
        <ele>122</ele>
        <time>2024-03-10T10:54:59Z</time>
      </trkpt>
      <trkpt lat="43.66262" lon="1.40422">
        <ele>122</ele>
        <time>2024-03-10T10:55:00Z</time>
      </trkpt>
      <trkpt lat="43.66265" lon="1.4042">
        <ele>122</ele>
        <time>2024-03-10T10:55:01Z</time>
      </trkpt>
      <trkpt lat="43.66268" lon="1.40418">
        <ele>123</ele>
        <time>2024-03-10T10:55:02Z</time>
      </trkpt>
      <trkpt lat="43.66271" lon="1.40416">
        <ele>123</ele>
        <time>2024-03-10T10:55:03Z</time>
      </trkpt>
      <trkpt lat="43.66274" lon="1.40415">
        <ele>123</ele>
        <time>2024-03-10T10:55:04Z</time>
      </trkpt>
      <trkpt lat="43.66278" lon="1.40412">
        <ele>123</ele>
        <time>2024-03-10T10:55:05Z</time>
      </trkpt>
      <trkpt lat="43.66278" lon="1.40412">
        <ele>122</ele>
        <time>2024-03-10T10:55:06Z</time>
      </trkpt>
      <trkpt lat="43.66281" lon="1.4041">
        <ele>122</ele>
        <time>2024-03-10T10:55:07Z</time>
      </trkpt>
      <trkpt lat="43.66283" lon="1.40408">
        <ele>122</ele>
        <time>2024-03-10T10:55:08Z</time>
      </trkpt>
      <trkpt lat="43.66285" lon="1.40406">
        <ele>122</ele>
        <time>2024-03-10T10:55:09Z</time>
      </trkpt>
      <trkpt lat="43.66287" lon="1.40403">
        <ele>122</ele>
        <time>2024-03-10T10:55:10Z</time>
      </trkpt>
      <trkpt lat="43.66288" lon="1.40401">
        <ele>121</ele>
        <time>2024-03-10T10:55:11Z</time>
      </trkpt>
      <trkpt lat="43.6629" lon="1.40398">
        <ele>121</ele>
        <time>2024-03-10T10:55:12Z</time>
      </trkpt>
      <trkpt lat="43.66292" lon="1.40396">
        <ele>122</ele>
        <time>2024-03-10T10:55:13Z</time>
      </trkpt>
      <trkpt lat="43.66296" lon="1.40392">
        <ele>122</ele>
        <time>2024-03-10T10:55:14Z</time>
      </trkpt>
      <trkpt lat="43.66298" lon="1.40392">
        <ele>122</ele>
        <time>2024-03-10T10:55:15Z</time>
      </trkpt>
      <trkpt lat="43.66301" lon="1.40392">
        <ele>122</ele>
        <time>2024-03-10T10:55:16Z</time>
      </trkpt>
      <trkpt lat="43.66301" lon="1.40392">
        <ele>122</ele>
        <time>2024-03-10T10:55:17Z</time>
      </trkpt>
      <trkpt lat="43.66304" lon="1.40391">
        <ele>123</ele>
        <time>2024-03-10T10:55:18Z</time>
      </trkpt>
      <trkpt lat="43.66306" lon="1.40389">
        <ele>123</ele>
        <time>2024-03-10T10:55:19Z</time>
      </trkpt>
      <trkpt lat="43.66309" lon="1.40386">
        <ele>122</ele>
        <time>2024-03-10T10:55:20Z</time>
      </trkpt>
      <trkpt lat="43.66311" lon="1.40383">
        <ele>123</ele>
        <time>2024-03-10T10:55:21Z</time>
      </trkpt>
      <trkpt lat="43.66313" lon="1.40381">
        <ele>124</ele>
        <time>2024-03-10T10:55:22Z</time>
      </trkpt>
      <trkpt lat="43.66316" lon="1.40379">
        <ele>124</ele>
        <time>2024-03-10T10:55:23Z</time>
      </trkpt>
      <trkpt lat="43.6632" lon="1.40374">
        <ele>123</ele>
        <time>2024-03-10T10:55:24Z</time>
      </trkpt>
      <trkpt lat="43.66321" lon="1.40371">
        <ele>123</ele>
        <time>2024-03-10T10:55:25Z</time>
      </trkpt>
      <trkpt lat="43.66323" lon="1.40369">
        <ele>123</ele>
        <time>2024-03-10T10:55:26Z</time>
      </trkpt>
      <trkpt lat="43.66323" lon="1.40369">
        <ele>123</ele>
        <time>2024-03-10T10:55:27Z</time>
      </trkpt>
      <trkpt lat="43.66325" lon="1.40367">
        <ele>122</ele>
        <time>2024-03-10T10:55:28Z</time>
      </trkpt>
      <trkpt lat="43.66328" lon="1.40365">
        <ele>122</ele>
        <time>2024-03-10T10:55:29Z</time>
      </trkpt>
      <trkpt lat="43.66331" lon="1.40362">
        <ele>122</ele>
        <time>2024-03-10T10:55:30Z</time>
      </trkpt>
      <trkpt lat="43.66335" lon="1.40358">
        <ele>122</ele>
        <time>2024-03-10T10:55:31Z</time>
      </trkpt>
      <trkpt lat="43.66337" lon="1.40356">
        <ele>122</ele>
        <time>2024-03-10T10:55:32Z</time>
      </trkpt>
      <trkpt lat="43.66337" lon="1.40356">
        <ele>122</ele>
        <time>2024-03-10T10:55:33Z</time>
      </trkpt>
      <trkpt lat="43.6634" lon="1.40353">
        <ele>123</ele>
        <time>2024-03-10T10:55:34Z</time>
      </trkpt>
      <trkpt lat="43.66343" lon="1.4035">
        <ele>123</ele>
        <time>2024-03-10T10:55:35Z</time>
      </trkpt>
      <trkpt lat="43.66347" lon="1.40344">
        <ele>123</ele>
        <time>2024-03-10T10:55:36Z</time>
      </trkpt>
      <trkpt lat="43.66347" lon="1.40344">
        <ele>123</ele>
        <time>2024-03-10T10:55:37Z</time>
      </trkpt>
      <trkpt lat="43.66348" lon="1.40341">
        <ele>124</ele>
        <time>2024-03-10T10:55:38Z</time>
      </trkpt>
      <trkpt lat="43.66349" lon="1.40339">
        <ele>124</ele>
        <time>2024-03-10T10:55:39Z</time>
      </trkpt>
      <trkpt lat="43.6635" lon="1.40336">
        <ele>123</ele>
        <time>2024-03-10T10:55:40Z</time>
      </trkpt>
      <trkpt lat="43.66354" lon="1.40329">
        <ele>123</ele>
        <time>2024-03-10T10:55:41Z</time>
      </trkpt>
      <trkpt lat="43.66357" lon="1.40327">
        <ele>123</ele>
        <time>2024-03-10T10:55:42Z</time>
      </trkpt>
      <trkpt lat="43.66362" lon="1.40323">
        <ele>123</ele>
        <time>2024-03-10T10:55:43Z</time>
      </trkpt>
      <trkpt lat="43.66362" lon="1.40323">
        <ele>123</ele>
        <time>2024-03-10T10:55:44Z</time>
      </trkpt>
      <trkpt lat="43.66365" lon="1.40321">
        <ele>123</ele>
        <time>2024-03-10T10:55:45Z</time>
      </trkpt>
      <trkpt lat="43.66368" lon="1.40319">
        <ele>123</ele>
        <time>2024-03-10T10:55:46Z</time>
      </trkpt>
      <trkpt lat="43.6637" lon="1.40317">
        <ele>123</ele>
        <time>2024-03-10T10:55:47Z</time>
      </trkpt>
      <trkpt lat="43.66372" lon="1.40314">
        <ele>123</ele>
        <time>2024-03-10T10:55:48Z</time>
      </trkpt>
      <trkpt lat="43.66374" lon="1.40311">
        <ele>123</ele>
        <time>2024-03-10T10:55:49Z</time>
      </trkpt>
      <trkpt lat="43.66378" lon="1.40305">
        <ele>123</ele>
        <time>2024-03-10T10:55:50Z</time>
      </trkpt>
      <trkpt lat="43.66378" lon="1.40305">
        <ele>123</ele>
        <time>2024-03-10T10:55:51Z</time>
      </trkpt>
      <trkpt lat="43.66383" lon="1.40299">
        <ele>123</ele>
        <time>2024-03-10T10:55:52Z</time>
      </trkpt>
      <trkpt lat="43.66384" lon="1.40298">
        <ele>123</ele>
        <time>2024-03-10T10:55:53Z</time>
      </trkpt>
      <trkpt lat="43.66384" lon="1.40298">
        <ele>123</ele>
        <time>2024-03-10T10:55:54Z</time>
      </trkpt>
      <trkpt lat="43.66389" lon="1.40296">
        <ele>123</ele>
        <time>2024-03-10T10:55:55Z</time>
      </trkpt>
      <trkpt lat="43.66389" lon="1.40296">
        <ele>123</ele>
        <time>2024-03-10T10:55:56Z</time>
      </trkpt>
      <trkpt lat="43.66391" lon="1.40295">
        <ele>122</ele>
        <time>2024-03-10T10:55:57Z</time>
      </trkpt>
      <trkpt lat="43.66391" lon="1.40295">
        <ele>122</ele>
        <time>2024-03-10T10:55:58Z</time>
      </trkpt>
      <trkpt lat="43.66393" lon="1.40293">
        <ele>122</ele>
        <time>2024-03-10T10:55:59Z</time>
      </trkpt>
      <trkpt lat="43.66394" lon="1.4029">
        <ele>122</ele>
        <time>2024-03-10T10:56:00Z</time>
      </trkpt>
      <trkpt lat="43.66397" lon="1.40286">
        <ele>122</ele>
        <time>2024-03-10T10:56:01Z</time>
      </trkpt>
      <trkpt lat="43.66402" lon="1.40281">
        <ele>122</ele>
        <time>2024-03-10T10:56:02Z</time>
      </trkpt>
      <trkpt lat="43.66402" lon="1.40281">
        <ele>122</ele>
        <time>2024-03-10T10:56:03Z</time>
      </trkpt>
      <trkpt lat="43.66404" lon="1.40277">
        <ele>122</ele>
        <time>2024-03-10T10:56:04Z</time>
      </trkpt>
      <trkpt lat="43.66406" lon="1.40274">
        <ele>122</ele>
        <time>2024-03-10T10:56:05Z</time>
      </trkpt>
      <trkpt lat="43.66408" lon="1.40271">
        <ele>122</ele>
        <time>2024-03-10T10:56:06Z</time>
      </trkpt>
      <trkpt lat="43.6641" lon="1.40268">
        <ele>122</ele>
        <time>2024-03-10T10:56:07Z</time>
      </trkpt>
      <trkpt lat="43.66411" lon="1.40266">
        <ele>122</ele>
        <time>2024-03-10T10:56:08Z</time>
      </trkpt>
      <trkpt lat="43.66415" lon="1.40261">
        <ele>122</ele>
        <time>2024-03-10T10:56:09Z</time>
      </trkpt>
      <trkpt lat="43.66415" lon="1.40261">
        <ele>122</ele>
        <time>2024-03-10T10:56:10Z</time>
      </trkpt>
      <trkpt lat="43.66419" lon="1.40255">
        <ele>122</ele>
        <time>2024-03-10T10:56:11Z</time>
      </trkpt>
      <trkpt lat="43.66419" lon="1.40255">
        <ele>122</ele>
        <time>2024-03-10T10:56:12Z</time>
      </trkpt>
      <trkpt lat="43.66423" lon="1.40248">
        <ele>122</ele>
        <time>2024-03-10T10:56:13Z</time>
      </trkpt>
      <trkpt lat="43.66423" lon="1.40248">
        <ele>122</ele>
        <time>2024-03-10T10:56:14Z</time>
      </trkpt>
      <trkpt lat="43.66427" lon="1.40243">
        <ele>122</ele>
        <time>2024-03-10T10:56:15Z</time>
      </trkpt>
      <trkpt lat="43.66429" lon="1.4024">
        <ele>122</ele>
        <time>2024-03-10T10:56:16Z</time>
      </trkpt>
      <trkpt lat="43.66429" lon="1.4024">
        <ele>122</ele>
        <time>2024-03-10T10:56:17Z</time>
      </trkpt>
      <trkpt lat="43.66431" lon="1.40239">
        <ele>122</ele>
        <time>2024-03-10T10:56:18Z</time>
      </trkpt>
      <trkpt lat="43.66433" lon="1.40237">
        <ele>121</ele>
        <time>2024-03-10T10:56:19Z</time>
      </trkpt>
      <trkpt lat="43.66438" lon="1.40233">
        <ele>121</ele>
        <time>2024-03-10T10:56:20Z</time>
      </trkpt>
      <trkpt lat="43.6644" lon="1.4023">
        <ele>121</ele>
        <time>2024-03-10T10:56:21Z</time>
      </trkpt>
      <trkpt lat="43.6644" lon="1.4023">
        <ele>121</ele>
        <time>2024-03-10T10:56:22Z</time>
      </trkpt>
      <trkpt lat="43.66443" lon="1.40227">
        <ele>121</ele>
        <time>2024-03-10T10:56:23Z</time>
      </trkpt>
      <trkpt lat="43.66445" lon="1.40224">
        <ele>121</ele>
        <time>2024-03-10T10:56:24Z</time>
      </trkpt>
      <trkpt lat="43.66447" lon="1.40222">
        <ele>121</ele>
        <time>2024-03-10T10:56:25Z</time>
      </trkpt>
      <trkpt lat="43.66451" lon="1.40218">
        <ele>121</ele>
        <time>2024-03-10T10:56:26Z</time>
      </trkpt>
      <trkpt lat="43.66451" lon="1.40218">
        <ele>121</ele>
        <time>2024-03-10T10:56:27Z</time>
      </trkpt>
      <trkpt lat="43.66455" lon="1.40214">
        <ele>121</ele>
        <time>2024-03-10T10:56:28Z</time>
      </trkpt>
      <trkpt lat="43.66457" lon="1.40211">
        <ele>121</ele>
        <time>2024-03-10T10:56:29Z</time>
      </trkpt>
      <trkpt lat="43.66457" lon="1.40211">
        <ele>121</ele>
        <time>2024-03-10T10:56:30Z</time>
      </trkpt>
      <trkpt lat="43.6646" lon="1.40207">
        <ele>122</ele>
        <time>2024-03-10T10:56:31Z</time>
      </trkpt>
      <trkpt lat="43.6646" lon="1.40207">
        <ele>122</ele>
        <time>2024-03-10T10:56:32Z</time>
      </trkpt>
      <trkpt lat="43.66462" lon="1.40205">
        <ele>122</ele>
        <time>2024-03-10T10:56:33Z</time>
      </trkpt>
      <trkpt lat="43.66463" lon="1.40202">
        <ele>122</ele>
        <time>2024-03-10T10:56:34Z</time>
      </trkpt>
      <trkpt lat="43.66468" lon="1.40197">
        <ele>122</ele>
        <time>2024-03-10T10:56:35Z</time>
      </trkpt>
      <trkpt lat="43.6647" lon="1.40195">
        <ele>122</ele>
        <time>2024-03-10T10:56:36Z</time>
      </trkpt>
      <trkpt lat="43.6647" lon="1.40195">
        <ele>122</ele>
        <time>2024-03-10T10:56:37Z</time>
      </trkpt>
      <trkpt lat="43.66473" lon="1.40194">
        <ele>122</ele>
        <time>2024-03-10T10:56:38Z</time>
      </trkpt>
      <trkpt lat="43.66475" lon="1.40193">
        <ele>122</ele>
        <time>2024-03-10T10:56:39Z</time>
      </trkpt>
      <trkpt lat="43.66481" lon="1.40191">
        <ele>122</ele>
        <time>2024-03-10T10:56:40Z</time>
      </trkpt>
      <trkpt lat="43.66481" lon="1.40191">
        <ele>122</ele>
        <time>2024-03-10T10:56:41Z</time>
      </trkpt>
      <trkpt lat="43.66485" lon="1.40187">
        <ele>122</ele>
        <time>2024-03-10T10:56:42Z</time>
      </trkpt>
      <trkpt lat="43.66487" lon="1.40186">
        <ele>122</ele>
        <time>2024-03-10T10:56:43Z</time>
      </trkpt>
      <trkpt lat="43.66487" lon="1.40186">
        <ele>122</ele>
        <time>2024-03-10T10:56:44Z</time>
      </trkpt>
      <trkpt lat="43.6649" lon="1.40183">
        <ele>123</ele>
        <time>2024-03-10T10:56:45Z</time>
      </trkpt>
      <trkpt lat="43.6649" lon="1.40183">
        <ele>123</ele>
        <time>2024-03-10T10:56:46Z</time>
      </trkpt>
      <trkpt lat="43.6649" lon="1.40183">
        <ele>123</ele>
        <time>2024-03-10T10:56:47Z</time>
      </trkpt>
      <trkpt lat="43.66491" lon="1.40179">
        <ele>123</ele>
        <time>2024-03-10T10:56:48Z</time>
      </trkpt>
      <trkpt lat="43.66493" lon="1.40177">
        <ele>123</ele>
        <time>2024-03-10T10:56:49Z</time>
      </trkpt>
      <trkpt lat="43.66496" lon="1.40174">
        <ele>123</ele>
        <time>2024-03-10T10:56:50Z</time>
      </trkpt>
      <trkpt lat="43.66496" lon="1.40174">
        <ele>123</ele>
        <time>2024-03-10T10:56:51Z</time>
      </trkpt>
      <trkpt lat="43.665" lon="1.40167">
        <ele>123</ele>
        <time>2024-03-10T10:56:52Z</time>
      </trkpt>
      <trkpt lat="43.66502" lon="1.40164">
        <ele>123</ele>
        <time>2024-03-10T10:56:53Z</time>
      </trkpt>
      <trkpt lat="43.66502" lon="1.40164">
        <ele>123</ele>
        <time>2024-03-10T10:56:54Z</time>
      </trkpt>
      <trkpt lat="43.66504" lon="1.40159">
        <ele>123</ele>
        <time>2024-03-10T10:56:55Z</time>
      </trkpt>
      <trkpt lat="43.66507" lon="1.40154">
        <ele>123</ele>
        <time>2024-03-10T10:56:56Z</time>
      </trkpt>
      <trkpt lat="43.66509" lon="1.4015">
        <ele>123</ele>
        <time>2024-03-10T10:56:57Z</time>
      </trkpt>
      <trkpt lat="43.6651" lon="1.40147">
        <ele>123</ele>
        <time>2024-03-10T10:56:58Z</time>
      </trkpt>
      <trkpt lat="43.66511" lon="1.40146">
        <ele>123</ele>
        <time>2024-03-10T10:56:59Z</time>
      </trkpt>
      <trkpt lat="43.66512" lon="1.40145">
        <ele>123</ele>
        <time>2024-03-10T10:57:00Z</time>
      </trkpt>
      <trkpt lat="43.66513" lon="1.40143">
        <ele>123</ele>
        <time>2024-03-10T10:57:01Z</time>
      </trkpt>
      <trkpt lat="43.66514" lon="1.40142">
        <ele>123</ele>
        <time>2024-03-10T10:57:02Z</time>
      </trkpt>
      <trkpt lat="43.66519" lon="1.40134">
        <ele>123</ele>
        <time>2024-03-10T10:57:03Z</time>
      </trkpt>
      <trkpt lat="43.66521" lon="1.40131">
        <ele>123</ele>
        <time>2024-03-10T10:57:04Z</time>
      </trkpt>
      <trkpt lat="43.66523" lon="1.40128">
        <ele>123</ele>
        <time>2024-03-10T10:57:05Z</time>
      </trkpt>
      <trkpt lat="43.66524" lon="1.40125">
        <ele>123</ele>
        <time>2024-03-10T10:57:06Z</time>
      </trkpt>
      <trkpt lat="43.66526" lon="1.40122">
        <ele>123</ele>
        <time>2024-03-10T10:57:07Z</time>
      </trkpt>
      <trkpt lat="43.66527" lon="1.4012">
        <ele>123</ele>
        <time>2024-03-10T10:57:08Z</time>
      </trkpt>
      <trkpt lat="43.66529" lon="1.40116">
        <ele>123</ele>
        <time>2024-03-10T10:57:09Z</time>
      </trkpt>
      <trkpt lat="43.6653" lon="1.40113">
        <ele>123</ele>
        <time>2024-03-10T10:57:10Z</time>
      </trkpt>
      <trkpt lat="43.66532" lon="1.4011">
        <ele>123</ele>
        <time>2024-03-10T10:57:11Z</time>
      </trkpt>
      <trkpt lat="43.66534" lon="1.40105">
        <ele>123</ele>
        <time>2024-03-10T10:57:12Z</time>
      </trkpt>
      <trkpt lat="43.66535" lon="1.401">
        <ele>123</ele>
        <time>2024-03-10T10:57:13Z</time>
      </trkpt>
      <trkpt lat="43.66537" lon="1.40096">
        <ele>123</ele>
        <time>2024-03-10T10:57:14Z</time>
      </trkpt>
      <trkpt lat="43.66537" lon="1.40096">
        <ele>123</ele>
        <time>2024-03-10T10:57:15Z</time>
      </trkpt>
      <trkpt lat="43.6654" lon="1.40092">
        <ele>123</ele>
        <time>2024-03-10T10:57:16Z</time>
      </trkpt>
      <trkpt lat="43.66543" lon="1.40088">
        <ele>123</ele>
        <time>2024-03-10T10:57:17Z</time>
      </trkpt>
      <trkpt lat="43.66547" lon="1.40083">
        <ele>123</ele>
        <time>2024-03-10T10:57:18Z</time>
      </trkpt>
      <trkpt lat="43.66547" lon="1.40083">
        <ele>123</ele>
        <time>2024-03-10T10:57:19Z</time>
      </trkpt>
      <trkpt lat="43.66552" lon="1.40077">
        <ele>123</ele>
        <time>2024-03-10T10:57:20Z</time>
      </trkpt>
      <trkpt lat="43.66554" lon="1.40075">
        <ele>123</ele>
        <time>2024-03-10T10:57:21Z</time>
      </trkpt>
      <trkpt lat="43.66557" lon="1.40073">
        <ele>123</ele>
        <time>2024-03-10T10:57:22Z</time>
      </trkpt>
      <trkpt lat="43.66557" lon="1.40073">
        <ele>124</ele>
        <time>2024-03-10T10:57:23Z</time>
      </trkpt>
      <trkpt lat="43.66559" lon="1.4007">
        <ele>124</ele>
        <time>2024-03-10T10:57:24Z</time>
      </trkpt>
      <trkpt lat="43.66561" lon="1.40067">
        <ele>124</ele>
        <time>2024-03-10T10:57:25Z</time>
      </trkpt>
      <trkpt lat="43.66562" lon="1.40065">
        <ele>124</ele>
        <time>2024-03-10T10:57:26Z</time>
      </trkpt>
      <trkpt lat="43.66564" lon="1.40062">
        <ele>124</ele>
        <time>2024-03-10T10:57:27Z</time>
      </trkpt>
      <trkpt lat="43.66566" lon="1.4006">
        <ele>124</ele>
        <time>2024-03-10T10:57:28Z</time>
      </trkpt>
      <trkpt lat="43.66567" lon="1.40057">
        <ele>124</ele>
        <time>2024-03-10T10:57:29Z</time>
      </trkpt>
      <trkpt lat="43.66568" lon="1.40054">
        <ele>124</ele>
        <time>2024-03-10T10:57:30Z</time>
      </trkpt>
      <trkpt lat="43.66571" lon="1.40048">
        <ele>124</ele>
        <time>2024-03-10T10:57:31Z</time>
      </trkpt>
      <trkpt lat="43.66572" lon="1.40045">
        <ele>124</ele>
        <time>2024-03-10T10:57:32Z</time>
      </trkpt>
      <trkpt lat="43.66573" lon="1.40041">
        <ele>124</ele>
        <time>2024-03-10T10:57:33Z</time>
      </trkpt>
      <trkpt lat="43.66575" lon="1.40039">
        <ele>124</ele>
        <time>2024-03-10T10:57:34Z</time>
      </trkpt>
      <trkpt lat="43.66575" lon="1.40039">
        <ele>124</ele>
        <time>2024-03-10T10:57:35Z</time>
      </trkpt>
      <trkpt lat="43.66576" lon="1.40037">
        <ele>124</ele>
        <time>2024-03-10T10:57:36Z</time>
      </trkpt>
      <trkpt lat="43.66579" lon="1.4003">
        <ele>123</ele>
        <time>2024-03-10T10:57:37Z</time>
      </trkpt>
      <trkpt lat="43.66579" lon="1.4003">
        <ele>123</ele>
        <time>2024-03-10T10:57:38Z</time>
      </trkpt>
      <trkpt lat="43.66581" lon="1.40026">
        <ele>123</ele>
        <time>2024-03-10T10:57:39Z</time>
      </trkpt>
      <trkpt lat="43.66582" lon="1.40023">
        <ele>123</ele>
        <time>2024-03-10T10:57:40Z</time>
      </trkpt>
      <trkpt lat="43.66582" lon="1.4002">
        <ele>123</ele>
        <time>2024-03-10T10:57:41Z</time>
      </trkpt>
      <trkpt lat="43.66583" lon="1.40017">
        <ele>123</ele>
        <time>2024-03-10T10:57:42Z</time>
      </trkpt>
      <trkpt lat="43.66583" lon="1.40014">
        <ele>123</ele>
        <time>2024-03-10T10:57:43Z</time>
      </trkpt>
      <trkpt lat="43.66584" lon="1.40011">
        <ele>123</ele>
        <time>2024-03-10T10:57:44Z</time>
      </trkpt>
      <trkpt lat="43.66585" lon="1.40004">
        <ele>123</ele>
        <time>2024-03-10T10:57:45Z</time>
      </trkpt>
      <trkpt lat="43.66585" lon="1.40004">
        <ele>123</ele>
        <time>2024-03-10T10:57:46Z</time>
      </trkpt>
      <trkpt lat="43.66586" lon="1.4">
        <ele>123</ele>
        <time>2024-03-10T10:57:47Z</time>
      </trkpt>
      <trkpt lat="43.66587" lon="1.39996">
        <ele>123</ele>
        <time>2024-03-10T10:57:48Z</time>
      </trkpt>
      <trkpt lat="43.66589" lon="1.39992">
        <ele>123</ele>
        <time>2024-03-10T10:57:49Z</time>
      </trkpt>
      <trkpt lat="43.6659" lon="1.39989">
        <ele>123</ele>
        <time>2024-03-10T10:57:50Z</time>
      </trkpt>
      <trkpt lat="43.66592" lon="1.39984">
        <ele>123</ele>
        <time>2024-03-10T10:57:51Z</time>
      </trkpt>
      <trkpt lat="43.66595" lon="1.3998">
        <ele>123</ele>
        <time>2024-03-10T10:57:52Z</time>
      </trkpt>
      <trkpt lat="43.66597" lon="1.39976">
        <ele>123</ele>
        <time>2024-03-10T10:57:53Z</time>
      </trkpt>
      <trkpt lat="43.66598" lon="1.39971">
        <ele>122</ele>
        <time>2024-03-10T10:57:54Z</time>
      </trkpt>
      <trkpt lat="43.66599" lon="1.39967">
        <ele>122</ele>
        <time>2024-03-10T10:57:55Z</time>
      </trkpt>
      <trkpt lat="43.666" lon="1.39963">
        <ele>123</ele>
        <time>2024-03-10T10:57:56Z</time>
      </trkpt>
      <trkpt lat="43.66601" lon="1.39958">
        <ele>123</ele>
        <time>2024-03-10T10:57:57Z</time>
      </trkpt>
      <trkpt lat="43.66602" lon="1.39956">
        <ele>123</ele>
        <time>2024-03-10T10:57:58Z</time>
      </trkpt>
      <trkpt lat="43.66603" lon="1.39953">
        <ele>123</ele>
        <time>2024-03-10T10:57:59Z</time>
      </trkpt>
      <trkpt lat="43.66604" lon="1.39949">
        <ele>123</ele>
        <time>2024-03-10T10:58:00Z</time>
      </trkpt>
      <trkpt lat="43.66606" lon="1.39945">
        <ele>123</ele>
        <time>2024-03-10T10:58:01Z</time>
      </trkpt>
      <trkpt lat="43.66607" lon="1.39941">
        <ele>123</ele>
        <time>2024-03-10T10:58:02Z</time>
      </trkpt>
      <trkpt lat="43.66608" lon="1.39938">
        <ele>123</ele>
        <time>2024-03-10T10:58:03Z</time>
      </trkpt>
      <trkpt lat="43.66609" lon="1.3993">
        <ele>123</ele>
        <time>2024-03-10T10:58:04Z</time>
      </trkpt>
      <trkpt lat="43.66609" lon="1.39927">
        <ele>123</ele>
        <time>2024-03-10T10:58:05Z</time>
      </trkpt>
      <trkpt lat="43.6661" lon="1.39924">
        <ele>123</ele>
        <time>2024-03-10T10:58:06Z</time>
      </trkpt>
      <trkpt lat="43.6661" lon="1.39924">
        <ele>123</ele>
        <time>2024-03-10T10:58:07Z</time>
      </trkpt>
      <trkpt lat="43.66611" lon="1.39921">
        <ele>123</ele>
        <time>2024-03-10T10:58:08Z</time>
      </trkpt>
      <trkpt lat="43.66611" lon="1.39919">
        <ele>122</ele>
        <time>2024-03-10T10:58:09Z</time>
      </trkpt>
      <trkpt lat="43.66613" lon="1.39915">
        <ele>123</ele>
        <time>2024-03-10T10:58:10Z</time>
      </trkpt>
      <trkpt lat="43.66615" lon="1.39912">
        <ele>123</ele>
        <time>2024-03-10T10:58:11Z</time>
      </trkpt>
      <trkpt lat="43.66615" lon="1.3991">
        <ele>123</ele>
        <time>2024-03-10T10:58:12Z</time>
      </trkpt>
      <trkpt lat="43.66616" lon="1.39908">
        <ele>123</ele>
        <time>2024-03-10T10:58:13Z</time>
      </trkpt>
      <trkpt lat="43.66617" lon="1.39906">
        <ele>123</ele>
        <time>2024-03-10T10:58:14Z</time>
      </trkpt>
      <trkpt lat="43.66621" lon="1.39895">
        <ele>123</ele>
        <time>2024-03-10T10:58:15Z</time>
      </trkpt>
      <trkpt lat="43.66622" lon="1.39891">
        <ele>123</ele>
        <time>2024-03-10T10:58:16Z</time>
      </trkpt>
      <trkpt lat="43.66623" lon="1.39887">
        <ele>123</ele>
        <time>2024-03-10T10:58:17Z</time>
      </trkpt>
      <trkpt lat="43.66623" lon="1.39884">
        <ele>123</ele>
        <time>2024-03-10T10:58:18Z</time>
      </trkpt>
      <trkpt lat="43.66624" lon="1.3988">
        <ele>123</ele>
        <time>2024-03-10T10:58:19Z</time>
      </trkpt>
      <trkpt lat="43.66625" lon="1.39877">
        <ele>123</ele>
        <time>2024-03-10T10:58:20Z</time>
      </trkpt>
      <trkpt lat="43.66626" lon="1.39873">
        <ele>123</ele>
        <time>2024-03-10T10:58:21Z</time>
      </trkpt>
      <trkpt lat="43.66626" lon="1.39869">
        <ele>123</ele>
        <time>2024-03-10T10:58:22Z</time>
      </trkpt>
      <trkpt lat="43.66627" lon="1.39865">
        <ele>123</ele>
        <time>2024-03-10T10:58:23Z</time>
      </trkpt>
      <trkpt lat="43.66627" lon="1.39861">
        <ele>122</ele>
        <time>2024-03-10T10:58:24Z</time>
      </trkpt>
      <trkpt lat="43.66627" lon="1.39857">
        <ele>122</ele>
        <time>2024-03-10T10:58:25Z</time>
      </trkpt>
      <trkpt lat="43.66626" lon="1.39853">
        <ele>122</ele>
        <time>2024-03-10T10:58:26Z</time>
      </trkpt>
      <trkpt lat="43.66626" lon="1.39849">
        <ele>123</ele>
        <time>2024-03-10T10:58:27Z</time>
      </trkpt>
      <trkpt lat="43.66626" lon="1.39847">
        <ele>123</ele>
        <time>2024-03-10T10:58:28Z</time>
      </trkpt>
      <trkpt lat="43.66625" lon="1.39841">
        <ele>123</ele>
        <time>2024-03-10T10:58:29Z</time>
      </trkpt>
      <trkpt lat="43.66625" lon="1.39841">
        <ele>123</ele>
        <time>2024-03-10T10:58:30Z</time>
      </trkpt>
      <trkpt lat="43.66624" lon="1.39834">
        <ele>123</ele>
        <time>2024-03-10T10:58:31Z</time>
      </trkpt>
      <trkpt lat="43.66624" lon="1.39832">
        <ele>123</ele>
        <time>2024-03-10T10:58:32Z</time>
      </trkpt>
      <trkpt lat="43.66624" lon="1.39828">
        <ele>123</ele>
        <time>2024-03-10T10:58:33Z</time>
      </trkpt>
      <trkpt lat="43.66624" lon="1.39828">
        <ele>123</ele>
        <time>2024-03-10T10:58:34Z</time>
      </trkpt>
      <trkpt lat="43.66624" lon="1.39825">
        <ele>123</ele>
        <time>2024-03-10T10:58:35Z</time>
      </trkpt>
      <trkpt lat="43.66625" lon="1.39823">
        <ele>123</ele>
        <time>2024-03-10T10:58:36Z</time>
      </trkpt>
      <trkpt lat="43.66626" lon="1.3982">
        <ele>124</ele>
        <time>2024-03-10T10:58:37Z</time>
      </trkpt>
      <trkpt lat="43.66626" lon="1.39817">
        <ele>124</ele>
        <time>2024-03-10T10:58:38Z</time>
      </trkpt>
      <trkpt lat="43.66624" lon="1.3981">
        <ele>124</ele>
        <time>2024-03-10T10:58:39Z</time>
      </trkpt>
      <trkpt lat="43.66624" lon="1.3981">
        <ele>124</ele>
        <time>2024-03-10T10:58:40Z</time>
      </trkpt>
      <trkpt lat="43.66624" lon="1.39806">
        <ele>124</ele>
        <time>2024-03-10T10:58:41Z</time>
      </trkpt>
      <trkpt lat="43.66624" lon="1.39803">
        <ele>124</ele>
        <time>2024-03-10T10:58:42Z</time>
      </trkpt>
      <trkpt lat="43.66624" lon="1.398">
        <ele>124</ele>
        <time>2024-03-10T10:58:43Z</time>
      </trkpt>
      <trkpt lat="43.66625" lon="1.39797">
        <ele>124</ele>
        <time>2024-03-10T10:58:44Z</time>
      </trkpt>
      <trkpt lat="43.66625" lon="1.39793">
        <ele>124</ele>
        <time>2024-03-10T10:58:45Z</time>
      </trkpt>
      <trkpt lat="43.66625" lon="1.3979">
        <ele>124</ele>
        <time>2024-03-10T10:58:46Z</time>
      </trkpt>
      <trkpt lat="43.66625" lon="1.39787">
        <ele>124</ele>
        <time>2024-03-10T10:58:47Z</time>
      </trkpt>
      <trkpt lat="43.66625" lon="1.39785">
        <ele>124</ele>
        <time>2024-03-10T10:58:48Z</time>
      </trkpt>
      <trkpt lat="43.66625" lon="1.39782">
        <ele>124</ele>
        <time>2024-03-10T10:58:49Z</time>
      </trkpt>
      <trkpt lat="43.66625" lon="1.39779">
        <ele>124</ele>
        <time>2024-03-10T10:58:50Z</time>
      </trkpt>
      <trkpt lat="43.66625" lon="1.39768">
        <ele>124</ele>
        <time>2024-03-10T10:58:51Z</time>
      </trkpt>
      <trkpt lat="43.66625" lon="1.39768">
        <ele>124</ele>
        <time>2024-03-10T10:58:52Z</time>
      </trkpt>
      <trkpt lat="43.66626" lon="1.39764">
        <ele>124</ele>
        <time>2024-03-10T10:58:53Z</time>
      </trkpt>
      <trkpt lat="43.66626" lon="1.39762">
        <ele>124</ele>
        <time>2024-03-10T10:58:54Z</time>
      </trkpt>
      <trkpt lat="43.66626" lon="1.3976">
        <ele>124</ele>
        <time>2024-03-10T10:58:55Z</time>
      </trkpt>
      <trkpt lat="43.66626" lon="1.39758">
        <ele>124</ele>
        <time>2024-03-10T10:58:56Z</time>
      </trkpt>
      <trkpt lat="43.66626" lon="1.39756">
        <ele>124</ele>
        <time>2024-03-10T10:58:57Z</time>
      </trkpt>
      <trkpt lat="43.66625" lon="1.39744">
        <ele>124</ele>
        <time>2024-03-10T10:58:58Z</time>
      </trkpt>
      <trkpt lat="43.66625" lon="1.3974">
        <ele>123</ele>
        <time>2024-03-10T10:58:59Z</time>
      </trkpt>
      <trkpt lat="43.66624" lon="1.39735">
        <ele>123</ele>
        <time>2024-03-10T10:59:00Z</time>
      </trkpt>
      <trkpt lat="43.66624" lon="1.39732">
        <ele>124</ele>
        <time>2024-03-10T10:59:01Z</time>
      </trkpt>
      <trkpt lat="43.66623" lon="1.39729">
        <ele>124</ele>
        <time>2024-03-10T10:59:02Z</time>
      </trkpt>
      <trkpt lat="43.66623" lon="1.39729">
        <ele>124</ele>
        <time>2024-03-10T10:59:03Z</time>
      </trkpt>
      <trkpt lat="43.66623" lon="1.39725">
        <ele>124</ele>
        <time>2024-03-10T10:59:04Z</time>
      </trkpt>
      <trkpt lat="43.66622" lon="1.39721">
        <ele>124</ele>
        <time>2024-03-10T10:59:05Z</time>
      </trkpt>
      <trkpt lat="43.66622" lon="1.39717">
        <ele>124</ele>
        <time>2024-03-10T10:59:06Z</time>
      </trkpt>
      <trkpt lat="43.66622" lon="1.39713">
        <ele>124</ele>
        <time>2024-03-10T10:59:07Z</time>
      </trkpt>
      <trkpt lat="43.66621" lon="1.39706">
        <ele>123</ele>
        <time>2024-03-10T10:59:08Z</time>
      </trkpt>
      <trkpt lat="43.66621" lon="1.39702">
        <ele>123</ele>
        <time>2024-03-10T10:59:09Z</time>
      </trkpt>
      <trkpt lat="43.66621" lon="1.39698">
        <ele>123</ele>
        <time>2024-03-10T10:59:10Z</time>
      </trkpt>
      <trkpt lat="43.66621" lon="1.39698">
        <ele>124</ele>
        <time>2024-03-10T10:59:11Z</time>
      </trkpt>
      <trkpt lat="43.66621" lon="1.39695">
        <ele>124</ele>
        <time>2024-03-10T10:59:12Z</time>
      </trkpt>
      <trkpt lat="43.6662" lon="1.39692">
        <ele>124</ele>
        <time>2024-03-10T10:59:13Z</time>
      </trkpt>
      <trkpt lat="43.6662" lon="1.39688">
        <ele>124</ele>
        <time>2024-03-10T10:59:14Z</time>
      </trkpt>
      <trkpt lat="43.66619" lon="1.39684">
        <ele>124</ele>
        <time>2024-03-10T10:59:15Z</time>
      </trkpt>
      <trkpt lat="43.66618" lon="1.3968">
        <ele>123</ele>
        <time>2024-03-10T10:59:16Z</time>
      </trkpt>
      <trkpt lat="43.66617" lon="1.39676">
        <ele>123</ele>
        <time>2024-03-10T10:59:17Z</time>
      </trkpt>
      <trkpt lat="43.66616" lon="1.39672">
        <ele>123</ele>
        <time>2024-03-10T10:59:18Z</time>
      </trkpt>
      <trkpt lat="43.66615" lon="1.39669">
        <ele>123</ele>
        <time>2024-03-10T10:59:19Z</time>
      </trkpt>
      <trkpt lat="43.66614" lon="1.39666">
        <ele>123</ele>
        <time>2024-03-10T10:59:20Z</time>
      </trkpt>
      <trkpt lat="43.66613" lon="1.39664">
        <ele>123</ele>
        <time>2024-03-10T10:59:21Z</time>
      </trkpt>
      <trkpt lat="43.66612" lon="1.39661">
        <ele>123</ele>
        <time>2024-03-10T10:59:22Z</time>
      </trkpt>
      <trkpt lat="43.66612" lon="1.39661">
        <ele>123</ele>
        <time>2024-03-10T10:59:23Z</time>
      </trkpt>
      <trkpt lat="43.66614" lon="1.39657">
        <ele>123</ele>
        <time>2024-03-10T10:59:24Z</time>
      </trkpt>
      <trkpt lat="43.66614" lon="1.39657">
        <ele>124</ele>
        <time>2024-03-10T10:59:25Z</time>
      </trkpt>
      <trkpt lat="43.66614" lon="1.39657">
        <ele>124</ele>
        <time>2024-03-10T10:59:26Z</time>
      </trkpt>
      <trkpt lat="43.66614" lon="1.39657">
        <ele>124</ele>
        <time>2024-03-10T10:59:27Z</time>
      </trkpt>
      <trkpt lat="43.66614" lon="1.39657">
        <ele>123</ele>
        <time>2024-03-10T10:59:28Z</time>
      </trkpt>
      <trkpt lat="43.66612" lon="1.39655">
        <ele>124</ele>
        <time>2024-03-10T10:59:29Z</time>
      </trkpt>
      <trkpt lat="43.66612" lon="1.39655">
        <ele>124</ele>
        <time>2024-03-10T10:59:30Z</time>
      </trkpt>
      <trkpt lat="43.66612" lon="1.39654">
        <ele>123</ele>
        <time>2024-03-10T10:59:31Z</time>
      </trkpt>
      <trkpt lat="43.66612" lon="1.39652">
        <ele>124</ele>
        <time>2024-03-10T10:59:32Z</time>
      </trkpt>
      <trkpt lat="43.66612" lon="1.39651">
        <ele>124</ele>
        <time>2024-03-10T10:59:33Z</time>
      </trkpt>
      <trkpt lat="43.66613" lon="1.39649">
        <ele>124</ele>
        <time>2024-03-10T10:59:34Z</time>
      </trkpt>
      <trkpt lat="43.66613" lon="1.39647">
        <ele>123</ele>
        <time>2024-03-10T10:59:35Z</time>
      </trkpt>
      <trkpt lat="43.66614" lon="1.39646">
        <ele>123</ele>
        <time>2024-03-10T10:59:36Z</time>
      </trkpt>
      <trkpt lat="43.66614" lon="1.39644">
        <ele>123</ele>
        <time>2024-03-10T10:59:37Z</time>
      </trkpt>
      <trkpt lat="43.66615" lon="1.39642">
        <ele>123</ele>
        <time>2024-03-10T10:59:38Z</time>
      </trkpt>
      <trkpt lat="43.66616" lon="1.39641">
        <ele>123</ele>
        <time>2024-03-10T10:59:39Z</time>
      </trkpt>
      <trkpt lat="43.66616" lon="1.39639">
        <ele>123</ele>
        <time>2024-03-10T10:59:40Z</time>
      </trkpt>
      <trkpt lat="43.66617" lon="1.39638">
        <ele>123</ele>
        <time>2024-03-10T10:59:41Z</time>
      </trkpt>
      <trkpt lat="43.66617" lon="1.39635">
        <ele>123</ele>
        <time>2024-03-10T10:59:42Z</time>
      </trkpt>
      <trkpt lat="43.66617" lon="1.39633">
        <ele>123</ele>
        <time>2024-03-10T10:59:43Z</time>
      </trkpt>
      <trkpt lat="43.66617" lon="1.39631">
        <ele>123</ele>
        <time>2024-03-10T10:59:44Z</time>
      </trkpt>
      <trkpt lat="43.66615" lon="1.39629">
        <ele>123</ele>
        <time>2024-03-10T10:59:45Z</time>
      </trkpt>
      <trkpt lat="43.66615" lon="1.39629">
        <ele>122</ele>
        <time>2024-03-10T10:59:46Z</time>
      </trkpt>
      <trkpt lat="43.66615" lon="1.39627">
        <ele>122</ele>
        <time>2024-03-10T10:59:47Z</time>
      </trkpt>
      <trkpt lat="43.66614" lon="1.39626">
        <ele>122</ele>
        <time>2024-03-10T10:59:48Z</time>
      </trkpt>
      <trkpt lat="43.66613" lon="1.39624">
        <ele>122</ele>
        <time>2024-03-10T10:59:49Z</time>
      </trkpt>
      <trkpt lat="43.66613" lon="1.39622">
        <ele>122</ele>
        <time>2024-03-10T10:59:50Z</time>
      </trkpt>
      <trkpt lat="43.66612" lon="1.39621">
        <ele>122</ele>
        <time>2024-03-10T10:59:51Z</time>
      </trkpt>
      <trkpt lat="43.66611" lon="1.39619">
        <ele>122</ele>
        <time>2024-03-10T10:59:52Z</time>
      </trkpt>
      <trkpt lat="43.66611" lon="1.39618">
        <ele>122</ele>
        <time>2024-03-10T10:59:53Z</time>
      </trkpt>
      <trkpt lat="43.6661" lon="1.39617">
        <ele>122</ele>
        <time>2024-03-10T10:59:54Z</time>
      </trkpt>
      <trkpt lat="43.6661" lon="1.39615">
        <ele>122</ele>
        <time>2024-03-10T10:59:55Z</time>
      </trkpt>
      <trkpt lat="43.66609" lon="1.39614">
        <ele>122</ele>
        <time>2024-03-10T10:59:56Z</time>
      </trkpt>
      <trkpt lat="43.66608" lon="1.39613">
        <ele>122</ele>
        <time>2024-03-10T10:59:57Z</time>
      </trkpt>
      <trkpt lat="43.66608" lon="1.39611">
        <ele>122</ele>
        <time>2024-03-10T10:59:58Z</time>
      </trkpt>
      <trkpt lat="43.66607" lon="1.3961">
        <ele>122</ele>
        <time>2024-03-10T10:59:59Z</time>
      </trkpt>
      <trkpt lat="43.66607" lon="1.39609">
        <ele>122</ele>
        <time>2024-03-10T11:00:00Z</time>
      </trkpt>
      <trkpt lat="43.66606" lon="1.39606">
        <ele>122</ele>
        <time>2024-03-10T11:00:01Z</time>
      </trkpt>
      <trkpt lat="43.66606" lon="1.39604">
        <ele>122</ele>
        <time>2024-03-10T11:00:02Z</time>
      </trkpt>
      <trkpt lat="43.66605" lon="1.39601">
        <ele>122</ele>
        <time>2024-03-10T11:00:03Z</time>
      </trkpt>
      <trkpt lat="43.66605" lon="1.39599">
        <ele>122</ele>
        <time>2024-03-10T11:00:04Z</time>
      </trkpt>
      <trkpt lat="43.66604" lon="1.39596">
        <ele>123</ele>
        <time>2024-03-10T11:00:05Z</time>
      </trkpt>
      <trkpt lat="43.66604" lon="1.39593">
        <ele>123</ele>
        <time>2024-03-10T11:00:06Z</time>
      </trkpt>
      <trkpt lat="43.66604" lon="1.3959">
        <ele>123</ele>
        <time>2024-03-10T11:00:07Z</time>
      </trkpt>
      <trkpt lat="43.66605" lon="1.39587">
        <ele>123</ele>
        <time>2024-03-10T11:00:08Z</time>
      </trkpt>
      <trkpt lat="43.66606" lon="1.39583">
        <ele>123</ele>
        <time>2024-03-10T11:00:09Z</time>
      </trkpt>
      <trkpt lat="43.66607" lon="1.3958">
        <ele>123</ele>
        <time>2024-03-10T11:00:10Z</time>
      </trkpt>
      <trkpt lat="43.66606" lon="1.39578">
        <ele>123</ele>
        <time>2024-03-10T11:00:11Z</time>
      </trkpt>
      <trkpt lat="43.66606" lon="1.39576">
        <ele>123</ele>
        <time>2024-03-10T11:00:12Z</time>
      </trkpt>
      <trkpt lat="43.66606" lon="1.39575">
        <ele>123</ele>
        <time>2024-03-10T11:00:13Z</time>
      </trkpt>
      <trkpt lat="43.66606" lon="1.39573">
        <ele>123</ele>
        <time>2024-03-10T11:00:14Z</time>
      </trkpt>
      <trkpt lat="43.66606" lon="1.39571">
        <ele>123</ele>
        <time>2024-03-10T11:00:15Z</time>
      </trkpt>
      <trkpt lat="43.66606" lon="1.39569">
        <ele>123</ele>
        <time>2024-03-10T11:00:16Z</time>
      </trkpt>
      <trkpt lat="43.66606" lon="1.39567">
        <ele>123</ele>
        <time>2024-03-10T11:00:17Z</time>
      </trkpt>
      <trkpt lat="43.66605" lon="1.39565">
        <ele>123</ele>
        <time>2024-03-10T11:00:18Z</time>
      </trkpt>
      <trkpt lat="43.66603" lon="1.39563">
        <ele>123</ele>
        <time>2024-03-10T11:00:19Z</time>
      </trkpt>
      <trkpt lat="43.66602" lon="1.39561">
        <ele>123</ele>
        <time>2024-03-10T11:00:20Z</time>
      </trkpt>
      <trkpt lat="43.66601" lon="1.39559">
        <ele>123</ele>
        <time>2024-03-10T11:00:21Z</time>
      </trkpt>
      <trkpt lat="43.666" lon="1.39557">
        <ele>123</ele>
        <time>2024-03-10T11:00:22Z</time>
      </trkpt>
      <trkpt lat="43.66599" lon="1.39556">
        <ele>123</ele>
        <time>2024-03-10T11:00:23Z</time>
      </trkpt>
      <trkpt lat="43.66598" lon="1.39555">
        <ele>123</ele>
        <time>2024-03-10T11:00:24Z</time>
      </trkpt>
      <trkpt lat="43.66597" lon="1.39553">
        <ele>123</ele>
        <time>2024-03-10T11:00:25Z</time>
      </trkpt>
      <trkpt lat="43.66596" lon="1.39552">
        <ele>123</ele>
        <time>2024-03-10T11:00:26Z</time>
      </trkpt>
      <trkpt lat="43.66591" lon="1.39543">
        <ele>123</ele>
        <time>2024-03-10T11:00:27Z</time>
      </trkpt>
      <trkpt lat="43.66589" lon="1.3954">
        <ele>123</ele>
        <time>2024-03-10T11:00:28Z</time>
      </trkpt>
      <trkpt lat="43.66587" lon="1.39536">
        <ele>122</ele>
        <time>2024-03-10T11:00:29Z</time>
      </trkpt>
      <trkpt lat="43.66588" lon="1.39532">
        <ele>122</ele>
        <time>2024-03-10T11:00:30Z</time>
      </trkpt>
      <trkpt lat="43.66589" lon="1.39527">
        <ele>122</ele>
        <time>2024-03-10T11:00:31Z</time>
      </trkpt>
      <trkpt lat="43.66589" lon="1.39522">
        <ele>122</ele>
        <time>2024-03-10T11:00:32Z</time>
      </trkpt>
      <trkpt lat="43.66589" lon="1.39519">
        <ele>122</ele>
        <time>2024-03-10T11:00:33Z</time>
      </trkpt>
      <trkpt lat="43.66589" lon="1.39517">
        <ele>122</ele>
        <time>2024-03-10T11:00:34Z</time>
      </trkpt>
      <trkpt lat="43.6659" lon="1.39514">
        <ele>122</ele>
        <time>2024-03-10T11:00:35Z</time>
      </trkpt>
      <trkpt lat="43.6659" lon="1.39502">
        <ele>123</ele>
        <time>2024-03-10T11:00:36Z</time>
      </trkpt>
      <trkpt lat="43.6659" lon="1.39497">
        <ele>123</ele>
        <time>2024-03-10T11:00:37Z</time>
      </trkpt>
      <trkpt lat="43.6659" lon="1.39493">
        <ele>123</ele>
        <time>2024-03-10T11:00:38Z</time>
      </trkpt>
      <trkpt lat="43.6659" lon="1.39491">
        <ele>123</ele>
        <time>2024-03-10T11:00:39Z</time>
      </trkpt>
      <trkpt lat="43.66589" lon="1.39489">
        <ele>122</ele>
        <time>2024-03-10T11:00:40Z</time>
      </trkpt>
      <trkpt lat="43.66589" lon="1.39487">
        <ele>122</ele>
        <time>2024-03-10T11:00:41Z</time>
      </trkpt>
      <trkpt lat="43.66588" lon="1.39486">
        <ele>123</ele>
        <time>2024-03-10T11:00:42Z</time>
      </trkpt>
      <trkpt lat="43.66586" lon="1.39474">
        <ele>123</ele>
        <time>2024-03-10T11:00:43Z</time>
      </trkpt>
      <trkpt lat="43.66584" lon="1.3947">
        <ele>123</ele>
        <time>2024-03-10T11:00:44Z</time>
      </trkpt>
      <trkpt lat="43.66583" lon="1.39466">
        <ele>123</ele>
        <time>2024-03-10T11:00:45Z</time>
      </trkpt>
      <trkpt lat="43.66582" lon="1.39462">
        <ele>123</ele>
        <time>2024-03-10T11:00:46Z</time>
      </trkpt>
      <trkpt lat="43.66581" lon="1.3946">
        <ele>123</ele>
        <time>2024-03-10T11:00:47Z</time>
      </trkpt>
      <trkpt lat="43.6658" lon="1.39458">
        <ele>123</ele>
        <time>2024-03-10T11:00:48Z</time>
      </trkpt>
      <trkpt lat="43.66579" lon="1.39455">
        <ele>123</ele>
        <time>2024-03-10T11:00:49Z</time>
      </trkpt>
      <trkpt lat="43.66578" lon="1.39452">
        <ele>123</ele>
        <time>2024-03-10T11:00:50Z</time>
      </trkpt>
      <trkpt lat="43.66577" lon="1.39449">
        <ele>122</ele>
        <time>2024-03-10T11:00:51Z</time>
      </trkpt>
      <trkpt lat="43.66576" lon="1.39446">
        <ele>122</ele>
        <time>2024-03-10T11:00:52Z</time>
      </trkpt>
      <trkpt lat="43.66575" lon="1.39443">
        <ele>122</ele>
        <time>2024-03-10T11:00:53Z</time>
      </trkpt>
      <trkpt lat="43.66574" lon="1.3944">
        <ele>123</ele>
        <time>2024-03-10T11:00:54Z</time>
      </trkpt>
      <trkpt lat="43.66573" lon="1.39437">
        <ele>123</ele>
        <time>2024-03-10T11:00:55Z</time>
      </trkpt>
      <trkpt lat="43.66572" lon="1.39433">
        <ele>123</ele>
        <time>2024-03-10T11:00:56Z</time>
      </trkpt>
      <trkpt lat="43.66571" lon="1.3943">
        <ele>123</ele>
        <time>2024-03-10T11:00:57Z</time>
      </trkpt>
      <trkpt lat="43.6657" lon="1.39427">
        <ele>123</ele>
        <time>2024-03-10T11:00:58Z</time>
      </trkpt>
      <trkpt lat="43.66569" lon="1.39425">
        <ele>123</ele>
        <time>2024-03-10T11:00:59Z</time>
      </trkpt>
      <trkpt lat="43.66569" lon="1.39423">
        <ele>123</ele>
        <time>2024-03-10T11:01:00Z</time>
      </trkpt>
      <trkpt lat="43.66568" lon="1.39422">
        <ele>122</ele>
        <time>2024-03-10T11:01:01Z</time>
      </trkpt>
      <trkpt lat="43.66568" lon="1.3942">
        <ele>122</ele>
        <time>2024-03-10T11:01:02Z</time>
      </trkpt>
      <trkpt lat="43.66567" lon="1.39408">
        <ele>122</ele>
        <time>2024-03-10T11:01:03Z</time>
      </trkpt>
      <trkpt lat="43.66567" lon="1.39403">
        <ele>123</ele>
        <time>2024-03-10T11:01:04Z</time>
      </trkpt>
      <trkpt lat="43.66568" lon="1.39399">
        <ele>123</ele>
        <time>2024-03-10T11:01:05Z</time>
      </trkpt>
      <trkpt lat="43.66567" lon="1.39394">
        <ele>124</ele>
        <time>2024-03-10T11:01:06Z</time>
      </trkpt>
      <trkpt lat="43.66566" lon="1.3939">
        <ele>124</ele>
        <time>2024-03-10T11:01:07Z</time>
      </trkpt>
      <trkpt lat="43.66565" lon="1.39386">
        <ele>124</ele>
        <time>2024-03-10T11:01:08Z</time>
      </trkpt>
      <trkpt lat="43.66565" lon="1.39382">
        <ele>124</ele>
        <time>2024-03-10T11:01:09Z</time>
      </trkpt>
      <trkpt lat="43.66564" lon="1.39379">
        <ele>123</ele>
        <time>2024-03-10T11:01:10Z</time>
      </trkpt>
      <trkpt lat="43.66563" lon="1.39375">
        <ele>123</ele>
        <time>2024-03-10T11:01:11Z</time>
      </trkpt>
      <trkpt lat="43.66563" lon="1.39372">
        <ele>123</ele>
        <time>2024-03-10T11:01:12Z</time>
      </trkpt>
      <trkpt lat="43.66562" lon="1.39368">
        <ele>123</ele>
        <time>2024-03-10T11:01:13Z</time>
      </trkpt>
      <trkpt lat="43.66562" lon="1.39365">
        <ele>123</ele>
        <time>2024-03-10T11:01:14Z</time>
      </trkpt>
      <trkpt lat="43.66561" lon="1.39361">
        <ele>123</ele>
        <time>2024-03-10T11:01:15Z</time>
      </trkpt>
      <trkpt lat="43.6656" lon="1.39358">
        <ele>123</ele>
        <time>2024-03-10T11:01:16Z</time>
      </trkpt>
      <trkpt lat="43.66561" lon="1.39354">
        <ele>123</ele>
        <time>2024-03-10T11:01:17Z</time>
      </trkpt>
      <trkpt lat="43.66561" lon="1.3935">
        <ele>122</ele>
        <time>2024-03-10T11:01:18Z</time>
      </trkpt>
      <trkpt lat="43.66561" lon="1.39346">
        <ele>122</ele>
        <time>2024-03-10T11:01:19Z</time>
      </trkpt>
      <trkpt lat="43.66562" lon="1.39341">
        <ele>123</ele>
        <time>2024-03-10T11:01:20Z</time>
      </trkpt>
      <trkpt lat="43.66562" lon="1.39337">
        <ele>123</ele>
        <time>2024-03-10T11:01:21Z</time>
      </trkpt>
      <trkpt lat="43.66563" lon="1.39333">
        <ele>123</ele>
        <time>2024-03-10T11:01:22Z</time>
      </trkpt>
      <trkpt lat="43.66563" lon="1.39328">
        <ele>123</ele>
        <time>2024-03-10T11:01:23Z</time>
      </trkpt>
      <trkpt lat="43.66563" lon="1.39324">
        <ele>123</ele>
        <time>2024-03-10T11:01:24Z</time>
      </trkpt>
      <trkpt lat="43.66563" lon="1.3932">
        <ele>123</ele>
        <time>2024-03-10T11:01:25Z</time>
      </trkpt>
      <trkpt lat="43.66563" lon="1.39316">
        <ele>123</ele>
        <time>2024-03-10T11:01:26Z</time>
      </trkpt>
      <trkpt lat="43.66563" lon="1.39314">
        <ele>123</ele>
        <time>2024-03-10T11:01:27Z</time>
      </trkpt>
      <trkpt lat="43.66563" lon="1.39312">
        <ele>123</ele>
        <time>2024-03-10T11:01:28Z</time>
      </trkpt>
      <trkpt lat="43.66563" lon="1.3931">
        <ele>123</ele>
        <time>2024-03-10T11:01:29Z</time>
      </trkpt>
      <trkpt lat="43.66563" lon="1.39308">
        <ele>123</ele>
        <time>2024-03-10T11:01:30Z</time>
      </trkpt>
      <trkpt lat="43.66562" lon="1.39297">
        <ele>123</ele>
        <time>2024-03-10T11:01:31Z</time>
      </trkpt>
      <trkpt lat="43.66561" lon="1.39293">
        <ele>123</ele>
        <time>2024-03-10T11:01:32Z</time>
      </trkpt>
      <trkpt lat="43.66561" lon="1.39289">
        <ele>123</ele>
        <time>2024-03-10T11:01:33Z</time>
      </trkpt>
      <trkpt lat="43.6656" lon="1.39285">
        <ele>123</ele>
        <time>2024-03-10T11:01:34Z</time>
      </trkpt>
      <trkpt lat="43.6656" lon="1.39283">
        <ele>123</ele>
        <time>2024-03-10T11:01:35Z</time>
      </trkpt>
      <trkpt lat="43.66559" lon="1.3928">
        <ele>123</ele>
        <time>2024-03-10T11:01:36Z</time>
      </trkpt>
      <trkpt lat="43.66555" lon="1.39275">
        <ele>123</ele>
        <time>2024-03-10T11:01:37Z</time>
      </trkpt>
      <trkpt lat="43.66555" lon="1.39275">
        <ele>123</ele>
        <time>2024-03-10T11:01:38Z</time>
      </trkpt>
      <trkpt lat="43.66553" lon="1.39273">
        <ele>123</ele>
        <time>2024-03-10T11:01:39Z</time>
      </trkpt>
      <trkpt lat="43.66551" lon="1.39272">
        <ele>123</ele>
        <time>2024-03-10T11:01:40Z</time>
      </trkpt>
      <trkpt lat="43.66549" lon="1.39272">
        <ele>122</ele>
        <time>2024-03-10T11:01:41Z</time>
      </trkpt>
      <trkpt lat="43.66547" lon="1.39272">
        <ele>122</ele>
        <time>2024-03-10T11:01:42Z</time>
      </trkpt>
      <trkpt lat="43.66545" lon="1.39273">
        <ele>122</ele>
        <time>2024-03-10T11:01:43Z</time>
      </trkpt>
      <trkpt lat="43.66541" lon="1.39275">
        <ele>122</ele>
        <time>2024-03-10T11:01:44Z</time>
      </trkpt>
      <trkpt lat="43.66541" lon="1.39275">
        <ele>122</ele>
        <time>2024-03-10T11:01:45Z</time>
      </trkpt>
      <trkpt lat="43.66539" lon="1.39276">
        <ele>122</ele>
        <time>2024-03-10T11:01:46Z</time>
      </trkpt>
      <trkpt lat="43.66537" lon="1.39278">
        <ele>122</ele>
        <time>2024-03-10T11:01:47Z</time>
      </trkpt>
      <trkpt lat="43.66535" lon="1.39278">
        <ele>122</ele>
        <time>2024-03-10T11:01:48Z</time>
      </trkpt>
      <trkpt lat="43.66532" lon="1.39276">
        <ele>122</ele>
        <time>2024-03-10T11:01:49Z</time>
      </trkpt>
      <trkpt lat="43.66529" lon="1.39275">
        <ele>122</ele>
        <time>2024-03-10T11:01:50Z</time>
      </trkpt>
      <trkpt lat="43.66527" lon="1.39273">
        <ele>121</ele>
        <time>2024-03-10T11:01:51Z</time>
      </trkpt>
      <trkpt lat="43.66525" lon="1.39271">
        <ele>121</ele>
        <time>2024-03-10T11:01:52Z</time>
      </trkpt>
      <trkpt lat="43.66523" lon="1.39269">
        <ele>121</ele>
        <time>2024-03-10T11:01:53Z</time>
      </trkpt>
      <trkpt lat="43.6652" lon="1.39268">
        <ele>121</ele>
        <time>2024-03-10T11:01:54Z</time>
      </trkpt>
      <trkpt lat="43.66518" lon="1.39267">
        <ele>121</ele>
        <time>2024-03-10T11:01:55Z</time>
      </trkpt>
      <trkpt lat="43.66517" lon="1.39268">
        <ele>122</ele>
        <time>2024-03-10T11:01:56Z</time>
      </trkpt>
      <trkpt lat="43.66516" lon="1.39269">
        <ele>122</ele>
        <time>2024-03-10T11:01:57Z</time>
      </trkpt>
      <trkpt lat="43.66516" lon="1.3927">
        <ele>122</ele>
        <time>2024-03-10T11:01:58Z</time>
      </trkpt>
      <trkpt lat="43.66515" lon="1.39272">
        <ele>122</ele>
        <time>2024-03-10T11:01:59Z</time>
      </trkpt>
      <trkpt lat="43.66514" lon="1.39273">
        <ele>122</ele>
        <time>2024-03-10T11:02:00Z</time>
      </trkpt>
      <trkpt lat="43.6651" lon="1.39282">
        <ele>122</ele>
        <time>2024-03-10T11:02:01Z</time>
      </trkpt>
      <trkpt lat="43.66509" lon="1.39285">
        <ele>122</ele>
        <time>2024-03-10T11:02:02Z</time>
      </trkpt>
      <trkpt lat="43.66508" lon="1.39289">
        <ele>122</ele>
        <time>2024-03-10T11:02:03Z</time>
      </trkpt>
      <trkpt lat="43.66508" lon="1.39292">
        <ele>122</ele>
        <time>2024-03-10T11:02:04Z</time>
      </trkpt>
      <trkpt lat="43.66504" lon="1.393">
        <ele>122</ele>
        <time>2024-03-10T11:02:05Z</time>
      </trkpt>
      <trkpt lat="43.66504" lon="1.393">
        <ele>122</ele>
        <time>2024-03-10T11:02:06Z</time>
      </trkpt>
      <trkpt lat="43.66503" lon="1.39303">
        <ele>122</ele>
        <time>2024-03-10T11:02:07Z</time>
      </trkpt>
      <trkpt lat="43.66501" lon="1.39306">
        <ele>122</ele>
        <time>2024-03-10T11:02:08Z</time>
      </trkpt>
      <trkpt lat="43.665" lon="1.39309">
        <ele>123</ele>
        <time>2024-03-10T11:02:09Z</time>
      </trkpt>
      <trkpt lat="43.66499" lon="1.39311">
        <ele>123</ele>
        <time>2024-03-10T11:02:10Z</time>
      </trkpt>
      <trkpt lat="43.66497" lon="1.39313">
        <ele>123</ele>
        <time>2024-03-10T11:02:11Z</time>
      </trkpt>
      <trkpt lat="43.66495" lon="1.39315">
        <ele>123</ele>
        <time>2024-03-10T11:02:12Z</time>
      </trkpt>
      <trkpt lat="43.66493" lon="1.39317">
        <ele>123</ele>
        <time>2024-03-10T11:02:13Z</time>
      </trkpt>
      <trkpt lat="43.66491" lon="1.39318">
        <ele>123</ele>
        <time>2024-03-10T11:02:14Z</time>
      </trkpt>
      <trkpt lat="43.66489" lon="1.3932">
        <ele>123</ele>
        <time>2024-03-10T11:02:15Z</time>
      </trkpt>
      <trkpt lat="43.66486" lon="1.39321">
        <ele>123</ele>
        <time>2024-03-10T11:02:16Z</time>
      </trkpt>
      <trkpt lat="43.66484" lon="1.39323">
        <ele>123</ele>
        <time>2024-03-10T11:02:17Z</time>
      </trkpt>
      <trkpt lat="43.66481" lon="1.39324">
        <ele>123</ele>
        <time>2024-03-10T11:02:18Z</time>
      </trkpt>
      <trkpt lat="43.6648" lon="1.39324">
        <ele>123</ele>
        <time>2024-03-10T11:02:19Z</time>
      </trkpt>
      <trkpt lat="43.66478" lon="1.39324">
        <ele>123</ele>
        <time>2024-03-10T11:02:20Z</time>
      </trkpt>
      <trkpt lat="43.66476" lon="1.39324">
        <ele>123</ele>
        <time>2024-03-10T11:02:21Z</time>
      </trkpt>
      <trkpt lat="43.66475" lon="1.39324">
        <ele>123</ele>
        <time>2024-03-10T11:02:22Z</time>
      </trkpt>
      <trkpt lat="43.66468" lon="1.39325">
        <ele>123</ele>
        <time>2024-03-10T11:02:23Z</time>
      </trkpt>
      <trkpt lat="43.66465" lon="1.39324">
        <ele>123</ele>
        <time>2024-03-10T11:02:24Z</time>
      </trkpt>
      <trkpt lat="43.66462" lon="1.39324">
        <ele>124</ele>
        <time>2024-03-10T11:02:25Z</time>
      </trkpt>
      <trkpt lat="43.66459" lon="1.39324">
        <ele>124</ele>
        <time>2024-03-10T11:02:26Z</time>
      </trkpt>
      <trkpt lat="43.66456" lon="1.39323">
        <ele>124</ele>
        <time>2024-03-10T11:02:27Z</time>
      </trkpt>
      <trkpt lat="43.66454" lon="1.39323">
        <ele>124</ele>
        <time>2024-03-10T11:02:28Z</time>
      </trkpt>
      <trkpt lat="43.66449" lon="1.39324">
        <ele>123</ele>
        <time>2024-03-10T11:02:29Z</time>
      </trkpt>
      <trkpt lat="43.66449" lon="1.39324">
        <ele>123</ele>
        <time>2024-03-10T11:02:30Z</time>
      </trkpt>
      <trkpt lat="43.66446" lon="1.39324">
        <ele>123</ele>
        <time>2024-03-10T11:02:31Z</time>
      </trkpt>
      <trkpt lat="43.66439" lon="1.39324">
        <ele>123</ele>
        <time>2024-03-10T11:02:32Z</time>
      </trkpt>
      <trkpt lat="43.66436" lon="1.39325">
        <ele>123</ele>
        <time>2024-03-10T11:02:33Z</time>
      </trkpt>
      <trkpt lat="43.66436" lon="1.39325">
        <ele>123</ele>
        <time>2024-03-10T11:02:34Z</time>
      </trkpt>
      <trkpt lat="43.66433" lon="1.39325">
        <ele>123</ele>
        <time>2024-03-10T11:02:35Z</time>
      </trkpt>
      <trkpt lat="43.6643" lon="1.39324">
        <ele>123</ele>
        <time>2024-03-10T11:02:36Z</time>
      </trkpt>
      <trkpt lat="43.66427" lon="1.39323">
        <ele>123</ele>
        <time>2024-03-10T11:02:37Z</time>
      </trkpt>
      <trkpt lat="43.66424" lon="1.39323">
        <ele>124</ele>
        <time>2024-03-10T11:02:38Z</time>
      </trkpt>
      <trkpt lat="43.66419" lon="1.3932">
        <ele>124</ele>
        <time>2024-03-10T11:02:39Z</time>
      </trkpt>
      <trkpt lat="43.66417" lon="1.3932">
        <ele>124</ele>
        <time>2024-03-10T11:02:40Z</time>
      </trkpt>
      <trkpt lat="43.66415" lon="1.39319">
        <ele>124</ele>
        <time>2024-03-10T11:02:41Z</time>
      </trkpt>
      <trkpt lat="43.66415" lon="1.39319">
        <ele>123</ele>
        <time>2024-03-10T11:02:42Z</time>
      </trkpt>
      <trkpt lat="43.66413" lon="1.39317">
        <ele>123</ele>
        <time>2024-03-10T11:02:43Z</time>
      </trkpt>
      <trkpt lat="43.66411" lon="1.39316">
        <ele>123</ele>
        <time>2024-03-10T11:02:44Z</time>
      </trkpt>
      <trkpt lat="43.66409" lon="1.39315">
        <ele>123</ele>
        <time>2024-03-10T11:02:45Z</time>
      </trkpt>
      <trkpt lat="43.66408" lon="1.39314">
        <ele>123</ele>
        <time>2024-03-10T11:02:46Z</time>
      </trkpt>
      <trkpt lat="43.66406" lon="1.39313">
        <ele>123</ele>
        <time>2024-03-10T11:02:47Z</time>
      </trkpt>
      <trkpt lat="43.66399" lon="1.39309">
        <ele>123</ele>
        <time>2024-03-10T11:02:48Z</time>
      </trkpt>
      <trkpt lat="43.66397" lon="1.39306">
        <ele>123</ele>
        <time>2024-03-10T11:02:49Z</time>
      </trkpt>
      <trkpt lat="43.66395" lon="1.39304">
        <ele>123</ele>
        <time>2024-03-10T11:02:50Z</time>
      </trkpt>
      <trkpt lat="43.66392" lon="1.39302">
        <ele>123</ele>
        <time>2024-03-10T11:02:51Z</time>
      </trkpt>
      <trkpt lat="43.66389" lon="1.39301">
        <ele>123</ele>
        <time>2024-03-10T11:02:52Z</time>
      </trkpt>
      <trkpt lat="43.66387" lon="1.39299">
        <ele>123</ele>
        <time>2024-03-10T11:02:53Z</time>
      </trkpt>
      <trkpt lat="43.66384" lon="1.39297">
        <ele>123</ele>
        <time>2024-03-10T11:02:54Z</time>
      </trkpt>
      <trkpt lat="43.66383" lon="1.39297">
        <ele>123</ele>
        <time>2024-03-10T11:02:55Z</time>
      </trkpt>
      <trkpt lat="43.66381" lon="1.39296">
        <ele>123</ele>
        <time>2024-03-10T11:02:56Z</time>
      </trkpt>
      <trkpt lat="43.6638" lon="1.39295">
        <ele>123</ele>
        <time>2024-03-10T11:02:57Z</time>
      </trkpt>
      <trkpt lat="43.66379" lon="1.39294">
        <ele>123</ele>
        <time>2024-03-10T11:02:58Z</time>
      </trkpt>
      <trkpt lat="43.66372" lon="1.39289">
        <ele>123</ele>
        <time>2024-03-10T11:02:59Z</time>
      </trkpt>
      <trkpt lat="43.6637" lon="1.39288">
        <ele>123</ele>
        <time>2024-03-10T11:03:00Z</time>
      </trkpt>
      <trkpt lat="43.66368" lon="1.39287">
        <ele>123</ele>
        <time>2024-03-10T11:03:01Z</time>
      </trkpt>
      <trkpt lat="43.66366" lon="1.39286">
        <ele>123</ele>
        <time>2024-03-10T11:03:02Z</time>
      </trkpt>
      <trkpt lat="43.66357" lon="1.39281">
        <ele>123</ele>
        <time>2024-03-10T11:03:03Z</time>
      </trkpt>
      <trkpt lat="43.66355" lon="1.39281">
        <ele>123</ele>
        <time>2024-03-10T11:03:04Z</time>
      </trkpt>
      <trkpt lat="43.66353" lon="1.39281">
        <ele>123</ele>
        <time>2024-03-10T11:03:05Z</time>
      </trkpt>
      <trkpt lat="43.66353" lon="1.39281">
        <ele>123</ele>
        <time>2024-03-10T11:03:06Z</time>
      </trkpt>
      <trkpt lat="43.66351" lon="1.39283">
        <ele>124</ele>
        <time>2024-03-10T11:03:07Z</time>
      </trkpt>
      <trkpt lat="43.66349" lon="1.39284">
        <ele>124</ele>
        <time>2024-03-10T11:03:08Z</time>
      </trkpt>
      <trkpt lat="43.66347" lon="1.39286">
        <ele>124</ele>
        <time>2024-03-10T11:03:09Z</time>
      </trkpt>
      <trkpt lat="43.66344" lon="1.39288">
        <ele>124</ele>
        <time>2024-03-10T11:03:10Z</time>
      </trkpt>
      <trkpt lat="43.66342" lon="1.39289">
        <ele>123</ele>
        <time>2024-03-10T11:03:11Z</time>
      </trkpt>
      <trkpt lat="43.6634" lon="1.3929">
        <ele>123</ele>
        <time>2024-03-10T11:03:12Z</time>
      </trkpt>
      <trkpt lat="43.66338" lon="1.39292">
        <ele>123</ele>
        <time>2024-03-10T11:03:13Z</time>
      </trkpt>
      <trkpt lat="43.66336" lon="1.39293">
        <ele>123</ele>
        <time>2024-03-10T11:03:14Z</time>
      </trkpt>
      <trkpt lat="43.66333" lon="1.39295">
        <ele>123</ele>
        <time>2024-03-10T11:03:15Z</time>
      </trkpt>
      <trkpt lat="43.6633" lon="1.39296">
        <ele>123</ele>
        <time>2024-03-10T11:03:16Z</time>
      </trkpt>
      <trkpt lat="43.66327" lon="1.39297">
        <ele>123</ele>
        <time>2024-03-10T11:03:17Z</time>
      </trkpt>
      <trkpt lat="43.66323" lon="1.39296">
        <ele>123</ele>
        <time>2024-03-10T11:03:18Z</time>
      </trkpt>
      <trkpt lat="43.6632" lon="1.39295">
        <ele>123</ele>
        <time>2024-03-10T11:03:19Z</time>
      </trkpt>
      <trkpt lat="43.66317" lon="1.39294">
        <ele>123</ele>
        <time>2024-03-10T11:03:20Z</time>
      </trkpt>
      <trkpt lat="43.66314" lon="1.39292">
        <ele>123</ele>
        <time>2024-03-10T11:03:21Z</time>
      </trkpt>
      <trkpt lat="43.66311" lon="1.39291">
        <ele>123</ele>
        <time>2024-03-10T11:03:22Z</time>
      </trkpt>
      <trkpt lat="43.66308" lon="1.39289">
        <ele>123</ele>
        <time>2024-03-10T11:03:23Z</time>
      </trkpt>
      <trkpt lat="43.66306" lon="1.39287">
        <ele>123</ele>
        <time>2024-03-10T11:03:24Z</time>
      </trkpt>
      <trkpt lat="43.66303" lon="1.39284">
        <ele>123</ele>
        <time>2024-03-10T11:03:25Z</time>
      </trkpt>
      <trkpt lat="43.663" lon="1.39282">
        <ele>123</ele>
        <time>2024-03-10T11:03:26Z</time>
      </trkpt>
      <trkpt lat="43.66298" lon="1.39279">
        <ele>123</ele>
        <time>2024-03-10T11:03:27Z</time>
      </trkpt>
      <trkpt lat="43.66296" lon="1.39276">
        <ele>123</ele>
        <time>2024-03-10T11:03:28Z</time>
      </trkpt>
      <trkpt lat="43.66294" lon="1.39273">
        <ele>123</ele>
        <time>2024-03-10T11:03:29Z</time>
      </trkpt>
      <trkpt lat="43.66293" lon="1.39272">
        <ele>123</ele>
        <time>2024-03-10T11:03:30Z</time>
      </trkpt>
      <trkpt lat="43.66292" lon="1.3927">
        <ele>123</ele>
        <time>2024-03-10T11:03:31Z</time>
      </trkpt>
      <trkpt lat="43.66291" lon="1.39269">
        <ele>123</ele>
        <time>2024-03-10T11:03:32Z</time>
      </trkpt>
      <trkpt lat="43.6629" lon="1.39267">
        <ele>123</ele>
        <time>2024-03-10T11:03:33Z</time>
      </trkpt>
      <trkpt lat="43.66284" lon="1.39257">
        <ele>123</ele>
        <time>2024-03-10T11:03:34Z</time>
      </trkpt>
      <trkpt lat="43.66283" lon="1.39253">
        <ele>123</ele>
        <time>2024-03-10T11:03:35Z</time>
      </trkpt>
      <trkpt lat="43.66281" lon="1.39249">
        <ele>123</ele>
        <time>2024-03-10T11:03:36Z</time>
      </trkpt>
      <trkpt lat="43.6628" lon="1.39245">
        <ele>123</ele>
        <time>2024-03-10T11:03:37Z</time>
      </trkpt>
      <trkpt lat="43.66279" lon="1.39241">
        <ele>123</ele>
        <time>2024-03-10T11:03:38Z</time>
      </trkpt>
      <trkpt lat="43.66279" lon="1.39241">
        <ele>123</ele>
        <time>2024-03-10T11:03:39Z</time>
      </trkpt>
      <trkpt lat="43.66278" lon="1.39238">
        <ele>123</ele>
        <time>2024-03-10T11:03:40Z</time>
      </trkpt>
      <trkpt lat="43.66278" lon="1.39236">
        <ele>123</ele>
        <time>2024-03-10T11:03:41Z</time>
      </trkpt>
      <trkpt lat="43.66277" lon="1.39233">
        <ele>122</ele>
        <time>2024-03-10T11:03:42Z</time>
      </trkpt>
      <trkpt lat="43.66275" lon="1.3923">
        <ele>122</ele>
        <time>2024-03-10T11:03:43Z</time>
      </trkpt>
      <trkpt lat="43.66274" lon="1.39224">
        <ele>122</ele>
        <time>2024-03-10T11:03:44Z</time>
      </trkpt>
      <trkpt lat="43.66274" lon="1.39219">
        <ele>122</ele>
        <time>2024-03-10T11:03:45Z</time>
      </trkpt>
      <trkpt lat="43.66274" lon="1.39215">
        <ele>122</ele>
        <time>2024-03-10T11:03:46Z</time>
      </trkpt>
      <trkpt lat="43.66274" lon="1.39215">
        <ele>122</ele>
        <time>2024-03-10T11:03:47Z</time>
      </trkpt>
      <trkpt lat="43.66274" lon="1.39213">
        <ele>122</ele>
        <time>2024-03-10T11:03:48Z</time>
      </trkpt>
      <trkpt lat="43.66274" lon="1.39211">
        <ele>122</ele>
        <time>2024-03-10T11:03:49Z</time>
      </trkpt>
      <trkpt lat="43.66273" lon="1.39209">
        <ele>122</ele>
        <time>2024-03-10T11:03:50Z</time>
      </trkpt>
      <trkpt lat="43.66273" lon="1.39207">
        <ele>122</ele>
        <time>2024-03-10T11:03:51Z</time>
      </trkpt>
      <trkpt lat="43.66271" lon="1.39195">
        <ele>122</ele>
        <time>2024-03-10T11:03:52Z</time>
      </trkpt>
      <trkpt lat="43.66269" lon="1.39191">
        <ele>122</ele>
        <time>2024-03-10T11:03:53Z</time>
      </trkpt>
      <trkpt lat="43.66268" lon="1.39187">
        <ele>123</ele>
        <time>2024-03-10T11:03:54Z</time>
      </trkpt>
      <trkpt lat="43.66265" lon="1.39184">
        <ele>123</ele>
        <time>2024-03-10T11:03:55Z</time>
      </trkpt>
      <trkpt lat="43.66263" lon="1.39182">
        <ele>123</ele>
        <time>2024-03-10T11:03:56Z</time>
      </trkpt>
      <trkpt lat="43.6626" lon="1.39179">
        <ele>123</ele>
        <time>2024-03-10T11:03:57Z</time>
      </trkpt>
      <trkpt lat="43.66258" lon="1.39177">
        <ele>123</ele>
        <time>2024-03-10T11:03:58Z</time>
      </trkpt>
      <trkpt lat="43.66257" lon="1.39176">
        <ele>123</ele>
        <time>2024-03-10T11:03:59Z</time>
      </trkpt>
      <trkpt lat="43.66255" lon="1.39176">
        <ele>123</ele>
        <time>2024-03-10T11:04:00Z</time>
      </trkpt>
      <trkpt lat="43.66254" lon="1.39175">
        <ele>122</ele>
        <time>2024-03-10T11:04:01Z</time>
      </trkpt>
      <trkpt lat="43.66252" lon="1.39174">
        <ele>122</ele>
        <time>2024-03-10T11:04:02Z</time>
      </trkpt>
      <trkpt lat="43.6625" lon="1.39174">
        <ele>123</ele>
        <time>2024-03-10T11:04:03Z</time>
      </trkpt>
      <trkpt lat="43.66249" lon="1.39173">
        <ele>123</ele>
        <time>2024-03-10T11:04:04Z</time>
      </trkpt>
      <trkpt lat="43.66247" lon="1.39173">
        <ele>123</ele>
        <time>2024-03-10T11:04:05Z</time>
      </trkpt>
      <trkpt lat="43.66246" lon="1.39173">
        <ele>123</ele>
        <time>2024-03-10T11:04:06Z</time>
      </trkpt>
      <trkpt lat="43.66244" lon="1.39172">
        <ele>123</ele>
        <time>2024-03-10T11:04:07Z</time>
      </trkpt>
      <trkpt lat="43.66243" lon="1.39172">
        <ele>124</ele>
        <time>2024-03-10T11:04:08Z</time>
      </trkpt>
      <trkpt lat="43.66241" lon="1.39172">
        <ele>124</ele>
        <time>2024-03-10T11:04:09Z</time>
      </trkpt>
      <trkpt lat="43.6624" lon="1.39172">
        <ele>124</ele>
        <time>2024-03-10T11:04:10Z</time>
      </trkpt>
      <trkpt lat="43.66233" lon="1.3917">
        <ele>124</ele>
        <time>2024-03-10T11:04:11Z</time>
      </trkpt>
      <trkpt lat="43.6623" lon="1.39169">
        <ele>123</ele>
        <time>2024-03-10T11:04:12Z</time>
      </trkpt>
      <trkpt lat="43.66227" lon="1.39168">
        <ele>123</ele>
        <time>2024-03-10T11:04:13Z</time>
      </trkpt>
      <trkpt lat="43.66223" lon="1.39167">
        <ele>123</ele>
        <time>2024-03-10T11:04:14Z</time>
      </trkpt>
      <trkpt lat="43.66221" lon="1.39164">
        <ele>123</ele>
        <time>2024-03-10T11:04:15Z</time>
      </trkpt>
      <trkpt lat="43.66219" lon="1.39161">
        <ele>123</ele>
        <time>2024-03-10T11:04:16Z</time>
      </trkpt>
      <trkpt lat="43.66216" lon="1.39158">
        <ele>123</ele>
        <time>2024-03-10T11:04:17Z</time>
      </trkpt>
      <trkpt lat="43.66215" lon="1.39154">
        <ele>123</ele>
        <time>2024-03-10T11:04:18Z</time>
      </trkpt>
      <trkpt lat="43.66214" lon="1.3915">
        <ele>123</ele>
        <time>2024-03-10T11:04:19Z</time>
      </trkpt>
      <trkpt lat="43.66213" lon="1.39146">
        <ele>123</ele>
        <time>2024-03-10T11:04:20Z</time>
      </trkpt>
      <trkpt lat="43.66212" lon="1.39146">
        <ele>123</ele>
        <time>2024-03-10T11:04:21Z</time>
      </trkpt>
      <trkpt lat="43.6621" lon="1.39146">
        <ele>123</ele>
        <time>2024-03-10T11:04:22Z</time>
      </trkpt>
      <trkpt lat="43.66209" lon="1.39146">
        <ele>123</ele>
        <time>2024-03-10T11:04:23Z</time>
      </trkpt>
      <trkpt lat="43.66208" lon="1.39146">
        <ele>123</ele>
        <time>2024-03-10T11:04:24Z</time>
      </trkpt>
      <trkpt lat="43.66206" lon="1.39147">
        <ele>123</ele>
        <time>2024-03-10T11:04:25Z</time>
      </trkpt>
      <trkpt lat="43.66205" lon="1.39147">
        <ele>123</ele>
        <time>2024-03-10T11:04:26Z</time>
      </trkpt>
      <trkpt lat="43.66204" lon="1.39147">
        <ele>123</ele>
        <time>2024-03-10T11:04:27Z</time>
      </trkpt>
      <trkpt lat="43.66202" lon="1.39149">
        <ele>122</ele>
        <time>2024-03-10T11:04:28Z</time>
      </trkpt>
      <trkpt lat="43.66201" lon="1.3915">
        <ele>122</ele>
        <time>2024-03-10T11:04:29Z</time>
      </trkpt>
      <trkpt lat="43.66199" lon="1.39152">
        <ele>122</ele>
        <time>2024-03-10T11:04:30Z</time>
      </trkpt>
      <trkpt lat="43.66198" lon="1.39154">
        <ele>122</ele>
        <time>2024-03-10T11:04:31Z</time>
      </trkpt>
      <trkpt lat="43.66196" lon="1.39156">
        <ele>122</ele>
        <time>2024-03-10T11:04:32Z</time>
      </trkpt>
      <trkpt lat="43.66195" lon="1.39158">
        <ele>122</ele>
        <time>2024-03-10T11:04:33Z</time>
      </trkpt>
      <trkpt lat="43.66193" lon="1.39159">
        <ele>122</ele>
        <time>2024-03-10T11:04:34Z</time>
      </trkpt>
      <trkpt lat="43.66191" lon="1.39161">
        <ele>122</ele>
        <time>2024-03-10T11:04:35Z</time>
      </trkpt>
      <trkpt lat="43.6619" lon="1.39163">
        <ele>122</ele>
        <time>2024-03-10T11:04:36Z</time>
      </trkpt>
      <trkpt lat="43.66188" lon="1.39164">
        <ele>122</ele>
        <time>2024-03-10T11:04:37Z</time>
      </trkpt>
      <trkpt lat="43.66187" lon="1.39166">
        <ele>122</ele>
        <time>2024-03-10T11:04:38Z</time>
      </trkpt>
      <trkpt lat="43.66185" lon="1.39169">
        <ele>123</ele>
        <time>2024-03-10T11:04:39Z</time>
      </trkpt>
      <trkpt lat="43.66183" lon="1.39171">
        <ele>123</ele>
        <time>2024-03-10T11:04:40Z</time>
      </trkpt>
      <trkpt lat="43.66181" lon="1.39173">
        <ele>124</ele>
        <time>2024-03-10T11:04:41Z</time>
      </trkpt>
      <trkpt lat="43.66179" lon="1.39175">
        <ele>124</ele>
        <time>2024-03-10T11:04:42Z</time>
      </trkpt>
      <trkpt lat="43.66177" lon="1.39177">
        <ele>124</ele>
        <time>2024-03-10T11:04:43Z</time>
      </trkpt>
      <trkpt lat="43.66175" lon="1.39179">
        <ele>124</ele>
        <time>2024-03-10T11:04:44Z</time>
      </trkpt>
      <trkpt lat="43.66174" lon="1.39181">
        <ele>123</ele>
        <time>2024-03-10T11:04:45Z</time>
      </trkpt>
      <trkpt lat="43.66172" lon="1.39182">
        <ele>123</ele>
        <time>2024-03-10T11:04:46Z</time>
      </trkpt>
      <trkpt lat="43.6617" lon="1.39183">
        <ele>123</ele>
        <time>2024-03-10T11:04:47Z</time>
      </trkpt>
      <trkpt lat="43.66168" lon="1.39184">
        <ele>123</ele>
        <time>2024-03-10T11:04:48Z</time>
      </trkpt>
      <trkpt lat="43.66166" lon="1.39185">
        <ele>123</ele>
        <time>2024-03-10T11:04:49Z</time>
      </trkpt>
      <trkpt lat="43.66164" lon="1.39186">
        <ele>123</ele>
        <time>2024-03-10T11:04:50Z</time>
      </trkpt>
      <trkpt lat="43.66162" lon="1.39187">
        <ele>123</ele>
        <time>2024-03-10T11:04:51Z</time>
      </trkpt>
      <trkpt lat="43.6616" lon="1.39188">
        <ele>123</ele>
        <time>2024-03-10T11:04:52Z</time>
      </trkpt>
      <trkpt lat="43.66159" lon="1.39189">
        <ele>123</ele>
        <time>2024-03-10T11:04:53Z</time>
      </trkpt>
      <trkpt lat="43.66157" lon="1.3919">
        <ele>123</ele>
        <time>2024-03-10T11:04:54Z</time>
      </trkpt>
      <trkpt lat="43.66155" lon="1.39191">
        <ele>123</ele>
        <time>2024-03-10T11:04:55Z</time>
      </trkpt>
      <trkpt lat="43.66152" lon="1.39191">
        <ele>123</ele>
        <time>2024-03-10T11:04:56Z</time>
      </trkpt>
      <trkpt lat="43.66148" lon="1.39192">
        <ele>123</ele>
        <time>2024-03-10T11:04:57Z</time>
      </trkpt>
      <trkpt lat="43.66145" lon="1.39192">
        <ele>123</ele>
        <time>2024-03-10T11:04:58Z</time>
      </trkpt>
      <trkpt lat="43.66143" lon="1.39193">
        <ele>123</ele>
        <time>2024-03-10T11:04:59Z</time>
      </trkpt>
      <trkpt lat="43.66142" lon="1.39194">
        <ele>123</ele>
        <time>2024-03-10T11:05:00Z</time>
      </trkpt>
      <trkpt lat="43.6614" lon="1.39195">
        <ele>123</ele>
        <time>2024-03-10T11:05:01Z</time>
      </trkpt>
      <trkpt lat="43.66133" lon="1.39198">
        <ele>123</ele>
        <time>2024-03-10T11:05:02Z</time>
      </trkpt>
      <trkpt lat="43.6613" lon="1.39199">
        <ele>123</ele>
        <time>2024-03-10T11:05:03Z</time>
      </trkpt>
      <trkpt lat="43.66128" lon="1.392">
        <ele>123</ele>
        <time>2024-03-10T11:05:04Z</time>
      </trkpt>
      <trkpt lat="43.66125" lon="1.392">
        <ele>123</ele>
        <time>2024-03-10T11:05:05Z</time>
      </trkpt>
      <trkpt lat="43.66123" lon="1.392">
        <ele>123</ele>
        <time>2024-03-10T11:05:06Z</time>
      </trkpt>
      <trkpt lat="43.6612" lon="1.392">
        <ele>124</ele>
        <time>2024-03-10T11:05:07Z</time>
      </trkpt>
      <trkpt lat="43.66117" lon="1.392">
        <ele>124</ele>
        <time>2024-03-10T11:05:08Z</time>
      </trkpt>
      <trkpt lat="43.66114" lon="1.392">
        <ele>124</ele>
        <time>2024-03-10T11:05:09Z</time>
      </trkpt>
      <trkpt lat="43.66113" lon="1.39202">
        <ele>124</ele>
        <time>2024-03-10T11:05:10Z</time>
      </trkpt>
      <trkpt lat="43.66111" lon="1.39204">
        <ele>124</ele>
        <time>2024-03-10T11:05:11Z</time>
      </trkpt>
      <trkpt lat="43.66109" lon="1.39206">
        <ele>124</ele>
        <time>2024-03-10T11:05:12Z</time>
      </trkpt>
      <trkpt lat="43.66107" lon="1.39208">
        <ele>123</ele>
        <time>2024-03-10T11:05:13Z</time>
      </trkpt>
      <trkpt lat="43.66106" lon="1.39209">
        <ele>123</ele>
        <time>2024-03-10T11:05:14Z</time>
      </trkpt>
      <trkpt lat="43.66105" lon="1.39209">
        <ele>123</ele>
        <time>2024-03-10T11:05:15Z</time>
      </trkpt>
      <trkpt lat="43.66104" lon="1.3921">
        <ele>123</ele>
        <time>2024-03-10T11:05:16Z</time>
      </trkpt>
      <trkpt lat="43.66103" lon="1.3921">
        <ele>123</ele>
        <time>2024-03-10T11:05:17Z</time>
      </trkpt>
      <trkpt lat="43.66102" lon="1.39211">
        <ele>123</ele>
        <time>2024-03-10T11:05:18Z</time>
      </trkpt>
      <trkpt lat="43.66095" lon="1.39213">
        <ele>123</ele>
        <time>2024-03-10T11:05:19Z</time>
      </trkpt>
      <trkpt lat="43.66094" lon="1.39214">
        <ele>122</ele>
        <time>2024-03-10T11:05:20Z</time>
      </trkpt>
      <trkpt lat="43.66093" lon="1.39214">
        <ele>122</ele>
        <time>2024-03-10T11:05:21Z</time>
      </trkpt>
      <trkpt lat="43.66091" lon="1.39215">
        <ele>122</ele>
        <time>2024-03-10T11:05:22Z</time>
      </trkpt>
      <trkpt lat="43.66084" lon="1.39217">
        <ele>122</ele>
        <time>2024-03-10T11:05:23Z</time>
      </trkpt>
      <trkpt lat="43.66083" lon="1.39216">
        <ele>122</ele>
        <time>2024-03-10T11:05:24Z</time>
      </trkpt>
      <trkpt lat="43.66081" lon="1.39216">
        <ele>123</ele>
        <time>2024-03-10T11:05:25Z</time>
      </trkpt>
      <trkpt lat="43.66072" lon="1.39216">
        <ele>123</ele>
        <time>2024-03-10T11:05:26Z</time>
      </trkpt>
      <trkpt lat="43.66069" lon="1.39216">
        <ele>123</ele>
        <time>2024-03-10T11:05:27Z</time>
      </trkpt>
      <trkpt lat="43.66065" lon="1.39216">
        <ele>123</ele>
        <time>2024-03-10T11:05:28Z</time>
      </trkpt>
      <trkpt lat="43.66062" lon="1.39217">
        <ele>122</ele>
        <time>2024-03-10T11:05:29Z</time>
      </trkpt>
      <trkpt lat="43.66059" lon="1.39218">
        <ele>122</ele>
        <time>2024-03-10T11:05:30Z</time>
      </trkpt>
      <trkpt lat="43.66056" lon="1.39218">
        <ele>122</ele>
        <time>2024-03-10T11:05:31Z</time>
      </trkpt>
      <trkpt lat="43.66054" lon="1.39219">
        <ele>123</ele>
        <time>2024-03-10T11:05:32Z</time>
      </trkpt>
      <trkpt lat="43.66053" lon="1.3922">
        <ele>123</ele>
        <time>2024-03-10T11:05:33Z</time>
      </trkpt>
      <trkpt lat="43.66052" lon="1.3922">
        <ele>123</ele>
        <time>2024-03-10T11:05:34Z</time>
      </trkpt>
      <trkpt lat="43.66051" lon="1.39221">
        <ele>123</ele>
        <time>2024-03-10T11:05:35Z</time>
      </trkpt>
      <trkpt lat="43.66043" lon="1.39224">
        <ele>123</ele>
        <time>2024-03-10T11:05:36Z</time>
      </trkpt>
      <trkpt lat="43.66041" lon="1.39225">
        <ele>123</ele>
        <time>2024-03-10T11:05:37Z</time>
      </trkpt>
      <trkpt lat="43.66038" lon="1.39225">
        <ele>123</ele>
        <time>2024-03-10T11:05:38Z</time>
      </trkpt>
      <trkpt lat="43.66036" lon="1.39226">
        <ele>123</ele>
        <time>2024-03-10T11:05:39Z</time>
      </trkpt>
      <trkpt lat="43.66034" lon="1.39227">
        <ele>123</ele>
        <time>2024-03-10T11:05:40Z</time>
      </trkpt>
      <trkpt lat="43.66032" lon="1.39228">
        <ele>123</ele>
        <time>2024-03-10T11:05:41Z</time>
      </trkpt>
      <trkpt lat="43.6603" lon="1.39228">
        <ele>123</ele>
        <time>2024-03-10T11:05:42Z</time>
      </trkpt>
      <trkpt lat="43.66028" lon="1.39229">
        <ele>123</ele>
        <time>2024-03-10T11:05:43Z</time>
      </trkpt>
      <trkpt lat="43.66026" lon="1.3923">
        <ele>123</ele>
        <time>2024-03-10T11:05:44Z</time>
      </trkpt>
      <trkpt lat="43.66025" lon="1.39231">
        <ele>123</ele>
        <time>2024-03-10T11:05:45Z</time>
      </trkpt>
      <trkpt lat="43.66024" lon="1.39231">
        <ele>123</ele>
        <time>2024-03-10T11:05:46Z</time>
      </trkpt>
      <trkpt lat="43.66024" lon="1.39231">
        <ele>123</ele>
        <time>2024-03-10T11:05:47Z</time>
      </trkpt>
      <trkpt lat="43.66023" lon="1.39232">
        <ele>123</ele>
        <time>2024-03-10T11:05:48Z</time>
      </trkpt>
      <trkpt lat="43.66022" lon="1.39232">
        <ele>123</ele>
        <time>2024-03-10T11:05:49Z</time>
      </trkpt>
      <trkpt lat="43.66021" lon="1.39233">
        <ele>123</ele>
        <time>2024-03-10T11:05:50Z</time>
      </trkpt>
      <trkpt lat="43.6602" lon="1.39233">
        <ele>123</ele>
        <time>2024-03-10T11:05:51Z</time>
      </trkpt>
      <trkpt lat="43.66019" lon="1.39234">
        <ele>123</ele>
        <time>2024-03-10T11:05:52Z</time>
      </trkpt>
      <trkpt lat="43.66018" lon="1.39234">
        <ele>123</ele>
        <time>2024-03-10T11:05:53Z</time>
      </trkpt>
      <trkpt lat="43.66018" lon="1.39235">
        <ele>123</ele>
        <time>2024-03-10T11:05:54Z</time>
      </trkpt>
      <trkpt lat="43.66016" lon="1.39235">
        <ele>122</ele>
        <time>2024-03-10T11:05:55Z</time>
      </trkpt>
      <trkpt lat="43.66014" lon="1.39235">
        <ele>122</ele>
        <time>2024-03-10T11:05:56Z</time>
      </trkpt>
      <trkpt lat="43.66012" lon="1.39236">
        <ele>123</ele>
        <time>2024-03-10T11:05:57Z</time>
      </trkpt>
      <trkpt lat="43.6601" lon="1.39236">
        <ele>123</ele>
        <time>2024-03-10T11:05:58Z</time>
      </trkpt>
      <trkpt lat="43.66009" lon="1.39236">
        <ele>123</ele>
        <time>2024-03-10T11:05:59Z</time>
      </trkpt>
      <trkpt lat="43.66007" lon="1.39237">
        <ele>123</ele>
        <time>2024-03-10T11:06:00Z</time>
      </trkpt>
      <trkpt lat="43.66005" lon="1.39237">
        <ele>123</ele>
        <time>2024-03-10T11:06:01Z</time>
      </trkpt>
      <trkpt lat="43.66003" lon="1.39237">
        <ele>123</ele>
        <time>2024-03-10T11:06:02Z</time>
      </trkpt>
      <trkpt lat="43.66" lon="1.39237">
        <ele>123</ele>
        <time>2024-03-10T11:06:03Z</time>
      </trkpt>
      <trkpt lat="43.65998" lon="1.39237">
        <ele>124</ele>
        <time>2024-03-10T11:06:04Z</time>
      </trkpt>
      <trkpt lat="43.65996" lon="1.39237">
        <ele>124</ele>
        <time>2024-03-10T11:06:05Z</time>
      </trkpt>
      <trkpt lat="43.65995" lon="1.39237">
        <ele>124</ele>
        <time>2024-03-10T11:06:06Z</time>
      </trkpt>
      <trkpt lat="43.65993" lon="1.39236">
        <ele>124</ele>
        <time>2024-03-10T11:06:07Z</time>
      </trkpt>
      <trkpt lat="43.65991" lon="1.39236">
        <ele>125</ele>
        <time>2024-03-10T11:06:08Z</time>
      </trkpt>
      <trkpt lat="43.6599" lon="1.39236">
        <ele>125</ele>
        <time>2024-03-10T11:06:09Z</time>
      </trkpt>
      <trkpt lat="43.65988" lon="1.39236">
        <ele>125</ele>
        <time>2024-03-10T11:06:10Z</time>
      </trkpt>
      <trkpt lat="43.65986" lon="1.39235">
        <ele>125</ele>
        <time>2024-03-10T11:06:11Z</time>
      </trkpt>
      <trkpt lat="43.65985" lon="1.39236">
        <ele>125</ele>
        <time>2024-03-10T11:06:12Z</time>
      </trkpt>
      <trkpt lat="43.65983" lon="1.39236">
        <ele>126</ele>
        <time>2024-03-10T11:06:13Z</time>
      </trkpt>
      <trkpt lat="43.65981" lon="1.39236">
        <ele>126</ele>
        <time>2024-03-10T11:06:14Z</time>
      </trkpt>
      <trkpt lat="43.65979" lon="1.39236">
        <ele>127</ele>
        <time>2024-03-10T11:06:15Z</time>
      </trkpt>
      <trkpt lat="43.65977" lon="1.39237">
        <ele>127</ele>
        <time>2024-03-10T11:06:16Z</time>
      </trkpt>
      <trkpt lat="43.65976" lon="1.39237">
        <ele>127</ele>
        <time>2024-03-10T11:06:17Z</time>
      </trkpt>
      <trkpt lat="43.65975" lon="1.39237">
        <ele>128</ele>
        <time>2024-03-10T11:06:18Z</time>
      </trkpt>
      <trkpt lat="43.65974" lon="1.39237">
        <ele>128</ele>
        <time>2024-03-10T11:06:19Z</time>
      </trkpt>
      <trkpt lat="43.65974" lon="1.39236">
        <ele>128</ele>
        <time>2024-03-10T11:06:20Z</time>
      </trkpt>
      <trkpt lat="43.65973" lon="1.39236">
        <ele>128</ele>
        <time>2024-03-10T11:06:21Z</time>
      </trkpt>
      <trkpt lat="43.65972" lon="1.39236">
        <ele>129</ele>
        <time>2024-03-10T11:06:22Z</time>
      </trkpt>
      <trkpt lat="43.65971" lon="1.39236">
        <ele>129</ele>
        <time>2024-03-10T11:06:23Z</time>
      </trkpt>
      <trkpt lat="43.65971" lon="1.39236">
        <ele>129</ele>
        <time>2024-03-10T11:06:24Z</time>
      </trkpt>
      <trkpt lat="43.65964" lon="1.39235">
        <ele>129</ele>
        <time>2024-03-10T11:06:25Z</time>
      </trkpt>
      <trkpt lat="43.65963" lon="1.39234">
        <ele>129</ele>
        <time>2024-03-10T11:06:26Z</time>
      </trkpt>
      <trkpt lat="43.65962" lon="1.39234">
        <ele>130</ele>
        <time>2024-03-10T11:06:27Z</time>
      </trkpt>
      <trkpt lat="43.6596" lon="1.39234">
        <ele>130</ele>
        <time>2024-03-10T11:06:28Z</time>
      </trkpt>
      <trkpt lat="43.65959" lon="1.39234">
        <ele>130</ele>
        <time>2024-03-10T11:06:29Z</time>
      </trkpt>
      <trkpt lat="43.65958" lon="1.39234">
        <ele>130</ele>
        <time>2024-03-10T11:06:30Z</time>
      </trkpt>
      <trkpt lat="43.65956" lon="1.39234">
        <ele>130</ele>
        <time>2024-03-10T11:06:31Z</time>
      </trkpt>
      <trkpt lat="43.65955" lon="1.39234">
        <ele>130</ele>
        <time>2024-03-10T11:06:32Z</time>
      </trkpt>
      <trkpt lat="43.65954" lon="1.39233">
        <ele>130</ele>
        <time>2024-03-10T11:06:33Z</time>
      </trkpt>
      <trkpt lat="43.65952" lon="1.39233">
        <ele>131</ele>
        <time>2024-03-10T11:06:34Z</time>
      </trkpt>
      <trkpt lat="43.65951" lon="1.39233">
        <ele>132</ele>
        <time>2024-03-10T11:06:35Z</time>
      </trkpt>
      <trkpt lat="43.65949" lon="1.39233">
        <ele>132</ele>
        <time>2024-03-10T11:06:36Z</time>
      </trkpt>
      <trkpt lat="43.65948" lon="1.39233">
        <ele>132</ele>
        <time>2024-03-10T11:06:37Z</time>
      </trkpt>
      <trkpt lat="43.65947" lon="1.39233">
        <ele>132</ele>
        <time>2024-03-10T11:06:38Z</time>
      </trkpt>
      <trkpt lat="43.65945" lon="1.39233">
        <ele>133</ele>
        <time>2024-03-10T11:06:39Z</time>
      </trkpt>
      <trkpt lat="43.65944" lon="1.39233">
        <ele>133</ele>
        <time>2024-03-10T11:06:40Z</time>
      </trkpt>
      <trkpt lat="43.65943" lon="1.39233">
        <ele>133</ele>
        <time>2024-03-10T11:06:41Z</time>
      </trkpt>
      <trkpt lat="43.65941" lon="1.39232">
        <ele>134</ele>
        <time>2024-03-10T11:06:42Z</time>
      </trkpt>
      <trkpt lat="43.6594" lon="1.39232">
        <ele>134</ele>
        <time>2024-03-10T11:06:43Z</time>
      </trkpt>
      <trkpt lat="43.6594" lon="1.39232">
        <ele>134</ele>
        <time>2024-03-10T11:06:44Z</time>
      </trkpt>
      <trkpt lat="43.65938" lon="1.39232">
        <ele>135</ele>
        <time>2024-03-10T11:06:45Z</time>
      </trkpt>
      <trkpt lat="43.65938" lon="1.39232">
        <ele>135</ele>
        <time>2024-03-10T11:06:46Z</time>
      </trkpt>
      <trkpt lat="43.65935" lon="1.39231">
        <ele>135</ele>
        <time>2024-03-10T11:06:47Z</time>
      </trkpt>
      <trkpt lat="43.65933" lon="1.39231">
        <ele>135</ele>
        <time>2024-03-10T11:06:48Z</time>
      </trkpt>
      <trkpt lat="43.65932" lon="1.39231">
        <ele>135</ele>
        <time>2024-03-10T11:06:49Z</time>
      </trkpt>
      <trkpt lat="43.6593" lon="1.39231">
        <ele>135</ele>
        <time>2024-03-10T11:06:50Z</time>
      </trkpt>
      <trkpt lat="43.65929" lon="1.3923">
        <ele>135</ele>
        <time>2024-03-10T11:06:51Z</time>
      </trkpt>
      <trkpt lat="43.65927" lon="1.3923">
        <ele>135</ele>
        <time>2024-03-10T11:06:52Z</time>
      </trkpt>
      <trkpt lat="43.65926" lon="1.3923">
        <ele>135</ele>
        <time>2024-03-10T11:06:53Z</time>
      </trkpt>
      <trkpt lat="43.65924" lon="1.3923">
        <ele>135</ele>
        <time>2024-03-10T11:06:54Z</time>
      </trkpt>
      <trkpt lat="43.65923" lon="1.3923">
        <ele>135</ele>
        <time>2024-03-10T11:06:55Z</time>
      </trkpt>
      <trkpt lat="43.65922" lon="1.3923">
        <ele>135</ele>
        <time>2024-03-10T11:06:56Z</time>
      </trkpt>
      <trkpt lat="43.6592" lon="1.3923">
        <ele>135</ele>
        <time>2024-03-10T11:06:57Z</time>
      </trkpt>
      <trkpt lat="43.65918" lon="1.3923">
        <ele>135</ele>
        <time>2024-03-10T11:06:58Z</time>
      </trkpt>
      <trkpt lat="43.65916" lon="1.3923">
        <ele>135</ele>
        <time>2024-03-10T11:06:59Z</time>
      </trkpt>
      <trkpt lat="43.65916" lon="1.3923">
        <ele>135</ele>
        <time>2024-03-10T11:07:00Z</time>
      </trkpt>
      <trkpt lat="43.65914" lon="1.39229">
        <ele>136</ele>
        <time>2024-03-10T11:07:01Z</time>
      </trkpt>
      <trkpt lat="43.65912" lon="1.39228">
        <ele>136</ele>
        <time>2024-03-10T11:07:02Z</time>
      </trkpt>
      <trkpt lat="43.65911" lon="1.39227">
        <ele>136</ele>
        <time>2024-03-10T11:07:03Z</time>
      </trkpt>
      <trkpt lat="43.65909" lon="1.39227">
        <ele>136</ele>
        <time>2024-03-10T11:07:04Z</time>
      </trkpt>
      <trkpt lat="43.65907" lon="1.39226">
        <ele>137</ele>
        <time>2024-03-10T11:07:05Z</time>
      </trkpt>
      <trkpt lat="43.65905" lon="1.39225">
        <ele>137</ele>
        <time>2024-03-10T11:07:06Z</time>
      </trkpt>
      <trkpt lat="43.65903" lon="1.39223">
        <ele>137</ele>
        <time>2024-03-10T11:07:07Z</time>
      </trkpt>
      <trkpt lat="43.65903" lon="1.39223">
        <ele>137</ele>
        <time>2024-03-10T11:07:08Z</time>
      </trkpt>
      <trkpt lat="43.65901" lon="1.39223">
        <ele>137</ele>
        <time>2024-03-10T11:07:09Z</time>
      </trkpt>
      <trkpt lat="43.65898" lon="1.39222">
        <ele>137</ele>
        <time>2024-03-10T11:07:10Z</time>
      </trkpt>
      <trkpt lat="43.65894" lon="1.39221">
        <ele>138</ele>
        <time>2024-03-10T11:07:11Z</time>
      </trkpt>
      <trkpt lat="43.65892" lon="1.3922">
        <ele>138</ele>
        <time>2024-03-10T11:07:12Z</time>
      </trkpt>
      <trkpt lat="43.65892" lon="1.3922">
        <ele>138</ele>
        <time>2024-03-10T11:07:13Z</time>
      </trkpt>
      <trkpt lat="43.65887" lon="1.39219">
        <ele>138</ele>
        <time>2024-03-10T11:07:14Z</time>
      </trkpt>
      <trkpt lat="43.65885" lon="1.39218">
        <ele>138</ele>
        <time>2024-03-10T11:07:15Z</time>
      </trkpt>
      <trkpt lat="43.65885" lon="1.39218">
        <ele>138</ele>
        <time>2024-03-10T11:07:16Z</time>
      </trkpt>
      <trkpt lat="43.65883" lon="1.39218">
        <ele>138</ele>
        <time>2024-03-10T11:07:17Z</time>
      </trkpt>
      <trkpt lat="43.65881" lon="1.39216">
        <ele>138</ele>
        <time>2024-03-10T11:07:18Z</time>
      </trkpt>
      <trkpt lat="43.65879" lon="1.39214">
        <ele>138</ele>
        <time>2024-03-10T11:07:19Z</time>
      </trkpt>
      <trkpt lat="43.65876" lon="1.39212">
        <ele>138</ele>
        <time>2024-03-10T11:07:20Z</time>
      </trkpt>
      <trkpt lat="43.65874" lon="1.39208">
        <ele>138</ele>
        <time>2024-03-10T11:07:21Z</time>
      </trkpt>
      <trkpt lat="43.65871" lon="1.39206">
        <ele>138</ele>
        <time>2024-03-10T11:07:22Z</time>
      </trkpt>
      <trkpt lat="43.65869" lon="1.39205">
        <ele>138</ele>
        <time>2024-03-10T11:07:23Z</time>
      </trkpt>
      <trkpt lat="43.65866" lon="1.39203">
        <ele>138</ele>
        <time>2024-03-10T11:07:24Z</time>
      </trkpt>
      <trkpt lat="43.65864" lon="1.39202">
        <ele>138</ele>
        <time>2024-03-10T11:07:25Z</time>
      </trkpt>
      <trkpt lat="43.65859" lon="1.39202">
        <ele>137</ele>
        <time>2024-03-10T11:07:26Z</time>
      </trkpt>
      <trkpt lat="43.65859" lon="1.39202">
        <ele>137</ele>
        <time>2024-03-10T11:07:27Z</time>
      </trkpt>
      <trkpt lat="43.65857" lon="1.392">
        <ele>137</ele>
        <time>2024-03-10T11:07:28Z</time>
      </trkpt>
      <trkpt lat="43.65856" lon="1.39198">
        <ele>137</ele>
        <time>2024-03-10T11:07:29Z</time>
      </trkpt>
      <trkpt lat="43.65852" lon="1.39195">
        <ele>137</ele>
        <time>2024-03-10T11:07:30Z</time>
      </trkpt>
      <trkpt lat="43.6585" lon="1.39194">
        <ele>138</ele>
        <time>2024-03-10T11:07:31Z</time>
      </trkpt>
      <trkpt lat="43.6585" lon="1.39194">
        <ele>138</ele>
        <time>2024-03-10T11:07:32Z</time>
      </trkpt>
      <trkpt lat="43.65848" lon="1.39193">
        <ele>138</ele>
        <time>2024-03-10T11:07:33Z</time>
      </trkpt>
      <trkpt lat="43.65848" lon="1.39193">
        <ele>138</ele>
        <time>2024-03-10T11:07:34Z</time>
      </trkpt>
      <trkpt lat="43.65845" lon="1.39193">
        <ele>138</ele>
        <time>2024-03-10T11:07:35Z</time>
      </trkpt>
      <trkpt lat="43.65845" lon="1.39193">
        <ele>138</ele>
        <time>2024-03-10T11:07:36Z</time>
      </trkpt>
      <trkpt lat="43.65843" lon="1.39193">
        <ele>138</ele>
        <time>2024-03-10T11:07:37Z</time>
      </trkpt>
      <trkpt lat="43.65843" lon="1.39193">
        <ele>138</ele>
        <time>2024-03-10T11:07:38Z</time>
      </trkpt>
      <trkpt lat="43.65841" lon="1.39192">
        <ele>138</ele>
        <time>2024-03-10T11:07:39Z</time>
      </trkpt>
      <trkpt lat="43.65841" lon="1.39192">
        <ele>138</ele>
        <time>2024-03-10T11:07:40Z</time>
      </trkpt>
      <trkpt lat="43.65839" lon="1.39193">
        <ele>138</ele>
        <time>2024-03-10T11:07:41Z</time>
      </trkpt>
      <trkpt lat="43.65839" lon="1.39193">
        <ele>137</ele>
        <time>2024-03-10T11:07:42Z</time>
      </trkpt>
      <trkpt lat="43.65839" lon="1.39193">
        <ele>136</ele>
        <time>2024-03-10T11:07:43Z</time>
      </trkpt>
      <trkpt lat="43.65837" lon="1.39194">
        <ele>136</ele>
        <time>2024-03-10T11:07:44Z</time>
      </trkpt>
      <trkpt lat="43.65834" lon="1.39195">
        <ele>135</ele>
        <time>2024-03-10T11:07:45Z</time>
      </trkpt>
      <trkpt lat="43.65834" lon="1.39195">
        <ele>135</ele>
        <time>2024-03-10T11:07:46Z</time>
      </trkpt>
      <trkpt lat="43.65832" lon="1.39192">
        <ele>135</ele>
        <time>2024-03-10T11:07:47Z</time>
      </trkpt>
      <trkpt lat="43.65831" lon="1.3919">
        <ele>135</ele>
        <time>2024-03-10T11:07:48Z</time>
      </trkpt>
      <trkpt lat="43.65828" lon="1.3919">
        <ele>134</ele>
        <time>2024-03-10T11:07:49Z</time>
      </trkpt>
      <trkpt lat="43.65825" lon="1.39189">
        <ele>134</ele>
        <time>2024-03-10T11:07:50Z</time>
      </trkpt>
      <trkpt lat="43.65823" lon="1.39189">
        <ele>134</ele>
        <time>2024-03-10T11:07:51Z</time>
      </trkpt>
      <trkpt lat="43.6582" lon="1.39188">
        <ele>134</ele>
        <time>2024-03-10T11:07:52Z</time>
      </trkpt>
      <trkpt lat="43.65818" lon="1.39187">
        <ele>134</ele>
        <time>2024-03-10T11:07:53Z</time>
      </trkpt>
      <trkpt lat="43.65815" lon="1.39186">
        <ele>134</ele>
        <time>2024-03-10T11:07:54Z</time>
      </trkpt>
      <trkpt lat="43.65812" lon="1.39185">
        <ele>134</ele>
        <time>2024-03-10T11:07:55Z</time>
      </trkpt>
      <trkpt lat="43.6581" lon="1.39184">
        <ele>135</ele>
        <time>2024-03-10T11:07:56Z</time>
      </trkpt>
      <trkpt lat="43.65808" lon="1.39184">
        <ele>135</ele>
        <time>2024-03-10T11:07:57Z</time>
      </trkpt>
      <trkpt lat="43.65805" lon="1.39185">
        <ele>134</ele>
        <time>2024-03-10T11:07:58Z</time>
      </trkpt>
      <trkpt lat="43.65803" lon="1.39185">
        <ele>134</ele>
        <time>2024-03-10T11:07:59Z</time>
      </trkpt>
      <trkpt lat="43.65801" lon="1.39186">
        <ele>133</ele>
        <time>2024-03-10T11:08:00Z</time>
      </trkpt>
      <trkpt lat="43.65798" lon="1.39186">
        <ele>133</ele>
        <time>2024-03-10T11:08:01Z</time>
      </trkpt>
      <trkpt lat="43.65795" lon="1.39185">
        <ele>132</ele>
        <time>2024-03-10T11:08:02Z</time>
      </trkpt>
      <trkpt lat="43.65792" lon="1.39185">
        <ele>131</ele>
        <time>2024-03-10T11:08:03Z</time>
      </trkpt>
      <trkpt lat="43.65789" lon="1.39185">
        <ele>131</ele>
        <time>2024-03-10T11:08:04Z</time>
      </trkpt>
      <trkpt lat="43.65786" lon="1.39185">
        <ele>131</ele>
        <time>2024-03-10T11:08:05Z</time>
      </trkpt>
      <trkpt lat="43.65783" lon="1.39184">
        <ele>131</ele>
        <time>2024-03-10T11:08:06Z</time>
      </trkpt>
      <trkpt lat="43.6578" lon="1.39184">
        <ele>131</ele>
        <time>2024-03-10T11:08:07Z</time>
      </trkpt>
      <trkpt lat="43.65777" lon="1.39184">
        <ele>130</ele>
        <time>2024-03-10T11:08:08Z</time>
      </trkpt>
      <trkpt lat="43.65774" lon="1.39183">
        <ele>129</ele>
        <time>2024-03-10T11:08:09Z</time>
      </trkpt>
      <trkpt lat="43.65771" lon="1.39182">
        <ele>128</ele>
        <time>2024-03-10T11:08:10Z</time>
      </trkpt>
      <trkpt lat="43.65768" lon="1.39181">
        <ele>128</ele>
        <time>2024-03-10T11:08:11Z</time>
      </trkpt>
      <trkpt lat="43.65766" lon="1.39181">
        <ele>128</ele>
        <time>2024-03-10T11:08:12Z</time>
      </trkpt>
      <trkpt lat="43.65761" lon="1.39182">
        <ele>128</ele>
        <time>2024-03-10T11:08:13Z</time>
      </trkpt>
      <trkpt lat="43.65761" lon="1.39182">
        <ele>128</ele>
        <time>2024-03-10T11:08:14Z</time>
      </trkpt>
      <trkpt lat="43.65758" lon="1.39182">
        <ele>127</ele>
        <time>2024-03-10T11:08:15Z</time>
      </trkpt>
      <trkpt lat="43.65756" lon="1.39181">
        <ele>126</ele>
        <time>2024-03-10T11:08:16Z</time>
      </trkpt>
      <trkpt lat="43.65754" lon="1.39179">
        <ele>126</ele>
        <time>2024-03-10T11:08:17Z</time>
      </trkpt>
      <trkpt lat="43.65752" lon="1.39178">
        <ele>125</ele>
        <time>2024-03-10T11:08:18Z</time>
      </trkpt>
      <trkpt lat="43.65749" lon="1.39176">
        <ele>125</ele>
        <time>2024-03-10T11:08:19Z</time>
      </trkpt>
      <trkpt lat="43.65747" lon="1.39175">
        <ele>125</ele>
        <time>2024-03-10T11:08:20Z</time>
      </trkpt>
      <trkpt lat="43.65745" lon="1.39173">
        <ele>125</ele>
        <time>2024-03-10T11:08:21Z</time>
      </trkpt>
      <trkpt lat="43.65743" lon="1.39172">
        <ele>125</ele>
        <time>2024-03-10T11:08:22Z</time>
      </trkpt>
      <trkpt lat="43.65741" lon="1.39171">
        <ele>125</ele>
        <time>2024-03-10T11:08:23Z</time>
      </trkpt>
      <trkpt lat="43.65739" lon="1.39169">
        <ele>125</ele>
        <time>2024-03-10T11:08:24Z</time>
      </trkpt>
      <trkpt lat="43.65737" lon="1.39167">
        <ele>125</ele>
        <time>2024-03-10T11:08:25Z</time>
      </trkpt>
      <trkpt lat="43.65735" lon="1.39165">
        <ele>125</ele>
        <time>2024-03-10T11:08:26Z</time>
      </trkpt>
      <trkpt lat="43.65733" lon="1.39163">
        <ele>125</ele>
        <time>2024-03-10T11:08:27Z</time>
      </trkpt>
      <trkpt lat="43.65731" lon="1.39163">
        <ele>125</ele>
        <time>2024-03-10T11:08:28Z</time>
      </trkpt>
      <trkpt lat="43.6573" lon="1.39162">
        <ele>125</ele>
        <time>2024-03-10T11:08:29Z</time>
      </trkpt>
      <trkpt lat="43.65728" lon="1.39161">
        <ele>124</ele>
        <time>2024-03-10T11:08:30Z</time>
      </trkpt>
      <trkpt lat="43.6572" lon="1.39156">
        <ele>124</ele>
        <time>2024-03-10T11:08:31Z</time>
      </trkpt>
      <trkpt lat="43.65717" lon="1.39154">
        <ele>124</ele>
        <time>2024-03-10T11:08:32Z</time>
      </trkpt>
      <trkpt lat="43.65714" lon="1.39151">
        <ele>124</ele>
        <time>2024-03-10T11:08:33Z</time>
      </trkpt>
      <trkpt lat="43.65712" lon="1.3915">
        <ele>124</ele>
        <time>2024-03-10T11:08:34Z</time>
      </trkpt>
      <trkpt lat="43.6571" lon="1.39148">
        <ele>124</ele>
        <time>2024-03-10T11:08:35Z</time>
      </trkpt>
      <trkpt lat="43.65708" lon="1.39147">
        <ele>124</ele>
        <time>2024-03-10T11:08:36Z</time>
      </trkpt>
      <trkpt lat="43.65706" lon="1.39145">
        <ele>124</ele>
        <time>2024-03-10T11:08:37Z</time>
      </trkpt>
      <trkpt lat="43.65706" lon="1.39145">
        <ele>124</ele>
        <time>2024-03-10T11:08:38Z</time>
      </trkpt>
      <trkpt lat="43.65706" lon="1.39145">
        <ele>124</ele>
        <time>2024-03-10T11:08:39Z</time>
      </trkpt>
      <trkpt lat="43.65706" lon="1.39145">
        <ele>124</ele>
        <time>2024-03-10T11:08:40Z</time>
      </trkpt>
      <trkpt lat="43.65696" lon="1.39136">
        <ele>124</ele>
        <time>2024-03-10T11:08:41Z</time>
      </trkpt>
      <trkpt lat="43.65696" lon="1.39136">
        <ele>124</ele>
        <time>2024-03-10T11:08:43Z</time>
      </trkpt>
      <trkpt lat="43.65693" lon="1.39134">
        <ele>124</ele>
        <time>2024-03-10T11:08:44Z</time>
      </trkpt>
      <trkpt lat="43.65691" lon="1.39131">
        <ele>124</ele>
        <time>2024-03-10T11:08:45Z</time>
      </trkpt>
      <trkpt lat="43.65688" lon="1.39129">
        <ele>124</ele>
        <time>2024-03-10T11:08:46Z</time>
      </trkpt>
      <trkpt lat="43.65687" lon="1.39129">
        <ele>124</ele>
        <time>2024-03-10T11:08:47Z</time>
      </trkpt>
      <trkpt lat="43.65686" lon="1.39128">
        <ele>125</ele>
        <time>2024-03-10T11:08:48Z</time>
      </trkpt>
      <trkpt lat="43.65685" lon="1.39128">
        <ele>125</ele>
        <time>2024-03-10T11:08:49Z</time>
      </trkpt>
      <trkpt lat="43.65684" lon="1.39128">
        <ele>124</ele>
        <time>2024-03-10T11:08:50Z</time>
      </trkpt>
      <trkpt lat="43.65682" lon="1.39128">
        <ele>124</ele>
        <time>2024-03-10T11:08:51Z</time>
      </trkpt>
      <trkpt lat="43.65673" lon="1.39125">
        <ele>124</ele>
        <time>2024-03-10T11:08:52Z</time>
      </trkpt>
      <trkpt lat="43.6567" lon="1.39124">
        <ele>124</ele>
        <time>2024-03-10T11:08:53Z</time>
      </trkpt>
      <trkpt lat="43.65667" lon="1.39123">
        <ele>124</ele>
        <time>2024-03-10T11:08:54Z</time>
      </trkpt>
      <trkpt lat="43.65665" lon="1.39122">
        <ele>124</ele>
        <time>2024-03-10T11:08:55Z</time>
      </trkpt>
      <trkpt lat="43.65661" lon="1.39121">
        <ele>124</ele>
        <time>2024-03-10T11:08:56Z</time>
      </trkpt>
      <trkpt lat="43.65658" lon="1.39119">
        <ele>124</ele>
        <time>2024-03-10T11:08:57Z</time>
      </trkpt>
      <trkpt lat="43.65655" lon="1.39117">
        <ele>124</ele>
        <time>2024-03-10T11:08:58Z</time>
      </trkpt>
      <trkpt lat="43.65652" lon="1.39116">
        <ele>124</ele>
        <time>2024-03-10T11:08:59Z</time>
      </trkpt>
      <trkpt lat="43.6565" lon="1.39114">
        <ele>124</ele>
        <time>2024-03-10T11:09:00Z</time>
      </trkpt>
      <trkpt lat="43.65648" lon="1.39112">
        <ele>125</ele>
        <time>2024-03-10T11:09:01Z</time>
      </trkpt>
      <trkpt lat="43.65646" lon="1.3911">
        <ele>125</ele>
        <time>2024-03-10T11:09:02Z</time>
      </trkpt>
      <trkpt lat="43.65641" lon="1.39107">
        <ele>125</ele>
        <time>2024-03-10T11:09:03Z</time>
      </trkpt>
      <trkpt lat="43.6564" lon="1.39106">
        <ele>125</ele>
        <time>2024-03-10T11:09:04Z</time>
      </trkpt>
      <trkpt lat="43.6564" lon="1.39106">
        <ele>125</ele>
        <time>2024-03-10T11:09:05Z</time>
      </trkpt>
      <trkpt lat="43.65638" lon="1.39104">
        <ele>125</ele>
        <time>2024-03-10T11:09:06Z</time>
      </trkpt>
      <trkpt lat="43.65634" lon="1.39101">
        <ele>125</ele>
        <time>2024-03-10T11:09:07Z</time>
      </trkpt>
      <trkpt lat="43.6563" lon="1.39099">
        <ele>125</ele>
        <time>2024-03-10T11:09:08Z</time>
      </trkpt>
      <trkpt lat="43.6563" lon="1.39099">
        <ele>125</ele>
        <time>2024-03-10T11:09:09Z</time>
      </trkpt>
      <trkpt lat="43.65622" lon="1.39095">
        <ele>124</ele>
        <time>2024-03-10T11:09:10Z</time>
      </trkpt>
      <trkpt lat="43.65621" lon="1.39095">
        <ele>124</ele>
        <time>2024-03-10T11:09:11Z</time>
      </trkpt>
      <trkpt lat="43.65621" lon="1.39095">
        <ele>124</ele>
        <time>2024-03-10T11:09:12Z</time>
      </trkpt>
      <trkpt lat="43.65616" lon="1.39091">
        <ele>124</ele>
        <time>2024-03-10T11:09:13Z</time>
      </trkpt>
      <trkpt lat="43.65616" lon="1.39091">
        <ele>124</ele>
        <time>2024-03-10T11:09:14Z</time>
      </trkpt>
      <trkpt lat="43.65614" lon="1.39089">
        <ele>125</ele>
        <time>2024-03-10T11:09:15Z</time>
      </trkpt>
      <trkpt lat="43.65609" lon="1.39086">
        <ele>125</ele>
        <time>2024-03-10T11:09:16Z</time>
      </trkpt>
      <trkpt lat="43.65609" lon="1.39086">
        <ele>125</ele>
        <time>2024-03-10T11:09:17Z</time>
      </trkpt>
      <trkpt lat="43.65607" lon="1.39084">
        <ele>124</ele>
        <time>2024-03-10T11:09:18Z</time>
      </trkpt>
      <trkpt lat="43.65604" lon="1.39083">
        <ele>124</ele>
        <time>2024-03-10T11:09:19Z</time>
      </trkpt>
      <trkpt lat="43.65601" lon="1.39081">
        <ele>125</ele>
        <time>2024-03-10T11:09:20Z</time>
      </trkpt>
      <trkpt lat="43.65599" lon="1.3908">
        <ele>125</ele>
        <time>2024-03-10T11:09:21Z</time>
      </trkpt>
      <trkpt lat="43.65594" lon="1.39076">
        <ele>125</ele>
        <time>2024-03-10T11:09:22Z</time>
      </trkpt>
      <trkpt lat="43.65593" lon="1.39075">
        <ele>125</ele>
        <time>2024-03-10T11:09:23Z</time>
      </trkpt>
      <trkpt lat="43.6559" lon="1.39074">
        <ele>125</ele>
        <time>2024-03-10T11:09:24Z</time>
      </trkpt>
      <trkpt lat="43.6559" lon="1.39074">
        <ele>125</ele>
        <time>2024-03-10T11:09:25Z</time>
      </trkpt>
      <trkpt lat="43.65588" lon="1.39072">
        <ele>125</ele>
        <time>2024-03-10T11:09:26Z</time>
      </trkpt>
      <trkpt lat="43.65586" lon="1.39071">
        <ele>125</ele>
        <time>2024-03-10T11:09:27Z</time>
      </trkpt>
      <trkpt lat="43.65583" lon="1.3907">
        <ele>125</ele>
        <time>2024-03-10T11:09:28Z</time>
      </trkpt>
      <trkpt lat="43.65578" lon="1.39067">
        <ele>124</ele>
        <time>2024-03-10T11:09:29Z</time>
      </trkpt>
      <trkpt lat="43.65578" lon="1.39067">
        <ele>124</ele>
        <time>2024-03-10T11:09:30Z</time>
      </trkpt>
      <trkpt lat="43.65577" lon="1.39065">
        <ele>125</ele>
        <time>2024-03-10T11:09:31Z</time>
      </trkpt>
      <trkpt lat="43.65575" lon="1.39063">
        <ele>125</ele>
        <time>2024-03-10T11:09:32Z</time>
      </trkpt>
      <trkpt lat="43.65573" lon="1.39062">
        <ele>125</ele>
        <time>2024-03-10T11:09:33Z</time>
      </trkpt>
      <trkpt lat="43.65572" lon="1.3906">
        <ele>125</ele>
        <time>2024-03-10T11:09:34Z</time>
      </trkpt>
      <trkpt lat="43.65565" lon="1.39053">
        <ele>125</ele>
        <time>2024-03-10T11:09:35Z</time>
      </trkpt>
      <trkpt lat="43.65565" lon="1.39053">
        <ele>125</ele>
        <time>2024-03-10T11:09:36Z</time>
      </trkpt>
      <trkpt lat="43.65563" lon="1.39051">
        <ele>125</ele>
        <time>2024-03-10T11:09:37Z</time>
      </trkpt>
      <trkpt lat="43.65561" lon="1.39049">
        <ele>125</ele>
        <time>2024-03-10T11:09:38Z</time>
      </trkpt>
      <trkpt lat="43.65559" lon="1.39047">
        <ele>125</ele>
        <time>2024-03-10T11:09:39Z</time>
      </trkpt>
      <trkpt lat="43.65557" lon="1.39045">
        <ele>125</ele>
        <time>2024-03-10T11:09:40Z</time>
      </trkpt>
      <trkpt lat="43.65555" lon="1.39043">
        <ele>125</ele>
        <time>2024-03-10T11:09:41Z</time>
      </trkpt>
      <trkpt lat="43.65553" lon="1.39042">
        <ele>125</ele>
        <time>2024-03-10T11:09:42Z</time>
      </trkpt>
      <trkpt lat="43.65551" lon="1.39041">
        <ele>125</ele>
        <time>2024-03-10T11:09:43Z</time>
      </trkpt>
      <trkpt lat="43.65549" lon="1.3904">
        <ele>125</ele>
        <time>2024-03-10T11:09:44Z</time>
      </trkpt>
      <trkpt lat="43.65547" lon="1.39038">
        <ele>125</ele>
        <time>2024-03-10T11:09:45Z</time>
      </trkpt>
      <trkpt lat="43.65539" lon="1.39034">
        <ele>125</ele>
        <time>2024-03-10T11:09:46Z</time>
      </trkpt>
      <trkpt lat="43.65539" lon="1.39034">
        <ele>125</ele>
        <time>2024-03-10T11:09:47Z</time>
      </trkpt>
      <trkpt lat="43.65534" lon="1.39032">
        <ele>125</ele>
        <time>2024-03-10T11:09:48Z</time>
      </trkpt>
      <trkpt lat="43.65531" lon="1.39031">
        <ele>125</ele>
        <time>2024-03-10T11:09:49Z</time>
      </trkpt>
      <trkpt lat="43.65528" lon="1.39029">
        <ele>126</ele>
        <time>2024-03-10T11:09:50Z</time>
      </trkpt>
      <trkpt lat="43.65526" lon="1.39028">
        <ele>126</ele>
        <time>2024-03-10T11:09:51Z</time>
      </trkpt>
      <trkpt lat="43.65526" lon="1.39028">
        <ele>126</ele>
        <time>2024-03-10T11:09:52Z</time>
      </trkpt>
      <trkpt lat="43.65522" lon="1.39026">
        <ele>126</ele>
        <time>2024-03-10T11:09:53Z</time>
      </trkpt>
      <trkpt lat="43.65519" lon="1.39025">
        <ele>126</ele>
        <time>2024-03-10T11:09:54Z</time>
      </trkpt>
      <trkpt lat="43.65519" lon="1.39025">
        <ele>126</ele>
        <time>2024-03-10T11:09:55Z</time>
      </trkpt>
      <trkpt lat="43.65517" lon="1.39024">
        <ele>126</ele>
        <time>2024-03-10T11:09:56Z</time>
      </trkpt>
      <trkpt lat="43.65514" lon="1.39023">
        <ele>126</ele>
        <time>2024-03-10T11:09:57Z</time>
      </trkpt>
      <trkpt lat="43.65512" lon="1.39022">
        <ele>126</ele>
        <time>2024-03-10T11:09:58Z</time>
      </trkpt>
      <trkpt lat="43.6551" lon="1.39021">
        <ele>126</ele>
        <time>2024-03-10T11:09:59Z</time>
      </trkpt>
      <trkpt lat="43.65507" lon="1.3902">
        <ele>126</ele>
        <time>2024-03-10T11:10:00Z</time>
      </trkpt>
      <trkpt lat="43.65504" lon="1.3902">
        <ele>126</ele>
        <time>2024-03-10T11:10:01Z</time>
      </trkpt>
      <trkpt lat="43.65501" lon="1.3902">
        <ele>126</ele>
        <time>2024-03-10T11:10:02Z</time>
      </trkpt>
      <trkpt lat="43.65498" lon="1.39019">
        <ele>126</ele>
        <time>2024-03-10T11:10:03Z</time>
      </trkpt>
      <trkpt lat="43.65496" lon="1.39019">
        <ele>126</ele>
        <time>2024-03-10T11:10:04Z</time>
      </trkpt>
      <trkpt lat="43.65493" lon="1.39018">
        <ele>126</ele>
        <time>2024-03-10T11:10:05Z</time>
      </trkpt>
      <trkpt lat="43.6549" lon="1.39017">
        <ele>126</ele>
        <time>2024-03-10T11:10:06Z</time>
      </trkpt>
      <trkpt lat="43.65487" lon="1.39016">
        <ele>126</ele>
        <time>2024-03-10T11:10:07Z</time>
      </trkpt>
      <trkpt lat="43.65482" lon="1.39012">
        <ele>126</ele>
        <time>2024-03-10T11:10:08Z</time>
      </trkpt>
      <trkpt lat="43.65482" lon="1.39012">
        <ele>126</ele>
        <time>2024-03-10T11:10:09Z</time>
      </trkpt>
      <trkpt lat="43.6548" lon="1.3901">
        <ele>126</ele>
        <time>2024-03-10T11:10:10Z</time>
      </trkpt>
      <trkpt lat="43.65478" lon="1.39009">
        <ele>126</ele>
        <time>2024-03-10T11:10:11Z</time>
      </trkpt>
      <trkpt lat="43.65476" lon="1.39007">
        <ele>126</ele>
        <time>2024-03-10T11:10:12Z</time>
      </trkpt>
      <trkpt lat="43.65474" lon="1.39005">
        <ele>126</ele>
        <time>2024-03-10T11:10:13Z</time>
      </trkpt>
      <trkpt lat="43.65472" lon="1.39003">
        <ele>126</ele>
        <time>2024-03-10T11:10:14Z</time>
      </trkpt>
      <trkpt lat="43.6547" lon="1.39">
        <ele>126</ele>
        <time>2024-03-10T11:10:15Z</time>
      </trkpt>
      <trkpt lat="43.65468" lon="1.38998">
        <ele>126</ele>
        <time>2024-03-10T11:10:16Z</time>
      </trkpt>
      <trkpt lat="43.65466" lon="1.38996">
        <ele>127</ele>
        <time>2024-03-10T11:10:17Z</time>
      </trkpt>
      <trkpt lat="43.65466" lon="1.38994">
        <ele>127</ele>
        <time>2024-03-10T11:10:18Z</time>
      </trkpt>
      <trkpt lat="43.65465" lon="1.38992">
        <ele>127</ele>
        <time>2024-03-10T11:10:19Z</time>
      </trkpt>
      <trkpt lat="43.65464" lon="1.38991">
        <ele>127</ele>
        <time>2024-03-10T11:10:20Z</time>
      </trkpt>
      <trkpt lat="43.65463" lon="1.38989">
        <ele>127</ele>
        <time>2024-03-10T11:10:21Z</time>
      </trkpt>
      <trkpt lat="43.65459" lon="1.38979">
        <ele>127</ele>
        <time>2024-03-10T11:10:22Z</time>
      </trkpt>
      <trkpt lat="43.65458" lon="1.38976">
        <ele>127</ele>
        <time>2024-03-10T11:10:23Z</time>
      </trkpt>
      <trkpt lat="43.65456" lon="1.38973">
        <ele>127</ele>
        <time>2024-03-10T11:10:24Z</time>
      </trkpt>
      <trkpt lat="43.65455" lon="1.3897">
        <ele>127</ele>
        <time>2024-03-10T11:10:25Z</time>
      </trkpt>
      <trkpt lat="43.65454" lon="1.38969">
        <ele>127</ele>
        <time>2024-03-10T11:10:26Z</time>
      </trkpt>
      <trkpt lat="43.65453" lon="1.38967">
        <ele>127</ele>
        <time>2024-03-10T11:10:27Z</time>
      </trkpt>
      <trkpt lat="43.65453" lon="1.38966">
        <ele>127</ele>
        <time>2024-03-10T11:10:28Z</time>
      </trkpt>
      <trkpt lat="43.65452" lon="1.38964">
        <ele>127</ele>
        <time>2024-03-10T11:10:29Z</time>
      </trkpt>
      <trkpt lat="43.65448" lon="1.38956">
        <ele>127</ele>
        <time>2024-03-10T11:10:30Z</time>
      </trkpt>
      <trkpt lat="43.65447" lon="1.38954">
        <ele>128</ele>
        <time>2024-03-10T11:10:31Z</time>
      </trkpt>
      <trkpt lat="43.65446" lon="1.38952">
        <ele>128</ele>
        <time>2024-03-10T11:10:32Z</time>
      </trkpt>
      <trkpt lat="43.65444" lon="1.3895">
        <ele>128</ele>
        <time>2024-03-10T11:10:33Z</time>
      </trkpt>
      <trkpt lat="43.65443" lon="1.38947">
        <ele>128</ele>
        <time>2024-03-10T11:10:34Z</time>
      </trkpt>
      <trkpt lat="43.65442" lon="1.38946">
        <ele>128</ele>
        <time>2024-03-10T11:10:35Z</time>
      </trkpt>
      <trkpt lat="43.65441" lon="1.38944">
        <ele>128</ele>
        <time>2024-03-10T11:10:36Z</time>
      </trkpt>
      <trkpt lat="43.6544" lon="1.38942">
        <ele>128</ele>
        <time>2024-03-10T11:10:37Z</time>
      </trkpt>
      <trkpt lat="43.65439" lon="1.38941">
        <ele>128</ele>
        <time>2024-03-10T11:10:38Z</time>
      </trkpt>
      <trkpt lat="43.65438" lon="1.38939">
        <ele>128</ele>
        <time>2024-03-10T11:10:39Z</time>
      </trkpt>
      <trkpt lat="43.65437" lon="1.38938">
        <ele>128</ele>
        <time>2024-03-10T11:10:40Z</time>
      </trkpt>
      <trkpt lat="43.65435" lon="1.38934">
        <ele>129</ele>
        <time>2024-03-10T11:10:41Z</time>
      </trkpt>
      <trkpt lat="43.65435" lon="1.38934">
        <ele>130</ele>
        <time>2024-03-10T11:10:42Z</time>
      </trkpt>
      <trkpt lat="43.65435" lon="1.38934">
        <ele>130</ele>
        <time>2024-03-10T11:10:43Z</time>
      </trkpt>
      <trkpt lat="43.65433" lon="1.38932">
        <ele>130</ele>
        <time>2024-03-10T11:10:44Z</time>
      </trkpt>
      <trkpt lat="43.65433" lon="1.38932">
        <ele>130</ele>
        <time>2024-03-10T11:10:45Z</time>
      </trkpt>
      <trkpt lat="43.65432" lon="1.38929">
        <ele>131</ele>
        <time>2024-03-10T11:10:46Z</time>
      </trkpt>
      <trkpt lat="43.65432" lon="1.38929">
        <ele>131</ele>
        <time>2024-03-10T11:10:47Z</time>
      </trkpt>
      <trkpt lat="43.65431" lon="1.38927">
        <ele>132</ele>
        <time>2024-03-10T11:10:48Z</time>
      </trkpt>
      <trkpt lat="43.65431" lon="1.38927">
        <ele>132</ele>
        <time>2024-03-10T11:10:49Z</time>
      </trkpt>
      <trkpt lat="43.65429" lon="1.38925">
        <ele>132</ele>
        <time>2024-03-10T11:10:50Z</time>
      </trkpt>
      <trkpt lat="43.65429" lon="1.38925">
        <ele>133</ele>
        <time>2024-03-10T11:10:51Z</time>
      </trkpt>
      <trkpt lat="43.65427" lon="1.38922">
        <ele>133</ele>
        <time>2024-03-10T11:10:52Z</time>
      </trkpt>
      <trkpt lat="43.65427" lon="1.38922">
        <ele>133</ele>
        <time>2024-03-10T11:10:53Z</time>
      </trkpt>
      <trkpt lat="43.65424" lon="1.38919">
        <ele>134</ele>
        <time>2024-03-10T11:10:54Z</time>
      </trkpt>
      <trkpt lat="43.65422" lon="1.38917">
        <ele>135</ele>
        <time>2024-03-10T11:10:55Z</time>
      </trkpt>
      <trkpt lat="43.65422" lon="1.38917">
        <ele>135</ele>
        <time>2024-03-10T11:10:56Z</time>
      </trkpt>
      <trkpt lat="43.65422" lon="1.38917">
        <ele>135</ele>
        <time>2024-03-10T11:10:57Z</time>
      </trkpt>
      <trkpt lat="43.6542" lon="1.38915">
        <ele>135</ele>
        <time>2024-03-10T11:10:58Z</time>
      </trkpt>
      <trkpt lat="43.65418" lon="1.38913">
        <ele>135</ele>
        <time>2024-03-10T11:10:59Z</time>
      </trkpt>
      <trkpt lat="43.65418" lon="1.38913">
        <ele>135</ele>
        <time>2024-03-10T11:11:00Z</time>
      </trkpt>
      <trkpt lat="43.65418" lon="1.38913">
        <ele>135</ele>
        <time>2024-03-10T11:11:01Z</time>
      </trkpt>
      <trkpt lat="43.65416" lon="1.38909">
        <ele>135</ele>
        <time>2024-03-10T11:11:02Z</time>
      </trkpt>
      <trkpt lat="43.65416" lon="1.38909">
        <ele>135</ele>
        <time>2024-03-10T11:11:03Z</time>
      </trkpt>
      <trkpt lat="43.65414" lon="1.38904">
        <ele>135</ele>
        <time>2024-03-10T11:11:04Z</time>
      </trkpt>
      <trkpt lat="43.65414" lon="1.38901">
        <ele>135</ele>
        <time>2024-03-10T11:11:05Z</time>
      </trkpt>
      <trkpt lat="43.65414" lon="1.38898">
        <ele>135</ele>
        <time>2024-03-10T11:11:06Z</time>
      </trkpt>
      <trkpt lat="43.65414" lon="1.38895">
        <ele>135</ele>
        <time>2024-03-10T11:11:07Z</time>
      </trkpt>
      <trkpt lat="43.65414" lon="1.38892">
        <ele>135</ele>
        <time>2024-03-10T11:11:08Z</time>
      </trkpt>
      <trkpt lat="43.65413" lon="1.38888">
        <ele>135</ele>
        <time>2024-03-10T11:11:09Z</time>
      </trkpt>
      <trkpt lat="43.65413" lon="1.38885">
        <ele>135</ele>
        <time>2024-03-10T11:11:10Z</time>
      </trkpt>
      <trkpt lat="43.65413" lon="1.38882">
        <ele>135</ele>
        <time>2024-03-10T11:11:11Z</time>
      </trkpt>
      <trkpt lat="43.65413" lon="1.38879">
        <ele>135</ele>
        <time>2024-03-10T11:11:12Z</time>
      </trkpt>
      <trkpt lat="43.65413" lon="1.38876">
        <ele>135</ele>
        <time>2024-03-10T11:11:13Z</time>
      </trkpt>
      <trkpt lat="43.65412" lon="1.38872">
        <ele>135</ele>
        <time>2024-03-10T11:11:14Z</time>
      </trkpt>
      <trkpt lat="43.65412" lon="1.3887">
        <ele>136</ele>
        <time>2024-03-10T11:11:15Z</time>
      </trkpt>
      <trkpt lat="43.65411" lon="1.38868">
        <ele>136</ele>
        <time>2024-03-10T11:11:16Z</time>
      </trkpt>
      <trkpt lat="43.6541" lon="1.38865">
        <ele>136</ele>
        <time>2024-03-10T11:11:17Z</time>
      </trkpt>
      <trkpt lat="43.65409" lon="1.38863">
        <ele>137</ele>
        <time>2024-03-10T11:11:18Z</time>
      </trkpt>
      <trkpt lat="43.65408" lon="1.3886">
        <ele>137</ele>
        <time>2024-03-10T11:11:19Z</time>
      </trkpt>
      <trkpt lat="43.65407" lon="1.38859">
        <ele>137</ele>
        <time>2024-03-10T11:11:20Z</time>
      </trkpt>
      <trkpt lat="43.65405" lon="1.38858">
        <ele>138</ele>
        <time>2024-03-10T11:11:21Z</time>
      </trkpt>
      <trkpt lat="43.65404" lon="1.38857">
        <ele>138</ele>
        <time>2024-03-10T11:11:22Z</time>
      </trkpt>
      <trkpt lat="43.65403" lon="1.38856">
        <ele>138</ele>
        <time>2024-03-10T11:11:23Z</time>
      </trkpt>
      <trkpt lat="43.65402" lon="1.38856">
        <ele>138</ele>
        <time>2024-03-10T11:11:24Z</time>
      </trkpt>
      <trkpt lat="43.654" lon="1.38856">
        <ele>138</ele>
        <time>2024-03-10T11:11:25Z</time>
      </trkpt>
      <trkpt lat="43.65399" lon="1.38856">
        <ele>138</ele>
        <time>2024-03-10T11:11:26Z</time>
      </trkpt>
      <trkpt lat="43.65398" lon="1.38856">
        <ele>138</ele>
        <time>2024-03-10T11:11:27Z</time>
      </trkpt>
      <trkpt lat="43.65397" lon="1.38856">
        <ele>138</ele>
        <time>2024-03-10T11:11:28Z</time>
      </trkpt>
      <trkpt lat="43.65389" lon="1.38856">
        <ele>138</ele>
        <time>2024-03-10T11:11:29Z</time>
      </trkpt>
      <trkpt lat="43.65386" lon="1.38855">
        <ele>138</ele>
        <time>2024-03-10T11:11:30Z</time>
      </trkpt>
      <trkpt lat="43.65382" lon="1.38855">
        <ele>138</ele>
        <time>2024-03-10T11:11:31Z</time>
      </trkpt>
      <trkpt lat="43.65382" lon="1.38855">
        <ele>138</ele>
        <time>2024-03-10T11:11:32Z</time>
      </trkpt>
      <trkpt lat="43.6538" lon="1.38854">
        <ele>138</ele>
        <time>2024-03-10T11:11:33Z</time>
      </trkpt>
      <trkpt lat="43.65378" lon="1.38852">
        <ele>138</ele>
        <time>2024-03-10T11:11:34Z</time>
      </trkpt>
      <trkpt lat="43.65376" lon="1.38851">
        <ele>138</ele>
        <time>2024-03-10T11:11:35Z</time>
      </trkpt>
      <trkpt lat="43.65374" lon="1.3885">
        <ele>138</ele>
        <time>2024-03-10T11:11:36Z</time>
      </trkpt>
      <trkpt lat="43.65372" lon="1.38848">
        <ele>138</ele>
        <time>2024-03-10T11:11:37Z</time>
      </trkpt>
      <trkpt lat="43.6537" lon="1.38846">
        <ele>139</ele>
        <time>2024-03-10T11:11:38Z</time>
      </trkpt>
      <trkpt lat="43.65367" lon="1.38845">
        <ele>139</ele>
        <time>2024-03-10T11:11:39Z</time>
      </trkpt>
      <trkpt lat="43.65365" lon="1.38843">
        <ele>139</ele>
        <time>2024-03-10T11:11:40Z</time>
      </trkpt>
      <trkpt lat="43.65364" lon="1.38842">
        <ele>139</ele>
        <time>2024-03-10T11:11:41Z</time>
      </trkpt>
      <trkpt lat="43.65363" lon="1.38841">
        <ele>139</ele>
        <time>2024-03-10T11:11:42Z</time>
      </trkpt>
      <trkpt lat="43.65362" lon="1.3884">
        <ele>139</ele>
        <time>2024-03-10T11:11:43Z</time>
      </trkpt>
      <trkpt lat="43.6536" lon="1.38839">
        <ele>139</ele>
        <time>2024-03-10T11:11:44Z</time>
      </trkpt>
      <trkpt lat="43.65354" lon="1.38833">
        <ele>139</ele>
        <time>2024-03-10T11:11:45Z</time>
      </trkpt>
      <trkpt lat="43.65353" lon="1.38832">
        <ele>139</ele>
        <time>2024-03-10T11:11:46Z</time>
      </trkpt>
      <trkpt lat="43.65352" lon="1.38831">
        <ele>140</ele>
        <time>2024-03-10T11:11:47Z</time>
      </trkpt>
      <trkpt lat="43.6535" lon="1.3883">
        <ele>140</ele>
        <time>2024-03-10T11:11:48Z</time>
      </trkpt>
      <trkpt lat="43.65343" lon="1.38823">
        <ele>140</ele>
        <time>2024-03-10T11:11:49Z</time>
      </trkpt>
      <trkpt lat="43.65341" lon="1.38821">
        <ele>140</ele>
        <time>2024-03-10T11:11:50Z</time>
      </trkpt>
      <trkpt lat="43.65339" lon="1.38819">
        <ele>140</ele>
        <time>2024-03-10T11:11:51Z</time>
      </trkpt>
      <trkpt lat="43.65337" lon="1.38817">
        <ele>140</ele>
        <time>2024-03-10T11:11:52Z</time>
      </trkpt>
      <trkpt lat="43.65336" lon="1.38813">
        <ele>140</ele>
        <time>2024-03-10T11:11:53Z</time>
      </trkpt>
      <trkpt lat="43.65335" lon="1.3881">
        <ele>140</ele>
        <time>2024-03-10T11:11:54Z</time>
      </trkpt>
      <trkpt lat="43.65333" lon="1.38807">
        <ele>140</ele>
        <time>2024-03-10T11:11:55Z</time>
      </trkpt>
      <trkpt lat="43.65332" lon="1.38804">
        <ele>140</ele>
        <time>2024-03-10T11:11:56Z</time>
      </trkpt>
      <trkpt lat="43.65331" lon="1.38801">
        <ele>140</ele>
        <time>2024-03-10T11:11:57Z</time>
      </trkpt>
      <trkpt lat="43.65331" lon="1.38798">
        <ele>140</ele>
        <time>2024-03-10T11:11:58Z</time>
      </trkpt>
      <trkpt lat="43.6533" lon="1.38795">
        <ele>140</ele>
        <time>2024-03-10T11:11:59Z</time>
      </trkpt>
      <trkpt lat="43.65329" lon="1.38792">
        <ele>140</ele>
        <time>2024-03-10T11:12:00Z</time>
      </trkpt>
      <trkpt lat="43.65327" lon="1.38785">
        <ele>140</ele>
        <time>2024-03-10T11:12:01Z</time>
      </trkpt>
      <trkpt lat="43.65327" lon="1.38785">
        <ele>140</ele>
        <time>2024-03-10T11:12:02Z</time>
      </trkpt>
      <trkpt lat="43.65326" lon="1.38781">
        <ele>140</ele>
        <time>2024-03-10T11:12:03Z</time>
      </trkpt>
      <trkpt lat="43.65326" lon="1.38774">
        <ele>140</ele>
        <time>2024-03-10T11:12:04Z</time>
      </trkpt>
      <trkpt lat="43.65326" lon="1.38774">
        <ele>140</ele>
        <time>2024-03-10T11:12:05Z</time>
      </trkpt>
      <trkpt lat="43.65325" lon="1.38772">
        <ele>140</ele>
        <time>2024-03-10T11:12:06Z</time>
      </trkpt>
      <trkpt lat="43.65324" lon="1.38769">
        <ele>140</ele>
        <time>2024-03-10T11:12:07Z</time>
      </trkpt>
      <trkpt lat="43.65324" lon="1.38767">
        <ele>140</ele>
        <time>2024-03-10T11:12:08Z</time>
      </trkpt>
      <trkpt lat="43.6532" lon="1.38756">
        <ele>139</ele>
        <time>2024-03-10T11:12:09Z</time>
      </trkpt>
      <trkpt lat="43.65319" lon="1.38752">
        <ele>139</ele>
        <time>2024-03-10T11:12:10Z</time>
      </trkpt>
      <trkpt lat="43.65317" lon="1.38747">
        <ele>139</ele>
        <time>2024-03-10T11:12:11Z</time>
      </trkpt>
      <trkpt lat="43.65316" lon="1.38743">
        <ele>139</ele>
        <time>2024-03-10T11:12:12Z</time>
      </trkpt>
      <trkpt lat="43.65315" lon="1.38739">
        <ele>139</ele>
        <time>2024-03-10T11:12:13Z</time>
      </trkpt>
      <trkpt lat="43.65313" lon="1.38735">
        <ele>139</ele>
        <time>2024-03-10T11:12:14Z</time>
      </trkpt>
      <trkpt lat="43.65313" lon="1.38731">
        <ele>139</ele>
        <time>2024-03-10T11:12:15Z</time>
      </trkpt>
      <trkpt lat="43.65313" lon="1.38731">
        <ele>139</ele>
        <time>2024-03-10T11:12:16Z</time>
      </trkpt>
      <trkpt lat="43.65312" lon="1.38728">
        <ele>139</ele>
        <time>2024-03-10T11:12:17Z</time>
      </trkpt>
      <trkpt lat="43.65311" lon="1.38725">
        <ele>138</ele>
        <time>2024-03-10T11:12:18Z</time>
      </trkpt>
      <trkpt lat="43.6531" lon="1.38722">
        <ele>138</ele>
        <time>2024-03-10T11:12:19Z</time>
      </trkpt>
      <trkpt lat="43.65309" lon="1.38719">
        <ele>138</ele>
        <time>2024-03-10T11:12:20Z</time>
      </trkpt>
      <trkpt lat="43.65308" lon="1.38716">
        <ele>138</ele>
        <time>2024-03-10T11:12:21Z</time>
      </trkpt>
      <trkpt lat="43.65306" lon="1.38712">
        <ele>138</ele>
        <time>2024-03-10T11:12:22Z</time>
      </trkpt>
      <trkpt lat="43.65304" lon="1.38708">
        <ele>138</ele>
        <time>2024-03-10T11:12:23Z</time>
      </trkpt>
      <trkpt lat="43.65304" lon="1.38707">
        <ele>138</ele>
        <time>2024-03-10T11:12:24Z</time>
      </trkpt>
      <trkpt lat="43.65303" lon="1.38705">
        <ele>138</ele>
        <time>2024-03-10T11:12:25Z</time>
      </trkpt>
      <trkpt lat="43.65303" lon="1.38703">
        <ele>138</ele>
        <time>2024-03-10T11:12:26Z</time>
      </trkpt>
      <trkpt lat="43.65302" lon="1.38701">
        <ele>138</ele>
        <time>2024-03-10T11:12:27Z</time>
      </trkpt>
      <trkpt lat="43.65299" lon="1.3869">
        <ele>138</ele>
        <time>2024-03-10T11:12:28Z</time>
      </trkpt>
      <trkpt lat="43.65298" lon="1.38687">
        <ele>138</ele>
        <time>2024-03-10T11:12:29Z</time>
      </trkpt>
      <trkpt lat="43.65297" lon="1.38684">
        <ele>138</ele>
        <time>2024-03-10T11:12:30Z</time>
      </trkpt>
      <trkpt lat="43.65296" lon="1.38681">
        <ele>138</ele>
        <time>2024-03-10T11:12:31Z</time>
      </trkpt>
      <trkpt lat="43.65295" lon="1.38678">
        <ele>138</ele>
        <time>2024-03-10T11:12:32Z</time>
      </trkpt>
      <trkpt lat="43.65294" lon="1.38675">
        <ele>138</ele>
        <time>2024-03-10T11:12:33Z</time>
      </trkpt>
      <trkpt lat="43.65294" lon="1.38673">
        <ele>138</ele>
        <time>2024-03-10T11:12:34Z</time>
      </trkpt>
      <trkpt lat="43.65294" lon="1.38671">
        <ele>138</ele>
        <time>2024-03-10T11:12:35Z</time>
      </trkpt>
      <trkpt lat="43.65293" lon="1.38669">
        <ele>138</ele>
        <time>2024-03-10T11:12:36Z</time>
      </trkpt>
      <trkpt lat="43.65293" lon="1.38667">
        <ele>138</ele>
        <time>2024-03-10T11:12:37Z</time>
      </trkpt>
      <trkpt lat="43.6529" lon="1.38657">
        <ele>139</ele>
        <time>2024-03-10T11:12:38Z</time>
      </trkpt>
      <trkpt lat="43.65289" lon="1.38654">
        <ele>139</ele>
        <time>2024-03-10T11:12:39Z</time>
      </trkpt>
      <trkpt lat="43.65287" lon="1.3865">
        <ele>139</ele>
        <time>2024-03-10T11:12:40Z</time>
      </trkpt>
      <trkpt lat="43.65286" lon="1.38648">
        <ele>139</ele>
        <time>2024-03-10T11:12:41Z</time>
      </trkpt>
      <trkpt lat="43.65284" lon="1.38645">
        <ele>139</ele>
        <time>2024-03-10T11:12:42Z</time>
      </trkpt>
      <trkpt lat="43.65283" lon="1.38642">
        <ele>139</ele>
        <time>2024-03-10T11:12:43Z</time>
      </trkpt>
      <trkpt lat="43.65282" lon="1.3864">
        <ele>139</ele>
        <time>2024-03-10T11:12:44Z</time>
      </trkpt>
      <trkpt lat="43.6528" lon="1.38637">
        <ele>139</ele>
        <time>2024-03-10T11:12:45Z</time>
      </trkpt>
      <trkpt lat="43.65278" lon="1.38635">
        <ele>139</ele>
        <time>2024-03-10T11:12:46Z</time>
      </trkpt>
      <trkpt lat="43.65276" lon="1.38633">
        <ele>139</ele>
        <time>2024-03-10T11:12:47Z</time>
      </trkpt>
      <trkpt lat="43.65274" lon="1.38631">
        <ele>139</ele>
        <time>2024-03-10T11:12:48Z</time>
      </trkpt>
      <trkpt lat="43.65273" lon="1.38628">
        <ele>139</ele>
        <time>2024-03-10T11:12:49Z</time>
      </trkpt>
      <trkpt lat="43.65271" lon="1.38625">
        <ele>139</ele>
        <time>2024-03-10T11:12:50Z</time>
      </trkpt>
      <trkpt lat="43.6527" lon="1.38623">
        <ele>139</ele>
        <time>2024-03-10T11:12:51Z</time>
      </trkpt>
      <trkpt lat="43.65269" lon="1.3862">
        <ele>139</ele>
        <time>2024-03-10T11:12:52Z</time>
      </trkpt>
      <trkpt lat="43.65268" lon="1.38619">
        <ele>139</ele>
        <time>2024-03-10T11:12:53Z</time>
      </trkpt>
      <trkpt lat="43.65267" lon="1.38617">
        <ele>139</ele>
        <time>2024-03-10T11:12:54Z</time>
      </trkpt>
      <trkpt lat="43.65266" lon="1.38616">
        <ele>139</ele>
        <time>2024-03-10T11:12:55Z</time>
      </trkpt>
      <trkpt lat="43.65265" lon="1.38614">
        <ele>139</ele>
        <time>2024-03-10T11:12:56Z</time>
      </trkpt>
      <trkpt lat="43.65261" lon="1.38606">
        <ele>139</ele>
        <time>2024-03-10T11:12:57Z</time>
      </trkpt>
      <trkpt lat="43.6526" lon="1.38604">
        <ele>139</ele>
        <time>2024-03-10T11:12:58Z</time>
      </trkpt>
      <trkpt lat="43.6526" lon="1.38602">
        <ele>138</ele>
        <time>2024-03-10T11:12:59Z</time>
      </trkpt>
      <trkpt lat="43.65259" lon="1.386">
        <ele>137</ele>
        <time>2024-03-10T11:13:00Z</time>
      </trkpt>
      <trkpt lat="43.65256" lon="1.38591">
        <ele>137</ele>
        <time>2024-03-10T11:13:01Z</time>
      </trkpt>
      <trkpt lat="43.65255" lon="1.3859">
        <ele>137</ele>
        <time>2024-03-10T11:13:02Z</time>
      </trkpt>
      <trkpt lat="43.65255" lon="1.38588">
        <ele>137</ele>
        <time>2024-03-10T11:13:03Z</time>
      </trkpt>
      <trkpt lat="43.65254" lon="1.38586">
        <ele>137</ele>
        <time>2024-03-10T11:13:04Z</time>
      </trkpt>
      <trkpt lat="43.65249" lon="1.38576">
        <ele>137</ele>
        <time>2024-03-10T11:13:05Z</time>
      </trkpt>
      <trkpt lat="43.65247" lon="1.38573">
        <ele>137</ele>
        <time>2024-03-10T11:13:06Z</time>
      </trkpt>
      <trkpt lat="43.65245" lon="1.3857">
        <ele>138</ele>
        <time>2024-03-10T11:13:07Z</time>
      </trkpt>
      <trkpt lat="43.65243" lon="1.38567">
        <ele>138</ele>
        <time>2024-03-10T11:13:08Z</time>
      </trkpt>
      <trkpt lat="43.65242" lon="1.38564">
        <ele>138</ele>
        <time>2024-03-10T11:13:09Z</time>
      </trkpt>
      <trkpt lat="43.65241" lon="1.3856">
        <ele>138</ele>
        <time>2024-03-10T11:13:10Z</time>
      </trkpt>
      <trkpt lat="43.6524" lon="1.38557">
        <ele>138</ele>
        <time>2024-03-10T11:13:11Z</time>
      </trkpt>
      <trkpt lat="43.65239" lon="1.38554">
        <ele>138</ele>
        <time>2024-03-10T11:13:12Z</time>
      </trkpt>
      <trkpt lat="43.65238" lon="1.38551">
        <ele>137</ele>
        <time>2024-03-10T11:13:13Z</time>
      </trkpt>
      <trkpt lat="43.65238" lon="1.38547">
        <ele>137</ele>
        <time>2024-03-10T11:13:14Z</time>
      </trkpt>
      <trkpt lat="43.65237" lon="1.38544">
        <ele>138</ele>
        <time>2024-03-10T11:13:15Z</time>
      </trkpt>
      <trkpt lat="43.65236" lon="1.38541">
        <ele>138</ele>
        <time>2024-03-10T11:13:16Z</time>
      </trkpt>
      <trkpt lat="43.65235" lon="1.3854">
        <ele>138</ele>
        <time>2024-03-10T11:13:17Z</time>
      </trkpt>
      <trkpt lat="43.65235" lon="1.38538">
        <ele>138</ele>
        <time>2024-03-10T11:13:18Z</time>
      </trkpt>
      <trkpt lat="43.65235" lon="1.38536">
        <ele>138</ele>
        <time>2024-03-10T11:13:19Z</time>
      </trkpt>
      <trkpt lat="43.65234" lon="1.38534">
        <ele>138</ele>
        <time>2024-03-10T11:13:20Z</time>
      </trkpt>
      <trkpt lat="43.65232" lon="1.38524">
        <ele>138</ele>
        <time>2024-03-10T11:13:21Z</time>
      </trkpt>
      <trkpt lat="43.65231" lon="1.38521">
        <ele>138</ele>
        <time>2024-03-10T11:13:22Z</time>
      </trkpt>
      <trkpt lat="43.6523" lon="1.38517">
        <ele>138</ele>
        <time>2024-03-10T11:13:23Z</time>
      </trkpt>
      <trkpt lat="43.6523" lon="1.38514">
        <ele>139</ele>
        <time>2024-03-10T11:13:24Z</time>
      </trkpt>
      <trkpt lat="43.65228" lon="1.3851">
        <ele>139</ele>
        <time>2024-03-10T11:13:25Z</time>
      </trkpt>
      <trkpt lat="43.65227" lon="1.38506">
        <ele>139</ele>
        <time>2024-03-10T11:13:26Z</time>
      </trkpt>
      <trkpt lat="43.65226" lon="1.38502">
        <ele>139</ele>
        <time>2024-03-10T11:13:27Z</time>
      </trkpt>
      <trkpt lat="43.65225" lon="1.38498">
        <ele>138</ele>
        <time>2024-03-10T11:13:28Z</time>
      </trkpt>
      <trkpt lat="43.65223" lon="1.38494">
        <ele>138</ele>
        <time>2024-03-10T11:13:29Z</time>
      </trkpt>
      <trkpt lat="43.65222" lon="1.3849">
        <ele>138</ele>
        <time>2024-03-10T11:13:30Z</time>
      </trkpt>
      <trkpt lat="43.65222" lon="1.38488">
        <ele>138</ele>
        <time>2024-03-10T11:13:31Z</time>
      </trkpt>
      <trkpt lat="43.65221" lon="1.38487">
        <ele>138</ele>
        <time>2024-03-10T11:13:32Z</time>
      </trkpt>
      <trkpt lat="43.65221" lon="1.38485">
        <ele>138</ele>
        <time>2024-03-10T11:13:33Z</time>
      </trkpt>
      <trkpt lat="43.65221" lon="1.38483">
        <ele>138</ele>
        <time>2024-03-10T11:13:34Z</time>
      </trkpt>
      <trkpt lat="43.65218" lon="1.38472">
        <ele>138</ele>
        <time>2024-03-10T11:13:35Z</time>
      </trkpt>
      <trkpt lat="43.65217" lon="1.38467">
        <ele>138</ele>
        <time>2024-03-10T11:13:36Z</time>
      </trkpt>
      <trkpt lat="43.65215" lon="1.38463">
        <ele>138</ele>
        <time>2024-03-10T11:13:37Z</time>
      </trkpt>
      <trkpt lat="43.65215" lon="1.38463">
        <ele>139</ele>
        <time>2024-03-10T11:13:38Z</time>
      </trkpt>
      <trkpt lat="43.65213" lon="1.3846">
        <ele>139</ele>
        <time>2024-03-10T11:13:39Z</time>
      </trkpt>
      <trkpt lat="43.65211" lon="1.38457">
        <ele>138</ele>
        <time>2024-03-10T11:13:40Z</time>
      </trkpt>
      <trkpt lat="43.6521" lon="1.38454">
        <ele>138</ele>
        <time>2024-03-10T11:13:41Z</time>
      </trkpt>
      <trkpt lat="43.65209" lon="1.38451">
        <ele>139</ele>
        <time>2024-03-10T11:13:42Z</time>
      </trkpt>
      <trkpt lat="43.65208" lon="1.38448">
        <ele>139</ele>
        <time>2024-03-10T11:13:43Z</time>
      </trkpt>
      <trkpt lat="43.65208" lon="1.38444">
        <ele>139</ele>
        <time>2024-03-10T11:13:44Z</time>
      </trkpt>
      <trkpt lat="43.65207" lon="1.38437">
        <ele>139</ele>
        <time>2024-03-10T11:13:45Z</time>
      </trkpt>
      <trkpt lat="43.65206" lon="1.38431">
        <ele>139</ele>
        <time>2024-03-10T11:13:46Z</time>
      </trkpt>
      <trkpt lat="43.65206" lon="1.38431">
        <ele>139</ele>
        <time>2024-03-10T11:13:47Z</time>
      </trkpt>
      <trkpt lat="43.65205" lon="1.38423">
        <ele>139</ele>
        <time>2024-03-10T11:13:48Z</time>
      </trkpt>
      <trkpt lat="43.65204" lon="1.3842">
        <ele>139</ele>
        <time>2024-03-10T11:13:49Z</time>
      </trkpt>
      <trkpt lat="43.65203" lon="1.38417">
        <ele>139</ele>
        <time>2024-03-10T11:13:50Z</time>
      </trkpt>
      <trkpt lat="43.65201" lon="1.38414">
        <ele>139</ele>
        <time>2024-03-10T11:13:51Z</time>
      </trkpt>
      <trkpt lat="43.65201" lon="1.38414">
        <ele>140</ele>
        <time>2024-03-10T11:13:52Z</time>
      </trkpt>
      <trkpt lat="43.652" lon="1.38411">
        <ele>140</ele>
        <time>2024-03-10T11:13:53Z</time>
      </trkpt>
      <trkpt lat="43.65198" lon="1.38408">
        <ele>140</ele>
        <time>2024-03-10T11:13:54Z</time>
      </trkpt>
      <trkpt lat="43.65195" lon="1.38403">
        <ele>140</ele>
        <time>2024-03-10T11:13:55Z</time>
      </trkpt>
      <trkpt lat="43.65195" lon="1.38403">
        <ele>140</ele>
        <time>2024-03-10T11:13:56Z</time>
      </trkpt>
      <trkpt lat="43.65192" lon="1.38398">
        <ele>140</ele>
        <time>2024-03-10T11:13:57Z</time>
      </trkpt>
      <trkpt lat="43.65192" lon="1.38398">
        <ele>140</ele>
        <time>2024-03-10T11:13:58Z</time>
      </trkpt>
      <trkpt lat="43.65191" lon="1.38395">
        <ele>140</ele>
        <time>2024-03-10T11:13:59Z</time>
      </trkpt>
      <trkpt lat="43.65189" lon="1.38393">
        <ele>140</ele>
        <time>2024-03-10T11:14:00Z</time>
      </trkpt>
      <trkpt lat="43.65188" lon="1.38389">
        <ele>140</ele>
        <time>2024-03-10T11:14:01Z</time>
      </trkpt>
      <trkpt lat="43.65187" lon="1.38386">
        <ele>140</ele>
        <time>2024-03-10T11:14:02Z</time>
      </trkpt>
      <trkpt lat="43.65186" lon="1.38383">
        <ele>140</ele>
        <time>2024-03-10T11:14:03Z</time>
      </trkpt>
      <trkpt lat="43.65186" lon="1.38375">
        <ele>140</ele>
        <time>2024-03-10T11:14:04Z</time>
      </trkpt>
      <trkpt lat="43.65185" lon="1.38371">
        <ele>140</ele>
        <time>2024-03-10T11:14:05Z</time>
      </trkpt>
      <trkpt lat="43.65185" lon="1.38368">
        <ele>141</ele>
        <time>2024-03-10T11:14:06Z</time>
      </trkpt>
      <trkpt lat="43.65185" lon="1.38368">
        <ele>141</ele>
        <time>2024-03-10T11:14:07Z</time>
      </trkpt>
      <trkpt lat="43.65185" lon="1.38364">
        <ele>141</ele>
        <time>2024-03-10T11:14:08Z</time>
      </trkpt>
      <trkpt lat="43.65185" lon="1.38361">
        <ele>141</ele>
        <time>2024-03-10T11:14:09Z</time>
      </trkpt>
      <trkpt lat="43.65185" lon="1.38357">
        <ele>141</ele>
        <time>2024-03-10T11:14:10Z</time>
      </trkpt>
      <trkpt lat="43.65185" lon="1.38353">
        <ele>141</ele>
        <time>2024-03-10T11:14:11Z</time>
      </trkpt>
      <trkpt lat="43.65184" lon="1.38349">
        <ele>141</ele>
        <time>2024-03-10T11:14:12Z</time>
      </trkpt>
      <trkpt lat="43.65184" lon="1.38345">
        <ele>140</ele>
        <time>2024-03-10T11:14:13Z</time>
      </trkpt>
      <trkpt lat="43.65183" lon="1.38341">
        <ele>140</ele>
        <time>2024-03-10T11:14:14Z</time>
      </trkpt>
      <trkpt lat="43.65183" lon="1.38338">
        <ele>140</ele>
        <time>2024-03-10T11:14:15Z</time>
      </trkpt>
      <trkpt lat="43.65183" lon="1.3833">
        <ele>140</ele>
        <time>2024-03-10T11:14:16Z</time>
      </trkpt>
      <trkpt lat="43.65183" lon="1.3833">
        <ele>140</ele>
        <time>2024-03-10T11:14:17Z</time>
      </trkpt>
      <trkpt lat="43.65182" lon="1.38323">
        <ele>140</ele>
        <time>2024-03-10T11:14:18Z</time>
      </trkpt>
      <trkpt lat="43.65182" lon="1.38323">
        <ele>140</ele>
        <time>2024-03-10T11:14:19Z</time>
      </trkpt>
      <trkpt lat="43.65181" lon="1.38316">
        <ele>140</ele>
        <time>2024-03-10T11:14:20Z</time>
      </trkpt>
      <trkpt lat="43.65181" lon="1.38312">
        <ele>140</ele>
        <time>2024-03-10T11:14:21Z</time>
      </trkpt>
      <trkpt lat="43.65181" lon="1.38312">
        <ele>140</ele>
        <time>2024-03-10T11:14:22Z</time>
      </trkpt>
      <trkpt lat="43.65181" lon="1.38308">
        <ele>140</ele>
        <time>2024-03-10T11:14:23Z</time>
      </trkpt>
      <trkpt lat="43.6518" lon="1.38305">
        <ele>140</ele>
        <time>2024-03-10T11:14:24Z</time>
      </trkpt>
      <trkpt lat="43.6518" lon="1.38302">
        <ele>140</ele>
        <time>2024-03-10T11:14:25Z</time>
      </trkpt>
      <trkpt lat="43.65179" lon="1.38295">
        <ele>140</ele>
        <time>2024-03-10T11:14:26Z</time>
      </trkpt>
      <trkpt lat="43.65179" lon="1.38295">
        <ele>140</ele>
        <time>2024-03-10T11:14:27Z</time>
      </trkpt>
      <trkpt lat="43.65178" lon="1.38291">
        <ele>140</ele>
        <time>2024-03-10T11:14:28Z</time>
      </trkpt>
      <trkpt lat="43.65177" lon="1.38287">
        <ele>140</ele>
        <time>2024-03-10T11:14:29Z</time>
      </trkpt>
      <trkpt lat="43.65176" lon="1.38284">
        <ele>140</ele>
        <time>2024-03-10T11:14:30Z</time>
      </trkpt>
      <trkpt lat="43.65175" lon="1.38277">
        <ele>140</ele>
        <time>2024-03-10T11:14:31Z</time>
      </trkpt>
      <trkpt lat="43.65174" lon="1.38274">
        <ele>140</ele>
        <time>2024-03-10T11:14:32Z</time>
      </trkpt>
      <trkpt lat="43.65174" lon="1.3827">
        <ele>140</ele>
        <time>2024-03-10T11:14:33Z</time>
      </trkpt>
      <trkpt lat="43.65174" lon="1.3827">
        <ele>140</ele>
        <time>2024-03-10T11:14:34Z</time>
      </trkpt>
      <trkpt lat="43.65173" lon="1.38267">
        <ele>140</ele>
        <time>2024-03-10T11:14:35Z</time>
      </trkpt>
      <trkpt lat="43.65172" lon="1.38264">
        <ele>140</ele>
        <time>2024-03-10T11:14:36Z</time>
      </trkpt>
      <trkpt lat="43.65171" lon="1.3826">
        <ele>140</ele>
        <time>2024-03-10T11:14:37Z</time>
      </trkpt>
      <trkpt lat="43.65171" lon="1.38257">
        <ele>141</ele>
        <time>2024-03-10T11:14:38Z</time>
      </trkpt>
      <trkpt lat="43.65169" lon="1.3825">
        <ele>141</ele>
        <time>2024-03-10T11:14:39Z</time>
      </trkpt>
      <trkpt lat="43.65168" lon="1.38247">
        <ele>141</ele>
        <time>2024-03-10T11:14:40Z</time>
      </trkpt>
      <trkpt lat="43.65168" lon="1.38243">
        <ele>141</ele>
        <time>2024-03-10T11:14:41Z</time>
      </trkpt>
      <trkpt lat="43.65168" lon="1.38243">
        <ele>141</ele>
        <time>2024-03-10T11:14:42Z</time>
      </trkpt>
      <trkpt lat="43.65167" lon="1.3824">
        <ele>140</ele>
        <time>2024-03-10T11:14:43Z</time>
      </trkpt>
      <trkpt lat="43.65166" lon="1.38236">
        <ele>140</ele>
        <time>2024-03-10T11:14:44Z</time>
      </trkpt>
      <trkpt lat="43.65166" lon="1.38233">
        <ele>140</ele>
        <time>2024-03-10T11:14:45Z</time>
      </trkpt>
      <trkpt lat="43.65166" lon="1.38229">
        <ele>141</ele>
        <time>2024-03-10T11:14:46Z</time>
      </trkpt>
      <trkpt lat="43.65165" lon="1.38226">
        <ele>141</ele>
        <time>2024-03-10T11:14:47Z</time>
      </trkpt>
      <trkpt lat="43.65164" lon="1.38222">
        <ele>140</ele>
        <time>2024-03-10T11:14:48Z</time>
      </trkpt>
      <trkpt lat="43.65164" lon="1.38219">
        <ele>140</ele>
        <time>2024-03-10T11:14:49Z</time>
      </trkpt>
      <trkpt lat="43.65164" lon="1.38215">
        <ele>140</ele>
        <time>2024-03-10T11:14:50Z</time>
      </trkpt>
      <trkpt lat="43.65164" lon="1.38211">
        <ele>140</ele>
        <time>2024-03-10T11:14:51Z</time>
      </trkpt>
      <trkpt lat="43.65164" lon="1.38207">
        <ele>141</ele>
        <time>2024-03-10T11:14:52Z</time>
      </trkpt>
      <trkpt lat="43.65165" lon="1.382">
        <ele>141</ele>
        <time>2024-03-10T11:14:53Z</time>
      </trkpt>
      <trkpt lat="43.65165" lon="1.382">
        <ele>141</ele>
        <time>2024-03-10T11:14:54Z</time>
      </trkpt>
      <trkpt lat="43.65166" lon="1.38197">
        <ele>141</ele>
        <time>2024-03-10T11:14:55Z</time>
      </trkpt>
      <trkpt lat="43.65167" lon="1.38193">
        <ele>141</ele>
        <time>2024-03-10T11:14:56Z</time>
      </trkpt>
      <trkpt lat="43.65169" lon="1.3819">
        <ele>141</ele>
        <time>2024-03-10T11:14:57Z</time>
      </trkpt>
      <trkpt lat="43.6517" lon="1.38187">
        <ele>141</ele>
        <time>2024-03-10T11:14:58Z</time>
      </trkpt>
      <trkpt lat="43.65172" lon="1.38185">
        <ele>141</ele>
        <time>2024-03-10T11:14:59Z</time>
      </trkpt>
      <trkpt lat="43.65175" lon="1.38183">
        <ele>141</ele>
        <time>2024-03-10T11:15:00Z</time>
      </trkpt>
      <trkpt lat="43.65179" lon="1.38178">
        <ele>142</ele>
        <time>2024-03-10T11:15:01Z</time>
      </trkpt>
      <trkpt lat="43.65181" lon="1.38176">
        <ele>142</ele>
        <time>2024-03-10T11:15:02Z</time>
      </trkpt>
      <trkpt lat="43.65181" lon="1.38176">
        <ele>142</ele>
        <time>2024-03-10T11:15:03Z</time>
      </trkpt>
      <trkpt lat="43.65185" lon="1.38172">
        <ele>142</ele>
        <time>2024-03-10T11:15:04Z</time>
      </trkpt>
      <trkpt lat="43.65187" lon="1.3817">
        <ele>141</ele>
        <time>2024-03-10T11:15:05Z</time>
      </trkpt>
      <trkpt lat="43.65189" lon="1.38167">
        <ele>142</ele>
        <time>2024-03-10T11:15:06Z</time>
      </trkpt>
      <trkpt lat="43.65189" lon="1.38167">
        <ele>142</ele>
        <time>2024-03-10T11:15:07Z</time>
      </trkpt>
      <trkpt lat="43.65192" lon="1.38165">
        <ele>143</ele>
        <time>2024-03-10T11:15:08Z</time>
      </trkpt>
      <trkpt lat="43.65194" lon="1.38163">
        <ele>143</ele>
        <time>2024-03-10T11:15:09Z</time>
      </trkpt>
      <trkpt lat="43.65196" lon="1.38161">
        <ele>142</ele>
        <time>2024-03-10T11:15:10Z</time>
      </trkpt>
      <trkpt lat="43.65198" lon="1.38158">
        <ele>142</ele>
        <time>2024-03-10T11:15:11Z</time>
      </trkpt>
      <trkpt lat="43.652" lon="1.38156">
        <ele>142</ele>
        <time>2024-03-10T11:15:12Z</time>
      </trkpt>
      <trkpt lat="43.65204" lon="1.38153">
        <ele>142</ele>
        <time>2024-03-10T11:15:13Z</time>
      </trkpt>
      <trkpt lat="43.65204" lon="1.38153">
        <ele>142</ele>
        <time>2024-03-10T11:15:14Z</time>
      </trkpt>
      <trkpt lat="43.65205" lon="1.38151">
        <ele>142</ele>
        <time>2024-03-10T11:15:15Z</time>
      </trkpt>
      <trkpt lat="43.65205" lon="1.38151">
        <ele>142</ele>
        <time>2024-03-10T11:15:16Z</time>
      </trkpt>
      <trkpt lat="43.65207" lon="1.3815">
        <ele>142</ele>
        <time>2024-03-10T11:15:17Z</time>
      </trkpt>
      <trkpt lat="43.65209" lon="1.38148">
        <ele>142</ele>
        <time>2024-03-10T11:15:18Z</time>
      </trkpt>
      <trkpt lat="43.65211" lon="1.38147">
        <ele>142</ele>
        <time>2024-03-10T11:15:19Z</time>
      </trkpt>
      <trkpt lat="43.65214" lon="1.38146">
        <ele>142</ele>
        <time>2024-03-10T11:15:20Z</time>
      </trkpt>
      <trkpt lat="43.65214" lon="1.38146">
        <ele>142</ele>
        <time>2024-03-10T11:15:21Z</time>
      </trkpt>
      <trkpt lat="43.65216" lon="1.38144">
        <ele>142</ele>
        <time>2024-03-10T11:15:22Z</time>
      </trkpt>
      <trkpt lat="43.6522" lon="1.3814">
        <ele>142</ele>
        <time>2024-03-10T11:15:23Z</time>
      </trkpt>
      <trkpt lat="43.65223" lon="1.38139">
        <ele>143</ele>
        <time>2024-03-10T11:15:24Z</time>
      </trkpt>
      <trkpt lat="43.65223" lon="1.38139">
        <ele>143</ele>
        <time>2024-03-10T11:15:25Z</time>
      </trkpt>
      <trkpt lat="43.65227" lon="1.38135">
        <ele>143</ele>
        <time>2024-03-10T11:15:26Z</time>
      </trkpt>
      <trkpt lat="43.65227" lon="1.38135">
        <ele>143</ele>
        <time>2024-03-10T11:15:27Z</time>
      </trkpt>
      <trkpt lat="43.65229" lon="1.38133">
        <ele>143</ele>
        <time>2024-03-10T11:15:28Z</time>
      </trkpt>
      <trkpt lat="43.65232" lon="1.38131">
        <ele>143</ele>
        <time>2024-03-10T11:15:29Z</time>
      </trkpt>
      <trkpt lat="43.65237" lon="1.38128">
        <ele>143</ele>
        <time>2024-03-10T11:15:30Z</time>
      </trkpt>
      <trkpt lat="43.65237" lon="1.38128">
        <ele>143</ele>
        <time>2024-03-10T11:15:31Z</time>
      </trkpt>
      <trkpt lat="43.65239" lon="1.38126">
        <ele>143</ele>
        <time>2024-03-10T11:15:32Z</time>
      </trkpt>
      <trkpt lat="43.65241" lon="1.38124">
        <ele>143</ele>
        <time>2024-03-10T11:15:33Z</time>
      </trkpt>
      <trkpt lat="43.65243" lon="1.38122">
        <ele>143</ele>
        <time>2024-03-10T11:15:34Z</time>
      </trkpt>
      <trkpt lat="43.65244" lon="1.38118">
        <ele>143</ele>
        <time>2024-03-10T11:15:35Z</time>
      </trkpt>
      <trkpt lat="43.65244" lon="1.38112">
        <ele>143</ele>
        <time>2024-03-10T11:15:36Z</time>
      </trkpt>
      <trkpt lat="43.65243" lon="1.38109">
        <ele>143</ele>
        <time>2024-03-10T11:15:37Z</time>
      </trkpt>
      <trkpt lat="43.65243" lon="1.38109">
        <ele>143</ele>
        <time>2024-03-10T11:15:38Z</time>
      </trkpt>
      <trkpt lat="43.65241" lon="1.38106">
        <ele>143</ele>
        <time>2024-03-10T11:15:39Z</time>
      </trkpt>
      <trkpt lat="43.65241" lon="1.38104">
        <ele>143</ele>
        <time>2024-03-10T11:15:40Z</time>
      </trkpt>
      <trkpt lat="43.65239" lon="1.38101">
        <ele>143</ele>
        <time>2024-03-10T11:15:41Z</time>
      </trkpt>
      <trkpt lat="43.65238" lon="1.38098">
        <ele>143</ele>
        <time>2024-03-10T11:15:42Z</time>
      </trkpt>
      <trkpt lat="43.65236" lon="1.38094">
        <ele>143</ele>
        <time>2024-03-10T11:15:43Z</time>
      </trkpt>
      <trkpt lat="43.65234" lon="1.38088">
        <ele>143</ele>
        <time>2024-03-10T11:15:44Z</time>
      </trkpt>
      <trkpt lat="43.65234" lon="1.38088">
        <ele>143</ele>
        <time>2024-03-10T11:15:45Z</time>
      </trkpt>
      <trkpt lat="43.65233" lon="1.38085">
        <ele>144</ele>
        <time>2024-03-10T11:15:46Z</time>
      </trkpt>
      <trkpt lat="43.65231" lon="1.38081">
        <ele>144</ele>
        <time>2024-03-10T11:15:47Z</time>
      </trkpt>
      <trkpt lat="43.65231" lon="1.38078">
        <ele>145</ele>
        <time>2024-03-10T11:15:48Z</time>
      </trkpt>
      <trkpt lat="43.65228" lon="1.3807">
        <ele>145</ele>
        <time>2024-03-10T11:15:49Z</time>
      </trkpt>
      <trkpt lat="43.65228" lon="1.3807">
        <ele>144</ele>
        <time>2024-03-10T11:15:50Z</time>
      </trkpt>
      <trkpt lat="43.65227" lon="1.38067">
        <ele>145</ele>
        <time>2024-03-10T11:15:51Z</time>
      </trkpt>
      <trkpt lat="43.65226" lon="1.38063">
        <ele>145</ele>
        <time>2024-03-10T11:15:52Z</time>
      </trkpt>
      <trkpt lat="43.65225" lon="1.3806">
        <ele>145</ele>
        <time>2024-03-10T11:15:53Z</time>
      </trkpt>
      <trkpt lat="43.65223" lon="1.38053">
        <ele>145</ele>
        <time>2024-03-10T11:15:54Z</time>
      </trkpt>
      <trkpt lat="43.65223" lon="1.38053">
        <ele>145</ele>
        <time>2024-03-10T11:15:55Z</time>
      </trkpt>
      <trkpt lat="43.65222" lon="1.38049">
        <ele>144</ele>
        <time>2024-03-10T11:15:56Z</time>
      </trkpt>
      <trkpt lat="43.65221" lon="1.38046">
        <ele>144</ele>
        <time>2024-03-10T11:15:57Z</time>
      </trkpt>
      <trkpt lat="43.6522" lon="1.38038">
        <ele>144</ele>
        <time>2024-03-10T11:15:58Z</time>
      </trkpt>
      <trkpt lat="43.65219" lon="1.38035">
        <ele>143</ele>
        <time>2024-03-10T11:15:59Z</time>
      </trkpt>
      <trkpt lat="43.65219" lon="1.38035">
        <ele>143</ele>
        <time>2024-03-10T11:16:00Z</time>
      </trkpt>
      <trkpt lat="43.65216" lon="1.38028">
        <ele>143</ele>
        <time>2024-03-10T11:16:01Z</time>
      </trkpt>
      <trkpt lat="43.65214" lon="1.38026">
        <ele>143</ele>
        <time>2024-03-10T11:16:02Z</time>
      </trkpt>
      <trkpt lat="43.65214" lon="1.38026">
        <ele>143</ele>
        <time>2024-03-10T11:16:03Z</time>
      </trkpt>
      <trkpt lat="43.6521" lon="1.38026">
        <ele>144</ele>
        <time>2024-03-10T11:16:04Z</time>
      </trkpt>
      <trkpt lat="43.6521" lon="1.38026">
        <ele>144</ele>
        <time>2024-03-10T11:16:05Z</time>
      </trkpt>
      <trkpt lat="43.65205" lon="1.3803">
        <ele>144</ele>
        <time>2024-03-10T11:16:06Z</time>
      </trkpt>
      <trkpt lat="43.65205" lon="1.3803">
        <ele>144</ele>
        <time>2024-03-10T11:16:07Z</time>
      </trkpt>
      <trkpt lat="43.65202" lon="1.38032">
        <ele>144</ele>
        <time>2024-03-10T11:16:08Z</time>
      </trkpt>
      <trkpt lat="43.65197" lon="1.38036">
        <ele>144</ele>
        <time>2024-03-10T11:16:09Z</time>
      </trkpt>
      <trkpt lat="43.65197" lon="1.38036">
        <ele>144</ele>
        <time>2024-03-10T11:16:10Z</time>
      </trkpt>
      <trkpt lat="43.65195" lon="1.38038">
        <ele>144</ele>
        <time>2024-03-10T11:16:11Z</time>
      </trkpt>
      <trkpt lat="43.65193" lon="1.38041">
        <ele>144</ele>
        <time>2024-03-10T11:16:12Z</time>
      </trkpt>
      <trkpt lat="43.65188" lon="1.38043">
        <ele>144</ele>
        <time>2024-03-10T11:16:13Z</time>
      </trkpt>
      <trkpt lat="43.65188" lon="1.38043">
        <ele>144</ele>
        <time>2024-03-10T11:16:14Z</time>
      </trkpt>
      <trkpt lat="43.65185" lon="1.38043">
        <ele>144</ele>
        <time>2024-03-10T11:16:15Z</time>
      </trkpt>
      <trkpt lat="43.65182" lon="1.38043">
        <ele>144</ele>
        <time>2024-03-10T11:16:16Z</time>
      </trkpt>
      <trkpt lat="43.6518" lon="1.38044">
        <ele>144</ele>
        <time>2024-03-10T11:16:17Z</time>
      </trkpt>
      <trkpt lat="43.65175" lon="1.38047">
        <ele>144</ele>
        <time>2024-03-10T11:16:18Z</time>
      </trkpt>
      <trkpt lat="43.65175" lon="1.38047">
        <ele>144</ele>
        <time>2024-03-10T11:16:19Z</time>
      </trkpt>
      <trkpt lat="43.6517" lon="1.3805">
        <ele>144</ele>
        <time>2024-03-10T11:16:20Z</time>
      </trkpt>
      <trkpt lat="43.65168" lon="1.38052">
        <ele>144</ele>
        <time>2024-03-10T11:16:21Z</time>
      </trkpt>
      <trkpt lat="43.65166" lon="1.38054">
        <ele>145</ele>
        <time>2024-03-10T11:16:22Z</time>
      </trkpt>
      <trkpt lat="43.65163" lon="1.38056">
        <ele>145</ele>
        <time>2024-03-10T11:16:23Z</time>
      </trkpt>
      <trkpt lat="43.65163" lon="1.38056">
        <ele>145</ele>
        <time>2024-03-10T11:16:24Z</time>
      </trkpt>
      <trkpt lat="43.65158" lon="1.38059">
        <ele>145</ele>
        <time>2024-03-10T11:16:25Z</time>
      </trkpt>
      <trkpt lat="43.65158" lon="1.38059">
        <ele>144</ele>
        <time>2024-03-10T11:16:26Z</time>
      </trkpt>
      <trkpt lat="43.65156" lon="1.38061">
        <ele>144</ele>
        <time>2024-03-10T11:16:27Z</time>
      </trkpt>
      <trkpt lat="43.65154" lon="1.38063">
        <ele>145</ele>
        <time>2024-03-10T11:16:28Z</time>
      </trkpt>
      <trkpt lat="43.65152" lon="1.38064">
        <ele>145</ele>
        <time>2024-03-10T11:16:29Z</time>
      </trkpt>
      <trkpt lat="43.65147" lon="1.38068">
        <ele>145</ele>
        <time>2024-03-10T11:16:30Z</time>
      </trkpt>
      <trkpt lat="43.65147" lon="1.38068">
        <ele>145</ele>
        <time>2024-03-10T11:16:31Z</time>
      </trkpt>
      <trkpt lat="43.65145" lon="1.3807">
        <ele>145</ele>
        <time>2024-03-10T11:16:32Z</time>
      </trkpt>
      <trkpt lat="43.65142" lon="1.38071">
        <ele>144</ele>
        <time>2024-03-10T11:16:33Z</time>
      </trkpt>
      <trkpt lat="43.6514" lon="1.38073">
        <ele>144</ele>
        <time>2024-03-10T11:16:34Z</time>
      </trkpt>
      <trkpt lat="43.65137" lon="1.38075">
        <ele>144</ele>
        <time>2024-03-10T11:16:35Z</time>
      </trkpt>
      <trkpt lat="43.65135" lon="1.38076">
        <ele>144</ele>
        <time>2024-03-10T11:16:36Z</time>
      </trkpt>
      <trkpt lat="43.65131" lon="1.3808">
        <ele>144</ele>
        <time>2024-03-10T11:16:37Z</time>
      </trkpt>
      <trkpt lat="43.65131" lon="1.3808">
        <ele>144</ele>
        <time>2024-03-10T11:16:38Z</time>
      </trkpt>
      <trkpt lat="43.65126" lon="1.38083">
        <ele>144</ele>
        <time>2024-03-10T11:16:39Z</time>
      </trkpt>
      <trkpt lat="43.65124" lon="1.38085">
        <ele>144</ele>
        <time>2024-03-10T11:16:40Z</time>
      </trkpt>
      <trkpt lat="43.65121" lon="1.38086">
        <ele>144</ele>
        <time>2024-03-10T11:16:41Z</time>
      </trkpt>
      <trkpt lat="43.65119" lon="1.38088">
        <ele>145</ele>
        <time>2024-03-10T11:16:42Z</time>
      </trkpt>
      <trkpt lat="43.65119" lon="1.38088">
        <ele>145</ele>
        <time>2024-03-10T11:16:43Z</time>
      </trkpt>
      <trkpt lat="43.65114" lon="1.38092">
        <ele>144</ele>
        <time>2024-03-10T11:16:44Z</time>
      </trkpt>
      <trkpt lat="43.65114" lon="1.38092">
        <ele>144</ele>
        <time>2024-03-10T11:16:45Z</time>
      </trkpt>
      <trkpt lat="43.65112" lon="1.38093">
        <ele>144</ele>
        <time>2024-03-10T11:16:46Z</time>
      </trkpt>
      <trkpt lat="43.65109" lon="1.38095">
        <ele>144</ele>
        <time>2024-03-10T11:16:47Z</time>
      </trkpt>
      <trkpt lat="43.65104" lon="1.38098">
        <ele>144</ele>
        <time>2024-03-10T11:16:48Z</time>
      </trkpt>
      <trkpt lat="43.65102" lon="1.381">
        <ele>144</ele>
        <time>2024-03-10T11:16:49Z</time>
      </trkpt>
      <trkpt lat="43.65102" lon="1.381">
        <ele>144</ele>
        <time>2024-03-10T11:16:50Z</time>
      </trkpt>
      <trkpt lat="43.65097" lon="1.38104">
        <ele>144</ele>
        <time>2024-03-10T11:16:51Z</time>
      </trkpt>
      <trkpt lat="43.65097" lon="1.38104">
        <ele>144</ele>
        <time>2024-03-10T11:16:52Z</time>
      </trkpt>
      <trkpt lat="43.65094" lon="1.38106">
        <ele>144</ele>
        <time>2024-03-10T11:16:53Z</time>
      </trkpt>
      <trkpt lat="43.6509" lon="1.38109">
        <ele>144</ele>
        <time>2024-03-10T11:16:54Z</time>
      </trkpt>
      <trkpt lat="43.6509" lon="1.38109">
        <ele>144</ele>
        <time>2024-03-10T11:16:55Z</time>
      </trkpt>
      <trkpt lat="43.65085" lon="1.38112">
        <ele>144</ele>
        <time>2024-03-10T11:16:56Z</time>
      </trkpt>
      <trkpt lat="43.65085" lon="1.38112">
        <ele>144</ele>
        <time>2024-03-10T11:16:57Z</time>
      </trkpt>
      <trkpt lat="43.65083" lon="1.38114">
        <ele>144</ele>
        <time>2024-03-10T11:16:58Z</time>
      </trkpt>
      <trkpt lat="43.65081" lon="1.38115">
        <ele>144</ele>
        <time>2024-03-10T11:16:59Z</time>
      </trkpt>
      <trkpt lat="43.65078" lon="1.38117">
        <ele>144</ele>
        <time>2024-03-10T11:17:00Z</time>
      </trkpt>
      <trkpt lat="43.65076" lon="1.38119">
        <ele>144</ele>
        <time>2024-03-10T11:17:01Z</time>
      </trkpt>
      <trkpt lat="43.65074" lon="1.38121">
        <ele>143</ele>
        <time>2024-03-10T11:17:02Z</time>
      </trkpt>
      <trkpt lat="43.65069" lon="1.3812">
        <ele>143</ele>
        <time>2024-03-10T11:17:03Z</time>
      </trkpt>
      <trkpt lat="43.65069" lon="1.3812">
        <ele>143</ele>
        <time>2024-03-10T11:17:04Z</time>
      </trkpt>
      <trkpt lat="43.65067" lon="1.38117">
        <ele>143</ele>
        <time>2024-03-10T11:17:05Z</time>
      </trkpt>
      <trkpt lat="43.65065" lon="1.38113">
        <ele>143</ele>
        <time>2024-03-10T11:17:06Z</time>
      </trkpt>
      <trkpt lat="43.65063" lon="1.38109">
        <ele>142</ele>
        <time>2024-03-10T11:17:07Z</time>
      </trkpt>
      <trkpt lat="43.65062" lon="1.38105">
        <ele>142</ele>
        <time>2024-03-10T11:17:08Z</time>
      </trkpt>
      <trkpt lat="43.6506" lon="1.38103">
        <ele>141</ele>
        <time>2024-03-10T11:17:09Z</time>
      </trkpt>
      <trkpt lat="43.65058" lon="1.381">
        <ele>141</ele>
        <time>2024-03-10T11:17:10Z</time>
      </trkpt>
      <trkpt lat="43.65056" lon="1.38096">
        <ele>141</ele>
        <time>2024-03-10T11:17:11Z</time>
      </trkpt>
      <trkpt lat="43.65052" lon="1.3809">
        <ele>141</ele>
        <time>2024-03-10T11:17:12Z</time>
      </trkpt>
      <trkpt lat="43.6505" lon="1.38086">
        <ele>141</ele>
        <time>2024-03-10T11:17:13Z</time>
      </trkpt>
      <trkpt lat="43.65048" lon="1.38083">
        <ele>140</ele>
        <time>2024-03-10T11:17:14Z</time>
      </trkpt>
      <trkpt lat="43.65046" lon="1.3808">
        <ele>140</ele>
        <time>2024-03-10T11:17:15Z</time>
      </trkpt>
      <trkpt lat="43.65046" lon="1.3808">
        <ele>140</ele>
        <time>2024-03-10T11:17:16Z</time>
      </trkpt>
      <trkpt lat="43.65041" lon="1.38074">
        <ele>140</ele>
        <time>2024-03-10T11:17:17Z</time>
      </trkpt>
      <trkpt lat="43.65039" lon="1.38071">
        <ele>140</ele>
        <time>2024-03-10T11:17:18Z</time>
      </trkpt>
      <trkpt lat="43.65038" lon="1.38067">
        <ele>140</ele>
        <time>2024-03-10T11:17:19Z</time>
      </trkpt>
      <trkpt lat="43.65036" lon="1.38064">
        <ele>140</ele>
        <time>2024-03-10T11:17:20Z</time>
      </trkpt>
      <trkpt lat="43.65036" lon="1.38064">
        <ele>140</ele>
        <time>2024-03-10T11:17:21Z</time>
      </trkpt>
      <trkpt lat="43.65035" lon="1.3806">
        <ele>140</ele>
        <time>2024-03-10T11:17:22Z</time>
      </trkpt>
      <trkpt lat="43.65033" lon="1.38057">
        <ele>140</ele>
        <time>2024-03-10T11:17:23Z</time>
      </trkpt>
      <trkpt lat="43.65031" lon="1.38051">
        <ele>140</ele>
        <time>2024-03-10T11:17:24Z</time>
      </trkpt>
      <trkpt lat="43.65029" lon="1.38048">
        <ele>140</ele>
        <time>2024-03-10T11:17:25Z</time>
      </trkpt>
      <trkpt lat="43.65029" lon="1.38048">
        <ele>140</ele>
        <time>2024-03-10T11:17:26Z</time>
      </trkpt>
      <trkpt lat="43.65025" lon="1.38042">
        <ele>140</ele>
        <time>2024-03-10T11:17:27Z</time>
      </trkpt>
      <trkpt lat="43.65025" lon="1.38042">
        <ele>140</ele>
        <time>2024-03-10T11:17:28Z</time>
      </trkpt>
      <trkpt lat="43.65024" lon="1.38039">
        <ele>140</ele>
        <time>2024-03-10T11:17:29Z</time>
      </trkpt>
      <trkpt lat="43.65022" lon="1.38036">
        <ele>141</ele>
        <time>2024-03-10T11:17:30Z</time>
      </trkpt>
      <trkpt lat="43.6502" lon="1.38033">
        <ele>141</ele>
        <time>2024-03-10T11:17:31Z</time>
      </trkpt>
      <trkpt lat="43.65016" lon="1.38026">
        <ele>140</ele>
        <time>2024-03-10T11:17:32Z</time>
      </trkpt>
      <trkpt lat="43.65016" lon="1.38026">
        <ele>140</ele>
        <time>2024-03-10T11:17:33Z</time>
      </trkpt>
      <trkpt lat="43.65013" lon="1.3802">
        <ele>140</ele>
        <time>2024-03-10T11:17:34Z</time>
      </trkpt>
      <trkpt lat="43.65013" lon="1.3802">
        <ele>140</ele>
        <time>2024-03-10T11:17:35Z</time>
      </trkpt>
      <trkpt lat="43.65011" lon="1.38017">
        <ele>140</ele>
        <time>2024-03-10T11:17:36Z</time>
      </trkpt>
      <trkpt lat="43.65009" lon="1.38014">
        <ele>140</ele>
        <time>2024-03-10T11:17:37Z</time>
      </trkpt>
      <trkpt lat="43.65008" lon="1.38011">
        <ele>140</ele>
        <time>2024-03-10T11:17:38Z</time>
      </trkpt>
      <trkpt lat="43.65006" lon="1.38008">
        <ele>140</ele>
        <time>2024-03-10T11:17:39Z</time>
      </trkpt>
      <trkpt lat="43.65004" lon="1.38005">
        <ele>140</ele>
        <time>2024-03-10T11:17:40Z</time>
      </trkpt>
      <trkpt lat="43.65002" lon="1.38002">
        <ele>140</ele>
        <time>2024-03-10T11:17:41Z</time>
      </trkpt>
      <trkpt lat="43.65" lon="1.38">
        <ele>140</ele>
        <time>2024-03-10T11:17:42Z</time>
      </trkpt>
      <trkpt lat="43.64996" lon="1.37994">
        <ele>140</ele>
        <time>2024-03-10T11:17:43Z</time>
      </trkpt>
      <trkpt lat="43.64996" lon="1.37994">
        <ele>140</ele>
        <time>2024-03-10T11:17:44Z</time>
      </trkpt>
      <trkpt lat="43.64994" lon="1.37992">
        <ele>140</ele>
        <time>2024-03-10T11:17:45Z</time>
      </trkpt>
      <trkpt lat="43.64992" lon="1.37989">
        <ele>140</ele>
        <time>2024-03-10T11:17:46Z</time>
      </trkpt>
      <trkpt lat="43.64989" lon="1.37983">
        <ele>140</ele>
        <time>2024-03-10T11:17:47Z</time>
      </trkpt>
      <trkpt lat="43.64987" lon="1.3798">
        <ele>140</ele>
        <time>2024-03-10T11:17:48Z</time>
      </trkpt>
      <trkpt lat="43.64985" lon="1.37977">
        <ele>140</ele>
        <time>2024-03-10T11:17:49Z</time>
      </trkpt>
      <trkpt lat="43.64985" lon="1.37977">
        <ele>140</ele>
        <time>2024-03-10T11:17:50Z</time>
      </trkpt>
      <trkpt lat="43.64983" lon="1.37974">
        <ele>140</ele>
        <time>2024-03-10T11:17:51Z</time>
      </trkpt>
      <trkpt lat="43.64981" lon="1.37971">
        <ele>140</ele>
        <time>2024-03-10T11:17:52Z</time>
      </trkpt>
      <trkpt lat="43.64978" lon="1.37966">
        <ele>140</ele>
        <time>2024-03-10T11:17:53Z</time>
      </trkpt>
      <trkpt lat="43.64978" lon="1.37966">
        <ele>140</ele>
        <time>2024-03-10T11:17:54Z</time>
      </trkpt>
      <trkpt lat="43.64974" lon="1.3796">
        <ele>140</ele>
        <time>2024-03-10T11:17:55Z</time>
      </trkpt>
      <trkpt lat="43.64974" lon="1.3796">
        <ele>140</ele>
        <time>2024-03-10T11:17:56Z</time>
      </trkpt>
      <trkpt lat="43.64973" lon="1.37957">
        <ele>140</ele>
        <time>2024-03-10T11:17:57Z</time>
      </trkpt>
      <trkpt lat="43.6497" lon="1.37952">
        <ele>140</ele>
        <time>2024-03-10T11:17:58Z</time>
      </trkpt>
      <trkpt lat="43.6497" lon="1.37952">
        <ele>141</ele>
        <time>2024-03-10T11:17:59Z</time>
      </trkpt>
      <trkpt lat="43.64968" lon="1.37949">
        <ele>141</ele>
        <time>2024-03-10T11:18:00Z</time>
      </trkpt>
      <trkpt lat="43.64967" lon="1.37946">
        <ele>141</ele>
        <time>2024-03-10T11:18:01Z</time>
      </trkpt>
      <trkpt lat="43.64965" lon="1.37943">
        <ele>141</ele>
        <time>2024-03-10T11:18:02Z</time>
      </trkpt>
      <trkpt lat="43.64962" lon="1.37938">
        <ele>141</ele>
        <time>2024-03-10T11:18:03Z</time>
      </trkpt>
      <trkpt lat="43.64962" lon="1.37938">
        <ele>141</ele>
        <time>2024-03-10T11:18:04Z</time>
      </trkpt>
      <trkpt lat="43.6496" lon="1.37935">
        <ele>141</ele>
        <time>2024-03-10T11:18:05Z</time>
      </trkpt>
      <trkpt lat="43.64958" lon="1.37933">
        <ele>142</ele>
        <time>2024-03-10T11:18:06Z</time>
      </trkpt>
      <trkpt lat="43.64956" lon="1.3793">
        <ele>142</ele>
        <time>2024-03-10T11:18:07Z</time>
      </trkpt>
      <trkpt lat="43.64953" lon="1.37925">
        <ele>142</ele>
        <time>2024-03-10T11:18:08Z</time>
      </trkpt>
      <trkpt lat="43.64953" lon="1.37925">
        <ele>142</ele>
        <time>2024-03-10T11:18:09Z</time>
      </trkpt>
      <trkpt lat="43.6495" lon="1.37919">
        <ele>142</ele>
        <time>2024-03-10T11:18:10Z</time>
      </trkpt>
      <trkpt lat="43.6495" lon="1.37919">
        <ele>142</ele>
        <time>2024-03-10T11:18:11Z</time>
      </trkpt>
      <trkpt lat="43.64949" lon="1.37913">
        <ele>142</ele>
        <time>2024-03-10T11:18:12Z</time>
      </trkpt>
      <trkpt lat="43.64949" lon="1.37913">
        <ele>142</ele>
        <time>2024-03-10T11:18:13Z</time>
      </trkpt>
      <trkpt lat="43.64948" lon="1.37909">
        <ele>142</ele>
        <time>2024-03-10T11:18:14Z</time>
      </trkpt>
      <trkpt lat="43.64947" lon="1.37905">
        <ele>142</ele>
        <time>2024-03-10T11:18:15Z</time>
      </trkpt>
      <trkpt lat="43.64945" lon="1.37898">
        <ele>142</ele>
        <time>2024-03-10T11:18:16Z</time>
      </trkpt>
      <trkpt lat="43.64945" lon="1.37898">
        <ele>142</ele>
        <time>2024-03-10T11:18:17Z</time>
      </trkpt>
      <trkpt lat="43.64944" lon="1.37895">
        <ele>142</ele>
        <time>2024-03-10T11:18:18Z</time>
      </trkpt>
      <trkpt lat="43.64943" lon="1.37887">
        <ele>142</ele>
        <time>2024-03-10T11:18:19Z</time>
      </trkpt>
      <trkpt lat="43.64943" lon="1.37887">
        <ele>142</ele>
        <time>2024-03-10T11:18:20Z</time>
      </trkpt>
      <trkpt lat="43.64939" lon="1.37881">
        <ele>142</ele>
        <time>2024-03-10T11:18:21Z</time>
      </trkpt>
      <trkpt lat="43.64939" lon="1.37881">
        <ele>142</ele>
        <time>2024-03-10T11:18:22Z</time>
      </trkpt>
      <trkpt lat="43.64937" lon="1.37879">
        <ele>142</ele>
        <time>2024-03-10T11:18:23Z</time>
      </trkpt>
      <trkpt lat="43.64934" lon="1.37877">
        <ele>142</ele>
        <time>2024-03-10T11:18:24Z</time>
      </trkpt>
      <trkpt lat="43.64931" lon="1.37871">
        <ele>142</ele>
        <time>2024-03-10T11:18:25Z</time>
      </trkpt>
      <trkpt lat="43.64928" lon="1.37869">
        <ele>143</ele>
        <time>2024-03-10T11:18:26Z</time>
      </trkpt>
      <trkpt lat="43.64926" lon="1.37867">
        <ele>143</ele>
        <time>2024-03-10T11:18:27Z</time>
      </trkpt>
      <trkpt lat="43.64926" lon="1.37867">
        <ele>143</ele>
        <time>2024-03-10T11:18:28Z</time>
      </trkpt>
      <trkpt lat="43.64925" lon="1.37864">
        <ele>143</ele>
        <time>2024-03-10T11:18:29Z</time>
      </trkpt>
      <trkpt lat="43.64922" lon="1.37862">
        <ele>143</ele>
        <time>2024-03-10T11:18:30Z</time>
      </trkpt>
      <trkpt lat="43.64919" lon="1.37856">
        <ele>143</ele>
        <time>2024-03-10T11:18:31Z</time>
      </trkpt>
      <trkpt lat="43.64919" lon="1.37856">
        <ele>143</ele>
        <time>2024-03-10T11:18:32Z</time>
      </trkpt>
      <trkpt lat="43.64918" lon="1.37853">
        <ele>143</ele>
        <time>2024-03-10T11:18:33Z</time>
      </trkpt>
      <trkpt lat="43.64916" lon="1.37845">
        <ele>143</ele>
        <time>2024-03-10T11:18:34Z</time>
      </trkpt>
      <trkpt lat="43.64916" lon="1.37845">
        <ele>143</ele>
        <time>2024-03-10T11:18:35Z</time>
      </trkpt>
      <trkpt lat="43.64916" lon="1.37841">
        <ele>143</ele>
        <time>2024-03-10T11:18:36Z</time>
      </trkpt>
      <trkpt lat="43.64915" lon="1.37837">
        <ele>143</ele>
        <time>2024-03-10T11:18:37Z</time>
      </trkpt>
      <trkpt lat="43.64915" lon="1.37833">
        <ele>143</ele>
        <time>2024-03-10T11:18:38Z</time>
      </trkpt>
      <trkpt lat="43.64913" lon="1.37826">
        <ele>143</ele>
        <time>2024-03-10T11:18:39Z</time>
      </trkpt>
      <trkpt lat="43.64912" lon="1.37822">
        <ele>143</ele>
        <time>2024-03-10T11:18:40Z</time>
      </trkpt>
      <trkpt lat="43.64912" lon="1.37822">
        <ele>143</ele>
        <time>2024-03-10T11:18:41Z</time>
      </trkpt>
      <trkpt lat="43.64912" lon="1.37819">
        <ele>143</ele>
        <time>2024-03-10T11:18:42Z</time>
      </trkpt>
      <trkpt lat="43.6491" lon="1.37811">
        <ele>143</ele>
        <time>2024-03-10T11:18:43Z</time>
      </trkpt>
      <trkpt lat="43.6491" lon="1.37811">
        <ele>143</ele>
        <time>2024-03-10T11:18:44Z</time>
      </trkpt>
      <trkpt lat="43.64908" lon="1.37804">
        <ele>143</ele>
        <time>2024-03-10T11:18:45Z</time>
      </trkpt>
      <trkpt lat="43.64907" lon="1.37801">
        <ele>143</ele>
        <time>2024-03-10T11:18:46Z</time>
      </trkpt>
      <trkpt lat="43.64906" lon="1.37797">
        <ele>143</ele>
        <time>2024-03-10T11:18:47Z</time>
      </trkpt>
      <trkpt lat="43.64906" lon="1.37794">
        <ele>143</ele>
        <time>2024-03-10T11:18:48Z</time>
      </trkpt>
      <trkpt lat="43.64906" lon="1.37794">
        <ele>143</ele>
        <time>2024-03-10T11:18:49Z</time>
      </trkpt>
      <trkpt lat="43.64904" lon="1.3779">
        <ele>143</ele>
        <time>2024-03-10T11:18:50Z</time>
      </trkpt>
      <trkpt lat="43.64903" lon="1.37787">
        <ele>143</ele>
        <time>2024-03-10T11:18:51Z</time>
      </trkpt>
      <trkpt lat="43.64901" lon="1.3778">
        <ele>143</ele>
        <time>2024-03-10T11:18:52Z</time>
      </trkpt>
      <trkpt lat="43.649" lon="1.37776">
        <ele>143</ele>
        <time>2024-03-10T11:18:53Z</time>
      </trkpt>
      <trkpt lat="43.649" lon="1.37776">
        <ele>143</ele>
        <time>2024-03-10T11:18:54Z</time>
      </trkpt>
      <trkpt lat="43.64899" lon="1.37773">
        <ele>143</ele>
        <time>2024-03-10T11:18:55Z</time>
      </trkpt>
      <trkpt lat="43.64898" lon="1.37767">
        <ele>143</ele>
        <time>2024-03-10T11:18:56Z</time>
      </trkpt>
      <trkpt lat="43.64898" lon="1.37767">
        <ele>143</ele>
        <time>2024-03-10T11:18:57Z</time>
      </trkpt>
      <trkpt lat="43.64895" lon="1.3776">
        <ele>143</ele>
        <time>2024-03-10T11:18:58Z</time>
      </trkpt>
      <trkpt lat="43.64895" lon="1.3776">
        <ele>143</ele>
        <time>2024-03-10T11:18:59Z</time>
      </trkpt>
      <trkpt lat="43.64894" lon="1.37753">
        <ele>144</ele>
        <time>2024-03-10T11:19:00Z</time>
      </trkpt>
      <trkpt lat="43.64894" lon="1.37753">
        <ele>144</ele>
        <time>2024-03-10T11:19:01Z</time>
      </trkpt>
      <trkpt lat="43.64893" lon="1.3775">
        <ele>144</ele>
        <time>2024-03-10T11:19:02Z</time>
      </trkpt>
      <trkpt lat="43.64892" lon="1.37746">
        <ele>144</ele>
        <time>2024-03-10T11:19:03Z</time>
      </trkpt>
      <trkpt lat="43.64891" lon="1.37743">
        <ele>144</ele>
        <time>2024-03-10T11:19:04Z</time>
      </trkpt>
      <trkpt lat="43.6489" lon="1.3774">
        <ele>143</ele>
        <time>2024-03-10T11:19:05Z</time>
      </trkpt>
      <trkpt lat="43.64889" lon="1.37736">
        <ele>143</ele>
        <time>2024-03-10T11:19:06Z</time>
      </trkpt>
      <trkpt lat="43.64888" lon="1.37733">
        <ele>143</ele>
        <time>2024-03-10T11:19:07Z</time>
      </trkpt>
      <trkpt lat="43.64888" lon="1.37729">
        <ele>143</ele>
        <time>2024-03-10T11:19:08Z</time>
      </trkpt>
      <trkpt lat="43.64887" lon="1.37726">
        <ele>143</ele>
        <time>2024-03-10T11:19:09Z</time>
      </trkpt>
      <trkpt lat="43.64886" lon="1.37723">
        <ele>143</ele>
        <time>2024-03-10T11:19:10Z</time>
      </trkpt>
      <trkpt lat="43.64885" lon="1.37715">
        <ele>143</ele>
        <time>2024-03-10T11:19:11Z</time>
      </trkpt>
      <trkpt lat="43.64884" lon="1.37712">
        <ele>143</ele>
        <time>2024-03-10T11:19:12Z</time>
      </trkpt>
      <trkpt lat="43.64883" lon="1.37708">
        <ele>143</ele>
        <time>2024-03-10T11:19:13Z</time>
      </trkpt>
      <trkpt lat="43.64883" lon="1.37704">
        <ele>143</ele>
        <time>2024-03-10T11:19:14Z</time>
      </trkpt>
      <trkpt lat="43.64883" lon="1.37704">
        <ele>143</ele>
        <time>2024-03-10T11:19:15Z</time>
      </trkpt>
      <trkpt lat="43.64881" lon="1.37696">
        <ele>143</ele>
        <time>2024-03-10T11:19:16Z</time>
      </trkpt>
      <trkpt lat="43.64881" lon="1.37696">
        <ele>143</ele>
        <time>2024-03-10T11:19:17Z</time>
      </trkpt>
      <trkpt lat="43.6488" lon="1.37692">
        <ele>143</ele>
        <time>2024-03-10T11:19:18Z</time>
      </trkpt>
      <trkpt lat="43.64879" lon="1.37689">
        <ele>143</ele>
        <time>2024-03-10T11:19:19Z</time>
      </trkpt>
      <trkpt lat="43.64878" lon="1.37685">
        <ele>143</ele>
        <time>2024-03-10T11:19:20Z</time>
      </trkpt>
      <trkpt lat="43.64878" lon="1.37682">
        <ele>143</ele>
        <time>2024-03-10T11:19:21Z</time>
      </trkpt>
      <trkpt lat="43.64877" lon="1.37678">
        <ele>144</ele>
        <time>2024-03-10T11:19:22Z</time>
      </trkpt>
      <trkpt lat="43.64876" lon="1.37675">
        <ele>144</ele>
        <time>2024-03-10T11:19:23Z</time>
      </trkpt>
      <trkpt lat="43.64874" lon="1.37668">
        <ele>144</ele>
        <time>2024-03-10T11:19:24Z</time>
      </trkpt>
      <trkpt lat="43.64873" lon="1.37665">
        <ele>144</ele>
        <time>2024-03-10T11:19:25Z</time>
      </trkpt>
      <trkpt lat="43.64872" lon="1.37661">
        <ele>144</ele>
        <time>2024-03-10T11:19:26Z</time>
      </trkpt>
      <trkpt lat="43.64872" lon="1.37661">
        <ele>144</ele>
        <time>2024-03-10T11:19:27Z</time>
      </trkpt>
      <trkpt lat="43.64871" lon="1.37658">
        <ele>144</ele>
        <time>2024-03-10T11:19:28Z</time>
      </trkpt>
    </trkseg>
  </trk>
</gpx>